# Wetter Temperatur Luftdruck Luftfeuchtigkeit Sichtweite Windgeschwindigkeit Windrichtung Zeit
1 Clouds 8 1016 62 10000 1.54 0 11:45 22.04.2021
2 Clouds 7 1016 66 10000 1.54 140 11:23 22.04.2021
3 Clouds 9 1016 71 10000 1.54 150 10:45 22.04.2021
4 Clouds 8 1016 76 10000 2.06 110 10:24 22.04.2021
5 Clouds 7 1016 71 10000 2.06 90 09:45 22.04.2021
6 Clouds 6 1016 81 10000 2.06 110 09:20 22.04.2021
7 Clouds 4 1015 87 10000 1.33 184 08:39 22.04.2021
8 Clouds 4 1015 78 10000 0.69 159 08:19 22.04.2021
9 Clouds 4 1014 82 10000 1.34 26 07:44 22.04.2021
10 Clouds 4 1013 93 10000 0.24 132 07:20 22.04.2021
11 Clouds 4 1014 90 10000 0.57 179 06:27 22.04.2021
12 Clouds 4 1014 90 10000 0.57 179 06:27 22.04.2021
13 Clouds 4 1014 90 10000 0.97 187 05:26 22.04.2021
14 Clouds 5 1014 91 3011 1.11 194 04:29 22.04.2021
15 Clouds 5 1015 89 1459 0.45 297 00:55 22.04.2021
16 Clouds 5 1015 86 1530 1.65 191 23:47 21.04.2021
17 Clouds 6 1015 87 623 0.45 24 23:26 21.04.2021
18 Clouds 6 1015 87 722 1.6 190 22:42 21.04.2021
19 Clouds 6 1015 87 915 1.45 177 22:24 21.04.2021
20 Clouds 8 1014 87 10000 1.03 0 21:46 21.04.2021
21 Clouds 8 1014 87 10000 1.03 0 21:24 21.04.2021
22 Clouds 6 1014 87 10000 1.03 0 20:43 21.04.2021
23 Clouds 6 1014 87 10000 2.57 300 20:20 21.04.2021
24 Clouds 7 1013 81 10000 1.03 0 19:43 21.04.2021
25 Clouds 7 1013 81 10000 1.03 0 19:43 21.04.2021
26 Clouds 9 1013 71 10000 0.51 0 19:23 21.04.2021
27 Clouds 9 1013 71 10000 2.06 280 18:46 21.04.2021
28 Clouds 9 1013 66 10000 3.6 300 18:26 21.04.2021
29 Clouds 9 1012 62 10000 4.12 180 17:48 21.04.2021
30 Clouds 9 1012 62 10000 4.63 190 17:24 21.04.2021
31 Clouds 9 1012 67 10000 6.17 210 16:49 21.04.2021
32 Clouds 11 1013 62 10000 4.63 180 15:59 21.04.2021
33 Clouds 8 1013 62 10000 6.17 190 15:40 21.04.2021
34 Clouds 8 1012 75 1124 0.45 331 14:55 21.04.2021
35 Clouds 8 1013 77 1124 0.45 317 14:36 21.04.2021
36 Clouds 8 1013 77 992 0.45 0 14:18 21.04.2021
37 Clouds 7 1013 81 1063 0.67 231 13:40 21.04.2021
38 Clouds 7 1013 82 1456 0.45 0 13:19 21.04.2021
39 Clouds 7 1013 81 1456 1.34 207 12:30 21.04.2021
40 Clouds 6 1013 80 2975 0.89 302 11:49 21.04.2021
41 Clouds 6 1013 81 5634 0.53 196 11:29 21.04.2021
42 Clouds 6 1013 82 5634 0.45 286 10:49 21.04.2021
43 Clouds 7 1013 84 10000 0.45 266 10:20 21.04.2021
44 Clouds 6 1013 87 10000 0.45 239 09:42 21.04.2021
45 Clouds 5 1013 88 10000 0.59 56 08:56 21.04.2021
46 Clouds 5 1013 89 10000 0.59 56 08:37 21.04.2021
47 Clouds 5 1012 89 10000 1.2 35 08:18 21.04.2021
48 Clouds 5 1012 92 10000 0.94 54 07:31 21.04.2021
49 Clouds 5 1012 91 10000 1.26 43 06:42 21.04.2021
50 Clouds 5 1013 91 747 0.42 41 04:54 21.04.2021
51 Clouds 5 1014 90 497 0.81 194 00:53 21.04.2021
52 Clouds 5 1014 84 80 0.45 234 23:49 20.04.2021
53 Clouds 5 1013 94 56 1.22 182 23:21 20.04.2021
54 Clouds 6 1013 93 56 1.22 182 22:40 20.04.2021
55 Clouds 6 1013 93 90 1.28 184 22:18 20.04.2021
56 Clouds 6 1012 92 90 1.28 184 21:46 20.04.2021
57 Clouds 6 1012 89 266 1.24 190 21:24 20.04.2021
58 Clouds 7 1012 89 267 1.24 190 20:42 20.04.2021
59 Clouds 7 1012 89 425 1.05 199 20:23 20.04.2021
60 Clouds 4 1011 87 425 1.05 199 19:52 20.04.2021
61 Clouds 7 1013 62 10000 2.06 190 19:34 20.04.2021
62 Clouds 7 1013 62 10000 2.06 190 18:54 20.04.2021
63 Clouds 7 1013 62 10000 2.06 190 18:35 20.04.2021
64 Clouds 7 1013 62 10000 2.06 0 17:43 20.04.2021
65 Clouds 7 1013 58 10000 1.54 120 17:22 20.04.2021
66 Clouds 7 1014 58 10000 2.06 360 16:44 20.04.2021
67 Clouds 9 1014 66 10000 1.03 0 15:51 20.04.2021
68 Clouds 9 1014 71 10000 1.54 160 15:27 20.04.2021
69 Clouds 9 1015 76 10000 1.54 150 14:57 20.04.2021
70 Clouds 8 1015 81 10000 0.51 0 14:28 20.04.2021
71 Clouds 8 1016 81 10000 1.03 0 13:32 20.04.2021
72 Clouds 7 1016 87 10000 1.54 150 12:57 20.04.2021
73 Clouds 7 1016 76 10000 0.51 0 12:35 20.04.2021
74 Clouds 7 1016 76 10000 1.03 0 11:58 20.04.2021
75 Rain 7 1016 81 10000 1.03 0 11:39 20.04.2021
76 Clouds 7 1016 81 10000 1.03 0 11:19 20.04.2021
77 Clouds 7 1016 87 10000 0.51 0 10:42 20.04.2021
78 Clouds 6 1016 81 10000 1.84 201 10:22 20.04.2021
79 Drizzle 6 1016 76 10000 1.03 0 09:20 20.04.2021
80 Clouds 5 1015 65 10000 1.03 199 08:54 20.04.2021
81 Clouds 5 1015 65 10000 0.45 0 08:19 20.04.2021
82 Clouds 5 1015 67 10000 0.47 67 07:35 20.04.2021
83 Clouds 5 1015 65 10000 0.45 232 05:56 20.04.2021
84 Clouds 5 1015 65 10000 0.26 36 05:31 20.04.2021
85 Clouds 5 1015 64 10000 0.16 350 04:41 20.04.2021
86 Clouds 6 1015 73 10000 0.89 21 00:53 20.04.2021
87 Clouds 6 1015 71 10000 1.79 34 00:27 20.04.2021
88 Clouds 6 1015 70 10000 1.34 60 23:32 19.04.2021
89 Clouds 7 1015 69 10000 1.34 29 22:46 19.04.2021
90 Clouds 7 1015 67 10000 0.45 312 22:26 19.04.2021
91 Clouds 6 1015 67 10000 1.34 311 21:46 19.04.2021
92 Clouds 7 1015 65 10000 0.89 282 21:22 19.04.2021
93 Clouds 9 1011 78 10000 0.89 67 20:41 19.04.2021
94 Clouds 8 1014 58 10000 0.89 296 20:21 19.04.2021
95 Clouds 11 1014 36 10000 6.17 190 19:50 19.04.2021
96 Clouds 10 1014 36 10000 6.17 190 19:27 19.04.2021
97 Clouds 11 1014 36 10000 6.17 190 18:59 19.04.2021
98 Clouds 11 1014 31 10000 6.69 190 18:40 19.04.2021
99 Clouds 12 1014 31 10000 6.69 190 18:19 19.04.2021
100 Clouds 12 1014 31 10000 6.69 190 18:19 19.04.2021
101 Clouds 12 1014 31 10000 6.69 180 17:44 19.04.2021
102 Clouds 13 1013 29 10000 6.69 190 17:23 19.04.2021
103 Clouds 13 1014 27 10000 6.17 180 16:43 19.04.2021
104 Clouds 12 1014 29 10000 6.17 190 16:24 19.04.2021
105 Clouds 13 1014 27 10000 5.14 190 15:42 19.04.2021
106 Clouds 13 1014 27 10000 5.66 190 15:23 19.04.2021
107 Clouds 16 1014 29 10000 6.17 180 14:51 19.04.2021
108 Clouds 17 1015 27 10000 6.17 190 14:30 19.04.2021
109 Clouds 15 1015 27 10000 4.63 210 13:50 19.04.2021
110 Clouds 14 1015 29 10000 3.6 230 13:27 19.04.2021
111 Clouds 13 1016 33 10000 3.09 220 12:47 19.04.2021
112 Clear 12 1016 40 10000 1.54 0 12:26 19.04.2021
113 Clear 11 1017 43 10000 2.57 0 11:55 19.04.2021
114 Clear 9 1017 49 10000 1.54 170 11:27 19.04.2021
115 Clear 7 1018 49 10000 1.54 0 10:55 19.04.2021
116 Clear 8 1016 44 10000 0.89 306 10:36 19.04.2021
117 Clear 3 1017 45 10000 1 339 10:18 19.04.2021
118 Clear 8 1016 61 10000 1 339 09:36 19.04.2021
119 Clear 2 1017 59 10000 1.67 13 09:18 19.04.2021
120 Clear 0 1017 68 10000 1.67 13 08:30 19.04.2021
121 Clouds 0 1017 68 10000 2.42 22 07:49 19.04.2021
122 Clouds 1 1017 69 10000 2.63 24 07:20 19.04.2021
123 Clouds 0 1017 68 10000 2.63 24 06:38 19.04.2021
124 Clouds 2 1018 69 10000 0.89 48 02:37 19.04.2021
125 Clouds 1 1007 85 10000 2.96 15 01:29 19.04.2021
126 Clouds 2 1008 87 10000 2.96 11 00:23 19.04.2021
127 Clouds 2 1008 83 10000 2.98 8 23:19 18.04.2021
128 Clouds 2 1008 80 10000 2.98 8 22:49 18.04.2021
129 Clouds -2 1008 82 10000 2.98 8 22:30 18.04.2021
130 Clouds -2 1008 82 10000 2.98 8 22:30 18.04.2021
131 Clouds -2 1008 90 10000 2.88 7 21:41 18.04.2021
132 Clouds -2 1008 89 10000 2.85 2 21:20 18.04.2021
133 Clouds 8 1017 25 10000 5.14 360 20:40 18.04.2021
134 Clouds 8 1017 25 10000 5.14 360 20:20 18.04.2021
135 Clouds 9 1017 25 10000 5.14 360 19:49 18.04.2021
136 Clouds 9 1017 25 10000 5.14 360 19:29 18.04.2021
137 Clouds 9 1017 25 10000 6.17 340 18:54 18.04.2021
138 Clouds 9 1016 23 10000 4.63 360 18:31 18.04.2021
139 Clouds 8 1016 21 10000 3.09 160 17:50 18.04.2021
140 Clouds 10 1016 26 10000 2.57 230 17:31 18.04.2021
141 Clouds 10 1016 26 10000 2.57 230 17:31 18.04.2021
142 Clouds 9 1016 33 10000 3.09 220 16:55 18.04.2021
143 Clouds 9 1016 30 10000 3.6 220 16:36 18.04.2021
144 Clouds 12 1017 26 10000 1.54 0 15:57 18.04.2021
145 Clouds 11 1017 26 10000 2.57 0 15:38 18.04.2021
146 Clouds 11 1017 26 10000 2.57 0 15:18 18.04.2021
147 Clouds 11 1017 23 10000 3.09 0 14:41 18.04.2021
148 Clouds 11 1017 24 10000 3.6 180 14:18 18.04.2021
149 Clouds 10 1017 26 10000 2.57 150 13:45 18.04.2021
150 Clouds 10 1018 26 10000 3.09 0 13:27 18.04.2021
151 Clouds 9 1019 27 10000 2.06 140 12:37 18.04.2021
152 Clouds 8 1019 31 10000 2.06 0 11:55 18.04.2021
153 Clouds 7 1019 36 10000 2.06 160 11:28 18.04.2021
154 Clouds 5 1018 40 10000 0.89 37 10:58 18.04.2021
155 Clouds 5 1018 41 10000 0.89 234 10:40 18.04.2021
156 Clouds 3 1018 43 10000 2.84 360 09:58 18.04.2021
157 Clouds 3 1018 44 10000 2.84 360 09:39 18.04.2021
158 Clouds 0 1020 57 10000 3 9 09:19 18.04.2021
159 Clouds 0 1018 43 10000 0.45 275 08:41 18.04.2021
160 Clouds -2 1005 85 10000 3.35 13 08:19 18.04.2021
161 Clouds -2 1019 59 10000 3.35 13 07:39 18.04.2021
162 Clouds -2 1004 92 10000 0.89 21 05:48 18.04.2021
163 Clouds -2 1004 93 10000 0.89 30 05:26 18.04.2021
164 Clouds -2 1005 84 10000 3.26 10 03:37 18.04.2021
165 Clouds -2 1020 57 10000 3.12 11 02:22 18.04.2021
166 Clouds -3 1006 85 10000 3.08 12 00:41 18.04.2021
167 Clouds -2 1005 90 10000 3.19 9 23:40 17.04.2021
168 Clouds -4 1005 90 10000 3.25 8 22:59 17.04.2021
169 Clouds -4 1005 93 10000 3.27 8 22:39 17.04.2021
170 Clouds -3 1005 92 10000 3.34 6 22:20 17.04.2021
171 Clouds -6 1005 87 10000 0.45 208 21:38 17.04.2021
172 Clouds -6 1004 92 10000 3.27 4 21:19 17.04.2021
173 Clouds 2 1015 23 10000 4.63 0 20:28 17.04.2021
174 Clouds 4 1015 23 10000 4.63 0 19:46 17.04.2021
175 Clouds 4 1015 23 10000 4.63 0 19:22 17.04.2021
176 Clouds 5 1015 23 10000 5.14 0 18:58 17.04.2021
177 Clouds 5 1014 25 10000 4.12 0 18:37 17.04.2021
178 Clouds 4 1014 25 10000 5.66 0 18:00 17.04.2021
179 Clouds 4 1014 25 10000 6.69 40 17:40 17.04.2021
180 Clouds 6 1014 24 10000 7.72 40 16:55 17.04.2021
181 Clouds 9 1014 24 10000 5.66 0 16:28 17.04.2021
182 Clouds 9 1014 25 10000 5.14 0 15:53 17.04.2021
183 Clouds 8 1014 24 10000 5.14 40 14:51 17.04.2021
184 Clouds 8 1014 24 10000 3.6 0 14:32 17.04.2021
185 Clouds 8 1015 25 10000 4.12 0 13:49 17.04.2021
186 Clouds 7 1015 27 10000 5.14 50 13:25 17.04.2021
187 Clouds 6 1015 25 10000 5.14 60 12:42 17.04.2021
188 Clouds 6 1015 25 10000 4.63 0 12:18 17.04.2021
189 Clouds 5 1015 27 10000 3.6 70 11:40 17.04.2021
190 Clouds 4 1015 27 10000 3.6 70 11:22 17.04.2021
191 Clouds 3 1015 40 10000 1.34 65 10:43 17.04.2021
192 Clouds -1 1015 43 10000 0.89 352 10:25 17.04.2021
193 Clouds -1 1002 88 10000 3.14 356 09:22 17.04.2021
194 Clouds -2 1002 90 10000 3.24 356 08:38 17.04.2021
195 Clouds -3 1002 86 10000 2.85 356 08:19 17.04.2021
196 Clouds -3 1002 91 10000 0.45 25 06:43 17.04.2021
197 Clouds -4 1002 89 10000 0.45 354 03:51 17.04.2021
198 Clouds -2 1002 89 10000 2.56 351 02:40 17.04.2021
199 Clouds -4 1003 93 10000 2.39 349 00:44 17.04.2021
200 Clouds -7 1003 93 10000 2.63 354 00:23 17.04.2021
201 Clouds -6 1004 90 10000 2.64 354 23:43 16.04.2021
202 Clouds -7 1004 84 10000 2.81 358 23:20 16.04.2021
203 Clouds -6 1004 79 10000 2.81 358 22:42 16.04.2021
204 Clouds -6 1004 80 10000 1.34 18 22:20 16.04.2021
205 Clouds -6 1004 80 10000 3.01 3 21:49 16.04.2021
206 Clouds -2 1004 89 10000 3.31 4 21:28 16.04.2021
207 Clouds -2 1004 82 10000 3.31 4 20:47 16.04.2021
208 Clouds 2 1014 22 10000 6.17 330 20:24 16.04.2021
209 Clouds 4 1014 22 10000 6.17 330 19:50 16.04.2021
210 Clouds 3 1014 22 10000 6.17 330 19:22 16.04.2021
211 Clouds 9 1014 57 10000 5.14 230 18:28 16.04.2021
212 Clouds 5 1014 53 10000 4.12 220 17:54 16.04.2021
213 Clouds 5 1014 57 10000 4.12 200 17:20 16.04.2021
214 Clouds 6 1014 57 10000 4.63 190 16:57 16.04.2021
215 Clouds 6 1014 57 10000 6.69 180 16:38 16.04.2021
216 Clouds 6 1014 57 10000 6.69 180 16:20 16.04.2021
217 Clouds 5 1014 57 10000 6.69 180 15:39 16.04.2021
218 Clouds 5 1014 61 10000 7.2 190 14:56 16.04.2021
219 Clouds 5 1015 61 10000 6.69 190 14:37 16.04.2021
220 Clouds 5 1015 61 10000 5.66 200 13:58 16.04.2021
221 Clouds 9 1015 57 10000 5.66 180 13:36 16.04.2021
222 Clouds 8 1015 57 10000 5.66 180 13:18 16.04.2021
223 Clouds 8 1015 66 10000 5.66 180 12:43 16.04.2021
224 Clouds 8 1015 66 10000 5.14 200 12:21 16.04.2021
225 Clouds 7 1015 61 10000 3.6 220 11:43 16.04.2021
226 Clouds 7 1015 76 10000 2.57 210 11:23 16.04.2021
227 Clear 3 1014 52 10000 1.92 349 10:43 16.04.2021
228 Clear 2 1014 54 10000 2.19 359 10:23 16.04.2021
229 Clear 2 1015 63 10000 2.19 359 09:44 16.04.2021
230 Clear 1 1015 67 10000 2.59 7 09:23 16.04.2021
231 Clear 0 1015 71 10000 2.59 7 08:45 16.04.2021
232 Clouds -1 1015 71 10000 2.88 14 08:24 16.04.2021
233 Clouds 0 1015 70 10000 0.45 0 07:45 16.04.2021
234 Clouds -2 1002 75 10000 2.92 16 07:25 16.04.2021
235 Clouds -2 1002 76 10000 2.92 16 06:41 16.04.2021
236 Clouds -1 1002 72 10000 2.87 16 05:32 16.04.2021
237 Clouds 1 1004 75 10000 2.47 19 01:47 16.04.2021
238 Clouds 1 1005 76 10000 2.29 15 00:45 16.04.2021
239 Clouds 1 1005 76 10000 2.47 13 00:22 16.04.2021
240 Clouds 2 1005 75 10000 2.47 13 23:56 15.04.2021
241 Clouds 2 1005 76 7316 1.87 16 23:32 15.04.2021
242 Clouds 3 1006 80 7393 1.86 16 22:50 15.04.2021
243 Clouds 3 1005 80 5856 1.64 17 22:24 15.04.2021
244 Clouds 3 1005 82 5856 0.45 6 21:44 15.04.2021
245 Clouds 3 1005 82 5856 0.45 6 21:44 15.04.2021
246 Clouds 3 1005 82 8832 2.02 9 21:26 15.04.2021
247 Clouds 4 1005 80 8832 2.02 9 20:49 15.04.2021
248 Clouds 4 1005 80 10000 2.08 8 20:26 15.04.2021
249 Clouds 6 1015 66 10000 4.63 0 19:57 15.04.2021
250 Clouds 6 1015 66 10000 4.63 0 19:39 15.04.2021
251 Clouds 7 1015 66 10000 4.63 0 19:20 15.04.2021
252 Clouds 7 1014 58 10000 5.14 200 18:39 15.04.2021
253 Clouds 8 1014 58 10000 5.14 200 18:18 15.04.2021
254 Clouds 8 1014 51 10000 5.66 190 17:53 15.04.2021
255 Clouds 9 1014 51 10000 5.66 200 17:30 15.04.2021
256 Clouds 9 1014 44 10000 5.66 200 16:44 15.04.2021
257 Clouds 11 1014 39 10000 6.69 190 16:24 15.04.2021
258 Clouds 10 1015 41 10000 4.63 180 15:50 15.04.2021
259 Clouds 11 1015 39 10000 4.63 190 15:28 15.04.2021
260 Clouds 11 1015 44 10000 3.6 200 14:44 15.04.2021
261 Clouds 14 1016 44 10000 3.6 190 14:44 15.04.2021
262 Clouds 14 1016 44 10000 3.6 190 14:26 15.04.2021
263 Clouds 13 1017 41 10000 3.6 180 13:51 15.04.2021
264 Clouds 13 1017 47 10000 2.57 170 13:25 15.04.2021
265 Clouds 12 1018 54 10000 2.57 160 12:50 15.04.2021
266 Clouds 11 1018 62 10000 2.06 0 12:27 15.04.2021
267 Clouds 10 1019 71 10000 2.06 180 11:48 15.04.2021
268 Clouds 10 1019 81 10000 2.06 170 11:29 15.04.2021
269 Clouds 9 1019 71 10000 1.54 130 10:58 15.04.2021
270 Clouds 8 1017 67 10000 0.99 271 10:40 15.04.2021
271 Clouds 8 1017 67 10000 0.99 271 10:40 15.04.2021
272 Clouds 6 1017 69 10000 0.77 259 10:21 15.04.2021
273 Clouds 4 1018 67 10000 0.77 259 09:30 15.04.2021
274 Clouds 3 1018 68 10000 0.37 285 08:53 15.04.2021
275 Clouds 2 1018 72 10000 0.45 306 08:30 15.04.2021
276 Clouds 3 1018 71 10000 0.95 14 07:36 15.04.2021
277 Clouds 2 1018 71 10000 0.45 0 06:56 15.04.2021
278 Clouds 2 1018 72 10000 0.45 229 06:35 15.04.2021
279 Clouds 3 1018 71 10000 0.89 16 04:54 15.04.2021
280 Clouds 3 1018 69 10000 0.58 347 03:59 15.04.2021
281 Clouds 6 1024 18 10000 1.5 37 23:59 14.04.2021
282 Clouds 6 1023 15 10000 1.5 37 23:32 14.04.2021
283 Clouds 4 1008 77 10000 1.9 34 22:50 14.04.2021
284 Clouds 4 1008 77 10000 2.01 24 22:29 14.04.2021
285 Clouds 4 1008 79 10000 2.01 24 21:56 14.04.2021
286 Clouds 4 1008 79 10000 2.01 24 21:37 14.04.2021
287 Clouds 4 1016 58 10000 1.34 153 21:18 14.04.2021
288 Clouds 6 1008 76 10000 2.06 13 20:37 14.04.2021
289 Clouds 6 1015 51 10000 0.45 194 20:19 14.04.2021
290 Clouds 5 1007 76 10000 1.86 5 19:39 14.04.2021
291 Clouds 6 1007 73 10000 1.38 9 19:18 14.04.2021
292 Clouds 7 1007 67 10000 1.38 9 18:50 14.04.2021
293 Clouds 9 1007 64 10000 0.47 360 18:19 14.04.2021
294 Clouds 7 1007 59 10000 0.47 360 17:55 14.04.2021
295 Clouds 10 1007 59 10000 0.45 7 17:24 14.04.2021
296 Clouds 10 1008 56 10000 0.53 295 16:43 14.04.2021
297 Clouds 11 1008 52 10000 1.1 309 16:22 14.04.2021
298 Clouds 11 1008 53 10000 1.1 309 15:40 14.04.2021
299 Clouds 12 1016 41 10000 2.24 212 15:22 14.04.2021
300 Clouds 12 1016 33 10000 2.68 237 14:42 14.04.2021
301 Clouds 14 1016 32 10000 1.79 333 14:22 14.04.2021
302 Clouds 14 1016 31 10000 1.34 273 13:48 14.04.2021
303 Clouds 12 1018 42 10000 1.79 0 12:54 14.04.2021
304 Clouds 13 1018 46 10000 1.79 219 12:32 14.04.2021
305 Clouds 10 1018 53 10000 1.46 245 11:42 14.04.2021
306 Clouds 10 1019 55 10000 0.45 317 11:23 14.04.2021
307 Clouds 9 1022 11 10000 1.09 255 10:35 14.04.2021
308 Clouds 5 1008 72 10000 0.85 293 09:57 14.04.2021
309 Clouds 5 1008 72 10000 0.85 293 09:57 14.04.2021
310 Clouds 5 1008 74 10000 0.85 293 09:38 14.04.2021
311 Clouds 2 1020 76 10000 0.81 326 09:18 14.04.2021
312 Clouds 4 1009 71 10000 0.86 325 08:33 14.04.2021
313 Clouds 1 1020 77 10000 0.45 210 07:51 14.04.2021
314 Clouds 2 1020 76 10000 1.53 19 06:39 14.04.2021
315 Clouds 2 1020 75 10000 1.06 9 05:52 14.04.2021
316 Clouds 6 1020 70 10000 0.45 11 02:57 14.04.2021
317 Clouds 5 1021 63 10000 0.13 357 01:28 14.04.2021
318 Clouds 5 1021 61 10000 0.13 357 00:34 14.04.2021
319 Clouds 5 1021 63 10000 0.11 279 23:38 13.04.2021
320 Clouds 6 1021 62 10000 0.24 211 22:45 13.04.2021
321 Clouds 6 1021 61 10000 0.35 35 22:23 13.04.2021
322 Clouds 7 1021 59 10000 0.35 35 21:51 13.04.2021
323 Clouds 7 1021 59 10000 0.35 35 21:33 13.04.2021
324 Clouds 9 1020 53 10000 0.65 18 20:55 13.04.2021
325 Clouds 9 1020 53 10000 0.59 11 20:55 13.04.2021
326 Clouds 10 1020 52 10000 0.89 39 20:37 13.04.2021
327 Clouds 6 1020 52 10000 0.69 269 20:19 13.04.2021
328 Clouds 9 1020 38 10000 3.13 236 19:27 13.04.2021
329 Clouds 9 1020 38 10000 3.13 236 19:27 13.04.2021
330 Clouds 9 1020 37 10000 3.13 277 18:58 13.04.2021
331 Clouds 9 1020 38 10000 2.68 243 18:33 13.04.2021
332 Clouds 11 1019 37 10000 3.13 228 17:44 13.04.2021
333 Clouds 11 1020 37 10000 3.13 272 17:23 13.04.2021
334 Clouds 11 1019 36 10000 3.13 254 16:55 13.04.2021
335 Clouds 12 1019 35 10000 3.13 231 16:37 13.04.2021
336 Clouds 14 1019 35 10000 2.24 287 16:18 13.04.2021
337 Clouds 12 1020 30 10000 3.13 270 15:39 13.04.2021
338 Clouds 14 1020 27 10000 1.79 266 14:58 13.04.2021
339 Clouds 14 1020 21 10000 2.68 236 14:25 13.04.2021
340 Clouds 13 1021 19 10000 2.68 248 13:57 13.04.2021
341 Clouds 13 1021 20 10000 2.68 282 13:39 13.04.2021
342 Clouds 13 1021 20 10000 2.24 231 13:20 13.04.2021
343 Clouds 11 1022 28 10000 0.45 216 12:46 13.04.2021
344 Clouds 10 1022 23 10000 0.45 70 12:22 13.04.2021
345 Clouds 8 1022 29 10000 0.98 285 11:38 13.04.2021
346 Clouds 7 1024 45 10000 0.89 244 10:58 13.04.2021
347 Clouds 7 1024 47 10000 0.89 201 10:58 13.04.2021
348 Clouds 8 1023 51 10000 0.45 103 10:40 13.04.2021
349 Clouds 4 1012 34 10000 1.24 1 10:19 13.04.2021
350 Clouds -1 1012 35 10000 1.24 1 09:49 13.04.2021
351 Clouds 2 1012 70 10000 1.94 18 09:26 13.04.2021
352 Clouds -1 1012 69 10000 1.82 21 08:44 13.04.2021
353 Clouds -1 1024 59 10000 2.59 22 08:22 13.04.2021
354 Clouds -1 1023 59 10000 2.59 22 07:43 13.04.2021
355 Clouds -1 1023 60 10000 2.77 22 07:23 13.04.2021
356 Clouds 0 1023 65 10000 2.59 21 06:22 13.04.2021
357 Clouds 0 1024 63 10000 2.5 13 03:41 13.04.2021
358 Clouds 2 1025 55 10000 1.34 55 01:31 13.04.2021
359 Clouds 3 1025 50 10000 0.89 39 23:51 12.04.2021
360 Clouds 1 1025 53 10000 0.45 52 23:32 12.04.2021
361 Clouds 4 1022 57 10000 3.25 18 22:50 12.04.2021
362 Clouds 7 1028 59 10000 0.45 183 22:31 12.04.2021
363 Clouds -1 1031 89 10000 3.45 18 21:48 12.04.2021
364 Clear 5 1021 54 10000 0.45 250 21:25 12.04.2021
365 Clear 7 1020 75 10000 1.34 23 20:46 12.04.2021
366 Clear 4 1012 88 10000 3.08 4 20:26 12.04.2021
367 Clouds 7 1021 15 10000 5.14 340 19:59 12.04.2021
368 Clouds 8 1021 15 10000 5.14 340 19:39 12.04.2021
369 Clouds 8 1021 15 10000 5.14 340 19:20 12.04.2021
370 Clouds 8 1021 15 10000 5.14 340 18:48 12.04.2021
371 Clouds 8 1021 12 10000 4.63 340 18:30 12.04.2021
372 Clouds 9 1021 13 10000 5.66 320 17:47 12.04.2021
373 Clouds 9 1021 12 10000 5.14 320 17:25 12.04.2021
374 Clouds 9 1021 12 10000 4.63 310 16:49 12.04.2021
375 Clouds 8 1021 12 10000 3.6 0 16:30 12.04.2021
376 Clouds 8 1021 12 10000 3.6 0 16:30 12.04.2021
377 Clouds 14 1021 12 10000 4.63 320 15:56 12.04.2021
378 Clouds 14 1022 13 10000 2.57 0 15:33 12.04.2021
379 Clouds 11 1022 16 10000 2.06 0 14:55 12.04.2021
380 Clouds 10 1022 20 10000 2.06 0 14:37 12.04.2021
381 Clouds 9 1022 26 10000 2.06 0 13:59 12.04.2021
382 Clouds 8 1022 28 10000 1.54 0 13:39 12.04.2021
383 Clouds 9 1022 28 10000 1.54 0 13:18 12.04.2021
384 Clouds 7 1023 29 10000 2.57 140 12:38 12.04.2021
385 Clouds 7 1023 29 10000 2.57 140 12:20 12.04.2021
386 Clouds 6 1023 34 10000 2.57 140 11:26 12.04.2021
387 Clouds 5 1022 49 10000 2.06 130 10:51 12.04.2021
388 Clouds -1 1024 70 10000 3.52 4 10:27 12.04.2021
389 Clouds 2 1021 56 10000 3.52 4 09:51 12.04.2021
390 Clouds -3 1023 83 10000 3.75 6 09:23 12.04.2021
391 Clouds -3 1023 83 10000 3.75 6 09:23 12.04.2021
392 Clouds -2 1009 94 10000 3.75 6 08:44 12.04.2021
393 Clouds -2 1008 95 10000 3.69 3 07:45 12.04.2021
394 Clouds -2 1008 94 10000 3.69 1 07:22 12.04.2021
395 Clouds -2 1007 94 10000 3.48 359 06:29 12.04.2021
396 Clouds -1 1007 95 10000 3.48 359 05:45 12.04.2021
397 Clouds 0 1008 95 10000 3.52 7 02:26 12.04.2021
398 Clouds 0 1007 95 10000 3.35 3 00:27 12.04.2021
399 Clouds 1 1007 95 10000 3.34 2 23:51 11.04.2021
400 Clouds 1 1007 94 10000 3.35 3 23:31 11.04.2021
401 Clouds 1 1019 91 7644 3.42 1 22:49 11.04.2021
402 Snow 1 1018 86 262 0.45 48 22:27 11.04.2021
403 Clouds 1 1018 89 262 0.45 40 21:58 11.04.2021
404 Clouds 1 1018 90 262 3.24 6 21:32 11.04.2021
405 Clouds 1 1017 88 348 2.85 6 20:59 11.04.2021
406 Rain 1 1015 87 10000 0.51 0 20:39 11.04.2021
407 Clouds 5 1015 87 10000 0.51 0 20:20 11.04.2021
408 Clouds 2 1015 87 10000 0.51 0 19:40 11.04.2021
409 Clouds 5 1015 87 10000 0.51 0 19:19 11.04.2021
410 Clouds 5 1015 87 10000 0.51 0 19:19 11.04.2021
411 Clouds 6 1014 93 10000 2.57 0 18:47 11.04.2021
412 Clouds 6 1014 81 10000 3.09 300 18:26 11.04.2021
413 Clouds 6 1013 76 10000 2.57 350 17:50 11.04.2021
414 Clouds 7 1013 76 10000 7.2 300 17:30 11.04.2021
415 Clouds 7 1013 76 10000 7.2 300 17:30 11.04.2021
416 Clouds 7 1013 76 10000 7.2 300 17:30 11.04.2021
417 Clouds 7 1012 76 10000 4.12 250 16:59 11.04.2021
418 Rain 8 1012 62 10000 5.14 190 16:40 11.04.2021
419 Rain 8 1012 62 10000 5.14 190 16:20 11.04.2021
420 Clouds 6 1012 67 10000 3.6 210 15:42 11.04.2021
421 Clouds 10 1012 71 10000 3.09 210 15:22 11.04.2021
422 Clouds 10 1013 76 10000 3.09 230 14:48 11.04.2021
423 Clouds 10 1013 71 10000 1.54 0 14:19 11.04.2021
424 Clouds 10 1013 71 10000 1.54 140 13:39 11.04.2021
425 Clouds 10 1013 71 10000 1.54 140 13:21 11.04.2021
426 Clouds 9 1014 81 10000 1.03 0 12:26 11.04.2021
427 Clouds 8 1014 81 10000 1.03 0 11:53 11.04.2021
428 Clouds 8 1013 87 10000 1.03 180 11:33 11.04.2021
429 Clouds 6 1013 80 10000 2.98 211 10:56 11.04.2021
430 Clouds 6 1012 80 10000 2.98 211 10:38 11.04.2021
431 Clouds 6 1012 80 10000 0.89 235 10:20 11.04.2021
432 Clouds 5 1012 85 10000 0.45 0 09:38 11.04.2021
433 Clouds 5 1012 88 10000 1.92 209 09:20 11.04.2021
434 Clouds 5 1012 84 10000 1.92 209 08:38 11.04.2021
435 Clouds 4 1012 83 10000 0.63 199 07:37 11.04.2021
436 Clouds 5 1012 83 10000 0.29 201 07:18 11.04.2021
437 Clouds 5 1010 92 10000 0.39 206 05:44 11.04.2021
438 Clouds 5 1010 89 10000 0.7 193 05:21 11.04.2021
439 Clouds 5 1011 90 10000 0.72 193 04:35 11.04.2021
440 Clouds 5 1014 49 6703 0.59 208 02:58 11.04.2021
441 Clouds 6 1012 88 10000 0.94 217 00:40 11.04.2021
442 Clouds 6 1012 88 10000 0.94 217 00:40 11.04.2021
443 Clouds 6 1013 85 10000 0.7 211 23:52 10.04.2021
444 Clouds 7 1012 85 10000 0.7 211 23:30 10.04.2021
445 Clouds 7 1013 88 6695 0.83 204 22:51 10.04.2021
446 Clouds 7 1013 85 1030 1.85 201 22:24 10.04.2021
447 Clouds 8 1012 84 1030 1.85 201 21:51 10.04.2021
448 Clouds 8 1012 83 2050 2.07 204 21:23 10.04.2021
449 Clouds 9 1012 81 2050 2.07 204 20:48 10.04.2021
450 Clouds 10 1012 71 10000 4.63 240 20:29 10.04.2021
451 Clouds 11 1012 71 10000 4.63 240 19:46 10.04.2021
452 Clouds 10 1012 71 10000 4.63 240 19:27 10.04.2021
453 Clouds 10 1012 71 10000 5.14 250 18:54 10.04.2021
454 Clouds 10 1012 71 10000 5.14 230 18:34 10.04.2021
455 Clouds 11 1012 67 10000 4.12 220 17:44 10.04.2021
456 Clouds 11 1012 62 10000 4.12 210 17:23 10.04.2021
457 Clouds 12 1013 62 10000 2.06 210 16:31 10.04.2021
458 Clouds 12 1013 58 10000 1.03 0 15:56 10.04.2021
459 Clouds 11 1014 62 10000 1.03 0 15:34 10.04.2021
460 Clouds 11 1014 71 10000 1.54 130 14:47 10.04.2021
461 Clouds 10 1015 71 10000 1.03 0 14:25 10.04.2021
462 Clouds 9 1015 76 10000 1.03 0 13:46 10.04.2021
463 Clouds 9 1016 76 10000 1.03 0 13:28 10.04.2021
464 Clouds 8 1016 87 10000 0.51 0 12:37 10.04.2021
465 Clouds 7 1017 93 10000 1.03 0 11:52 10.04.2021
466 Clouds 6 1017 87 10000 0.51 0 11:28 10.04.2021
467 Clouds 5 1016 82 10000 0.45 0 10:57 10.04.2021
468 Clouds 5 1016 82 10000 0.45 0 10:39 10.04.2021
469 Clouds 4 1016 86 10000 1.76 195 10:21 10.04.2021
470 Clouds 4 1016 88 10000 1.31 209 09:29 10.04.2021
471 Clouds 3 1016 90 10000 1.45 199 08:54 10.04.2021
472 Clouds 3 1016 89 1811 1.14 193 08:30 10.04.2021
473 Clouds 3 1016 90 1910 1.15 193 07:52 10.04.2021
474 Clouds 3 1016 88 480 0.45 67 07:21 10.04.2021
475 Clouds 3 1016 90 725 0.89 57 06:27 10.04.2021
476 Clouds 4 1016 88 773 1.45 208 04:42 10.04.2021
477 Clouds 5 1018 92 681 1.53 197 02:54 10.04.2021
478 Clouds 4 1018 92 960 1.71 187 02:35 10.04.2021
479 Clouds 4 1018 91 381 0.44 231 00:50 10.04.2021
480 Clouds 4 1018 92 343 0.45 26 00:29 10.04.2021
481 Clouds 6 1019 92 343 1.38 227 23:44 09.04.2021
482 Clouds 6 1019 90 342 1.34 277 23:18 09.04.2021
483 Clouds 6 1019 87 342 1.79 246 22:42 09.04.2021
484 Clouds 6 1019 87 336 1.79 275 22:22 09.04.2021
485 Clouds 4 1018 88 336 2.24 350 21:39 09.04.2021
486 Clouds 7 1018 90 377 2.24 317 21:19 09.04.2021
487 Clouds 5 1018 92 377 0.89 303 20:44 09.04.2021
488 Clouds 5 1019 87 10000 1.03 0 20:23 09.04.2021
489 Clouds 6 1019 87 10000 1.03 0 19:56 09.04.2021
490 Clouds 6 1019 87 10000 1.03 0 19:37 09.04.2021
491 Clouds 5 1019 87 10000 1.03 0 19:19 09.04.2021
492 Clouds 6 1019 93 10000 2.06 220 18:41 09.04.2021
493 Clouds 6 1019 93 10000 2.06 220 18:19 09.04.2021
494 Clouds 6 1020 93 10000 3.6 240 17:40 09.04.2021
495 Clouds 6 1020 93 10000 5.66 240 16:56 09.04.2021
496 Clouds 7 1020 81 10000 6.69 210 16:36 09.04.2021
497 Clouds 8 1019 57 10000 6.17 200 15:57 09.04.2021
498 Clouds 9 1019 46 10000 7.2 200 15:37 09.04.2021
499 Clouds 9 1019 46 10000 7.2 200 15:18 09.04.2021
500 Clouds 9 1019 47 10000 8.23 190 14:40 09.04.2021
501 Clouds 10 1019 47 10000 4.63 190 13:53 09.04.2021
502 Clouds 10 1020 50 10000 3.09 190 13:26 09.04.2021
503 Clouds 13 1021 50 10000 2.57 140 12:54 09.04.2021
504 Clouds 12 1021 66 10000 1.03 0 12:36 09.04.2021
505 Clouds 10 1022 71 10000 1.54 140 11:46 09.04.2021
506 Clouds 6 1022 70 10000 1.03 0 11:23 09.04.2021
507 Clouds 6 1022 75 10000 1.54 0 10:47 09.04.2021
508 Clouds 5 1022 81 10000 1.03 0 10:29 09.04.2021
509 Clouds 4 1022 87 10000 1.03 0 09:49 09.04.2021
510 Clear 4 1022 87 10000 0.51 0 09:22 09.04.2021
511 Clear 4 1022 87 10000 1.03 200 08:51 09.04.2021
512 Clouds 3 1020 73 10000 0.21 146 07:38 09.04.2021
513 Clouds 3 1020 72 10000 0.24 156 06:34 09.04.2021
514 Clouds 3 1021 72 10000 0.11 59 05:56 09.04.2021
515 Clouds 3 1021 71 10000 0.29 17 03:53 09.04.2021
516 Clouds 4 1020 78 10000 1.34 68 01:35 09.04.2021
517 Clouds 5 1020 75 10000 0.89 55 00:37 09.04.2021
518 Clouds 5 1020 73 10000 0.89 47 00:19 09.04.2021
519 Clouds 6 1020 66 10000 0.89 22 23:21 08.04.2021
520 Clouds 7 1020 66 10000 0.89 303 22:43 08.04.2021
521 Clouds 8 1020 63 10000 1.34 304 22:22 08.04.2021
522 Clouds 8 1016 31 10000 0.45 189 21:55 08.04.2021
523 Clouds 9 1015 30 10000 0.45 189 21:36 08.04.2021
524 Clouds 9 1019 61 10000 0.45 336 21:18 08.04.2021
525 Clouds 11 1015 32 10000 1.34 146 20:47 08.04.2021
526 Clouds 12 1018 52 10000 1.74 211 20:25 08.04.2021
527 Clear 16 1019 36 10000 5.66 230 19:42 08.04.2021
528 Clear 12 1019 36 10000 5.66 230 19:19 08.04.2021
529 Clear 13 1019 36 10000 5.66 230 18:45 08.04.2021
530 Clear 13 1019 36 10000 4.63 220 18:20 08.04.2021
531 Clear 13 1019 33 10000 6.17 240 17:49 08.04.2021
532 Clouds 14 1020 31 10000 3.09 200 17:24 08.04.2021
533 Clouds 13 1020 36 10000 4.63 220 16:49 08.04.2021
534 Clear 13 1021 36 10000 5.14 220 16:28 08.04.2021
535 Clear 13 1021 36 10000 5.14 220 15:47 08.04.2021
536 Clear 13 1021 36 10000 5.66 240 15:28 08.04.2021
537 Clear 12 1021 36 10000 4.63 230 14:45 08.04.2021
538 Clear 12 1022 36 10000 4.12 230 14:24 08.04.2021
539 Clear 12 1022 41 10000 3.09 0 13:55 08.04.2021
540 Clear 14 1023 41 10000 1.54 150 13:36 08.04.2021
541 Clear 11 1023 41 10000 1.54 150 13:18 08.04.2021
542 Clouds 12 1024 50 10000 2.57 170 12:38 08.04.2021
543 Clouds 10 1024 57 10000 1.54 0 11:59 08.04.2021
544 Clouds 12 1024 57 10000 1.54 140 11:37 08.04.2021
545 Clouds 9 1024 65 10000 1.54 0 10:56 08.04.2021
546 Clouds 5 1023 69 10000 0.45 265 10:28 08.04.2021
547 Clouds 3 1011 31 10000 1.26 235 09:51 08.04.2021
548 Clouds 3 1011 36 10000 1.26 235 09:33 08.04.2021
549 Clouds 2 1023 74 10000 0.45 209 08:45 08.04.2021
550 Clouds 2 1023 74 10000 0.45 209 08:45 08.04.2021
551 Clouds 2 1023 74 10000 0.45 209 08:45 08.04.2021
552 Clouds 2 1023 74 10000 1.34 222 08:24 08.04.2021
553 Clouds 2 1023 74 10000 0.89 246 07:53 08.04.2021
554 Clouds 2 1023 79 9400 1.14 241 06:48 08.04.2021
555 Clouds 2 1024 69 10000 1.87 213 02:26 08.04.2021
556 Clouds 3 1024 66 10000 1.53 219 00:34 08.04.2021
557 Clouds 3 1025 14 10000 1.17 220 23:55 07.04.2021
558 Clouds 3 1025 14 10000 1.17 220 23:37 07.04.2021
559 Clouds 4 1023 56 3785 0.99 216 23:18 07.04.2021
560 Clouds 3 1025 14 3785 0.99 216 22:43 07.04.2021
561 Clouds 4 1025 14 2821 0.94 211 22:22 07.04.2021
562 Clouds 4 1025 14 2821 0.94 211 22:22 07.04.2021
563 Clouds 4 1025 14 2821 0.94 211 22:22 07.04.2021
564 Clouds 5 1024 13 2821 0.94 211 21:41 07.04.2021
565 Clouds 6 1021 46 6035 1.34 56 21:20 07.04.2021
566 Clouds 10 1020 45 6035 2.68 109 20:41 07.04.2021
567 Clear 8 1020 40 10000 1.79 85 20:20 07.04.2021
568 Clear 6 1019 12 10000 3.58 0 19:42 07.04.2021
569 Clear 6 1008 50 10000 1.54 228 19:22 07.04.2021
570 Clear 2 1008 47 10000 1.54 228 18:42 07.04.2021
571 Clear 7 1008 43 10000 1.05 283 18:19 07.04.2021
572 Clear 2 1008 41 10000 1.05 283 17:50 07.04.2021
573 Clear 7 1008 40 10000 1.05 283 17:32 07.04.2021
574 Clear 8 1008 43 10000 1.72 339 16:47 07.04.2021
575 Clear 7 1008 42 10000 2.66 350 16:22 07.04.2021
576 Clear 8 1008 40 10000 2.66 350 15:56 07.04.2021
577 Clear 13 1016 40 10000 0.89 291 15:38 07.04.2021
578 Clear 11 1017 14 10000 2.24 98 14:50 07.04.2021
579 Clear 11 1017 37 10000 0.45 346 14:25 07.04.2021
580 Clear 11 1017 31 10000 4.02 151 13:46 07.04.2021
581 Clear 11 1016 44 10000 0.89 65 13:21 07.04.2021
582 Clear 9 1017 20 10000 0.89 194 12:48 07.04.2021
583 Clear 8 1017 28 10000 2.29 347 12:21 07.04.2021
584 Clear 6 1017 34 10000 0.89 254 11:45 07.04.2021
585 Clear 5 1017 36 10000 2.44 351 11:24 07.04.2021
586 Clear 5 1017 43 10000 2.44 351 10:50 07.04.2021
587 Clear 1 1017 49 10000 2.91 358 09:51 07.04.2021
588 Clear -3 1016 54 10000 2.91 358 09:30 07.04.2021
589 Clear -3 1016 54 10000 2.91 358 09:30 07.04.2021
590 Clear -3 1016 54 10000 3.47 5 08:59 07.04.2021
591 Clear -3 1015 53 10000 3.47 5 08:33 07.04.2021
592 Clouds -4 1003 87 10000 0.45 8 07:56 07.04.2021
593 Clouds -4 1002 87 10000 3.69 9 07:29 07.04.2021
594 Clouds -4 1002 87 10000 0.45 15 06:52 07.04.2021
595 Clouds -4 1002 87 10000 3.46 8 06:18 07.04.2021
596 Clouds -3 1001 89 10000 3.5 4 03:32 07.04.2021
597 Clouds -1 1012 74 10000 3.78 5 23:52 06.04.2021
598 Clouds 2 1001 94 10000 3.86 4 23:23 06.04.2021
599 Clouds 2 1001 94 10000 3.86 4 22:59 06.04.2021
600 Clouds 2 1001 94 10000 3.74 2 22:22 06.04.2021
601 Clouds 3 1001 93 10000 3.74 2 21:57 06.04.2021
602 Clouds 1 1001 92 10000 0.45 55 21:38 06.04.2021
603 Clouds 1 1010 66 10000 3.83 2 21:20 06.04.2021
604 Clouds 8 1005 73 10000 3.13 67 20:50 06.04.2021
605 Clouds 7 1000 88 10000 4.08 359 20:21 06.04.2021
606 Clear 7 1000 87 10000 4.18 359 19:49 06.04.2021
607 Clear 6 1000 88 10000 4.17 359 19:30 06.04.2021
608 Clear 7 1000 85 10000 4.44 356 18:47 06.04.2021
609 Clear 8 1000 82 10000 4.36 348 18:24 06.04.2021
610 Clear 9 1000 87 10000 0.45 3 17:51 06.04.2021
611 Clear 11 1000 85 10000 3.79 336 17:29 06.04.2021
612 Clear 11 1000 83 10000 3.79 336 16:55 06.04.2021
613 Clear 11 1000 85 10000 0.45 111 16:37 06.04.2021
614 Clear 14 1007 30 10000 1.34 323 15:31 06.04.2021
615 Clear 16 1007 28 10000 0.89 293 14:58 06.04.2021
616 Clear 14 1007 28 10000 1.34 318 14:39 06.04.2021
617 Clear 14 1007 28 10000 1.34 318 14:39 06.04.2021
618 Clear 15 1006 32 10000 0.45 53 14:18 06.04.2021
619 Clear 14 1006 33 10000 0.89 113 13:41 06.04.2021
620 Clear 14 1005 49 10000 2.68 90 13:23 06.04.2021
621 Clear 14 1007 35 10000 0.45 79 12:41 06.04.2021
622 Clear 13 1017 11 10000 3.18 344 12:22 06.04.2021
623 Clear 13 1017 14 10000 3.17 343 11:49 06.04.2021
624 Clear 10 1018 14 10000 3.42 353 11:21 06.04.2021
625 Clear 9 1010 33 10000 3.42 353 10:47 06.04.2021
626 Clear 4 1010 38 10000 3.5 358 10:27 06.04.2021
627 Clear 3 1010 42 10000 3.5 358 09:49 06.04.2021
628 Clouds 3 1011 47 10000 3.85 6 09:29 06.04.2021
629 Clouds 3 1011 47 10000 3.91 6 08:43 06.04.2021
630 Clouds 2 1011 47 10000 3.95 10 07:59 06.04.2021
631 Clouds 4 1011 47 10000 3.71 11 06:55 06.04.2021
632 Clouds 4 1012 44 10000 3.47 11 05:22 06.04.2021
633 Clouds 8 1012 50 10000 1.34 64 01:57 06.04.2021
634 Clouds 8 1012 50 10000 0.89 66 00:44 06.04.2021
635 Clouds 9 1018 16 10000 3.48 12 00:21 06.04.2021
636 Clouds 9 1009 68 10000 1.34 67 23:42 05.04.2021
637 Clouds 7 1005 74 10000 3.21 11 23:19 05.04.2021
638 Clouds 10 1009 65 10000 0.89 90 22:45 05.04.2021
639 Clouds 8 1006 71 10000 3.04 8 22:24 05.04.2021
640 Clouds 10 1013 69 10000 0.89 23 21:40 05.04.2021
641 Clouds 11 1012 67 10000 1.79 45 21:20 05.04.2021
642 Clouds 3 1006 72 10000 3.22 6 20:42 05.04.2021
643 Clouds 4 1006 72 10000 3.2 2 20:23 05.04.2021
644 Clouds 11 1013 37 10000 3.09 210 19:40 05.04.2021
645 Clouds 12 1013 37 10000 3.09 210 19:20 05.04.2021
646 Clouds 14 1013 37 10000 3.09 210 18:48 05.04.2021
647 Clouds 14 1013 37 10000 3.09 200 18:30 05.04.2021
648 Clouds 14 1013 39 10000 4.63 190 17:55 05.04.2021
649 Clouds 15 1013 34 10000 6.17 190 17:36 05.04.2021
650 Clouds 14 1013 34 10000 6.17 190 17:18 05.04.2021
651 Clouds 15 1014 30 10000 5.66 180 16:39 05.04.2021
652 Clouds 13 1014 30 10000 5.66 180 16:19 05.04.2021
653 Clouds 13 1014 32 10000 5.14 190 15:47 05.04.2021
654 Clouds 19 1014 30 10000 5.14 210 15:22 05.04.2021
655 Clouds 17 1015 32 10000 2.57 0 14:36 05.04.2021
656 Clear 16 1016 36 10000 2.57 150 13:56 05.04.2021
657 Clear 15 1016 27 10000 1.03 0 13:31 05.04.2021
658 Clear 14 1017 35 10000 2.06 0 12:47 05.04.2021
659 Clear 12 1017 41 10000 1.54 0 12:26 05.04.2021
660 Clear 11 1018 50 10000 2.06 150 11:53 05.04.2021
661 Clear 10 1018 57 10000 1.54 0 11:31 05.04.2021
662 Clear 10 1018 61 10000 1.03 0 10:56 05.04.2021
663 Clear 8 1019 70 10000 1.03 0 10:36 05.04.2021
664 Clear 5 1019 70 10000 1.54 0 09:49 05.04.2021
665 Clear 3 1019 75 10000 0.51 0 09:26 05.04.2021
666 Clear 3 1019 81 10000 1.03 0 08:54 05.04.2021
667 Clear 3 1019 75 10000 1.54 340 08:36 05.04.2021
668 Clear 3 1019 75 10000 1.54 340 08:18 05.04.2021
669 Clear 3 1018 75 10000 1.03 350 07:33 05.04.2021
670 Clear 4 1018 60 10000 1.83 8 03:42 05.04.2021
671 Clouds 5 1017 64 10000 1.45 14 00:57 05.04.2021
672 Clouds 5 1017 65 10000 1.65 17 00:20 05.04.2021
673 Clouds 7 1016 76 10000 1.34 50 23:32 04.04.2021
674 Clouds 7 1016 76 10000 1.34 50 23:32 04.04.2021
675 Clouds 7 1021 17 10000 1.67 15 22:58 04.04.2021
676 Clouds 9 1016 75 10000 1.67 15 22:40 04.04.2021
677 Clouds 9 1016 74 10000 1.58 15 22:21 04.04.2021
678 Clouds 6 1007 87 10000 1.54 13 21:22 04.04.2021
679 Clouds 7 1007 88 10000 1.54 13 20:47 04.04.2021
680 Clouds 9 1015 41 10000 4.12 200 20:23 04.04.2021
681 Clouds 10 1015 41 10000 4.12 200 19:41 04.04.2021
682 Clouds 10 1015 41 10000 4.12 200 19:20 04.04.2021
683 Clouds 10 1015 41 10000 5.66 200 18:51 04.04.2021
684 Clouds 12 1015 39 10000 6.17 200 18:25 04.04.2021
685 Clouds 12 1015 39 10000 6.69 190 17:59 04.04.2021
686 Clouds 16 1015 36 10000 6.69 200 17:25 04.04.2021
687 Clouds 16 1015 36 10000 6.69 200 17:25 04.04.2021
688 Clouds 12 1015 39 10000 6.17 200 16:57 04.04.2021
689 Clouds 17 1014 36 10000 5.14 200 16:39 04.04.2021
690 Clouds 16 1015 34 10000 6.69 200 15:54 04.04.2021
691 Clouds 17 1015 36 10000 4.63 190 15:32 04.04.2021
692 Clouds 16 1015 31 10000 4.63 190 14:40 04.04.2021
693 Clouds 16 1015 23 10000 3.6 180 14:21 04.04.2021
694 Clouds 15 1016 21 10000 3.6 190 13:27 04.04.2021
695 Clouds 14 1016 26 10000 2.06 0 12:52 04.04.2021
696 Clear 13 1016 35 10000 2.06 180 12:28 04.04.2021
697 Clear 11 1016 40 10000 3.09 170 11:50 04.04.2021
698 Clear 9 1016 46 10000 2.57 180 11:30 04.04.2021
699 Clear 9 1014 30 10000 0.97 349 10:49 04.04.2021
700 Clear 5 1015 39 10000 1.66 7 10:29 04.04.2021
701 Clear 4 1016 43 10000 1.66 7 09:50 04.04.2021
702 Clear 3 1016 54 10000 2.52 16 09:23 04.04.2021
703 Clear 2 1016 56 10000 2.52 16 08:45 04.04.2021
704 Clear 2 1016 58 10000 3.01 19 08:26 04.04.2021
705 Clear 2 1015 61 10000 3.28 18 06:40 04.04.2021
706 Clear 3 1015 59 10000 3.38 17 05:44 04.04.2021
707 Clear 3 1015 59 10000 3.38 17 05:44 04.04.2021
708 Clear 3 1013 69 10000 3.3 13 02:39 04.04.2021
709 Clear 4 1005 84 10000 3.74 11 00:48 04.04.2021
710 Clear 4 1005 88 10000 3.93 12 00:18 04.04.2021
711 Clear 4 1005 87 10000 3.93 12 23:41 03.04.2021
712 Clear 3 1005 93 10000 3.75 12 22:56 03.04.2021
713 Clear 3 1005 92 10000 3.75 12 22:37 03.04.2021
714 Clear 6 1005 90 10000 0.45 25 22:18 03.04.2021
715 Clear 1 1005 90 10000 3.76 10 21:39 03.04.2021
716 Clouds 5 1012 55 10000 3.76 7 21:21 03.04.2021
717 Clouds 2 1004 93 10000 3.76 7 20:40 03.04.2021
718 Clouds 10 1010 14 10000 8.23 20 20:20 03.04.2021
719 Clouds 11 1010 14 10000 8.23 20 19:43 03.04.2021
720 Clouds 12 1010 14 10000 8.23 20 19:19 03.04.2021
721 Clouds 12 1010 15 10000 8.23 30 18:45 03.04.2021
722 Clouds 13 1010 19 10000 8.23 30 18:18 03.04.2021
723 Clouds 13 1009 17 10000 6.17 0 17:39 03.04.2021
724 Clouds 13 1009 17 10000 6.17 0 17:20 03.04.2021
725 Clouds 14 1010 17 10000 6.17 0 16:43 03.04.2021
726 Clouds 14 1010 17 10000 7.72 0 16:21 03.04.2021
727 Clouds 14 1010 21 10000 7.72 30 15:42 03.04.2021
728 Clouds 15 1010 21 10000 7.72 30 15:19 03.04.2021
729 Clouds 14 1011 20 10000 5.14 0 14:42 03.04.2021
730 Clouds 18 1011 23 10000 5.14 0 14:20 03.04.2021
731 Clouds 18 1011 23 10000 4.63 60 13:46 03.04.2021
732 Clouds 17 1012 30 10000 2.06 70 13:21 03.04.2021
733 Clouds 16 1012 39 10000 2.57 170 12:47 03.04.2021
734 Clouds 15 1013 48 10000 1.54 150 12:20 03.04.2021
735 Clouds 14 1013 58 10000 1.03 0 11:35 03.04.2021
736 Clear 12 1013 63 10000 2.36 356 10:50 03.04.2021
737 Clear 8 1013 74 10000 2.36 356 10:31 03.04.2021
738 Clear 7 1013 79 10000 0.45 67 09:51 03.04.2021
739 Clear 6 1014 80 10000 2.4 16 09:28 03.04.2021
740 Clear 6 1014 82 10000 2.4 16 08:44 03.04.2021
741 Clouds 6 1014 82 10000 3.11 19 08:26 03.04.2021
742 Clouds 6 1014 82 10000 2.94 19 07:28 03.04.2021
743 Clouds 6 1014 83 10000 3.15 20 05:43 03.04.2021
744 Clouds 6 1015 84 10000 3.01 20 03:35 03.04.2021
745 Clouds 6 1015 87 10000 2.79 23 02:38 03.04.2021
746 Clouds 7 1015 87 10000 2.94 23 01:56 03.04.2021
747 Clouds 7 1016 84 10000 2.69 22 00:20 03.04.2021
748 Clouds 7 1016 89 10000 2.69 22 23:46 02.04.2021
749 Clouds 7 1016 83 10000 0.45 0 23:21 02.04.2021
750 Clouds 7 1016 84 10000 2.68 14 22:50 02.04.2021
751 Clouds 8 1016 84 10000 2.68 14 22:30 02.04.2021
752 Clouds 8 1016 82 10000 0.45 78 21:42 02.04.2021
753 Clouds 9 1016 84 10000 0.45 0 21:20 02.04.2021
754 Rain 9 1016 83 10000 2.78 9 20:48 02.04.2021
755 Rain 12 1012 26 10000 3.6 180 20:26 02.04.2021
756 Rain 12 1012 26 10000 3.6 180 19:43 02.04.2021
757 Rain 13 1012 26 10000 3.6 180 19:24 02.04.2021
758 Rain 13 1012 26 10000 4.63 210 18:56 02.04.2021
759 Rain 14 1012 21 10000 5.14 210 18:38 02.04.2021
760 Rain 15 1012 21 10000 5.14 210 18:19 02.04.2021
761 Clouds 14 1012 20 10000 5.66 200 17:36 02.04.2021
762 Clouds 15 1012 20 10000 6.69 180 16:45 02.04.2021
763 Clouds 16 1012 20 10000 5.14 180 15:51 02.04.2021
764 Clouds 18 1013 20 10000 4.63 180 15:32 02.04.2021
765 Clouds 17 1013 21 10000 4.12 200 14:42 02.04.2021
766 Clouds 17 1013 21 10000 3.6 190 14:21 02.04.2021
767 Clear 19 1014 30 10000 1.54 0 13:39 02.04.2021
768 Clear 19 1014 30 10000 1.54 0 13:19 02.04.2021
769 Clear 17 1015 36 10000 1.03 0 12:39 02.04.2021
770 Clear 16 1015 36 10000 1.03 0 12:19 02.04.2021
771 Clear 15 1016 38 10000 1.54 0 11:48 02.04.2021
772 Clear 14 1016 44 10000 1.03 0 11:19 02.04.2021
773 Clear 12 1016 47 10000 1.03 0 10:44 02.04.2021
774 Clouds 10 1016 53 10000 1.03 0 10:24 02.04.2021
775 Clouds 8 1017 57 10000 0.51 0 09:51 02.04.2021
776 Clouds 8 1017 61 10000 1.03 0 09:24 02.04.2021
777 Clouds 8 1017 61 10000 0.51 0 08:46 02.04.2021
778 Clouds 8 1017 61 10000 1.54 290 08:27 02.04.2021
779 Clouds 7 1016 58 10000 0.81 43 07:22 02.04.2021
780 Clouds 7 1017 57 10000 0.81 43 06:34 02.04.2021
781 Clouds 8 1017 56 10000 1.15 52 03:46 02.04.2021
782 Clouds 9 1019 52 10000 0.91 43 01:49 02.04.2021
783 Clouds 9 1019 48 10000 0.8 47 00:43 02.04.2021
784 Clouds 9 1011 66 10000 1.18 44 23:47 01.04.2021
785 Clouds 9 1011 49 10000 1.22 42 23:27 01.04.2021
786 Clouds 11 1015 47 10000 1.79 43 22:41 01.04.2021
787 Clouds 11 1016 43 10000 0.34 42 22:18 01.04.2021
788 Clouds 13 1013 47 10000 0.89 67 21:42 01.04.2021
789 Clouds 13 1015 40 10000 1.34 79 21:22 01.04.2021
790 Clouds 16 1012 31 10000 0.56 22 20:41 01.04.2021
791 Clouds 13 1010 61 10000 0.83 215 20:21 01.04.2021
792 Clear 21 1016 21 10000 4.63 200 19:41 01.04.2021
793 Clear 16 1016 21 10000 4.63 200 19:20 01.04.2021
794 Clear 17 1016 21 10000 4.63 200 18:44 01.04.2021
795 Clear 17 1017 20 10000 4.12 200 18:18 01.04.2021
796 Clear 16 1017 20 10000 4.63 200 17:41 01.04.2021
797 Clear 21 1017 18 10000 4.63 190 17:23 01.04.2021
798 Clear 21 1017 18 10000 5.66 190 16:50 01.04.2021
799 Clear 20 1017 20 10000 6.17 190 16:18 01.04.2021
800 Clear 20 1017 20 10000 6.17 190 16:18 01.04.2021
801 Clear 21 1018 18 10000 2.57 0 15:40 01.04.2021
802 Clear 20 1018 18 10000 2.57 0 15:19 01.04.2021
803 Clear 19 1019 24 10000 1.54 0 14:39 01.04.2021
804 Clear 19 1019 24 10000 1.54 0 14:39 01.04.2021
805 Clear 19 1019 24 10000 1.54 0 14:20 01.04.2021
806 Clear 18 1020 29 10000 2.57 150 13:49 01.04.2021
807 Clear 17 1020 36 10000 2.06 0 13:29 01.04.2021
808 Clear 16 1021 36 10000 1.54 0 12:47 01.04.2021
809 Clear 14 1021 41 10000 1.54 0 12:29 01.04.2021
810 Clear 13 1022 47 10000 2.06 150 11:45 01.04.2021
811 Clear 11 1022 54 10000 1.03 0 11:20 01.04.2021
812 Clear 9 1022 57 10000 1.03 0 10:50 01.04.2021
813 Clouds 12 1020 57 10000 2.85 211 10:31 01.04.2021
814 Clouds 12 1019 59 10000 0.45 113 09:52 01.04.2021
815 Clouds 6 1021 61 10000 0.27 113 09:23 01.04.2021
816 Clouds 5 1012 18 10000 0.38 152 08:33 01.04.2021
817 Clear 5 1021 64 10000 0.78 47 07:24 01.04.2021
818 Clear 6 1021 65 10000 0.78 47 06:59 01.04.2021
819 Clear 5 1021 66 10000 0.78 47 06:30 01.04.2021
820 Clear 7 1023 60 10000 0.47 48 03:26 01.04.2021
821 Clear 9 1023 53 10000 0.45 223 00:38 01.04.2021
822 Clear 8 1020 51 10000 0.39 49 23:44 31.03.2021
823 Clear 9 1019 54 10000 1.79 39 22:58 31.03.2021
824 Clear 10 1019 52 10000 1.79 45 22:39 31.03.2021
825 Clear 10 1019 52 10000 1.79 39 22:20 31.03.2021
826 Clear 9 1019 51 10000 1.34 34 21:44 31.03.2021
827 Clear 9 1018 51 10000 1.34 29 21:20 31.03.2021
828 Clear 9 1018 51 10000 1.34 29 21:20 31.03.2021
829 Clear 13 1021 9 10000 0.89 90 20:42 31.03.2021
830 Clouds 14 1018 38 10000 0.45 120 20:23 31.03.2021
831 Clouds 21 1021 23 10000 5.66 200 19:46 31.03.2021
832 Clouds 17 1021 23 10000 5.66 200 19:25 31.03.2021
833 Clouds 17 1021 23 10000 5.66 200 18:58 31.03.2021
834 Clouds 17 1021 23 10000 5.66 200 18:40 31.03.2021
835 Clouds 18 1021 23 10000 5.66 210 17:51 31.03.2021
836 Clouds 16 1021 23 10000 6.17 210 17:31 31.03.2021
837 Clouds 16 1022 24 10000 5.66 200 16:56 31.03.2021
838 Clouds 22 1022 26 10000 4.63 200 16:37 31.03.2021
839 Clouds 21 1022 26 10000 4.63 200 16:18 31.03.2021
840 Clouds 20 1022 26 10000 4.12 210 15:43 31.03.2021
841 Clouds 20 1023 26 10000 3.6 210 15:19 31.03.2021
842 Clouds 19 1023 28 10000 4.12 230 14:42 31.03.2021
843 Clouds 19 1024 32 10000 2.06 0 14:19 31.03.2021
844 Clouds 17 1025 36 10000 2.06 160 13:39 31.03.2021
845 Clear 15 1025 42 10000 1.34 260 12:42 31.03.2021
846 Clear 14 1025 44 10000 0.45 208 12:20 31.03.2021
847 Clear 13 1025 48 10000 2.3 208 11:41 31.03.2021
848 Clear 12 1026 51 10000 0.45 301 11:20 31.03.2021
849 Clear 12 1023 59 10000 0.45 216 10:46 31.03.2021
850 Clear 12 1023 59 10000 0.45 216 10:46 31.03.2021
851 Clear 9 1026 60 10000 1.23 204 10:24 31.03.2021
852 Clear 6 1017 60 10000 1.23 204 09:37 31.03.2021
853 Clear 6 1026 68 10000 0.3 88 08:51 31.03.2021
854 Clear 6 1026 69 10000 0.3 136 08:32 31.03.2021
855 Clear 6 1026 68 10000 0.9 51 07:43 31.03.2021
856 Clear 6 1026 68 10000 1.03 40 06:36 31.03.2021
857 Clear 7 1027 63 10000 0.95 24 03:46 31.03.2021
858 Clear 9 1029 57 10000 0.85 26 00:55 31.03.2021
859 Clear 8 1026 57 10000 0.67 30 00:27 31.03.2021
860 Clear 9 1025 58 10000 1.79 39 23:59 30.03.2021
861 Clouds 9 1026 54 10000 0.5 41 23:28 30.03.2021
862 Clouds 10 1025 55 10000 2.24 25 22:56 30.03.2021
863 Clouds 10 1025 55 10000 2.24 25 22:56 30.03.2021
864 Clouds 10 1025 55 10000 1.79 29 22:38 30.03.2021
865 Clouds 11 1025 55 10000 1.79 56 22:19 30.03.2021
866 Clouds 9 1025 55 10000 1.34 44 21:42 30.03.2021
867 Clouds 12 1025 53 10000 1.34 43 21:19 30.03.2021
868 Clouds 14 1026 5 10000 1.34 90 20:48 30.03.2021
869 Clouds 13 1020 68 10000 1.43 206 20:27 30.03.2021
870 Clouds 9 1020 65 10000 1.43 206 19:48 30.03.2021
871 Clouds 14 1025 33 10000 2.19 213 19:22 30.03.2021
872 Clouds 15 1020 51 10000 2.19 213 18:34 30.03.2021
873 Clouds 14 1025 31 10000 0.45 228 17:51 30.03.2021
874 Clouds 11 1020 47 10000 2.61 213 17:32 30.03.2021
875 Clouds 18 1026 31 10000 0.89 137 16:48 30.03.2021
876 Clouds 18 1026 30 10000 0.89 257 16:28 30.03.2021
877 Clouds 19 1026 32 10000 1.34 135 15:43 30.03.2021
878 Clouds 19 1028 29 10000 2.68 281 15:20 30.03.2021
879 Clouds 19 1028 26 10000 1.79 257 14:46 30.03.2021
880 Clouds 18 1029 27 10000 1.79 305 14:21 30.03.2021
881 Clouds 17 1029 31 10000 1.79 287 13:51 30.03.2021
882 Clouds 16 1030 36 10000 0.89 256 13:30 30.03.2021
883 Clouds 15 1031 43 10000 0.45 323 12:42 30.03.2021
884 Clouds 14 1031 42 10000 2.88 211 12:22 30.03.2021
885 Clouds 13 1031 44 10000 0.45 225 11:48 30.03.2021
886 Clouds 11 1031 53 10000 2.58 208 11:20 30.03.2021
887 Clouds 11 1031 52 10000 2.58 208 11:20 30.03.2021
888 Clouds 12 1029 60 10000 0.45 141 10:42 30.03.2021
889 Clouds 12 1029 56 10000 0.45 113 10:19 30.03.2021
890 Clouds 11 1029 63 10000 0.89 45 09:43 30.03.2021
891 Clouds 5 1032 68 10000 0.36 129 09:23 30.03.2021
892 Clouds 3 1022 69 10000 0.36 129 08:44 30.03.2021
893 Clouds 5 1032 69 10000 0.77 56 08:21 30.03.2021
894 Clouds 5 1031 69 10000 0.77 56 07:42 30.03.2021
895 Clouds 5 1031 69 10000 0.71 44 06:53 30.03.2021
896 Clouds 6 1031 67 10000 0.55 46 05:25 30.03.2021
897 Clouds 7 1033 59 10000 0.12 165 01:57 30.03.2021
898 Clouds 8 1030 63 10000 2.24 51 23:55 29.03.2021
899 Clouds 8 1029 61 10000 1.79 34 23:22 29.03.2021
900 Clouds 11 1029 54 10000 0.22 100 22:43 29.03.2021
901 Clouds 12 1027 56 10000 1.34 67 21:57 29.03.2021
902 Clouds 13 1026 54 10000 1.34 67 21:35 29.03.2021
903 Clear 13 1028 59 10000 0.95 184 20:51 29.03.2021
904 Clear 14 1028 52 10000 0.95 184 20:33 29.03.2021
905 Clear 20 1030 26 10000 5.66 200 19:56 29.03.2021
906 Clear 15 1030 26 10000 5.66 200 19:28 29.03.2021
907 Clear 15 1030 26 10000 5.66 200 18:56 29.03.2021
908 Clear 15 1030 26 10000 6.17 190 18:37 29.03.2021
909 Clear 16 1030 26 10000 6.17 190 18:18 29.03.2021
910 Clouds 21 1030 24 10000 6.17 190 17:36 29.03.2021
911 Clouds 20 1030 26 10000 5.14 190 16:53 29.03.2021
912 Clouds 19 1030 26 10000 5.14 190 16:30 29.03.2021
913 Clouds 19 1030 26 10000 4.63 180 15:43 29.03.2021
914 Clear 19 1031 26 10000 4.63 180 15:24 29.03.2021
915 Clear 19 1031 26 10000 3.6 0 14:48 29.03.2021
916 Clear 18 1031 26 10000 2.06 0 14:21 29.03.2021
917 Clear 16 1032 39 10000 1.03 0 13:40 29.03.2021
918 Clear 16 1032 39 10000 1.03 0 13:18 29.03.2021
919 Clear 15 1033 47 10000 2.06 0 12:49 29.03.2021
920 Clear 12 1033 50 10000 1.03 0 11:48 29.03.2021
921 Clear 10 1034 57 10000 1.54 0 11:28 29.03.2021
922 Clear 9 1034 61 10000 1.54 160 10:49 29.03.2021
923 Clear 7 1034 66 10000 1.54 50 10:23 29.03.2021
924 Clear 8 1032 64 10000 1.68 209 09:33 29.03.2021
925 Clear 4 1033 69 10000 0.24 149 08:43 29.03.2021
926 Clear 4 1033 67 10000 0.7 51 08:25 29.03.2021
927 Clear 4 1032 68 10000 0.19 89 07:20 29.03.2021
928 Clear 4 1032 69 10000 0.64 56 06:25 29.03.2021
929 Clear 6 1032 65 10000 0.84 41 02:58 29.03.2021
930 Clear 6 1030 71 10000 1.79 43 00:45 29.03.2021
931 Clear 7 1031 64 10000 0.37 42 00:18 29.03.2021
932 Clear 8 1029 61 10000 0.42 73 23:25 28.03.2021
933 Clear 9 1029 58 10000 0.39 77 22:48 28.03.2021
934 Clear 9 1029 58 10000 0.39 77 22:48 28.03.2021
935 Clear 9 1029 65 10000 0.45 345 22:29 28.03.2021
936 Clear 10 1029 67 10000 0.89 22 21:47 28.03.2021
937 Clear 11 1029 65 10000 0.45 299 21:25 28.03.2021
938 Clear 8 1031 74 10000 0.77 177 20:56 28.03.2021
939 Clouds 18 1029 32 10000 5.66 210 20:38 28.03.2021
940 Clouds 16 1029 32 10000 5.66 210 20:18 28.03.2021
941 Clouds 18 1029 32 10000 5.66 210 19:41 28.03.2021
942 Clouds 14 1029 32 10000 5.66 210 19:21 28.03.2021
943 Clouds 15 1028 30 10000 5.66 210 18:49 28.03.2021
944 Clouds 15 1028 30 10000 5.14 210 18:22 28.03.2021
945 Clouds 16 1028 28 10000 5.14 210 17:41 28.03.2021
946 Clouds 16 1028 28 10000 4.12 200 17:18 28.03.2021
947 Clouds 16 1029 26 10000 3.6 200 16:40 28.03.2021
948 Clouds 19 1029 26 10000 3.6 200 16:21 28.03.2021
949 Clouds 15 1029 30 10000 4.12 200 15:25 28.03.2021
950 Clouds 18 1030 30 10000 2.57 0 14:49 28.03.2021
951 Clear 17 1030 34 10000 2.57 0 14:25 28.03.2021
952 Clear 15 1031 44 10000 2.06 0 13:36 28.03.2021
953 Clear 13 1031 54 10000 2.06 0 12:58 28.03.2021
954 Clear 12 1032 58 10000 1.54 100 12:35 28.03.2021
955 Clear 11 1032 62 10000 1.54 0 11:59 28.03.2021
956 Clear 11 1032 66 10000 1.54 0 11:37 28.03.2021
957 Clear 9 1032 71 10000 1.54 90 10:54 28.03.2021
958 Clear 7 1032 75 10000 1.03 0 10:31 28.03.2021
959 Clear 5 1020 37 10000 0.35 196 09:53 28.03.2021
960 Clear 3 1030 76 10000 0.95 37 09:28 28.03.2021
961 Clear 3 1030 77 10000 0.95 37 08:52 28.03.2021
962 Clear 2 1029 86 10000 0.95 37 08:34 28.03.2021
963 Clear 3 1029 77 10000 1.63 36 07:42 28.03.2021
964 Clear 3 1029 76 10000 1.26 44 06:21 28.03.2021
965 Clouds 3 1028 84 10000 1.27 39 03:50 28.03.2021
966 Clouds 5 1027 82 10000 1.34 43 00:45 28.03.2021
967 Clouds 6 1024 83 10000 0.89 67 23:53 27.03.2021
968 Clouds 7 1024 82 10000 0.89 67 23:35 27.03.2021
969 Clouds 6 1027 83 10000 0.47 358 22:42 27.03.2021
970 Clouds 6 1027 82 10000 0.71 232 22:22 27.03.2021
971 Clouds 6 1026 79 10000 0.71 232 21:45 27.03.2021
972 Clouds 6 1026 78 10000 1.22 214 21:21 27.03.2021
973 Clouds 7 1026 77 10000 1.22 214 20:58 27.03.2021
974 Clouds 7 1025 75 10000 1.22 214 20:37 27.03.2021
975 Clouds 8 1025 72 10000 1.42 209 19:56 27.03.2021
976 Clouds 11 1024 69 10000 1.34 314 19:37 27.03.2021
977 Clouds 11 1024 66 10000 1.79 251 19:18 27.03.2021
978 Clouds 12 1024 65 10000 0.45 76 18:41 27.03.2021
979 Clouds 13 1026 54 10000 4.63 200 18:20 27.03.2021
980 Clouds 11 1026 54 10000 4.63 200 17:29 27.03.2021
981 Clouds 11 1026 58 10000 6.17 210 16:58 27.03.2021
982 Clouds 11 1026 54 10000 5.14 210 16:38 27.03.2021
983 Clouds 11 1026 54 10000 5.14 210 16:20 27.03.2021
984 Clouds 13 1027 55 10000 4.63 180 15:39 27.03.2021
985 Clouds 14 1027 55 10000 5.66 180 14:55 27.03.2021
986 Clouds 13 1027 62 10000 6.69 190 14:24 27.03.2021
987 Clouds 12 1028 66 10000 5.14 190 13:37 27.03.2021
988 Clouds 12 1028 66 10000 5.14 190 13:19 27.03.2021
989 Clouds 12 1028 67 10000 4.12 190 12:39 27.03.2021
990 Clouds 11 1028 71 10000 3.09 230 11:48 27.03.2021
991 Clouds 11 1028 62 10000 2.06 0 11:30 27.03.2021
992 Clouds 10 1028 66 10000 1.03 0 10:48 27.03.2021
993 Clouds 8 1028 70 10000 1.03 0 10:29 27.03.2021
994 Clouds 7 1027 71 10000 1.72 223 09:42 27.03.2021
995 Clouds 6 1027 70 10000 0.51 0 09:18 27.03.2021
996 Clouds 6 1027 70 10000 0.51 0 09:18 27.03.2021
997 Clouds 3 1026 72 10000 0.65 296 08:36 27.03.2021
998 Clouds 3 1025 70 10000 2 8 07:42 27.03.2021
999 Clouds 1 1014 96 10000 2.45 10 06:58 27.03.2021
1000 Clouds 1 1023 78 10000 2.45 10 06:37 27.03.2021
1001 Clouds 2 1022 70 10000 2.45 11 04:41 27.03.2021
1002 Clouds 4 1014 97 3433 2.73 10 01:28 27.03.2021
1003 Clouds 5 1015 96 3433 2.73 10 00:31 27.03.2021
1004 Clouds 5 1014 96 10000 2.8 15 23:58 26.03.2021
1005 Clouds 5 1014 96 10000 2.82 17 23:22 26.03.2021
1006 Clouds 6 1014 95 10000 2.82 17 22:36 26.03.2021
1007 Clouds 5 1014 95 10000 2.76 21 21:40 26.03.2021
1008 Clouds 6 1013 95 10000 2.56 22 21:22 26.03.2021
1009 Clouds 7 1013 93 10000 2.56 22 20:44 26.03.2021
1010 Clouds 8 1013 94 10000 1.54 5 20:24 26.03.2021
1011 Clouds 12 1025 74 10000 3.13 252 19:49 26.03.2021
1012 Clouds 18 1019 25 10000 6.69 200 19:30 26.03.2021
1013 Clouds 11 1019 25 10000 6.69 200 18:46 26.03.2021
1014 Clouds 12 1019 25 10000 6.69 200 18:27 26.03.2021
1015 Clouds 13 1019 32 10000 6.69 190 17:49 26.03.2021
1016 Clouds 15 1019 30 10000 6.17 190 16:58 26.03.2021
1017 Clouds 14 1019 27 10000 5.66 190 16:33 26.03.2021
1018 Clouds 13 1019 27 10000 6.17 180 15:57 26.03.2021
1019 Clouds 13 1019 32 10000 6.69 190 15:23 26.03.2021
1020 Clouds 13 1020 30 10000 6.69 180 14:34 26.03.2021
1021 Clouds 17 1020 32 10000 3.6 0 13:42 26.03.2021
1022 Clouds 16 1021 44 10000 1.54 130 12:58 26.03.2021
1023 Clouds 16 1022 47 10000 1.54 0 12:34 26.03.2021
1024 Clouds 11 1023 54 10000 1.03 0 11:38 26.03.2021
1025 Clouds 11 1023 54 10000 1.03 0 11:18 26.03.2021
1026 Clear 9 1023 57 10000 1.03 0 10:41 26.03.2021
1027 Clear 8 1023 65 10000 1.03 0 09:56 26.03.2021
1028 Clear 7 1023 70 10000 0.51 0 09:36 26.03.2021
1029 Clouds 4 1022 66 10000 1.87 202 08:44 26.03.2021
1030 Clouds 4 1022 68 10000 0.43 177 08:23 26.03.2021
1031 Clouds 3 1022 69 10000 0.42 174 07:40 26.03.2021
1032 Clouds 3 1022 70 10000 0.55 58 07:18 26.03.2021
1033 Clouds 3 1022 70 10000 0.55 58 06:53 26.03.2021
1034 Clouds 4 1022 71 10000 0.72 27 05:31 26.03.2021
1035 Clouds 5 1023 68 10000 0.45 201 02:22 26.03.2021
1036 Clouds 5 1021 65 10000 0.53 29 00:32 26.03.2021
1037 Clouds 6 1021 69 10000 1.34 47 23:44 25.03.2021
1038 Clouds 6 1021 69 10000 1.34 58 23:20 25.03.2021
1039 Clouds 7 1021 69 10000 1.34 73 22:36 25.03.2021
1040 Clouds 7 1021 66 10000 2.24 51 21:53 25.03.2021
1041 Clouds 9 1021 66 10000 1.34 62 21:34 25.03.2021
1042 Clouds 9 1020 61 10000 1.34 13 20:45 25.03.2021
1043 Clear 11 1021 44 10000 4.63 250 20:25 25.03.2021
1044 Clear 12 1021 44 10000 4.63 250 19:48 25.03.2021
1045 Clear 12 1021 44 10000 4.63 250 19:30 25.03.2021
1046 Clear 16 1021 39 10000 5.14 190 18:49 25.03.2021
1047 Clouds 11 1020 41 10000 5.66 210 18:27 25.03.2021
1048 Clouds 12 1020 39 10000 6.17 200 17:52 25.03.2021
1049 Clouds 13 1020 34 10000 6.17 200 17:33 25.03.2021
1050 Clouds 13 1020 30 10000 6.17 180 16:52 25.03.2021
1051 Clouds 14 1020 26 10000 6.69 180 16:31 25.03.2021
1052 Clouds 14 1021 24 10000 5.14 0 15:45 25.03.2021
1053 Clouds 14 1021 24 10000 4.63 0 15:22 25.03.2021
1054 Clouds 14 1021 24 10000 4.63 0 14:46 25.03.2021
1055 Clouds 17 1022 26 10000 4.63 180 13:56 25.03.2021
1056 Clouds 16 1023 34 10000 2.06 0 13:24 25.03.2021
1057 Clouds 15 1023 39 10000 2.06 160 12:45 25.03.2021
1058 Clouds 15 1024 41 10000 1.54 0 12:21 25.03.2021
1059 Clouds 13 1024 47 10000 1.03 0 11:52 25.03.2021
1060 Clear 11 1024 50 10000 2.06 170 11:30 25.03.2021
1061 Clear 10 1025 57 10000 1.03 0 10:55 25.03.2021
1062 Clear 8 1025 57 10000 1.03 0 10:27 25.03.2021
1063 Clouds 9 1024 61 10000 1.33 211 09:57 25.03.2021
1064 Clouds 9 1022 61 10000 1.33 211 09:38 25.03.2021
1065 Clouds 4 1014 70 10000 0.32 206 08:57 25.03.2021
1066 Clouds 4 1023 71 10000 1.24 25 08:29 25.03.2021
1067 Clouds 2 1023 70 10000 1.61 37 07:23 25.03.2021
1068 Clouds 2 1023 68 10000 1.44 35 06:26 25.03.2021
1069 Clouds 3 1023 68 10000 1.44 35 05:49 25.03.2021
1070 Clouds 4 1024 65 10000 1.46 30 03:59 25.03.2021
1071 Clear 6 1024 59 10000 1.08 34 00:35 25.03.2021
1072 Clear 6 1024 59 10000 1.08 34 00:35 25.03.2021
1073 Clear 6 1023 56 10000 0.89 29 23:55 24.03.2021
1074 Clear 7 1027 23 10000 1.13 36 23:30 24.03.2021
1075 Clear 7 1027 23 10000 1.13 36 23:30 24.03.2021
1076 Clear 7 1023 58 10000 1.34 56 22:50 24.03.2021
1077 Clear 7 1027 17 10000 1.55 39 22:28 24.03.2021
1078 Clear 8 1023 55 10000 1.79 51 21:46 24.03.2021
1079 Clear 8 1026 14 10000 1.75 31 21:24 24.03.2021
1080 Clear 8 1022 53 10000 1.34 45 20:45 24.03.2021
1081 Clear 9 1019 57 10000 1.34 67 20:20 24.03.2021
1082 Clear 11 1021 54 10000 1.34 45 19:49 24.03.2021
1083 Clear 12 1021 52 10000 2.24 45 19:29 24.03.2021
1084 Clear 16 1024 33 10000 0.45 13 18:51 24.03.2021
1085 Clear 12 1015 52 10000 0.89 325 18:23 24.03.2021
1086 Clear 11 1015 50 10000 0.89 325 17:51 24.03.2021
1087 Clear 12 1015 48 10000 0.89 325 17:31 24.03.2021
1088 Clear 12 1014 43 10000 0.99 310 16:52 24.03.2021
1089 Clear 14 1014 42 10000 1.14 289 16:29 24.03.2021
1090 Clear 12 1015 40 10000 1.14 289 15:50 24.03.2021
1091 Clear 12 1015 38 10000 1.14 289 15:30 24.03.2021
1092 Clear 12 1015 36 10000 1.22 270 14:47 24.03.2021
1093 Clear 13 1022 14 10000 2.68 274 14:26 24.03.2021
1094 Clear 17 1022 14 10000 2.24 292 13:54 24.03.2021
1095 Clear 16 1023 16 10000 2.68 214 13:27 24.03.2021
1096 Clear 15 1023 25 10000 0.89 0 12:42 24.03.2021
1097 Clear 15 1023 26 10000 0.89 348 12:23 24.03.2021
1098 Clear 13 1024 28 10000 0.45 306 11:44 24.03.2021
1099 Clear 12 1023 31 10000 0.75 220 10:59 24.03.2021
1100 Clear 12 1023 44 10000 0.45 162 10:40 24.03.2021
1101 Clear 11 1023 40 10000 1.34 236 10:20 24.03.2021
1102 Clear 11 1024 47 10000 0.89 235 09:51 24.03.2021
1103 Clear 10 1026 11 10000 0.75 28 09:20 24.03.2021
1104 Clear 9 1026 14 10000 0.75 28 08:50 24.03.2021
1105 Clear 2 1014 76 10000 1.88 29 08:26 24.03.2021
1106 Clear 0 1014 53 10000 1.88 29 07:37 24.03.2021
1107 Clear 1 1024 52 10000 2.05 28 06:52 24.03.2021
1108 Clear 1 1024 48 10000 1.64 27 03:57 24.03.2021
1109 Clouds 3 1024 43 10000 1.43 26 00:48 24.03.2021
1110 Clouds 4 1024 41 10000 1.6 30 23:57 23.03.2021
1111 Clouds 5 1023 51 10000 0.45 330 23:21 23.03.2021
1112 Clouds 5 1026 21 10000 1.69 26 22:52 23.03.2021
1113 Clouds 7 1019 76 10000 1.69 26 22:31 23.03.2021
1114 Clouds 6 1022 53 10000 0.89 359 21:52 23.03.2021
1115 Clouds 7 1026 15 10000 1.84 24 21:33 23.03.2021
1116 Clouds 8 1026 12 10000 2.06 24 20:47 23.03.2021
1117 Clouds 9 1025 11 10000 2.18 25 20:29 23.03.2021
1118 Clouds 9 1023 64 10000 2.18 25 19:57 23.03.2021
1119 Clouds 2 1013 69 10000 1.82 20 19:27 23.03.2021
1120 Clear 2 1012 66 10000 1.81 19 18:59 23.03.2021
1121 Clear 14 1019 11 10000 1.34 315 18:37 23.03.2021
1122 Clear 9 1012 59 10000 1.7 9 18:18 23.03.2021
1123 Clear 4 1012 56 10000 1.7 9 17:43 23.03.2021
1124 Clear 11 1012 50 10000 2.11 3 17:21 23.03.2021
1125 Clear 9 1011 42 10000 2.26 358 16:26 23.03.2021
1126 Clear 9 1012 45 10000 2.26 358 15:50 23.03.2021
1127 Clear 9 1012 46 10000 1.89 354 15:23 23.03.2021
1128 Clear 9 1012 45 10000 1.91 354 14:48 23.03.2021
1129 Clear 16 1020 17 10000 0.45 43 14:19 23.03.2021
1130 Clear 15 1021 19 10000 1.38 336 13:47 23.03.2021
1131 Clear 15 1019 20 10000 1.79 227 13:24 23.03.2021
1132 Clear 13 1020 23 10000 1.34 250 12:44 23.03.2021
1133 Clear 13 1020 25 10000 0.45 261 12:24 23.03.2021
1134 Clear 12 1020 29 10000 0.86 308 11:48 23.03.2021
1135 Clear 11 1020 29 10000 0.45 233 11:18 23.03.2021
1136 Clear 9 1020 32 10000 1.34 248 10:42 23.03.2021
1137 Clear 8 1020 34 10000 0.89 0 10:20 23.03.2021
1138 Clear 7 1020 38 10000 1.13 357 09:49 23.03.2021
1139 Clear 5 1020 40 10000 1.89 12 09:22 23.03.2021
1140 Clear 4 1020 43 10000 1.89 12 08:54 23.03.2021
1141 Clear 7 1024 15 10000 1.89 12 08:36 23.03.2021
1142 Clear 1 1020 45 10000 0.45 0 08:18 23.03.2021
1143 Clear 0 1020 45 10000 3.25 20 07:26 23.03.2021
1144 Clear 0 1020 45 10000 3.28 20 06:52 23.03.2021
1145 Clear -1 1009 50 10000 3.52 15 03:24 23.03.2021
1146 Clear 0 1009 46 10000 3.56 14 02:29 23.03.2021
1147 Clouds 0 1009 87 10000 0.45 15 23:47 22.03.2021
1148 Clouds 0 1009 86 10000 0.45 0 22:59 22.03.2021
1149 Clouds 1 1009 88 10000 3.68 12 22:40 22.03.2021
1150 Clouds -1 1009 85 10000 3.88 9 22:20 22.03.2021
1151 Clouds -1 1009 87 10000 3.88 9 21:46 22.03.2021
1152 Clouds -4 1009 85 10000 4.13 9 21:26 22.03.2021
1153 Clouds -4 1008 86 10000 4.13 9 20:42 22.03.2021
1154 Clouds -3 1008 81 10000 4.17 11 20:24 22.03.2021
1155 Clear 4 1017 24 10000 7.2 40 19:57 22.03.2021
1156 Clear 4 1017 24 10000 7.2 40 19:37 22.03.2021
1157 Clear 4 1017 24 10000 7.2 40 19:19 22.03.2021
1158 Clear 5 1016 24 10000 8.75 50 18:40 22.03.2021
1159 Clear 7 1016 24 10000 8.75 50 18:21 22.03.2021
1160 Clear 7 1016 24 10000 6.69 40 17:48 22.03.2021
1161 Clear 8 1016 24 10000 6.69 60 17:22 22.03.2021
1162 Clouds 8 1016 23 10000 6.17 60 16:47 22.03.2021
1163 Clouds 8 1016 24 10000 6.69 50 16:22 22.03.2021
1164 Clear 9 1015 21 10000 7.2 50 15:39 22.03.2021
1165 Clear 14 1015 21 10000 7.2 50 15:19 22.03.2021
1166 Clear 14 1015 20 10000 7.2 50 14:53 22.03.2021
1167 Clear 12 1015 20 10000 6.69 50 14:34 22.03.2021
1168 Clear 12 1015 17 10000 7.2 50 13:48 22.03.2021
1169 Clear 12 1015 17 10000 7.2 50 13:27 22.03.2021
1170 Clear 11 1015 15 10000 6.69 50 12:55 22.03.2021
1171 Clear 11 1015 15 10000 6.69 50 12:26 22.03.2021
1172 Clear 9 1015 16 10000 6.69 40 11:49 22.03.2021
1173 Clear 9 1015 16 10000 6.69 40 11:29 22.03.2021
1174 Clear 8 1015 17 10000 7.72 0 10:46 22.03.2021
1175 Clear 8 1015 17 10000 7.72 0 10:25 22.03.2021
1176 Clear 7 1015 20 10000 5.66 20 09:49 22.03.2021
1177 Clear 1 1015 21 10000 4.12 360 09:30 22.03.2021
1178 Clear 5 1015 23 10000 4.12 350 08:46 22.03.2021
1179 Clear 0 1015 25 10000 4.63 20 08:27 22.03.2021
1180 Clear 1 1015 29 10000 4.63 360 07:50 22.03.2021
1181 Clear 0 1015 33 10000 5.66 10 07:30 22.03.2021
1182 Clouds -7 1005 94 10000 2.24 336 06:49 22.03.2021
1183 Clouds 0 1003 95 10000 2.24 264 02:47 22.03.2021
1184 Clouds 0 1004 95 10000 4.92 27 00:43 22.03.2021
1185 Snow 0 1018 71 10000 1.34 271 23:55 21.03.2021
1186 Snow 0 1019 73 10000 2.24 1 23:20 21.03.2021
1187 Snow -2 1004 95 10000 3.58 18 22:59 21.03.2021
1188 Snow -1 1004 95 10000 3.13 10 22:30 21.03.2021
1189 Snow -2 1005 95 10000 1.79 11 21:42 21.03.2021
1190 Snow -2 1018 62 10000 0.45 137 21:24 21.03.2021
1191 Snow -2 1018 59 10000 0.45 319 20:48 21.03.2021
1192 Clouds -6 1004 95 10000 2.24 13 20:29 21.03.2021
1193 Clouds -6 1005 95 10000 2.24 27 19:59 21.03.2021
1194 Snow -2 1004 95 10000 1.34 359 19:28 21.03.2021
1195 Clouds -6 1004 94 10000 0.89 359 18:55 21.03.2021
1196 Clouds 3 1015 26 10000 5.14 0 18:32 21.03.2021
1197 Clouds 6 1015 26 10000 5.14 0 17:54 21.03.2021
1198 Clouds 6 1015 26 10000 5.14 0 17:36 21.03.2021
1199 Clouds 5 1015 26 10000 5.14 0 17:18 21.03.2021
1200 Clouds 6 1015 24 10000 6.69 50 16:41 21.03.2021
1201 Clouds 6 1015 26 10000 9.26 40 16:22 21.03.2021
1202 Clouds 6 1015 24 10000 7.72 50 15:42 21.03.2021
1203 Clouds 5 1015 24 10000 9.77 40 15:20 21.03.2021
1204 Clouds 6 1015 22 10000 7.72 50 14:46 21.03.2021
1205 Clouds 6 1016 24 10000 7.2 0 14:27 21.03.2021
1206 Clouds 10 1016 26 10000 7.2 60 13:55 21.03.2021
1207 Clouds 13 1016 28 10000 5.66 70 13:33 21.03.2021
1208 Clouds 10 1017 28 10000 4.12 0 12:42 21.03.2021
1209 Clouds 9 1017 28 10000 5.14 0 12:24 21.03.2021
1210 Clouds 7 1017 30 10000 2.06 0 11:41 21.03.2021
1211 Clouds 7 1017 30 10000 2.06 0 11:20 21.03.2021
1212 Clouds 7 1017 30 10000 2.06 0 11:20 21.03.2021
1213 Clouds 6 1017 31 10000 2.57 180 10:43 21.03.2021
1214 Clouds 5 1017 36 10000 1.54 0 10:23 21.03.2021
1215 Clouds 4 1017 39 10000 1.03 0 09:46 21.03.2021
1216 Clouds 0 1017 41 10000 1.03 0 09:28 21.03.2021
1217 Clear 0 1005 80 10000 2.24 354 08:44 21.03.2021
1218 Clear -1 1005 81 10000 2.68 17 08:26 21.03.2021
1219 Clear -3 1020 46 10000 5.34 13 07:39 21.03.2021
1220 Clear -3 1005 81 10000 2.68 3 06:56 21.03.2021
1221 Clear -5 1005 79 10000 2.24 38 05:54 21.03.2021
1222 Clouds -4 1020 56 10000 5.91 13 02:25 21.03.2021
1223 Clouds -3 1021 57 10000 5.85 10 00:42 21.03.2021
1224 Clouds -3 1021 57 10000 5.51 9 00:22 21.03.2021
1225 Clouds -3 1021 56 10000 0.45 259 23:49 20.03.2021
1226 Clouds -3 1021 56 10000 5.16 9 23:22 20.03.2021
1227 Clouds -3 1006 90 10000 0.45 37 22:56 20.03.2021
1228 Clouds -4 1006 91 10000 0.45 353 22:23 20.03.2021
1229 Clouds -4 1005 91 10000 2.24 58 21:47 20.03.2021
1230 Clouds -4 1005 90 10000 2.24 359 21:25 20.03.2021
1231 Clouds -3 1005 91 10000 0.89 41 20:48 20.03.2021
1232 Clouds -3 1005 91 10000 2.68 14 20:23 20.03.2021
1233 Clouds -9 1005 92 10000 0.45 13 19:51 20.03.2021
1234 Clouds -9 1004 91 10000 5.06 14 19:28 20.03.2021
1235 Clouds -8 1004 91 10000 5.06 14 18:50 20.03.2021
1236 Clouds 1 1015 24 10000 7.72 0 18:27 20.03.2021
1237 Clouds 1 1015 24 10000 7.72 0 17:56 20.03.2021
1238 Clouds 1 1015 24 10000 7.72 0 17:33 20.03.2021
1239 Clouds 2 1015 23 10000 8.75 0 16:56 20.03.2021
1240 Clouds 1 1015 21 10000 8.75 30 16:37 20.03.2021
1241 Clouds 7 1015 21 10000 8.75 30 16:18 20.03.2021
1242 Clouds 7 1015 17 10000 7.2 0 15:39 20.03.2021
1243 Clouds 7 1015 17 10000 7.2 0 15:39 20.03.2021
1244 Clouds 6 1015 17 10000 6.69 30 14:53 20.03.2021
1245 Clouds 5 1015 21 10000 6.69 0 14:29 20.03.2021
1246 Clouds 6 1015 23 10000 7.2 40 13:43 20.03.2021
1247 Clouds 5 1016 23 10000 6.69 30 13:21 20.03.2021
1248 Clouds 4 1016 23 10000 8.23 30 12:28 20.03.2021
1249 Clouds 4 1016 24 10000 7.2 30 11:50 20.03.2021
1250 Clouds 3 1016 28 10000 7.72 40 11:30 20.03.2021
1251 Clouds 3 1016 31 10000 6.69 40 10:56 20.03.2021
1252 Clouds 2 1016 36 10000 5.66 0 10:37 20.03.2021
1253 Clouds 2 1016 36 10000 5.66 0 10:18 20.03.2021
1254 Clouds -2 1016 44 10000 1.54 0 09:29 20.03.2021
1255 Clouds -4 1002 93 10000 3.98 10 08:59 20.03.2021
1256 Clouds -4 1002 93 10000 3.98 10 08:39 20.03.2021
1257 Clouds -5 1001 93 10000 4.02 12 07:54 20.03.2021
1258 Clouds -5 1001 93 10000 4.02 12 07:32 20.03.2021
1259 Clouds -7 1000 93 10000 4.11 14 06:55 20.03.2021
1260 Clouds -7 1000 93 10000 3.98 15 06:27 20.03.2021
1261 Clouds -4 1000 93 10000 3.6 12 04:23 20.03.2021
1262 Clouds -4 1000 93 10000 3.6 12 03:42 20.03.2021
1263 Snow -4 1016 72 10000 3.71 17 00:35 20.03.2021
1264 Clouds -4 1015 71 10000 3.26 17 23:31 19.03.2021
1265 Snow -3 999 94 10000 3.51 21 22:59 19.03.2021
1266 Snow -3 1015 73 10000 3.51 21 22:38 19.03.2021
1267 Clouds -3 1015 69 10000 3.39 22 22:20 19.03.2021
1268 Clouds -3 1015 69 10000 3.39 22 22:20 19.03.2021
1269 Clouds -3 1014 70 10000 3.79 19 21:23 19.03.2021
1270 Clouds -3 997 94 10000 3.79 19 21:00 19.03.2021
1271 Clouds -3 997 93 10000 3.79 19 20:40 19.03.2021
1272 Clouds -3 1013 72 10000 3.78 13 20:22 19.03.2021
1273 Clouds -3 1013 66 10000 3.78 13 19:46 19.03.2021
1274 Snow -3 1013 65 10000 3.29 12 19:20 19.03.2021
1275 Snow -2 996 94 10000 3.29 12 18:41 19.03.2021
1276 Snow 0 1008 33 10000 6.17 0 18:20 19.03.2021
1277 Clouds 3 1008 33 10000 6.17 0 17:55 19.03.2021
1278 Clouds 4 1008 33 10000 6.17 0 17:31 19.03.2021
1279 Clouds 4 1008 34 10000 5.14 0 16:55 19.03.2021
1280 Clouds 4 1008 29 10000 4.63 0 16:29 19.03.2021
1281 Clouds 4 1008 27 10000 5.14 0 15:55 19.03.2021
1282 Clouds 4 1008 29 10000 6.69 0 15:26 19.03.2021
1283 Clouds 5 1008 34 10000 2.57 0 14:47 19.03.2021
1284 Snow 1 1008 31 10000 2.06 0 14:27 19.03.2021
1285 Clouds 1 1009 36 10000 1.03 0 13:40 19.03.2021
1286 Clouds 1 1009 36 10000 1.54 0 12:57 19.03.2021
1287 Clouds 1 1010 36 10000 3.6 160 12:35 19.03.2021
1288 Clouds 3 1010 33 10000 1.54 0 11:44 19.03.2021
1289 Clouds 2 1011 45 10000 0.51 0 10:54 19.03.2021
1290 Clouds 2 1011 45 10000 0.51 0 10:31 19.03.2021
1291 Clouds 2 1011 56 10000 2.06 100 09:50 19.03.2021
1292 Clouds -1 1012 56 10000 2.57 70 09:30 19.03.2021
1293 Snow -3 996 93 10000 2.47 358 08:58 19.03.2021
1294 Snow -3 996 93 10000 2.47 358 08:39 19.03.2021
1295 Clouds -3 996 93 10000 3.01 2 08:18 19.03.2021
1296 Clouds -4 996 94 10000 3.01 2 07:37 19.03.2021
1297 Clouds -4 996 94 10000 2.78 1 06:51 19.03.2021
1298 Clouds -3 1020 48 10000 3.36 358 02:45 19.03.2021
1299 Clouds -3 999 94 10000 3.32 359 00:58 19.03.2021
1300 Clouds -3 1000 95 10000 3.43 360 23:30 18.03.2021
1301 Clouds -3 1000 95 10000 3.43 360 23:30 18.03.2021
1302 Clouds -2 1017 75 10000 3.57 2 22:58 18.03.2021
1303 Clouds -2 1017 73 10000 3.57 2 22:39 18.03.2021
1304 Clouds -4 1018 70 10000 3.84 8 22:19 18.03.2021
1305 Clouds -2 1017 72 10000 3.84 8 21:39 18.03.2021
1306 Clouds -2 1017 79 10000 3.92 6 20:51 18.03.2021
1307 Clouds -2 1017 82 10000 3.81 4 20:32 18.03.2021
1308 Clouds 0 1015 34 10000 8.75 330 19:48 18.03.2021
1309 Clouds 0 1015 34 10000 8.75 330 19:29 18.03.2021
1310 Clouds 0 1015 34 10000 8.75 330 18:58 18.03.2021
1311 Clouds 1 1014 34 10000 9.26 320 18:34 18.03.2021
1312 Clouds 2 1014 29 10000 6.17 320 17:51 18.03.2021
1313 Clouds 3 1015 27 10000 6.69 340 17:26 18.03.2021
1314 Clouds 4 1015 25 10000 5.14 340 16:49 18.03.2021
1315 Clouds 4 1014 23 10000 7.2 330 16:30 18.03.2021
1316 Clouds 5 1015 23 10000 8.23 320 15:48 18.03.2021
1317 Clear 5 1015 27 10000 7.72 320 15:26 18.03.2021
1318 Clear 4 1015 24 10000 5.66 340 14:55 18.03.2021
1319 Clear 5 1016 19 10000 4.12 0 14:32 18.03.2021
1320 Clear 4 1016 15 10000 5.66 50 13:53 18.03.2021
1321 Clear 4 1017 24 10000 2.06 0 13:26 18.03.2021
1322 Clear 4 1017 24 10000 3.09 0 12:44 18.03.2021
1323 Clear 3 1017 27 10000 3.6 0 12:26 18.03.2021
1324 Clear 3 1018 25 10000 4.63 0 11:55 18.03.2021
1325 Clear 2 1018 27 10000 5.66 40 11:33 18.03.2021
1326 Clear 1 1019 29 10000 6.69 50 10:49 18.03.2021
1327 Clouds -2 1020 54 10000 4.3 6 10:27 18.03.2021
1328 Clouds 1 1020 59 10000 4.29 6 09:56 18.03.2021
1329 Clouds -1 1006 94 10000 1.34 3 09:29 18.03.2021
1330 Clouds -1 1007 94 10000 1.79 28 08:52 18.03.2021
1331 Clouds -2 1007 94 10000 1.34 349 08:32 18.03.2021
1332 Clouds -2 1007 94 10000 1.34 349 08:32 18.03.2021
1333 Clouds -2 1007 95 10000 1.34 18 07:54 18.03.2021
1334 Clouds -2 1006 95 10000 1.34 359 07:25 18.03.2021
1335 Clouds -2 1007 95 10000 0.45 20 06:30 18.03.2021
1336 Clouds -2 1007 95 10000 0.45 20 06:30 18.03.2021
1337 Clouds -2 1007 95 10000 0.89 346 05:55 18.03.2021
1338 Clouds -1 1007 95 10000 2.68 359 02:35 18.03.2021
1339 Clouds -1 1007 95 10000 2.68 359 02:35 18.03.2021
1340 Snow -1 1021 72 614 0.45 58 23:59 17.03.2021
1341 Snow 0 1021 70 658 3.33 349 22:58 17.03.2021
1342 Snow 0 1020 69 655 3.33 349 22:36 17.03.2021
1343 Snow 0 1020 69 655 3.33 349 22:36 17.03.2021
1344 Snow 0 1021 69 398 0.45 88 22:18 17.03.2021
1345 Snow 0 1007 96 397 4.92 1 21:42 17.03.2021
1346 Snow -5 1007 96 501 3.58 221 21:23 17.03.2021
1347 Snow -5 1007 96 501 5.36 20 20:45 17.03.2021
1348 Clouds -4 1007 96 10000 4.02 349 20:25 17.03.2021
1349 Clouds -4 1007 96 10000 4.02 349 20:25 17.03.2021
1350 Clouds -4 1007 95 10000 4.02 46 19:46 17.03.2021
1351 Clouds -4 1008 91 10000 1.79 80 19:25 17.03.2021
1352 Clouds -3 1009 88 10000 1.34 13 18:57 17.03.2021
1353 Clouds -3 1009 92 10000 4.87 0 18:38 17.03.2021
1354 Clouds 4 1010 86 10000 5.35 1 17:56 17.03.2021
1355 Clouds 3 1021 44 10000 2.24 315 17:27 17.03.2021
1356 Clouds 7 1010 85 10000 0.45 52 16:54 17.03.2021
1357 Clouds 7 1010 86 10000 1.34 24 16:36 17.03.2021
1358 Clear 8 1010 82 10000 1.34 359 16:18 17.03.2021
1359 Clear 8 1010 83 10000 5.77 354 15:37 17.03.2021
1360 Clear 7 1021 30 10000 1.34 76 14:45 17.03.2021
1361 Clear 11 1021 28 10000 1.79 310 14:27 17.03.2021
1362 Clear 9 1021 27 10000 2.24 106 13:56 17.03.2021
1363 Clear 10 1021 30 10000 2.68 56 13:32 17.03.2021
1364 Clouds 8 1022 37 10000 2.24 183 12:58 17.03.2021
1365 Clouds 3 1022 41 10000 0.89 283 12:34 17.03.2021
1366 Clouds 8 1022 43 10000 1.79 322 11:51 17.03.2021
1367 Clouds 6 1010 93 10000 3.58 20 11:23 17.03.2021
1368 Clouds 5 1011 92 10000 1.79 8 10:55 17.03.2021
1369 Clouds 5 1012 92 10000 1.79 30 10:31 17.03.2021
1370 Clouds 4 1022 54 10000 0.45 239 09:49 17.03.2021
1371 Clouds 4 1011 95 10000 2.68 14 09:28 17.03.2021
1372 Clouds 3 1011 95 10000 1.79 59 08:59 17.03.2021
1373 Clouds 3 1024 69 10000 4.6 342 08:39 17.03.2021
1374 Clouds 3 1024 69 10000 4.75 358 07:50 17.03.2021
1375 Clouds 3 1024 73 10000 4.75 358 07:32 17.03.2021
1376 Clouds 2 1012 96 10000 4.1 355 06:46 17.03.2021
1377 Clouds 3 1013 96 1322 0.45 10 04:26 17.03.2021
1378 Clouds 3 1024 81 694 3.73 356 03:25 17.03.2021
1379 Clouds 3 1015 95 10000 3.9 0 00:40 17.03.2021
1380 Clouds 1 1016 95 10000 0.45 359 23:33 16.03.2021
1381 Clouds -2 1016 95 10000 3.92 359 22:59 16.03.2021
1382 Clouds -2 1015 95 10000 0.45 25 22:35 16.03.2021
1383 Clouds -2 1015 95 10000 0.45 25 22:35 16.03.2021
1384 Clouds -2 1015 94 10000 3.72 360 21:54 16.03.2021
1385 Clouds -2 1015 95 10000 3.72 360 21:35 16.03.2021
1386 Clouds -2 1016 95 10000 3.18 355 20:59 16.03.2021
1387 Clouds -2 1016 95 10000 3.18 355 20:41 16.03.2021
1388 Clouds -2 1016 94 10000 3.51 358 20:18 16.03.2021
1389 Clouds -2 1016 94 10000 3.51 358 19:42 16.03.2021
1390 Clouds -2 1016 92 10000 0.45 7 19:23 16.03.2021
1391 Clear -1 1016 89 10000 3.72 2 18:45 16.03.2021
1392 Clear 5 1016 90 10000 0.45 4 18:27 16.03.2021
1393 Clear 6 1015 88 10000 0.89 3 17:50 16.03.2021
1394 Clear 5 1015 87 10000 0.89 21 17:30 16.03.2021
1395 Clear 8 1015 86 10000 0.45 10 16:53 16.03.2021
1396 Clear 8 1015 84 10000 0.45 11 16:30 16.03.2021
1397 Clear 9 1015 84 10000 4.39 3 15:47 16.03.2021
1398 Clear 8 1024 41 10000 1.79 268 15:21 16.03.2021
1399 Clear 11 1024 38 10000 2.68 219 14:58 16.03.2021
1400 Clear 15 1030 10 10000 4.4 3 14:40 16.03.2021
1401 Clear 15 1030 10 10000 4.4 3 14:40 16.03.2021
1402 Clear 12 1024 42 10000 0.45 329 14:21 16.03.2021
1403 Clear 12 1025 42 10000 0.45 345 13:54 16.03.2021
1404 Clouds 11 1025 41 10000 0.89 274 13:26 16.03.2021
1405 Clouds 11 1025 36 10000 1.79 86 12:54 16.03.2021
1406 Clouds 10 1025 45 10000 0.45 308 12:35 16.03.2021
1407 Clouds 9 1025 43 10000 0.89 305 11:54 16.03.2021
1408 Clouds 8 1025 45 10000 0.45 301 11:27 16.03.2021
1409 Clouds 8 1025 36 10000 0.89 29 10:44 16.03.2021
1410 Clouds 3 1026 46 10000 4.06 356 10:20 16.03.2021
1411 Clouds 3 1026 46 10000 4.06 356 10:20 16.03.2021
1412 Clouds 3 1025 39 10000 1.34 193 09:39 16.03.2021
1413 Clouds 2 1026 56 10000 4.11 360 09:18 16.03.2021
1414 Clouds 2 1013 90 10000 3.58 359 08:48 16.03.2021
1415 Clouds 2 1012 89 10000 3.58 7 08:30 16.03.2021
1416 Clouds 1 1012 92 10000 2.68 25 07:36 16.03.2021
1417 Clouds 1 1011 95 10000 4.02 13 06:40 16.03.2021
1418 Clouds 1 1011 95 10000 3.58 42 06:00 16.03.2021
1419 Clouds 1 1010 95 10000 4.02 359 05:34 16.03.2021
1420 Clouds 1 1011 96 10000 3.13 333 02:46 16.03.2021
1421 Clouds 1 1011 96 10000 2.24 349 02:24 16.03.2021
1422 Clouds 3 1010 95 10000 3.13 350 23:59 15.03.2021
1423 Clouds 3 1010 95 10000 2.68 20 23:29 15.03.2021
1424 Clouds 2 1010 95 10000 1.79 6 22:55 15.03.2021
1425 Clouds 2 1010 95 10000 2.68 357 22:36 15.03.2021
1426 Clouds -3 1010 94 10000 2.68 160 21:55 15.03.2021
1427 Clouds -4 1010 95 10000 1.34 32 21:36 15.03.2021
1428 Clouds 3 1011 95 10000 1.79 55 21:18 15.03.2021
1429 Clouds -3 1010 93 10000 1.34 359 20:40 15.03.2021
1430 Clouds -3 1011 95 10000 1.79 20 20:22 15.03.2021
1431 Clouds 6 1021 33 10000 5.66 0 19:51 15.03.2021
1432 Clouds 6 1021 33 10000 5.66 0 19:32 15.03.2021
1433 Clouds 6 1021 33 10000 5.66 0 18:57 15.03.2021
1434 Clouds 7 1021 30 10000 5.14 310 18:32 15.03.2021
1435 Clouds 7 1021 30 10000 5.66 360 17:56 15.03.2021
1436 Clouds 8 1021 29 10000 5.14 310 17:32 15.03.2021
1437 Clouds 8 1020 25 10000 5.66 310 16:55 15.03.2021
1438 Clouds 8 1020 23 10000 8.75 310 16:35 15.03.2021
1439 Clouds 8 1019 25 10000 5.66 290 15:47 15.03.2021
1440 Clouds 14 1019 25 10000 5.66 290 15:26 15.03.2021
1441 Clouds 14 1019 25 10000 4.12 280 14:45 15.03.2021
1442 Clouds 9 1020 27 10000 5.14 240 14:24 15.03.2021
1443 Clouds 9 1020 29 10000 3.09 170 13:53 15.03.2021
1444 Clouds 13 1021 29 10000 2.06 0 13:34 15.03.2021
1445 Clouds 7 1022 30 10000 2.06 0 12:51 15.03.2021
1446 Clouds 5 1022 35 10000 1.03 0 12:20 15.03.2021
1447 Clouds 6 1023 34 10000 1.54 0 11:56 15.03.2021
1448 Clouds 8 1023 42 10000 2.57 160 11:38 15.03.2021
1449 Clouds 6 1024 45 10000 1.03 0 10:59 15.03.2021
1450 Clouds 3 1022 44 10000 3.35 354 10:33 15.03.2021
1451 Clouds 2 1022 52 10000 3.52 356 09:54 15.03.2021
1452 Clouds 1 1023 54 10000 3.52 356 09:36 15.03.2021
1453 Clouds 0 1023 63 10000 3.35 357 08:59 15.03.2021
1454 Clouds 0 1023 62 10000 3.35 357 08:40 15.03.2021
1455 Clear -1 1023 63 10000 3.55 5 07:56 15.03.2021
1456 Clear 0 1022 61 10000 3.55 5 07:32 15.03.2021
1457 Clear -2 1022 61 10000 3.29 12 06:41 15.03.2021
1458 Clear -2 1010 86 10000 3.26 15 05:33 15.03.2021
1459 Clear -2 1011 87 10000 2.95 9 01:47 15.03.2021
1460 Clouds 0 1011 94 10000 1.34 21 23:59 14.03.2021
1461 Clouds 0 1023 64 10000 3.49 355 23:21 14.03.2021
1462 Clouds 0 1023 65 10000 0.45 125 22:47 14.03.2021
1463 Clouds 1 1023 66 10000 3.9 355 22:23 14.03.2021
1464 Clouds 0 1011 92 10000 1.34 3 21:49 14.03.2021
1465 Clouds 1 1010 93 10000 3.13 357 21:20 14.03.2021
1466 Clouds 0 1010 95 10000 1.34 352 20:50 14.03.2021
1467 Clouds 1 1010 94 10000 3.54 359 20:26 14.03.2021
1468 Clouds 1 1010 94 10000 3.54 359 20:26 14.03.2021
1469 Clouds 1 1010 92 10000 0.89 359 19:48 14.03.2021
1470 Clouds 0 1010 93 10000 1.34 11 19:24 14.03.2021
1471 Clouds 1 1009 93 10000 3.38 359 18:49 14.03.2021
1472 Clouds 4 1020 26 10000 5.14 310 18:27 14.03.2021
1473 Clouds 5 1020 26 10000 5.14 310 17:41 14.03.2021
1474 Clouds 5 1020 26 10000 5.14 310 17:22 14.03.2021
1475 Clouds 5 1020 26 10000 5.66 290 16:46 14.03.2021
1476 Clouds 5 1020 26 10000 5.66 290 16:46 14.03.2021
1477 Clouds 5 1020 26 10000 6.17 350 16:27 14.03.2021
1478 Clouds 6 1020 24 10000 5.66 360 15:53 14.03.2021
1479 Clouds 5 1020 24 10000 3.6 10 15:34 14.03.2021
1480 Clouds 5 1020 24 10000 3.6 350 14:41 14.03.2021
1481 Clouds 6 1020 24 10000 7.72 310 14:21 14.03.2021
1482 Clouds 6 1020 26 10000 6.17 310 13:49 14.03.2021
1483 Clouds 5 1021 26 10000 7.2 330 13:28 14.03.2021
1484 Clouds 5 1021 26 10000 7.2 330 13:28 14.03.2021
1485 Clouds 6 1020 26 10000 6.17 340 12:46 14.03.2021
1486 Clouds 5 1020 24 10000 4.63 0 12:28 14.03.2021
1487 Clouds 5 1020 22 10000 7.2 0 11:47 14.03.2021
1488 Clouds 5 1020 26 10000 4.63 310 11:29 14.03.2021
1489 Clouds 4 1019 32 10000 4.12 0 10:56 14.03.2021
1490 Clouds 3 1019 61 10000 2.06 0 10:36 14.03.2021
1491 Clouds 3 1019 61 10000 2.06 0 10:18 14.03.2021
1492 Clouds 2 1019 75 10000 1.03 0 09:42 14.03.2021
1493 Clouds 2 1019 75 10000 1.03 0 09:21 14.03.2021
1494 Clouds 2 1006 87 10000 0.89 359 08:40 14.03.2021
1495 Clouds 2 1006 87 10000 3.13 353 08:18 14.03.2021
1496 Clouds 2 1006 87 10000 3.13 353 08:18 14.03.2021
1497 Clouds 2 1017 68 10000 0.45 74 07:35 14.03.2021
1498 Snow 1 1006 86 10000 2.8 356 06:27 14.03.2021
1499 Clouds 1 1007 78 10000 2.82 13 02:21 14.03.2021
1500 Clouds 1 1008 82 10000 2.83 9 00:49 14.03.2021
1501 Clouds 1 1008 79 10000 2.76 11 00:19 14.03.2021
1502 Clouds 2 1008 80 10000 2.76 11 23:42 13.03.2021
1503 Clouds 2 1008 79 10000 2.81 13 23:20 13.03.2021
1504 Clouds 3 1008 79 10000 0.45 10 22:49 13.03.2021
1505 Clouds 3 1008 80 10000 2.73 12 22:25 13.03.2021
1506 Clouds 3 1008 82 10000 2.73 12 21:40 13.03.2021
1507 Clouds 3 1009 83 10000 2.75 13 21:40 13.03.2021
1508 Clouds 3 1008 84 10000 2.62 7 21:19 13.03.2021
1509 Clouds 3 1008 89 10000 2.62 7 20:48 13.03.2021
1510 Clouds 3 1008 88 10000 2.77 0 20:26 13.03.2021
1511 Clouds -1 1008 91 10000 2.77 0 19:45 13.03.2021
1512 Clouds -1 1008 91 10000 2.09 340 19:24 13.03.2021
1513 Clouds -1 1007 89 10000 2.12 341 18:43 13.03.2021
1514 Clouds 8 1017 38 10000 7.72 190 18:21 13.03.2021
1515 Clouds 8 1017 38 10000 7.72 190 17:52 13.03.2021
1516 Clouds 9 1017 38 10000 7.72 190 17:32 13.03.2021
1517 Clouds 9 1017 38 10000 7.2 180 16:57 13.03.2021
1518 Clouds 9 1017 35 10000 8.23 190 16:38 13.03.2021
1519 Clouds 10 1017 33 10000 6.17 180 15:57 13.03.2021
1520 Clear 12 1017 33 10000 5.66 180 15:21 13.03.2021
1521 Clear 12 1018 35 10000 5.14 210 14:42 13.03.2021
1522 Clear 12 1018 38 10000 4.12 210 14:23 13.03.2021
1523 Clear 12 1018 38 10000 4.12 210 14:23 13.03.2021
1524 Clear 10 1020 50 10000 1.54 0 13:30 13.03.2021
1525 Clear 9 1020 49 10000 1.54 200 12:54 13.03.2021
1526 Clear 8 1021 53 10000 1.54 110 12:36 13.03.2021
1527 Clear 6 1021 61 10000 1.03 0 11:58 13.03.2021
1528 Clear 6 1021 70 10000 1.03 0 11:39 13.03.2021
1529 Clear 5 1021 70 10000 1.03 0 11:20 13.03.2021
1530 Clouds 2 1022 81 10000 0.51 0 10:31 13.03.2021
1531 Fog 3 1022 86 10000 1.54 60 09:59 13.03.2021
1532 Fog 2 1022 93 10000 1.03 0 09:33 13.03.2021
1533 Clouds -1 1020 63 10000 0.74 255 08:54 13.03.2021
1534 Clouds -1 1020 64 10000 0.26 15 08:26 13.03.2021
1535 Clouds -1 1020 65 10000 0.26 15 07:57 13.03.2021
1536 Clouds -1 1020 64 10000 0.26 15 07:33 13.03.2021
1537 Clouds -1 1020 67 10000 0.72 46 05:30 13.03.2021
1538 Clear 0 1021 68 10000 1.63 12 02:42 13.03.2021
1539 Clouds 1 1025 43 10000 1.88 19 00:33 13.03.2021
1540 Clouds 1 1020 83 10000 0.45 60 23:38 12.03.2021
1541 Clouds 1 1020 83 10000 1.34 60 23:20 12.03.2021
1542 Clouds 2 1025 39 10000 2.51 21 22:32 12.03.2021
1543 Clouds 3 1024 37 10000 2.81 18 21:58 12.03.2021
1544 Clouds 3 1020 85 10000 1.79 60 21:38 12.03.2021
1545 Clouds 3 1019 84 10000 0.89 61 21:18 12.03.2021
1546 Clouds 3 1019 87 10000 0.45 120 20:48 12.03.2021
1547 Clouds 1 1019 64 10000 3.02 10 20:23 12.03.2021
1548 Clouds 1 1008 73 10000 3.02 10 19:45 12.03.2021
1549 Clouds 1 1008 73 10000 3.02 10 19:45 12.03.2021
1550 Clouds 2 1008 80 10000 2.77 4 19:25 12.03.2021
1551 Clouds 2 1008 89 10000 2.9 7 18:50 12.03.2021
1552 Clouds 3 1019 87 10000 1.54 0 18:28 12.03.2021
1553 Clouds 3 1019 87 10000 1.54 0 17:44 12.03.2021
1554 Clouds 3 1019 87 10000 1.54 0 17:26 12.03.2021
1555 Clouds 3 1018 81 10000 1.54 0 16:44 12.03.2021
1556 Clouds 3 1018 81 10000 4.63 330 16:23 12.03.2021
1557 Clouds 3 1018 81 10000 4.63 330 16:23 12.03.2021
1558 Clouds 7 1016 57 10000 9.26 310 15:38 12.03.2021
1559 Clouds 5 1016 54 10000 7.72 200 14:53 12.03.2021
1560 Clouds 4 1016 62 10000 6.17 190 14:22 12.03.2021
1561 Clouds 6 1017 62 10000 5.14 200 13:58 12.03.2021
1562 Clouds 6 1017 62 10000 5.14 200 13:58 12.03.2021
1563 Clouds 6 1017 58 10000 7.2 200 13:37 12.03.2021
1564 Clouds 6 1017 58 10000 7.2 200 13:18 12.03.2021
1565 Clouds 7 1017 62 10000 5.66 200 12:43 12.03.2021
1566 Clouds 8 1018 62 10000 3.09 190 12:25 12.03.2021
1567 Clouds 7 1018 71 10000 2.06 140 11:53 12.03.2021
1568 Clouds 5 1018 81 10000 1.54 210 11:24 12.03.2021
1569 Clouds 6 1019 81 10000 0.51 0 10:55 12.03.2021
1570 Clouds 5 1019 81 10000 0.51 0 10:27 12.03.2021
1571 Clouds 4 1019 87 10000 1.54 60 09:57 12.03.2021
1572 Clouds 6 1019 93 10000 1.03 0 09:26 12.03.2021
1573 Clouds 5 1018 81 165 2.14 208 08:46 12.03.2021
1574 Clouds 5 1018 82 142 1.85 202 07:59 12.03.2021
1575 Clouds 5 1018 82 142 1.85 202 07:38 12.03.2021
1576 Clouds 6 1018 80 89 1.97 200 06:57 12.03.2021
1577 Clouds 6 1017 79 106 1.64 204 06:28 12.03.2021
1578 Clouds 7 1019 74 357 1.37 217 02:58 12.03.2021
1579 Clouds 6 1018 78 10000 0.38 2 00:51 12.03.2021
1580 Clouds 7 1019 79 10000 1.63 12 23:31 11.03.2021
1581 Clouds 7 1012 96 10000 1.85 24 22:51 11.03.2021
1582 Clouds 7 1012 96 10000 1.85 15 22:30 11.03.2021
1583 Clouds 7 1019 76 10000 1.85 15 21:55 11.03.2021
1584 Clouds 8 1019 77 10000 1.85 16 21:36 11.03.2021
1585 Clouds 8 1019 76 10000 1.89 2 21:18 11.03.2021
1586 Clouds 6 1012 96 10000 1.88 3 20:41 11.03.2021
1587 Clouds 6 1012 96 10000 1.64 355 20:19 11.03.2021
1588 Clear 9 1018 51 10000 5.14 230 19:44 11.03.2021
1589 Clear 9 1018 51 10000 5.14 230 19:26 11.03.2021
1590 Clear 9 1018 51 10000 5.14 230 18:46 11.03.2021
1591 Clear 11 1018 51 10000 4.12 0 18:28 11.03.2021
1592 Clear 11 1018 48 10000 4.63 230 17:44 11.03.2021
1593 Clear 13 1018 45 10000 5.14 220 16:53 11.03.2021
1594 Clear 14 1018 45 10000 4.63 220 16:27 11.03.2021
1595 Clouds 14 1018 45 10000 5.14 210 15:48 11.03.2021
1596 Clouds 13 1019 45 10000 4.12 220 15:21 11.03.2021
1597 Clear 18 1019 42 10000 3.6 230 14:46 11.03.2021
1598 Clear 17 1020 45 10000 2.06 0 14:19 11.03.2021
1599 Clear 17 1020 44 10000 1.54 0 13:47 11.03.2021
1600 Clear 15 1021 44 10000 1.03 0 13:28 11.03.2021
1601 Clear 14 1022 41 10000 2.06 200 12:57 11.03.2021
1602 Clouds 13 1022 40 10000 1.03 0 12:37 11.03.2021
1603 Clouds 12 1022 40 10000 1.03 0 12:19 11.03.2021
1604 Clouds 11 1022 50 10000 1.03 0 11:42 11.03.2021
1605 Clouds 10 1023 53 10000 1.54 0 11:20 11.03.2021
1606 Clouds 6 1013 85 10000 2.37 196 10:30 11.03.2021
1607 Clouds 8 1013 84 10000 1.45 178 09:57 11.03.2021
1608 Clouds 7 1012 82 10000 1.45 178 09:37 11.03.2021
1609 Clouds 6 1012 83 10000 0.59 135 09:18 11.03.2021
1610 Clouds 2 1012 83 10000 0.59 135 08:44 11.03.2021
1611 Clouds 3 1022 63 10000 0.74 73 08:18 11.03.2021
1612 Clouds 3 1021 62 10000 1.71 28 07:28 11.03.2021
1613 Clouds 4 1021 62 10000 0.45 10 06:49 11.03.2021
1614 Clouds 4 1021 61 10000 2.07 29 06:24 11.03.2021
1615 Clouds 3 1022 59 10000 2.32 28 02:49 11.03.2021
1616 Clouds 3 1022 57 10000 1.88 23 00:54 11.03.2021
1617 Clouds 3 1022 57 10000 1.87 26 23:27 10.03.2021
1618 -273 0 0 0 0 0 22:53 10.03.2021
1619 Clouds 5 1022 55 10000 1.87 26 22:30 10.03.2021
1620 Clouds 5 1022 53 10000 1.92 23 21:47 10.03.2021
1621 Clouds 6 1024 13 10000 1.89 17 21:23 10.03.2021
1622 Clouds 6 1024 12 10000 1.88 17 20:46 10.03.2021
1623 Clouds 6 1024 12 10000 1.67 5 20:28 10.03.2021
1624 Clouds 8 1023 12 10000 1.67 5 19:49 10.03.2021
1625 Clouds 7 1018 76 10000 0.89 45 19:28 10.03.2021
1626 Clouds 4 1021 68 10000 0.85 329 18:46 10.03.2021
1627 Clouds 7 1010 70 10000 1.23 240 18:24 10.03.2021
1628 Clouds 7 1010 62 10000 1.22 241 18:24 10.03.2021
1629 Clouds 7 1010 41 10000 1.23 240 17:55 10.03.2021
1630 Clouds 7 1010 36 10000 1.23 240 17:37 10.03.2021
1631 Clouds 8 1010 37 10000 1.69 235 17:19 10.03.2021
1632 Clouds 8 1010 34 10000 1.69 235 16:42 10.03.2021
1633 Clouds 8 1010 35 10000 1.69 242 16:22 10.03.2021
1634 Clouds 10 1009 38 10000 1.69 242 15:45 10.03.2021
1635 Clouds 13 1018 20 10000 1.79 215 15:23 10.03.2021
1636 Clouds 13 1018 19 10000 0.89 352 14:48 10.03.2021
1637 Clear 12 1019 21 10000 1.79 203 14:20 10.03.2021
1638 Clear 12 1019 21 10000 1.79 203 14:20 10.03.2021
1639 Clear 12 1019 24 10000 0.89 270 13:51 10.03.2021
1640 Clear 12 1019 24 10000 0.89 270 13:51 10.03.2021
1641 Clear 12 1019 20 10000 0.45 237 13:27 10.03.2021
1642 Clear 10 1020 22 10000 0.89 14 12:45 10.03.2021
1643 Clear 9 1020 25 10000 0.89 297 12:19 10.03.2021
1644 Clear 9 1022 33 10000 0.45 242 11:33 10.03.2021
1645 Clear 7 1024 12 10000 1.35 246 10:59 10.03.2021
1646 Clear 8 1024 12 10000 1.37 246 10:41 10.03.2021
1647 Clear 6 1022 45 10000 0.89 226 10:23 10.03.2021
1648 Clear 6 1021 61 10000 0.78 225 09:45 10.03.2021
1649 Clear 4 1024 16 10000 0.77 32 09:24 10.03.2021
1650 Clear 4 1024 16 10000 0.77 32 09:24 10.03.2021
1651 Clear 4 1024 16 10000 0.77 32 09:24 10.03.2021
1652 Clear -1 1008 60 10000 0.77 32 08:57 10.03.2021
1653 Clear 2 1018 74 10000 0.45 113 08:39 10.03.2021
1654 Clear -3 1020 57 10000 1.76 28 08:20 10.03.2021
1655 Clear -3 1019 55 10000 1.76 28 07:31 10.03.2021
1656 Clear -3 1019 58 10000 2.26 26 06:56 10.03.2021
1657 Clear -3 1019 58 10000 2.26 26 06:32 10.03.2021
1658 Clear -3 1020 68 10000 2.9 18 02:42 10.03.2021
1659 Clouds -2 1020 62 10000 3.13 16 23:52 09.03.2021
1660 Clouds -2 1020 63 10000 3.45 13 23:24 09.03.2021
1661 Clouds -2 1006 91 10000 3.45 13 22:42 09.03.2021
1662 Clouds -2 1019 61 10000 3.72 15 22:23 09.03.2021
1663 Clouds -1 1019 61 10000 3.72 15 21:46 09.03.2021
1664 Clouds -2 1005 91 10000 3.72 14 21:25 09.03.2021
1665 Clouds -2 1005 91 10000 3.74 14 21:25 09.03.2021
1666 Clouds -1 1005 93 10000 3.76 15 20:58 09.03.2021
1667 Clouds -1 1005 95 10000 3.74 14 20:40 09.03.2021
1668 Clouds -1 1005 95 10000 3.74 14 20:40 09.03.2021
1669 Clouds -1 1005 94 10000 3.51 17 20:21 09.03.2021
1670 Clouds 1 1005 95 10000 3.51 17 19:47 09.03.2021
1671 Clouds 1 1005 95 10000 3.23 15 19:26 09.03.2021
1672 Clouds 1 1004 92 10000 3.46 13 18:48 09.03.2021
1673 Clouds 3 1004 94 10000 3.34 9 18:26 09.03.2021
1674 Clouds 4 1004 95 10000 3.34 9 17:53 09.03.2021
1675 Clouds 2 1004 94 10000 3.34 9 17:30 09.03.2021
1676 Clouds 5 1004 95 10000 3.26 5 16:55 09.03.2021
1677 Clouds 3 1004 95 10000 3.26 5 16:36 09.03.2021
1678 Clouds 5 1004 95 10000 3.23 1 16:18 09.03.2021
1679 Clouds 6 1004 96 10000 3.23 1 15:40 09.03.2021
1680 Clouds 11 1021 12 10000 3.06 360 15:20 09.03.2021
1681 Clouds 4 1016 45 10000 0.89 61 14:28 09.03.2021
1682 Clouds 4 1004 95 10000 2.57 3 14:28 09.03.2021
1683 Clouds 4 1004 95 10000 2.57 3 13:57 09.03.2021
1684 Clouds 4 1017 49 10000 0.45 240 13:36 09.03.2021
1685 Clouds 7 1016 40 10000 1.34 237 13:18 09.03.2021
1686 Clouds 4 1016 44 10000 2.24 271 12:39 09.03.2021
1687 Clouds 4 1016 44 10000 0.89 231 12:18 09.03.2021
1688 Clouds 3 1016 48 10000 1.79 269 11:41 09.03.2021
1689 Clouds 3 1016 48 10000 1.34 0 11:20 09.03.2021
1690 Clouds 3 1016 46 10000 0.89 352 10:47 09.03.2021
1691 Clouds 1 1017 68 10000 2.72 2 10:23 09.03.2021
1692 Clouds 2 1016 53 10000 1.79 245 09:58 09.03.2021
1693 Clouds 2 1016 56 10000 0.89 241 09:39 09.03.2021
1694 Clouds 1 1016 78 10000 2.8 7 09:21 09.03.2021
1695 Clouds 0 1003 95 10000 2.82 12 08:35 09.03.2021
1696 Clouds 0 1003 95 10000 2.82 12 08:35 09.03.2021
1697 Clouds 0 1016 77 10000 2.82 12 07:50 09.03.2021
1698 Clouds 0 1015 75 10000 2.81 14 07:31 09.03.2021
1699 Clouds 0 1020 50 10000 2.77 11 06:59 09.03.2021
1700 Clouds 0 1002 95 10000 2.72 8 05:54 09.03.2021
1701 Snow 0 1002 96 10000 2.54 13 03:51 09.03.2021
1702 Clouds 1 1016 73 10000 2.46 14 00:18 09.03.2021
1703 Clouds 1 1016 73 10000 2.46 14 23:39 08.03.2021
1704 Snow 1 1016 76 10000 2.54 14 23:21 08.03.2021
1705 Clouds 2 1016 77 10000 2.53 14 22:43 08.03.2021
1706 Snow 1 1003 96 7356 2.64 16 22:25 08.03.2021
1707 Clouds 2 1016 79 7356 2.64 16 21:50 08.03.2021
1708 Clouds 2 1003 96 7356 2.64 16 21:30 08.03.2021
1709 Clouds 2 1003 96 4534 2.58 17 20:45 08.03.2021
1710 Clouds 2 1015 72 10000 2.57 17 20:24 08.03.2021
1711 Clouds 5 1013 37 10000 4.63 40 19:54 08.03.2021
1712 Clouds 5 1013 37 10000 4.63 40 19:27 08.03.2021
1713 Clouds 5 1013 53 10000 2.06 0 18:38 08.03.2021
1714 Clouds 5 1013 53 10000 2.06 0 18:20 08.03.2021
1715 Clouds 6 1012 62 10000 4.63 240 17:49 08.03.2021
1716 Clouds 5 1012 58 10000 3.6 0 17:24 08.03.2021
1717 Clouds 7 1012 38 10000 4.12 50 16:45 08.03.2021
1718 Clouds 6 1012 38 10000 4.12 50 16:26 08.03.2021
1719 Clouds 7 1012 38 10000 3.09 70 15:48 08.03.2021
1720 Clouds 6 1012 38 10000 3.6 60 15:25 08.03.2021
1721 Clouds 7 1013 40 10000 1.54 10 14:38 08.03.2021
1722 Clouds 7 1013 40 10000 1.54 10 14:19 08.03.2021
1723 Clouds 5 1013 43 10000 1.54 0 13:25 08.03.2021
1724 Clouds 5 1014 54 10000 1.54 0 12:59 08.03.2021
1725 Clouds 5 1014 62 10000 1.54 200 12:41 08.03.2021
1726 Clouds 5 1014 62 10000 1.54 200 12:20 08.03.2021
1727 Clouds 4 1014 71 10000 1.03 0 11:37 08.03.2021
1728 Clouds 4 1014 71 10000 1.03 0 11:18 08.03.2021
1729 Clouds 4 1014 60 3588 0.45 273 10:41 08.03.2021
1730 Clouds 3 1014 74 10000 1.89 7 10:19 08.03.2021
1731 Clouds 1 1014 82 10000 0.45 99 09:30 08.03.2021
1732 Clouds 2 1014 84 10000 1.91 12 08:54 08.03.2021
1733 Clouds 2 1014 85 10000 1.76 13 08:27 08.03.2021
1734 Clouds 2 1014 86 9974 1.89 17 07:23 08.03.2021
1735 Clouds 2 1014 86 9831 1.88 17 06:38 08.03.2021
1736 Clouds 3 1015 81 200 0.97 359 02:59 08.03.2021
1737 Clouds 2 1016 82 266 0.81 20 00:43 08.03.2021
1738 Clouds 2 1016 83 181 0.16 26 23:54 07.03.2021
1739 Clouds 2 1016 83 223 0.08 332 23:23 07.03.2021
1740 Clouds 3 1016 84 221 0.08 334 22:50 07.03.2021
1741 Clouds 3 1016 83 139 0.18 310 22:29 07.03.2021
1742 Clouds 5 1016 83 140 0.17 308 21:56 07.03.2021
1743 Clouds 5 1016 82 139 0.18 310 21:34 07.03.2021
1744 Clouds 4 1016 80 261 0.45 46 20:59 07.03.2021
1745 Clouds 5 1016 79 261 0.25 298 20:41 07.03.2021
1746 Clouds 5 1016 78 282 0.45 91 20:19 07.03.2021
1747 Clouds 5 1016 81 282 0.25 263 19:41 07.03.2021
1748 Clouds 5 1016 81 3899 0.69 204 19:22 07.03.2021
1749 Clouds 5 1016 81 3899 0.69 204 19:22 07.03.2021
1750 Clouds 6 1016 80 3899 0.69 204 18:56 07.03.2021
1751 Clouds 8 1016 58 10000 2.57 220 18:38 07.03.2021
1752 Clouds 8 1016 58 10000 2.57 220 18:18 07.03.2021
1753 Clouds 8 1016 58 10000 2.57 220 17:39 07.03.2021
1754 Clouds 7 1016 58 10000 2.57 220 17:19 07.03.2021
1755 Clouds 7 1016 58 10000 3.09 230 16:43 07.03.2021
1756 Clouds 7 1016 62 10000 3.09 210 16:21 07.03.2021
1757 Clouds 7 1017 62 10000 3.09 230 15:51 07.03.2021
1758 Clouds 7 1017 58 10000 2.57 210 15:31 07.03.2021
1759 Clouds 7 1017 54 10000 3.09 210 14:56 07.03.2021
1760 Clouds 9 1018 58 10000 1.54 250 14:29 07.03.2021
1761 Clouds 9 1019 62 10000 1.54 220 13:51 07.03.2021
1762 Clouds 8 1019 71 10000 1.03 0 13:29 07.03.2021
1763 Clouds 8 1019 76 10000 1.03 0 12:50 07.03.2021
1764 Clouds 8 1020 87 10000 1.03 0 12:32 07.03.2021
1765 Clouds 7 1020 87 10000 1.81 202 11:58 07.03.2021
1766 Clouds 6 1021 93 10000 0.51 0 11:23 07.03.2021
1767 Clouds 6 1021 87 10000 0.78 207 10:54 07.03.2021
1768 Clouds 5 1021 100 10000 1.03 0 10:36 07.03.2021
1769 Fog 5 1021 100 10000 0.51 0 09:53 07.03.2021
1770 Fog 4 1021 100 500 1.03 0 09:27 07.03.2021
1771 Clouds 4 1020 92 778 0.25 195 08:57 07.03.2021
1772 Clouds 4 1020 92 881 0.26 195 08:38 07.03.2021
1773 Clouds 4 1022 55 810 0.4 164 08:20 07.03.2021
1774 Clouds 4 1020 94 867 0.4 207 04:57 07.03.2021
1775 Clouds 3 1022 93 548 1.57 179 02:26 07.03.2021
1776 Clouds 5 1022 91 326 1.97 185 00:24 07.03.2021
1777 Clouds 5 1023 92 326 1.97 185 23:40 06.03.2021
1778 Clouds 5 1023 91 320 1.27 182 23:19 06.03.2021
1779 Clouds 5 1022 90 320 1.27 182 22:41 06.03.2021
1780 Clouds 5 1022 90 167 0.81 179 22:21 06.03.2021
1781 Clouds 5 1022 92 167 0.81 179 21:40 06.03.2021
1782 Clouds 5 1022 91 234 0.45 217 21:20 06.03.2021
1783 Clouds 5 1022 92 230 0.87 189 20:41 06.03.2021
1784 Clouds 5 1022 88 647 0.45 53 19:51 06.03.2021
1785 Clouds 6 1022 86 696 0.89 59 19:25 06.03.2021
1786 Clouds 6 1022 89 174 1.37 204 18:57 06.03.2021
1787 Clouds 6 1021 87 9000 1.54 190 18:39 06.03.2021
1788 Clouds 6 1021 87 9000 1.54 190 18:20 06.03.2021
1789 Clouds 7 1021 87 9000 1.54 190 17:47 06.03.2021
1790 Clouds 7 1021 87 9000 1.54 190 17:26 06.03.2021
1791 Clouds 7 1021 71 10000 3.09 320 16:53 06.03.2021
1792 Clouds 8 1022 76 10000 1.54 360 16:30 06.03.2021
1793 Clouds 8 1022 81 10000 1.03 0 15:55 06.03.2021
1794 Clouds 8 1022 76 10000 1.54 100 15:34 06.03.2021
1795 Clouds 8 1022 76 10000 2.06 10 14:55 06.03.2021
1796 Clouds 7 1022 81 10000 1.03 0 14:31 06.03.2021
1797 Clouds 7 1023 93 10000 3.09 230 13:46 06.03.2021
1798 Clouds 7 1023 87 10000 1.54 240 13:24 06.03.2021
1799 Clouds 7 1023 87 10000 0.51 0 12:49 06.03.2021
1800 Clouds 7 1023 81 10000 1.03 0 12:20 06.03.2021
1801 Clouds 7 1023 81 10000 1.03 0 11:59 06.03.2021
1802 Clouds 6 1023 93 10000 0.51 0 11:27 06.03.2021
1803 Fog 6 1023 100 10000 0.51 0 10:54 06.03.2021
1804 Fog 6 1023 100 10000 0.51 0 10:36 06.03.2021
1805 Fog 5 1023 93 10000 1.9 190 09:56 06.03.2021
1806 Fog 4 1022 100 550 0.51 0 09:21 06.03.2021
1807 Clouds 4 1021 90 60 1.67 190 08:54 06.03.2021
1808 Clouds 4 1021 90 62 1.08 184 08:29 06.03.2021
1809 Clouds 4 1020 90 60 1.07 193 07:43 06.03.2021
1810 Clouds 4 1020 89 54 1.08 206 07:21 06.03.2021
1811 Clouds 4 1020 88 63 1.34 267 05:40 06.03.2021
1812 Clouds 5 1019 89 80 0.86 201 03:36 06.03.2021
1813 Clouds 4 1008 95 1615 0.51 173 01:32 06.03.2021
1814 Clouds 5 1019 89 304 0.83 174 00:46 06.03.2021
1815 Clouds 5 1009 92 10000 0.61 154 23:41 05.03.2021
1816 Clouds 4 1020 85 10000 0.23 50 23:19 05.03.2021
1817 Clouds 5 1019 86 10000 0.45 276 22:43 05.03.2021
1818 Clouds 5 1019 86 10000 0.84 26 22:20 05.03.2021
1819 Clouds 4 1019 86 10000 0.84 26 21:43 05.03.2021
1820 Clouds 4 1019 86 10000 1.31 18 21:23 05.03.2021
1821 Clouds 5 1018 86 10000 0.45 234 20:47 05.03.2021
1822 Clouds 3 1017 83 10000 1.62 18 20:24 05.03.2021
1823 Clouds 4 1017 81 10000 1.62 18 19:45 05.03.2021
1824 Clouds 4 1016 81 10000 1.37 17 19:22 05.03.2021
1825 Clouds 4 1016 81 10000 1.4 2 18:45 05.03.2021
1826 Clouds 6 1016 71 10000 3.09 210 18:26 05.03.2021
1827 Clouds 6 1016 71 10000 3.09 210 18:26 05.03.2021
1828 Clouds 7 1016 71 10000 3.09 210 17:51 05.03.2021
1829 Clouds 7 1016 71 10000 3.09 210 17:32 05.03.2021
1830 Clouds 9 1016 71 10000 4.12 210 16:43 05.03.2021
1831 Clouds 9 1016 54 10000 3.6 230 16:23 05.03.2021
1832 Clouds 9 1016 50 10000 3.09 230 15:54 05.03.2021
1833 Clouds 10 1016 54 10000 4.63 210 15:27 05.03.2021
1834 Clouds 10 1016 54 10000 4.12 210 14:46 05.03.2021
1835 Clouds 10 1016 51 10000 4.12 210 14:27 05.03.2021
1836 Clouds 9 1016 58 10000 3.09 230 13:43 05.03.2021
1837 Clouds 8 1017 62 10000 3.09 220 13:21 05.03.2021
1838 Clouds 8 1017 62 10000 1.54 240 12:43 05.03.2021
1839 Clouds 9 1018 81 10000 1.03 0 11:40 05.03.2021
1840 Clouds 9 1018 81 10000 1.03 0 11:19 05.03.2021
1841 Clouds 7 1018 93 10000 0.8 345 10:45 05.03.2021
1842 Clouds 7 1018 93 10000 1.23 7 10:26 05.03.2021
1843 Clouds 6 1018 93 9000 0.51 0 09:58 05.03.2021
1844 Clouds 5 1018 93 7000 1.03 0 09:38 05.03.2021
1845 Clouds 5 1018 93 7000 1.03 0 09:20 05.03.2021
1846 Clouds 3 1017 79 10000 1.92 15 08:39 05.03.2021
1847 Clouds 4 1017 79 10000 2.35 22 08:20 05.03.2021
1848 Clouds 5 1017 79 10000 2.35 22 07:33 05.03.2021
1849 Clouds 6 1017 77 10000 2.03 30 06:34 05.03.2021
1850 Clouds 5 1006 89 10000 1.75 37 05:42 05.03.2021
1851 Clouds 5 1018 75 10000 0.45 103 01:18 05.03.2021
1852 Clouds 5 1019 77 10000 0.25 350 23:54 04.03.2021
1853 Clouds 5 1019 77 10000 0.22 14 23:24 04.03.2021
1854 Clouds 5 1019 75 10000 0.33 359 22:29 04.03.2021
1855 Clouds 6 1018 74 10000 0.45 240 21:53 04.03.2021
1856 Clouds 6 1018 74 10000 0.33 359 21:32 04.03.2021
1857 Clouds 6 1009 95 10000 0.42 328 20:57 04.03.2021
1858 Clouds 6 1018 83 10000 0.42 328 20:38 04.03.2021
1859 Clouds 7 1018 81 10000 0.41 303 20:20 04.03.2021
1860 Clouds 7 1018 81 10000 0.41 302 20:20 04.03.2021
1861 Clouds 7 1018 66 10000 4.12 250 19:49 04.03.2021
1862 Clouds 7 1018 66 10000 4.12 250 19:23 04.03.2021
1863 Clouds 7 1018 66 10000 4.12 250 18:50 04.03.2021
1864 Clouds 8 1018 66 10000 4.12 240 18:29 04.03.2021
1865 Clouds 8 1018 66 10000 4.12 230 17:47 04.03.2021
1866 Clouds 8 1018 66 10000 4.12 230 17:47 04.03.2021
1867 Clouds 9 1019 62 10000 3.6 230 17:29 04.03.2021
1868 Clouds 9 1019 62 10000 4.12 240 16:48 04.03.2021
1869 Clouds 9 1019 62 10000 4.12 240 16:29 04.03.2021
1870 Clouds 9 1019 62 10000 3.6 240 15:52 04.03.2021
1871 Clouds 10 1020 62 10000 2.57 230 15:33 04.03.2021
1872 Clouds 12 1020 62 10000 2.57 230 14:53 04.03.2021
1873 Clouds 12 1021 62 10000 2.57 230 14:31 04.03.2021
1874 Clouds 11 1021 62 10000 2.57 240 13:50 04.03.2021
1875 Clouds 11 1022 66 10000 2.57 230 13:32 04.03.2021
1876 Clouds 10 1022 66 10000 1.03 0 12:53 04.03.2021
1877 Clouds 9 1023 66 10000 1.03 0 12:35 04.03.2021
1878 Clouds 10 1023 66 10000 1.03 0 11:47 04.03.2021
1879 Clouds 9 1023 76 10000 1.03 0 11:25 04.03.2021
1880 Clouds 8 1024 81 10000 0.51 0 10:52 04.03.2021
1881 Clouds 5 1024 81 10000 0.87 154 10:31 04.03.2021
1882 Clouds 4 1024 87 10000 0.51 0 09:44 04.03.2021
1883 Clouds 5 1024 87 10000 1.03 0 09:21 04.03.2021
1884 Clear 3 1023 80 10000 1.71 33 08:35 04.03.2021
1885 Clear 3 1023 82 10000 2.01 29 07:53 04.03.2021
1886 Clear 3 1023 82 10000 1.93 30 07:29 04.03.2021
1887 Clear 3 1024 81 10000 1.61 32 06:24 04.03.2021
1888 Clear 3 1024 80 10000 1.22 29 05:27 04.03.2021
1889 Clear 5 1026 79 10000 0.78 31 01:41 04.03.2021
1890 Clouds 6 1028 35 10000 0.56 4 22:44 03.03.2021
1891 Clouds 6 1027 76 10000 0.48 18 22:26 03.03.2021
1892 Clouds 7 1026 74 10000 0.48 18 21:44 03.03.2021
1893 Clouds 7 1026 73 10000 0.22 26 21:24 03.03.2021
1894 Clouds 7 1028 28 10000 0.22 26 20:59 03.03.2021
1895 Clouds 8 1026 71 10000 0.89 58 20:41 03.03.2021
1896 Clouds 8 1026 69 10000 0.38 204 19:59 03.03.2021
1897 Clouds 9 1026 67 10000 0.38 204 19:40 03.03.2021
1898 Clouds 8 1026 66 10000 1.16 210 19:22 03.03.2021
1899 Clouds 9 1018 81 10000 0.89 214 18:47 03.03.2021
1900 Clouds 9 1026 61 10000 1.65 219 18:25 03.03.2021
1901 Clouds 10 1026 57 10000 1.65 219 17:50 03.03.2021
1902 Clouds 10 1026 50 10000 0.89 339 17:19 03.03.2021
1903 Clouds 11 1026 48 10000 1.34 285 16:44 03.03.2021
1904 Clouds 11 1027 48 10000 1.79 279 16:23 03.03.2021
1905 Clouds 11 1027 51 10000 0.89 224 15:34 03.03.2021
1906 Clouds 13 1027 51 10000 0.89 221 14:58 03.03.2021
1907 Clouds 13 1027 52 10000 0.45 0 14:30 03.03.2021
1908 Clouds 13 1028 54 10000 1.34 36 13:53 03.03.2021
1909 Clouds 12 1028 57 10000 0.45 244 13:33 03.03.2021
1910 Clouds 10 1029 64 10000 2.41 219 12:46 03.03.2021
1911 Clouds 10 1029 64 10000 2.41 219 12:46 03.03.2021
1912 Clouds 11 1029 64 10000 2.14 218 12:28 03.03.2021
1913 Clouds 8 1030 69 10000 2.14 218 11:48 03.03.2021
1914 Clouds 6 1030 71 10000 0.45 277 11:28 03.03.2021
1915 Clouds 7 1030 74 10000 1.71 220 10:53 03.03.2021
1916 Clouds 5 1030 74 10000 1.71 220 10:32 03.03.2021
1917 Clouds 5 1030 74 10000 1.11 225 09:53 03.03.2021
1918 Clouds 5 1030 75 10000 1.11 225 09:35 03.03.2021
1919 Clouds 5 1030 77 10000 0.3 233 08:46 03.03.2021
1920 Clouds 4 1030 78 10000 0.18 88 08:22 03.03.2021
1921 Clouds 4 1029 79 10000 0.45 45 07:50 03.03.2021
1922 Clouds 5 1029 77 10000 0.36 128 06:51 03.03.2021
1923 Clouds 5 1029 76 10000 0.41 123 05:49 03.03.2021
1924 Clouds 5 1029 76 10000 0.41 123 05:49 03.03.2021
1925 Clouds 5 1029 76 10000 0.44 103 04:59 03.03.2021
1926 Clouds 5 1029 76 10000 0.42 99 04:35 03.03.2021
1927 Clouds 5 1031 74 10000 0.5 231 02:19 03.03.2021
1928 Clouds 6 1020 82 10000 0.59 89 23:58 02.03.2021
1929 Clouds 6 1020 82 10000 0.64 55 23:28 02.03.2021
1930 Clouds 6 1020 82 10000 0.64 55 22:42 02.03.2021
1931 Clouds 6 1031 70 10000 0.43 22 22:19 02.03.2021
1932 Clouds 6 1020 82 10000 0.43 22 21:40 02.03.2021
1933 Clouds 6 1030 70 2853 0.44 51 21:22 02.03.2021
1934 Clouds 6 1030 73 2853 0.44 51 20:47 02.03.2021
1935 Clouds 6 1030 73 2853 0.44 51 20:47 02.03.2021
1936 Clouds 6 1030 69 5381 0.45 207 20:22 02.03.2021
1937 Clouds 6 1030 65 5381 0.45 207 19:53 02.03.2021
1938 Clouds 7 1030 64 5381 0.45 207 19:33 02.03.2021
1939 Clouds 7 1019 79 10000 1.68 182 18:58 02.03.2021
1940 Clouds 8 1029 57 10000 1.55 160 18:40 02.03.2021
1941 Clouds 8 1029 51 10000 0.45 10 18:21 02.03.2021
1942 Clouds 8 1028 47 10000 0.89 0 17:49 02.03.2021
1943 Clouds 8 1028 45 10000 1.34 211 17:29 02.03.2021
1944 Clouds 8 1028 46 10000 1.79 217 16:49 02.03.2021
1945 Clouds 12 1028 45 10000 3.09 200 16:20 02.03.2021
1946 Clouds 12 1028 43 10000 1.34 215 15:47 02.03.2021
1947 Clouds 11 1028 45 10000 3.53 202 15:21 02.03.2021
1948 Clouds 10 1028 47 10000 0.45 302 14:21 02.03.2021
1949 Clouds 9 1028 47 10000 0.45 0 13:48 02.03.2021
1950 Clouds 9 1028 49 10000 0.45 0 13:28 02.03.2021
1951 Clouds 9 1029 50 10000 2.45 185 12:51 02.03.2021
1952 Clouds 9 1029 54 10000 0.45 0 12:26 02.03.2021
1953 Clouds 8 1029 57 10000 3.13 190 11:53 02.03.2021
1954 Clouds 9 1029 58 10000 2.83 197 11:29 02.03.2021
1955 Clouds 9 1028 61 10000 2.83 197 10:55 02.03.2021
1956 Clouds 8 1028 63 10000 2.83 197 10:31 02.03.2021
1957 Clouds 8 1028 63 10000 2.83 197 10:31 02.03.2021
1958 Clouds 4 1028 63 10000 2.29 184 09:44 02.03.2021
1959 Clouds 4 1028 69 10000 0.45 70 09:24 02.03.2021
1960 Clouds 3 1028 72 10000 1.23 148 08:54 02.03.2021
1961 Clouds 3 1027 72 10000 1.23 123 08:33 02.03.2021
1962 Clouds 3 1027 72 10000 1.22 124 07:51 02.03.2021
1963 Clouds 3 1027 72 10000 1.19 125 06:37 02.03.2021
1964 Clouds 3 1027 73 10000 1.15 111 05:52 02.03.2021
1965 Clouds 3 1027 73 10000 1.15 111 05:32 02.03.2021
1966 Clouds 4 1027 78 10000 0.45 0 04:37 02.03.2021
1967 Clouds 3 1026 79 10000 0.93 84 01:43 02.03.2021
1968 Clouds 3 1026 80 10000 1.15 124 01:21 02.03.2021
1969 Clouds 4 1026 77 10000 1.3 133 23:29 01.03.2021
1970 Clouds 4 1026 77 10000 1.3 133 22:56 01.03.2021
1971 Clouds 4 1026 76 10000 1.3 134 22:38 01.03.2021
1972 Clouds 4 1026 87 10000 1.28 117 22:19 01.03.2021
1973 Clouds 5 1015 47 10000 1.28 117 21:41 01.03.2021
1974 Clouds 5 1026 85 10000 1.18 105 21:23 01.03.2021
1975 Clouds 5 1026 85 10000 1.18 105 21:23 01.03.2021
1976 Clouds 6 1014 71 10000 1.18 105 20:42 01.03.2021
1977 Clouds 8 1025 26 10000 1.2 115 20:20 01.03.2021
1978 Clear 10 1024 66 10000 3.09 220 19:43 01.03.2021
1979 Clear 10 1024 66 10000 3.09 220 19:24 01.03.2021
1980 Clear 10 1024 66 10000 3.09 220 18:43 01.03.2021
1981 Clouds 8 1024 62 10000 4.12 220 18:23 01.03.2021
1982 Clouds 9 1023 62 10000 4.12 220 17:47 01.03.2021
1983 Clouds 10 1023 54 10000 3.6 220 17:22 01.03.2021
1984 Clear 10 1023 54 10000 4.12 220 16:47 01.03.2021
1985 Clouds 13 1023 54 10000 3.6 220 16:27 01.03.2021
1986 Clear 13 1023 51 10000 4.12 210 15:47 01.03.2021
1987 Clear 13 1023 54 10000 3.6 220 15:22 01.03.2021
1988 Clear 13 1024 54 10000 3.09 230 14:57 01.03.2021
1989 Clear 12 1024 54 10000 2.06 230 14:39 01.03.2021
1990 Clear 12 1024 50 10000 1.54 240 13:47 01.03.2021
1991 Clear 10 1025 57 10000 1.54 210 13:28 01.03.2021
1992 Clear 9 1025 53 10000 0.51 0 12:59 01.03.2021
1993 Clear 9 1026 65 10000 1.03 0 12:40 01.03.2021
1994 Clear 8 1026 65 10000 1.03 0 12:20 01.03.2021
1995 Clear 9 1026 75 10000 1.54 190 11:45 01.03.2021
1996 Clear 9 1026 75 10000 1.54 190 11:45 01.03.2021
1997 Fog 9 1027 87 10000 0.51 0 10:57 01.03.2021
1998 Fog 7 1027 80 10000 1.03 0 10:36 01.03.2021
1999 Fog 2 1027 80 10000 1.03 0 10:18 01.03.2021
2000 Fog 3 1027 93 10000 1.03 0 09:44 01.03.2021
2001 Fog 2 1027 100 9000 1.03 0 09:23 01.03.2021
2002 Fog 0 1027 100 9000 1.03 0 08:53 01.03.2021
2003 Fog 0 1027 100 10000 0.51 0 08:22 01.03.2021
2004 Clear 0 1025 76 10000 0.91 106 06:54 01.03.2021
2005 Clear 0 1025 78 10000 0.98 102 06:24 01.03.2021
2006 Clear 1 1025 82 10000 1 123 02:26 01.03.2021
2007 Clouds 2 1025 80 10000 1.06 111 23:41 28.02.2021
2008 Clouds 2 1025 79 10000 1.03 120 22:55 28.02.2021
2009 Clouds 2 1025 78 10000 1.12 138 22:25 28.02.2021
2010 Clouds 3 1025 76 10000 1.12 137 21:54 28.02.2021
2011 Clouds 3 1025 76 10000 1.12 137 21:32 28.02.2021
2012 Clouds 3 1024 75 2552 0.45 63 20:58 28.02.2021
2013 Clouds 4 1026 86 2552 1.24 141 20:37 28.02.2021
2014 Clouds 5 1026 84 3204 1.45 162 19:56 28.02.2021
2015 Clouds 5 1026 86 3204 1.45 162 19:37 28.02.2021
2016 Clouds 5 1026 83 4175 1.97 180 19:19 28.02.2021
2017 Clouds 7 1024 71 10000 1.03 0 18:38 28.02.2021
2018 Clouds 5 1024 71 10000 1.03 0 18:20 28.02.2021
2019 Clouds 5 1024 71 10000 1.03 0 17:48 28.02.2021
2020 Clouds 7 1024 71 10000 1.03 0 17:27 28.02.2021
2021 Clouds 7 1024 66 10000 1.03 0 16:54 28.02.2021
2022 Clouds 7 1024 71 10000 1.03 0 16:36 28.02.2021
2023 Clouds 7 1024 66 10000 2.06 200 15:55 28.02.2021
2024 Clouds 7 1024 66 10000 1.54 220 15:36 28.02.2021
2025 Clouds 7 1024 66 10000 1.54 220 15:18 28.02.2021
2026 Clouds 7 1024 71 10000 1.54 220 14:45 28.02.2021
2027 Clouds 7 1025 61 10000 1.03 0 14:24 28.02.2021
2028 Clouds 6 1025 71 10000 0.51 0 13:47 28.02.2021
2029 Clouds 6 1025 66 10000 1.76 180 13:19 28.02.2021
2030 Clouds 5 1026 81 10000 1.54 50 13:19 28.02.2021
2031 Clouds 5 1026 81 10000 1.54 50 12:55 28.02.2021
2032 Clouds 5 1026 81 10000 1.54 50 12:55 28.02.2021
2033 Clouds 4 1026 87 10000 0.51 0 12:37 28.02.2021
2034 Clouds 4 1026 87 10000 0.51 0 12:19 28.02.2021
2035 Clouds 3 1026 87 10000 2.1 189 11:43 28.02.2021
2036 Clouds 3 1026 81 10000 2.2 192 11:24 28.02.2021
2037 Clouds 3 1025 87 10000 1.03 300 10:52 28.02.2021
2038 Clouds 2 1025 87 10000 3.09 300 10:26 28.02.2021
2039 Rain 2 1025 93 10000 3.09 300 09:42 28.02.2021
2040 Clouds 2 1025 87 10000 1.46 169 09:24 28.02.2021
2041 Clouds 1 1024 59 6607 1.46 169 08:50 28.02.2021
2042 Clouds 1 1024 60 6607 0.45 273 08:31 28.02.2021
2043 Clouds 1 1023 63 2617 0.45 215 07:54 28.02.2021
2044 Clouds 1 1023 64 6630 0.77 204 07:36 28.02.2021
2045 Clouds 1 1023 65 6717 0.78 204 06:43 28.02.2021
2046 Clouds 1 1023 61 7691 0.61 221 05:24 28.02.2021
2047 Clouds 2 1023 60 10000 0.56 196 03:40 28.02.2021
2048 Clouds 3 1024 62 10000 1.11 210 01:44 28.02.2021
2049 Clouds 3 1024 59 10000 0.42 169 00:50 28.02.2021
2050 Clear 4 1024 58 10000 0.49 128 00:26 28.02.2021
2051 Clear 4 1024 56 10000 0.49 128 23:45 27.02.2021
2052 Clear 4 1024 56 10000 1.19 53 23:19 27.02.2021
2053 Clear 4 1023 61 10000 1.19 53 22:45 27.02.2021
2054 Clear 3 1013 85 10000 2.05 37 22:19 27.02.2021
2055 Clear 3 1013 93 10000 2.03 37 21:42 27.02.2021
2056 Clear 3 1013 93 10000 2.03 37 21:42 27.02.2021
2057 Clouds 4 1013 92 10000 2.44 23 21:24 27.02.2021
2058 Clouds 7 1022 66 10000 1.34 24 20:49 27.02.2021
2059 Clouds 7 1022 61 10000 1.34 45 20:27 27.02.2021
2060 Clouds 9 1028 16 10000 2.85 17 19:46 27.02.2021
2061 Clear 4 1014 89 10000 3.22 18 19:27 27.02.2021
2062 Clear 5 1014 91 10000 2.99 23 18:46 27.02.2021
2063 Clear 9 1021 47 10000 4.12 240 18:22 27.02.2021
2064 Clear 9 1021 47 10000 4.12 240 17:57 27.02.2021
2065 Clear 10 1021 47 10000 4.12 240 17:38 27.02.2021
2066 Clear 10 1021 47 10000 4.12 240 17:18 27.02.2021
2067 Clear 10 1021 41 10000 4.12 240 16:48 27.02.2021
2068 Clear 10 1021 51 10000 5.14 230 16:26 27.02.2021
2069 Clear 11 1021 41 10000 4.12 230 15:43 27.02.2021
2070 Clear 11 1022 39 10000 3.6 230 15:18 27.02.2021
2071 Clear 11 1023 38 10000 2.06 220 14:40 27.02.2021
2072 Clear 11 1023 38 10000 2.06 220 14:20 27.02.2021
2073 Clear 15 1024 41 10000 1.03 0 13:39 27.02.2021
2074 Clear 14 1024 41 10000 1.03 0 13:18 27.02.2021
2075 Clear 13 1025 46 10000 1.03 0 12:40 27.02.2021
2076 Clear 12 1025 46 10000 1.03 0 12:22 27.02.2021
2077 Clear 9 1026 53 10000 1.54 0 11:43 27.02.2021
2078 Clear 8 1026 61 10000 2.76 5 11:24 27.02.2021
2079 Clear 7 1027 70 10000 1.03 0 10:47 27.02.2021
2080 Clear 6 1027 75 10000 0.51 0 10:28 27.02.2021
2081 Clear 6 1027 75 10000 0.51 0 09:51 27.02.2021
2082 Clear 5 1027 81 10000 1.03 0 09:26 27.02.2021
2083 Clear 3 1026 62 10000 3.65 11 08:42 27.02.2021
2084 Clear 3 1026 60 10000 3.7 14 08:21 27.02.2021
2085 Clear 3 1026 57 10000 3.7 14 07:42 27.02.2021
2086 Clouds 4 1026 61 10000 3.01 13 05:18 27.02.2021
2087 Clouds 5 1029 54 10000 2.94 19 00:56 27.02.2021
2088 Clouds 6 1029 50 10000 2.69 19 23:55 26.02.2021
2089 Clouds 6 1029 53 10000 2.69 19 23:30 26.02.2021
2090 Clouds 5 1020 78 10000 2.7 19 22:59 26.02.2021
2091 Clouds 6 1020 84 10000 2.7 19 22:30 26.02.2021
2092 Clouds 6 1020 83 10000 2.59 24 21:47 26.02.2021
2093 Clouds 6 1020 82 10000 2.54 24 21:28 26.02.2021
2094 Clouds 7 1020 76 10000 2.54 24 20:44 26.02.2021
2095 Clouds 7 1020 76 10000 2.54 24 20:44 26.02.2021
2096 Clouds 7 1020 81 10000 2.47 24 20:22 26.02.2021
2097 Clouds 8 1020 83 10000 2.47 24 19:50 26.02.2021
2098 Clouds 8 1020 81 10000 2.28 16 19:25 26.02.2021
2099 Clouds 8 1020 80 10000 2.28 16 18:42 26.02.2021
2100 Clear 11 1027 36 10000 2.57 230 18:23 26.02.2021
2101 Clear 12 1027 36 10000 2.57 230 17:42 26.02.2021
2102 Clear 12 1027 36 10000 2.57 230 17:24 26.02.2021
2103 Clear 12 1027 34 10000 2.06 200 16:52 26.02.2021
2104 Clear 13 1027 34 10000 2.06 200 16:32 26.02.2021
2105 Clear 13 1028 31 10000 2.06 230 15:57 26.02.2021
2106 Clear 12 1028 36 10000 1.03 0 15:38 26.02.2021
2107 Clear 13 1028 44 10000 1.03 0 15:20 26.02.2021
2108 Clear 12 1028 44 10000 1.03 0 14:45 26.02.2021
2109 Clear 15 1029 41 10000 1.54 0 14:25 26.02.2021
2110 Clear 13 1030 47 10000 1.03 0 13:44 26.02.2021
2111 Clear 13 1030 47 10000 1.03 0 13:24 26.02.2021
2112 Clear 11 1031 53 10000 0.51 0 12:39 26.02.2021
2113 Clear 11 1032 61 10000 1.03 0 11:55 26.02.2021
2114 Clear 10 1032 70 10000 1.03 0 11:37 26.02.2021
2115 Clear 9 1032 65 10000 0.51 0 10:48 26.02.2021
2116 Clear 5 1032 81 10000 1.03 0 09:58 26.02.2021
2117 Clear 5 1032 87 10000 1.03 50 09:39 26.02.2021
2118 Clear 4 1032 87 10000 1.03 50 09:20 26.02.2021
2119 Clouds 3 1031 70 10000 1.26 39 08:29 26.02.2021
2120 Clouds 3 1031 71 10000 1.26 39 07:52 26.02.2021
2121 Clouds 4 1031 70 10000 1.29 33 06:43 26.02.2021
2122 Clouds 4 1030 71 10000 1.19 39 05:31 26.02.2021
2123 Clouds 4 1031 69 10000 1.17 44 03:48 26.02.2021
2124 Clouds 4 1031 67 10000 1.28 48 02:36 26.02.2021
2125 Clouds 5 1031 61 10000 0.95 45 00:18 26.02.2021
2126 Clouds 6 1031 59 10000 0.73 57 23:28 25.02.2021
2127 Clouds 6 1031 57 10000 0.73 57 22:50 25.02.2021
2128 Clouds 6 1031 56 10000 0.79 57 22:27 25.02.2021
2129 Clouds 7 1031 56 10000 0.79 57 21:44 25.02.2021
2130 Clouds 7 1031 55 10000 0.85 52 21:26 25.02.2021
2131 Clouds 7 1021 79 10000 0.85 52 20:41 25.02.2021
2132 Clouds 7 1021 76 10000 0.74 56 20:22 25.02.2021
2133 Clouds 8 1021 78 10000 0.74 56 19:52 25.02.2021
2134 Clear 10 1029 47 10000 2.06 240 19:22 25.02.2021
2135 Clear 9 1029 47 10000 2.06 240 18:57 25.02.2021
2136 Clear 11 1029 47 10000 2.06 240 18:25 25.02.2021
2137 Clear 11 1028 44 10000 2.06 220 17:49 25.02.2021
2138 Clear 14 1028 41 10000 2.06 220 17:26 25.02.2021
2139 Clear 12 1028 41 10000 2.06 220 16:46 25.02.2021
2140 Clear 13 1028 36 10000 1.54 200 16:25 25.02.2021
2141 Clear 15 1029 38 10000 2.06 220 15:30 25.02.2021
2142 Clear 15 1029 41 10000 1.54 210 14:57 25.02.2021
2143 Clear 14 1030 50 10000 2.06 210 14:24 25.02.2021
2144 Clear 13 1030 47 10000 1.54 0 13:53 25.02.2021
2145 Clear 12 1031 58 10000 1.54 0 13:26 25.02.2021
2146 Clear 13 1031 57 10000 1.03 0 12:53 25.02.2021
2147 Clear 8 1032 66 10000 1.54 0 12:21 25.02.2021
2148 Clear 7 1032 75 10000 1.03 0 11:45 25.02.2021
2149 Clouds 6 1032 81 10000 1.54 0 11:19 25.02.2021
2150 Clouds 7 1032 87 10000 1.03 0 10:44 25.02.2021
2151 Clouds 9 1021 35 10000 1.33 190 09:59 25.02.2021
2152 Clouds 7 1020 37 10000 1.33 190 09:40 25.02.2021
2153 Clouds 3 1020 36 10000 0.71 164 08:54 25.02.2021
2154 Clouds 2 1030 73 10000 0.76 128 08:23 25.02.2021
2155 Clouds 2 1030 74 10000 0.76 128 07:52 25.02.2021
2156 Clear 2 1030 72 10000 0.64 126 07:26 25.02.2021
2157 Clear 2 1030 72 10000 0.68 126 06:47 25.02.2021
2158 Clear 3 1031 78 10000 0.74 140 01:57 25.02.2021
2159 Clear 3 1031 77 10000 0.74 140 01:34 25.02.2021
2160 Clear 4 1032 76 10000 0.73 157 00:39 25.02.2021
2161 Clear 4 1032 75 10000 0.99 164 23:47 24.02.2021
2162 Clear 5 1032 75 10000 1.11 156 23:22 24.02.2021
2163 Clear 5 1032 73 10000 1.11 156 22:44 24.02.2021
2164 Clear 5 1032 72 10000 1.19 135 22:24 24.02.2021
2165 Clear 6 1032 68 10000 1.19 135 21:44 24.02.2021
2166 Clear 7 1030 70 10000 1.04 115 20:53 24.02.2021
2167 Clear 7 1022 36 10000 0.87 121 20:29 24.02.2021
2168 Clear 9 1022 39 10000 0.87 121 19:54 24.02.2021
2169 Clear 7 1022 76 10000 1.17 173 19:26 24.02.2021
2170 Clear 8 1022 81 10000 1.06 174 18:55 24.02.2021
2171 Clear 7 1022 80 10000 1.06 174 18:33 24.02.2021
2172 Clear 9 1022 81 10000 2.22 202 17:45 24.02.2021
2173 Clear 11 1022 84 10000 2.73 205 17:25 24.02.2021
2174 Clear 14 1030 61 10000 0.45 96 16:49 24.02.2021
2175 Clear 14 1031 48 10000 2.96 205 16:22 24.02.2021
2176 Clear 14 1031 48 10000 0.89 329 15:56 24.02.2021
2177 Clear 15 1030 56 10000 2.96 205 15:35 24.02.2021
2178 Clear 14 1032 46 10000 0.45 85 14:52 24.02.2021
2179 Clear 14 1031 43 10000 4.02 254 14:31 24.02.2021
2180 Clear 15 1033 39 10000 2.24 236 13:55 24.02.2021
2181 Clear 14 1033 41 10000 2.24 187 13:37 24.02.2021
2182 Clear 13 1033 52 10000 0.45 0 13:19 24.02.2021
2183 Clear 12 1034 67 10000 3.13 196 12:41 24.02.2021
2184 Clear 11 1034 65 10000 3.05 193 12:23 24.02.2021
2185 Clear 11 1034 65 10000 3.05 193 12:23 24.02.2021
2186 Clear 9 1034 70 10000 0.45 206 11:36 24.02.2021
2187 Clear 8 1035 79 10000 2.79 190 10:47 24.02.2021
2188 Clear 5 1035 82 10000 2.19 188 10:26 24.02.2021
2189 Clear 4 1036 89 10000 2.19 188 09:30 24.02.2021
2190 Clear 3 1036 89 10000 1.37 176 08:51 24.02.2021
2191 Clear 4 1036 89 10000 1.01 172 08:32 24.02.2021
2192 Clear 4 1036 90 10000 1 172 07:38 24.02.2021
2193 Clear 4 1035 89 10000 0.9 175 07:18 24.02.2021
2194 Clear 4 1035 90 10000 1.02 178 05:26 24.02.2021
2195 Clear 4 1037 89 10000 1.08 180 01:59 24.02.2021
2196 Clear 4 1037 87 10000 1.28 179 23:39 23.02.2021
2197 Clear 5 1037 87 10000 1.25 181 22:46 23.02.2021
2198 Clouds 5 1036 85 10000 1.12 188 22:22 23.02.2021
2199 Clouds 6 1025 88 10000 1.12 188 21:47 23.02.2021
2200 Clouds 6 1036 78 10000 1.07 179 21:24 23.02.2021
2201 Clouds 6 1036 77 10000 1.08 180 20:56 23.02.2021
2202 Clouds 7 1035 78 10000 1.07 179 20:37 23.02.2021
2203 Clouds 7 1025 89 10000 0.84 165 20:18 23.02.2021
2204 Clouds 6 1025 90 10000 0.84 165 19:41 23.02.2021
2205 Clouds 6 1035 79 10000 1.76 189 19:22 23.02.2021
2206 Clouds 6 1024 88 10000 1.76 189 18:44 23.02.2021
2207 Clouds 7 1034 76 10000 2.35 195 18:24 23.02.2021
2208 Clouds 6 1034 74 10000 2.35 195 17:49 23.02.2021
2209 Clouds 7 1023 89 10000 2.7 195 17:26 23.02.2021
2210 Clouds 8 1024 88 10000 2.7 195 16:44 23.02.2021
2211 Clouds 7 1034 72 10000 0.89 139 16:21 23.02.2021
2212 Clouds 7 1034 73 10000 0.45 104 15:45 23.02.2021
2213 Clouds 7 1023 87 10000 2.97 192 15:27 23.02.2021
2214 Clouds 8 1034 70 10000 2.68 277 14:46 23.02.2021
2215 Clouds 8 1034 72 10000 1.34 209 14:28 23.02.2021
2216 Clouds 8 1034 73 10000 1.79 269 13:59 23.02.2021
2217 Clouds 8 1034 69 10000 3.13 211 13:34 23.02.2021
2218 Clouds 8 1034 78 10000 1.79 259 12:57 23.02.2021
2219 Clouds 7 1034 84 10000 0.45 9 12:24 23.02.2021
2220 Clouds 7 1034 84 10000 0.45 9 12:24 23.02.2021
2221 Clouds 7 1034 86 10000 0.45 213 11:55 23.02.2021
2222 Clouds 6 1033 86 10000 0.45 0 11:26 23.02.2021
2223 Clouds 6 1033 91 10000 1.92 180 10:54 23.02.2021
2224 Clouds 6 1033 91 10000 1.92 180 10:36 23.02.2021
2225 Clouds 5 1032 92 10000 2.1 174 09:55 23.02.2021
2226 Clouds 6 1032 93 10000 2.1 174 09:36 23.02.2021
2227 Clouds 6 1032 94 10000 1.7 164 09:18 23.02.2021
2228 Clouds 5 1031 94 10000 1.7 164 08:40 23.02.2021
2229 Clouds 4 1019 93 1311 1.57 142 08:20 23.02.2021
2230 Clouds 5 1018 94 4191 1.54 139 06:50 23.02.2021
2231 Clouds 5 1017 94 4775 1.6 124 05:22 23.02.2021
2232 Clouds 4 1028 93 603 0.45 273 02:36 23.02.2021
2233 Clouds 4 1027 93 156 1.74 129 01:42 23.02.2021
2234 Clouds 4 1026 96 520 1.17 104 00:18 23.02.2021
2235 Clouds 4 1025 96 4760 1.35 112 23:24 22.02.2021
2236 Clouds 4 1014 92 4760 1.35 112 22:41 22.02.2021
2237 Clouds 4 1024 96 4935 1.32 107 22:21 22.02.2021
2238 Clouds 5 1013 91 4902 1.32 107 21:46 22.02.2021
2239 Clouds 5 1023 95 5098 1.43 90 21:23 22.02.2021
2240 Clouds 5 1023 96 5098 1.43 90 20:55 22.02.2021
2241 Clouds 5 1023 95 5098 1.43 90 20:31 22.02.2021
2242 Clouds 5 1022 95 10000 1.41 93 19:54 22.02.2021
2243 Clouds 5 1021 93 10000 1.03 0 19:35 22.02.2021
2244 Clouds 6 1021 93 10000 1.03 0 18:58 22.02.2021
2245 Clouds 6 1021 93 10000 1.03 0 18:40 22.02.2021
2246 Clouds 7 1021 93 10000 1.03 0 18:20 22.02.2021
2247 Fog 7 1020 93 10000 1.54 220 17:27 22.02.2021
2248 Fog 7 1020 100 7000 1.03 0 16:57 22.02.2021
2249 Clouds 7 1019 100 10000 0.51 0 16:39 22.02.2021
2250 Clouds 6 1019 93 10000 0.51 0 15:52 22.02.2021
2251 Clouds 6 1019 87 10000 1.03 320 15:28 22.02.2021
2252 Clouds 6 1018 87 10000 1.54 10 14:48 22.02.2021
2253 Clouds 6 1018 87 10000 1.54 10 14:29 22.02.2021
2254 Clouds 6 1018 93 10000 1.54 340 13:47 22.02.2021
2255 Clouds 7 1018 87 10000 2.57 40 12:59 22.02.2021
2256 Rain 6 1018 93 8000 1.54 350 12:40 22.02.2021
2257 Rain 7 1018 93 8000 1.54 350 12:20 22.02.2021
2258 Rain 7 1018 93 7000 1.54 350 11:42 22.02.2021
2259 Rain 7 1017 87 6000 2.57 40 11:24 22.02.2021
2260 Clouds 7 1017 93 6000 1.03 0 10:47 22.02.2021
2261 Clouds 6 1016 93 6000 1.03 0 10:26 22.02.2021
2262 Clouds 5 1015 89 74 1.34 30 09:43 22.02.2021
2263 Clouds 5 1015 91 76 3.03 131 09:25 22.02.2021
2264 Clouds 7 1014 89 74 0.45 122 08:50 22.02.2021
2265 Clouds 5 1003 92 142 1.38 136 08:29 22.02.2021
2266 Rain 7 1013 89 142 1.38 136 07:56 22.02.2021
2267 Clouds 5 1013 86 250 0.89 250 07:26 22.02.2021
2268 Clouds 6 1001 90 256 2.85 112 06:32 22.02.2021
2269 Clouds 5 1001 90 293 2.85 112 05:38 22.02.2021
2270 Clouds 6 1001 89 236 2.96 127 03:25 22.02.2021
2271 Clouds 3 1001 88 236 2.96 127 02:33 22.02.2021
2272 Clouds 4 1002 87 203 3.12 145 00:45 22.02.2021
2273 Clouds 4 1009 86 552 2.99 124 00:19 22.02.2021
2274 Clouds 5 1002 87 8237 3 156 23:27 21.02.2021
2275 Clouds 5 1002 85 8237 3 156 22:40 21.02.2021
2276 Clouds 5 1002 85 5463 3.07 142 22:21 21.02.2021
2277 Clouds 5 1001 83 5463 0.89 63 21:37 21.02.2021
2278 Clouds 5 1000 82 6463 3.35 138 20:58 21.02.2021
2279 Clouds 5 1000 81 6529 3.37 138 20:39 21.02.2021
2280 Clouds 5 1000 81 5842 0.45 14 20:19 21.02.2021
2281 Clouds 5 999 81 5281 3.75 136 19:49 21.02.2021
2282 Clouds 6 999 80 5281 0.89 329 19:30 21.02.2021
2283 Clouds 3 999 77 10000 3.37 134 18:40 21.02.2021
2284 Clouds 8 1011 44 10000 5.14 60 18:22 21.02.2021
2285 Clouds 8 1011 44 10000 5.14 60 17:29 21.02.2021
2286 Clouds 9 1011 41 10000 5.14 70 16:55 21.02.2021
2287 Clouds 9 1011 36 10000 4.63 120 16:34 21.02.2021
2288 Clouds 10 1011 31 10000 5.14 120 15:54 21.02.2021
2289 Clouds 10 1011 33 10000 7.2 70 15:21 21.02.2021
2290 Clear 10 1011 27 10000 6.17 100 14:42 21.02.2021
2291 Clear 10 1011 27 10000 6.17 100 14:42 21.02.2021
2292 Clear 11 1011 25 10000 6.17 100 14:22 21.02.2021
2293 Clear 11 1012 25 10000 3.09 0 13:46 21.02.2021
2294 Clouds 10 1013 41 10000 2.57 90 13:23 21.02.2021
2295 Clouds 8 1014 53 10000 1.54 0 12:31 21.02.2021
2296 Clouds 9 1015 61 10000 2.06 250 11:45 21.02.2021
2297 Clouds 8 1015 70 10000 1.03 0 11:20 21.02.2021
2298 Clear 4 1016 70 10000 0.51 0 10:25 21.02.2021
2299 Clear 5 1017 80 10000 2.6 151 09:57 21.02.2021
2300 Clear 4 1017 80 10000 1.03 0 09:31 21.02.2021
2301 Clear 2 1017 86 10000 1.54 60 08:58 21.02.2021
2302 Clear 2 1017 75 10000 1.03 0 08:23 21.02.2021
2303 Clouds 4 1016 69 10000 2.01 138 07:35 21.02.2021
2304 Clouds 5 1016 68 10000 2.02 148 06:55 21.02.2021
2305 Clouds 3 1017 65 10000 2.06 155 03:39 21.02.2021
2306 Clear 3 1018 63 10000 2.09 156 02:30 21.02.2021
2307 Clouds 6 1019 63 10000 2.37 182 00:44 21.02.2021
2308 Clouds 6 1019 61 10000 2.38 183 00:19 21.02.2021
2309 Clouds 7 1019 60 10000 2.61 191 23:25 20.02.2021
2310 Clouds 7 1016 11 10000 2.61 191 22:44 20.02.2021
2311 Clouds 7 1007 65 10000 2.43 187 22:25 20.02.2021
2312 Clouds 7 1007 64 10000 2.43 187 21:45 20.02.2021
2313 Clouds 8 1016 11 10000 2.6 193 21:24 20.02.2021
2314 Clouds 7 1015 74 10000 0.89 67 20:46 20.02.2021
2315 Clouds 10 1016 10 10000 2.84 196 20:22 20.02.2021
2316 Clouds 8 1015 69 10000 1.34 67 19:52 20.02.2021
2317 Clear 9 1014 63 10000 0.89 67 19:29 20.02.2021
2318 Clear 11 1008 42 10000 2.24 337 18:41 20.02.2021
2319 Clear 10 1017 33 10000 2.57 0 18:21 20.02.2021
2320 Clear 10 1017 33 10000 2.57 0 17:38 20.02.2021
2321 Clear 11 1017 33 10000 2.57 220 16:56 20.02.2021
2322 Clear 12 1017 29 10000 3.09 220 16:32 20.02.2021
2323 Clear 12 1017 29 10000 3.6 220 15:53 20.02.2021
2324 Clear 13 1018 25 10000 3.6 220 15:31 20.02.2021
2325 Clear 17 1018 29 10000 4.12 220 14:47 20.02.2021
2326 Clear 16 1019 31 10000 4.12 230 14:23 20.02.2021
2327 Clear 16 1019 36 10000 2.57 230 13:47 20.02.2021
2328 Clear 16 1019 36 10000 2.57 230 13:47 20.02.2021
2329 Clear 15 1020 44 10000 0.51 0 13:24 20.02.2021
2330 Clear 12 1020 50 10000 1.03 0 12:50 20.02.2021
2331 Clear 11 1020 53 10000 1.03 0 12:23 20.02.2021
2332 Clear 9 1021 57 10000 4.59 204 11:43 20.02.2021
2333 Clear 8 1021 61 10000 1.03 0 11:24 20.02.2021
2334 Clear 9 1021 70 10000 1.54 60 10:47 20.02.2021
2335 Clear 6 1021 81 10000 1.03 0 09:54 20.02.2021
2336 Clear 2 1021 87 10000 0.51 0 09:22 20.02.2021
2337 Clouds 2 1020 77 10000 2.38 197 08:34 20.02.2021
2338 Clouds 2 1019 77 10000 2.04 197 07:55 20.02.2021
2339 Clear 3 1020 73 10000 2.03 191 02:46 20.02.2021
2340 Clear 3 1020 72 10000 1.93 199 02:22 20.02.2021
2341 Clear 3 1021 70 10000 1.93 199 01:47 20.02.2021
2342 Clear 4 1021 70 10000 2.04 194 00:45 20.02.2021
2343 Clear 4 1019 71 10000 0.89 20 23:46 19.02.2021
2344 Clear 5 1019 34 10000 2.14 191 22:56 19.02.2021
2345 Clear 5 1019 34 10000 2.2 191 22:26 19.02.2021
2346 Clear 6 1019 65 10000 1.79 74 21:48 19.02.2021
2347 Clear 6 1019 64 10000 2.24 57 21:28 19.02.2021
2348 Clear 7 1019 33 10000 2.25 191 20:47 19.02.2021
2349 Clear 8 1019 31 10000 2.42 192 20:27 19.02.2021
2350 Clouds 11 1019 44 10000 2.57 250 19:51 19.02.2021
2351 Clouds 11 1019 44 10000 2.57 250 19:23 19.02.2021
2352 Clouds 13 1019 44 10000 2.57 250 18:56 19.02.2021
2353 Clouds 14 1019 38 10000 2.06 230 18:33 19.02.2021
2354 Clouds 10 1018 36 10000 3.6 210 17:48 19.02.2021
2355 Clouds 12 1018 29 10000 4.12 220 16:51 19.02.2021
2356 Clear 12 1018 29 10000 3.6 210 16:23 19.02.2021
2357 Clouds 11 1018 25 10000 4.63 230 15:57 19.02.2021
2358 Clear 12 1018 23 10000 4.63 220 15:30 19.02.2021
2359 Clear 11 1018 29 10000 4.12 190 14:56 19.02.2021
2360 Clear 11 1019 39 10000 3.6 190 14:36 19.02.2021
2361 Clear 15 1019 41 10000 1.03 0 13:57 19.02.2021
2362 Clear 13 1020 44 10000 1.03 0 13:37 19.02.2021
2363 Clear 12 1020 50 10000 1.03 0 12:59 19.02.2021
2364 Clear 11 1020 50 10000 1.03 0 12:41 19.02.2021
2365 Clear 10 1021 53 10000 1.03 0 12:20 19.02.2021
2366 Clear 9 1021 57 10000 1.03 0 11:44 19.02.2021
2367 Clear 8 1021 61 10000 0.51 0 11:19 19.02.2021
2368 Clear 7 1022 75 10000 3.7 209 10:38 19.02.2021
2369 Clear 6 1022 75 10000 2.99 201 10:19 19.02.2021
2370 Clear 3 1022 80 10000 1.03 40 09:37 19.02.2021
2371 Clear 3 1022 80 10000 1.03 40 09:37 19.02.2021
2372 Clear 2 1022 80 10000 1.03 40 09:18 19.02.2021
2373 Clear 2 1021 78 10000 1.74 192 08:42 19.02.2021
2374 Clear 2 1020 77 10000 1.21 194 08:21 19.02.2021
2375 Clear 2 1020 77 10000 1.21 194 08:21 19.02.2021
2376 Clear 2 1020 76 10000 1.21 194 07:43 19.02.2021
2377 Clouds 2 1020 77 10000 1.09 190 07:25 19.02.2021
2378 Clouds 2 1020 76 10000 1.02 186 06:41 19.02.2021
2379 Clouds 2 1020 74 10000 0.95 197 04:42 19.02.2021
2380 Clouds 4 1020 69 10000 0.95 186 02:47 19.02.2021
2381 Clouds 4 1020 67 10000 1.09 175 01:28 19.02.2021
2382 Clouds 5 1018 67 10000 1.79 58 00:35 19.02.2021
2383 Clouds 5 1021 41 10000 1.12 165 23:45 18.02.2021
2384 Clouds 5 1018 64 10000 1.79 39 23:27 18.02.2021
2385 Clouds 6 1018 61 10000 1.79 52 22:37 18.02.2021
2386 Clouds 7 1017 59 10000 0.45 43 22:18 18.02.2021
2387 Clear 7 1017 57 10000 0.89 78 21:40 18.02.2021
2388 Clear 8 1017 56 10000 0.45 78 21:21 18.02.2021
2389 Clear 8 1017 55 10000 1.34 55 20:39 18.02.2021
2390 Clear 9 1016 55 10000 0.89 61 20:21 18.02.2021
2391 Clear 11 1018 15 10000 1.26 204 19:43 18.02.2021
2392 Clouds 14 1017 29 10000 2.06 220 19:20 18.02.2021
2393 Clouds 14 1017 29 10000 2.06 220 19:20 18.02.2021
2394 Clouds 17 1017 29 10000 2.06 220 18:48 18.02.2021
2395 Clouds 11 1017 29 10000 2.06 220 18:26 18.02.2021
2396 Clouds 17 1017 29 10000 3.6 200 17:46 18.02.2021
2397 Clouds 13 1016 25 10000 3.6 230 17:24 18.02.2021
2398 Clouds 13 1017 24 10000 3.09 210 16:46 18.02.2021
2399 Clouds 13 1017 24 10000 3.09 220 16:28 18.02.2021
2400 Clear 11 1017 29 10000 3.6 0 15:42 18.02.2021
2401 Clear 10 1017 34 10000 5.14 200 15:23 18.02.2021
2402 Clear 11 1017 34 10000 5.14 200 14:52 18.02.2021
2403 Clear 14 1017 42 10000 2.57 210 14:31 18.02.2021
2404 Clear 16 1018 44 10000 0.51 0 13:49 18.02.2021
2405 Clear 14 1019 58 10000 0.51 0 13:21 18.02.2021
2406 Clear 15 1019 58 10000 0.51 0 12:54 18.02.2021
2407 Clear 9 1019 62 10000 0.51 0 12:28 18.02.2021
2408 Clear 11 1020 71 10000 0.51 0 11:47 18.02.2021
2409 Clear 11 1020 71 10000 0.51 0 11:47 18.02.2021
2410 Clear 6 1020 81 10000 1.03 0 11:27 18.02.2021
2411 Clear 5 1020 81 10000 0.51 0 10:54 18.02.2021
2412 Clear 5 1020 87 10000 1.03 0 10:35 18.02.2021
2413 Clouds 5 1019 79 10000 2.01 196 09:57 18.02.2021
2414 Clouds 5 1020 81 10000 1.57 185 09:28 18.02.2021
2415 Clouds 4 1020 82 10000 1.57 185 08:48 18.02.2021
2416 Clouds 3 1020 81 10000 1.57 185 08:30 18.02.2021
2417 Clouds 3 1019 83 10000 1.24 171 07:42 18.02.2021
2418 Clouds 4 1019 82 10000 1.2 174 07:18 18.02.2021
2419 Clouds 4 1020 83 10000 0.97 172 05:29 18.02.2021
2420 Clouds 4 1011 83 10000 0.94 179 23:57 17.02.2021
2421 Clouds 4 1011 83 10000 0.94 179 23:38 17.02.2021
2422 Clouds 4 1011 82 10000 1.09 185 22:56 17.02.2021
2423 Clouds 5 1021 76 10000 1.14 188 22:29 17.02.2021
2424 Clouds 5 1011 81 10000 1.14 188 21:58 17.02.2021
2425 Clouds 5 1020 77 10000 0.86 187 21:23 17.02.2021
2426 Clouds 6 1011 81 10000 0.86 187 20:56 17.02.2021
2427 Clouds 8 1019 73 10000 1.34 78 20:37 17.02.2021
2428 Clouds 9 1021 21 10000 0.86 191 19:55 17.02.2021
2429 Clouds 10 1021 16 10000 0.86 191 19:35 17.02.2021
2430 Clouds 11 1016 70 10000 0.89 135 18:52 17.02.2021
2431 Clouds 9 1019 77 10000 1.55 209 18:33 17.02.2021
2432 Clouds 8 1011 77 10000 1.98 206 17:46 17.02.2021
2433 Clouds 10 1011 77 10000 2.86 212 17:21 17.02.2021
2434 Clouds 7 1019 61 10000 2.86 212 16:51 17.02.2021
2435 Clouds 7 1011 78 10000 3.32 214 16:29 17.02.2021
2436 Clouds 11 1011 79 10000 3.32 214 15:46 17.02.2021
2437 Clouds 11 1011 79 10000 2.88 210 15:27 17.02.2021
2438 Clouds 11 1011 80 10000 2.88 210 14:51 17.02.2021
2439 Clouds 14 1021 60 10000 0.45 47 14:29 17.02.2021
2440 Clouds 13 1021 60 10000 0.89 82 13:52 17.02.2021
2441 Clouds 14 1021 48 10000 2.85 212 13:33 17.02.2021
2442 Clouds 14 1022 51 10000 1.34 193 12:58 17.02.2021
2443 Clouds 10 1022 53 10000 3.16 212 12:26 17.02.2021
2444 Clouds 11 1023 62 10000 3.16 212 11:48 17.02.2021
2445 Clouds 6 1023 68 10000 2.88 209 11:29 17.02.2021
2446 Clouds 5 1023 69 10000 2.88 209 10:56 17.02.2021
2447 Clouds 4 1024 73 10000 0.45 105 10:38 17.02.2021
2448 Clouds 4 1024 76 10000 0.45 62 10:19 17.02.2021
2449 Clouds 5 1024 79 10000 2.1 199 09:38 17.02.2021
2450 Clouds 3 1024 80 10000 0.45 219 08:56 17.02.2021
2451 Clouds 2 1024 80 10000 0.87 176 08:36 17.02.2021
2452 Clouds 2 1024 80 10000 0.41 156 08:18 17.02.2021
2453 Clouds 3 1024 78 10000 0.35 164 06:48 17.02.2021
2454 Clouds 4 1024 72 10000 0.13 228 03:53 17.02.2021
2455 Clouds 5 1026 38 10000 0.5 209 02:32 17.02.2021
2456 Clouds 6 1026 36 10000 0.64 201 01:36 17.02.2021
2457 Clouds 7 1027 30 10000 0.62 181 00:28 17.02.2021
2458 Clouds 7 1027 28 10000 0.62 181 23:39 16.02.2021
2459 Clouds 7 1027 28 10000 0.14 45 22:58 16.02.2021
2460 Clouds 7 1027 27 10000 0.14 45 22:39 16.02.2021
2461 Clouds 7 1026 27 10000 0.58 58 22:21 16.02.2021
2462 Clouds 8 1026 21 10000 0.58 58 21:39 16.02.2021
2463 Clouds 8 1026 16 10000 0.77 17 21:21 16.02.2021
2464 Clouds 8 1022 83 10000 0.77 17 20:55 16.02.2021
2465 Clouds 8 1022 82 10000 0.37 9 20:24 16.02.2021
2466 Clear 11 1022 47 10000 4.63 230 19:50 16.02.2021
2467 Clear 11 1022 47 10000 4.63 230 19:29 16.02.2021
2468 Clear 11 1022 47 10000 4.63 230 18:53 16.02.2021
2469 Clear 10 1022 47 10000 5.66 240 18:27 16.02.2021
2470 Clear 10 1022 44 10000 5.14 240 17:58 16.02.2021
2471 Clear 10 1022 44 10000 5.66 240 17:38 16.02.2021
2472 Clear 10 1022 44 10000 5.66 240 17:20 16.02.2021
2473 Clear 11 1022 44 10000 4.63 230 16:44 16.02.2021
2474 Clear 11 1023 51 10000 2.06 0 16:21 16.02.2021
2475 Clear 14 1023 51 10000 1.54 0 15:42 16.02.2021
2476 Clear 13 1024 54 10000 2.06 170 15:24 16.02.2021
2477 Clear 13 1024 54 10000 2.06 0 14:42 16.02.2021
2478 Clear 15 1025 47 10000 1.54 210 14:24 16.02.2021
2479 Clear 12 1025 58 10000 1.03 0 13:47 16.02.2021
2480 Clear 9 1027 61 10000 1.54 70 13:22 16.02.2021
2481 Clear 12 1027 61 10000 1.54 70 12:43 16.02.2021
2482 Clear 12 1027 66 10000 1.54 330 12:20 16.02.2021
2483 Clear 12 1027 66 10000 1.54 330 12:20 16.02.2021
2484 Clear 12 1028 66 10000 1.03 0 11:43 16.02.2021
2485 Clouds 10 1028 70 10000 1.54 0 11:21 16.02.2021
2486 Clouds 9 1028 75 10000 1.54 20 10:49 16.02.2021
2487 Clouds 6 1028 75 10000 1.54 60 10:30 16.02.2021
2488 Clouds 3 1028 81 10000 1.54 10 09:54 16.02.2021
2489 Clouds 4 1028 81 10000 1.54 10 09:28 16.02.2021
2490 Clouds 2 1016 69 10000 0.35 185 08:52 16.02.2021
2491 Clouds 2 1016 70 10000 0.35 185 08:31 16.02.2021
2492 Clouds 1 1027 84 10000 0.09 236 07:58 16.02.2021
2493 Clouds 1 1027 85 10000 0.2 324 06:58 16.02.2021
2494 Clouds 2 1029 83 10000 0.15 233 02:47 16.02.2021
2495 Clouds 3 1031 81 10000 0.34 216 00:35 16.02.2021
2496 Clouds 4 1031 81 10000 0.43 214 23:30 15.02.2021
2497 Clouds 4 1031 81 10000 0.43 214 23:30 15.02.2021
2498 Clouds 4 1031 82 10000 0.48 219 22:51 15.02.2021
2499 Clouds 4 1031 82 10000 0.26 192 22:29 15.02.2021
2500 Clouds 4 1031 82 10000 0.26 192 21:49 15.02.2021
2501 Clouds 4 1031 82 10000 0.1 126 21:26 15.02.2021
2502 Clouds 4 1031 83 10000 0.45 0 20:57 15.02.2021
2503 Clouds 4 1031 83 10000 0.89 240 20:39 15.02.2021
2504 Clouds 5 1032 89 10000 0.05 3 19:51 15.02.2021
2505 Clouds 4 1031 81 10000 4.12 240 19:30 15.02.2021
2506 Clouds 7 1031 81 10000 4.12 240 18:59 15.02.2021
2507 Clouds 5 1031 81 10000 4.12 240 18:30 15.02.2021
2508 Clouds 8 1031 76 10000 4.12 240 17:59 15.02.2021
2509 Clouds 9 1031 71 10000 4.12 230 17:40 15.02.2021
2510 Clouds 9 1031 71 10000 4.12 230 17:21 15.02.2021
2511 Clouds 9 1032 71 10000 4.12 240 16:46 15.02.2021
2512 Clouds 9 1032 71 10000 4.12 240 16:22 15.02.2021
2513 Clouds 9 1032 71 10000 3.6 230 15:44 15.02.2021
2514 Clouds 9 1032 71 10000 2.57 230 15:20 15.02.2021
2515 Clouds 9 1032 71 10000 2.57 230 14:49 15.02.2021
2516 Clouds 9 1033 66 10000 4.12 230 14:21 15.02.2021
2517 Clouds 8 1033 66 10000 3.09 220 13:49 15.02.2021
2518 Clouds 8 1033 76 10000 2.57 230 13:27 15.02.2021
2519 Clouds 7 1034 76 10000 2.06 210 12:51 15.02.2021
2520 Clouds 7 1034 76 10000 2.06 210 12:27 15.02.2021
2521 Clouds 6 1034 87 10000 1.03 0 11:52 15.02.2021
2522 Clouds 5 1034 87 10000 1.03 0 11:26 15.02.2021
2523 Clouds 7 1034 87 10000 1.03 0 10:50 15.02.2021
2524 Clouds 3 1034 93 10000 0.51 0 10:30 15.02.2021
2525 Clouds 5 1032 74 10000 0.42 242 09:59 15.02.2021
2526 Clouds 3 1032 74 10000 0.42 242 09:41 15.02.2021
2527 Clouds 2 1032 77 10000 0.74 6 09:22 15.02.2021
2528 Clouds 1 1032 77 10000 0.45 107 08:21 15.02.2021
2529 Clouds 2 1032 86 10000 0.41 314 06:59 15.02.2021
2530 Clouds 2 1031 89 10000 0.41 314 06:40 15.02.2021
2531 Clouds 2 1032 94 3737 1.04 252 02:52 15.02.2021
2532 Clouds 2 1032 94 1411 1.03 236 01:55 15.02.2021
2533 Clouds 3 1032 91 1288 0.89 234 23:59 14.02.2021
2534 Clouds 3 1032 91 1289 0.45 242 23:23 14.02.2021
2535 Clouds 3 1032 89 1289 0.45 281 22:41 14.02.2021
2536 Clouds 3 1032 89 1289 0.89 302 22:22 14.02.2021
2537 Clouds 4 1032 88 1289 0.89 255 21:50 14.02.2021
2538 Clouds 4 1032 88 760 0.45 0 21:29 14.02.2021
2539 Clouds 4 1032 87 760 1.34 257 20:52 14.02.2021
2540 Clouds 4 1032 87 756 0.45 217 20:27 14.02.2021
2541 Clouds 5 1031 87 756 0.89 256 19:48 14.02.2021
2542 Clouds 5 1031 84 749 0.89 285 18:57 14.02.2021
2543 Clouds 5 1032 81 10000 4.12 220 18:37 14.02.2021
2544 Clouds 5 1032 81 10000 4.12 220 17:57 14.02.2021
2545 Clouds 7 1032 81 10000 4.12 220 17:36 14.02.2021
2546 Clouds 5 1031 81 10000 4.12 220 16:55 14.02.2021
2547 Clouds 5 1031 76 10000 4.12 220 16:29 14.02.2021
2548 Clouds 5 1031 76 10000 3.6 220 15:49 14.02.2021
2549 Clouds 7 1031 81 10000 3.6 230 15:31 14.02.2021
2550 Clouds 5 1032 81 10000 3.09 230 14:48 14.02.2021
2551 Clouds 5 1032 81 10000 1.54 220 14:27 14.02.2021
2552 Clouds 4 1032 81 10000 1.03 0 13:49 14.02.2021
2553 Clouds 4 1032 75 10000 0.51 0 13:27 14.02.2021
2554 Clouds 3 1033 81 10000 0.51 0 12:38 14.02.2021
2555 Clouds 5 1033 81 10000 0.51 0 12:19 14.02.2021
2556 Clouds 5 1032 87 10000 0.51 0 11:49 14.02.2021
2557 Clouds 4 1032 87 10000 2.57 219 11:21 14.02.2021
2558 Clouds 3 1032 87 10000 0.51 0 10:35 14.02.2021
2559 Clouds 1 1031 93 10000 1.03 0 09:55 14.02.2021
2560 Clouds 1 1031 87 10000 1.54 70 09:37 14.02.2021
2561 Clouds 0 1031 87 10000 1.54 70 09:19 14.02.2021
2562 Clear 0 1030 79 10000 0.63 192 08:25 14.02.2021
2563 Clear 0 1029 80 10000 0.63 192 07:48 14.02.2021
2564 Clear 0 1028 79 10000 0.69 177 06:37 14.02.2021
2565 Clear 1 1027 78 10000 0.97 27 04:35 14.02.2021
2566 Clear 2 1027 77 10000 1.51 35 02:50 14.02.2021
2567 Clear 1 1027 75 10000 1.69 27 01:33 14.02.2021
2568 Clouds 2 1026 73 10000 2.14 27 00:45 14.02.2021
2569 Clouds 2 1015 96 10000 2.05 30 23:58 13.02.2021
2570 Clouds 2 1025 74 10000 2.34 17 23:25 13.02.2021
2571 Clouds 2 1015 96 10000 2.34 17 22:59 13.02.2021
2572 Clouds 3 1015 96 10000 2.56 13 22:26 13.02.2021
2573 Clouds 3 1025 72 10000 2.56 13 21:49 13.02.2021
2574 Clouds 3 1014 96 10000 2.99 13 21:27 13.02.2021
2575 Clouds 3 1014 96 10000 2.99 13 20:45 13.02.2021
2576 Clouds 4 1014 96 10000 2.9 17 20:26 13.02.2021
2577 Clouds 4 1014 96 10000 2.9 17 19:48 13.02.2021
2578 Clouds 4 1014 97 10000 2.93 13 19:24 13.02.2021
2579 Clouds 5 1013 96 10000 2.92 13 18:50 13.02.2021
2580 Clear 7 1021 62 10000 0.51 0 18:27 13.02.2021
2581 Clear 7 1021 62 10000 0.51 0 18:27 13.02.2021
2582 Clear 7 1021 62 10000 0.51 0 17:44 13.02.2021
2583 Clear 7 1021 62 10000 0.51 0 17:25 13.02.2021
2584 Clear 8 1022 54 10000 0.51 0 16:52 13.02.2021
2585 Clear 8 1021 62 10000 0.51 0 16:31 13.02.2021
2586 Clear 8 1021 66 10000 1.03 0 15:43 13.02.2021
2587 Clear 8 1022 71 10000 1.03 0 15:24 13.02.2021
2588 Clear 7 1022 76 10000 1.54 210 14:40 13.02.2021
2589 Clear 7 1022 76 10000 1.54 210 14:40 13.02.2021
2590 Clear 5 1022 71 10000 1.54 0 13:49 13.02.2021
2591 Clear 5 1022 76 10000 1.03 0 13:27 13.02.2021
2592 Clear 6 1023 81 10000 0.51 0 12:52 13.02.2021
2593 Clear 5 1023 93 10000 1.54 70 12:21 13.02.2021
2594 Fog 4 1023 100 10000 0.51 0 11:55 13.02.2021
2595 Fog 3 1023 100 2500 0.51 0 11:22 13.02.2021
2596 Fog 3 1023 93 4000 1.03 0 10:58 13.02.2021
2597 Fog 5 1023 100 10000 2.57 30 10:40 13.02.2021
2598 Fog 2 1023 100 10000 2.57 30 10:21 13.02.2021
2599 Fog 3 1023 100 10000 2.06 20 09:45 13.02.2021
2600 Fog 2 1023 100 6000 0.51 0 09:22 13.02.2021
2601 Clouds 3 1021 78 10000 2.75 2 08:42 13.02.2021
2602 Clouds 2 1010 96 10000 2.76 1 07:56 13.02.2021
2603 Clouds 3 1009 96 10000 2.63 357 06:44 13.02.2021
2604 Clouds 3 1009 96 6957 0.89 353 06:22 13.02.2021
2605 Clouds 2 1008 96 2851 1.34 359 04:27 13.02.2021
2606 Clouds 3 1019 67 10000 0.45 345 02:25 13.02.2021
2607 Clouds 3 1006 96 6493 2.24 13 00:52 13.02.2021
2608 Clouds 3 1007 96 151 0.89 15 23:55 12.02.2021
2609 Clouds 4 1006 97 151 1.34 94 23:32 12.02.2021
2610 Clouds 4 1005 97 133 0.89 8 22:59 12.02.2021
2611 Clouds 4 1005 96 133 0.89 18 22:30 12.02.2021
2612 Clouds 4 1016 90 94 0.45 134 21:53 12.02.2021
2613 Clouds 4 1016 92 94 3.32 344 21:34 12.02.2021
2614 Clouds 4 1015 92 85 2.89 342 20:57 12.02.2021
2615 Clouds 4 1015 91 85 2.89 342 20:38 12.02.2021
2616 Clouds 4 1015 90 60 2.91 349 20:19 12.02.2021
2617 Clouds 4 1014 90 60 0.45 0 19:47 12.02.2021
2618 Clouds 4 1015 89 125 2.75 355 19:25 12.02.2021
2619 Fog 3 1014 100 550 2.06 80 18:30 12.02.2021
2620 Fog 3 1014 100 550 2.06 80 17:48 12.02.2021
2621 Fog 3 1014 100 550 2.06 80 17:25 12.02.2021
2622 Fog 4 1014 93 10000 1.03 0 16:36 12.02.2021
2623 Rain 4 1013 93 10000 0.51 0 15:47 12.02.2021
2624 Fog 7 1013 87 10000 0.51 0 15:21 12.02.2021
2625 Fog 7 1013 87 10000 0.51 0 15:21 12.02.2021
2626 Fog 5 1014 93 10000 0.51 0 14:43 12.02.2021
2627 Drizzle 7 1014 93 2000 0.51 0 14:24 12.02.2021
2628 Mist 7 1015 100 2000 1.03 0 13:41 12.02.2021
2629 Mist 7 1015 100 2000 1.03 0 13:22 12.02.2021
2630 Mist 8 1015 93 4000 1.91 183 12:49 12.02.2021
2631 Clouds 6 1016 100 4000 1.91 183 12:30 12.02.2021
2632 Fog 6 1016 93 6000 1.05 181 11:42 12.02.2021
2633 Clouds 5 1016 87 6000 1.54 70 11:19 12.02.2021
2634 Clouds 5 1016 87 10000 1.03 0 10:41 12.02.2021
2635 Clouds 4 1016 81 10000 1.03 0 09:49 12.02.2021
2636 Clouds 3 1016 87 10000 1.03 0 09:29 12.02.2021
2637 Clouds 3 1015 85 825 1.63 192 08:49 12.02.2021
2638 Clouds 3 1015 85 1990 1.63 201 08:28 12.02.2021
2639 Clouds 2 1015 83 1990 1.63 201 07:57 12.02.2021
2640 Clouds 2 1015 83 1990 1.63 201 07:32 12.02.2021
2641 Clouds 2 1016 85 3827 1.1 207 06:55 12.02.2021
2642 Clouds 2 1016 85 3827 1.1 207 06:55 12.02.2021
2643 Clouds 2 1016 85 3827 1.1 207 06:55 12.02.2021
2644 Clouds 2 1016 86 1637 1.14 214 05:47 12.02.2021
2645 Clouds 2 1017 85 8412 0.8 208 04:31 12.02.2021
2646 Clouds 3 1018 85 10000 0.65 181 01:32 12.02.2021
2647 Clouds 3 1018 81 10000 0.32 143 23:41 11.02.2021
2648 Clouds 3 1019 82 10000 0.42 127 23:22 11.02.2021
2649 Clouds 4 1018 80 10000 0.42 127 22:46 11.02.2021
2650 Clouds 4 1018 79 10000 0.95 45 22:24 11.02.2021
2651 Clouds 4 1018 78 10000 0.95 45 21:57 11.02.2021
2652 Clouds 4 1018 78 10000 0.93 45 21:36 11.02.2021
2653 Clouds 4 1018 78 10000 1.61 40 21:18 11.02.2021
2654 Clouds 4 1018 75 10000 1.61 40 20:41 11.02.2021
2655 Clouds 4 1019 71 10000 1.81 24 20:21 11.02.2021
2656 Clouds 4 1019 68 10000 1.82 24 19:47 11.02.2021
2657 Clear 6 1016 54 10000 3.6 240 19:28 11.02.2021
2658 Clear 9 1016 54 10000 3.6 240 18:49 11.02.2021
2659 Clear 7 1016 54 10000 3.6 240 18:25 11.02.2021
2660 Clear 8 1015 50 10000 3.09 230 17:51 11.02.2021
2661 Clear 9 1015 44 10000 2.06 220 17:22 11.02.2021
2662 Clear 9 1015 44 10000 2.06 220 17:22 11.02.2021
2663 Clear 9 1015 41 10000 2.06 210 16:49 11.02.2021
2664 Clear 10 1015 33 10000 1.54 210 16:30 11.02.2021
2665 Clear 9 1015 35 10000 1.54 0 15:49 11.02.2021
2666 Clear 11 1016 40 10000 1.54 0 15:29 11.02.2021
2667 Clear 11 1016 40 10000 1.03 0 14:58 11.02.2021
2668 Clear 11 1016 40 10000 1.03 0 14:32 11.02.2021
2669 Clear 9 1017 43 10000 1.54 220 13:45 11.02.2021
2670 Clear 8 1017 53 10000 1.03 0 13:21 11.02.2021
2671 Clear 7 1017 57 10000 0.51 0 12:58 11.02.2021
2672 Clear 6 1018 65 10000 1.03 0 12:36 11.02.2021
2673 Clear 4 1018 75 10000 1.54 60 11:57 11.02.2021
2674 Clear 4 1018 75 10000 1.54 60 11:57 11.02.2021
2675 Clear 4 1018 75 10000 1.54 80 11:39 11.02.2021
2676 Clear 6 1018 75 10000 1.54 80 11:18 11.02.2021
2677 Clear 5 1018 86 10000 0.51 0 10:39 11.02.2021
2678 Clear 0 1018 86 10000 0.51 0 10:21 11.02.2021
2679 Clouds 3 1005 74 10000 1.43 28 09:41 11.02.2021
2680 Clear -1 1017 78 10000 2.29 23 09:19 11.02.2021
2681 Clear -1 1016 80 10000 0.45 45 08:49 11.02.2021
2682 Clear -1 1016 81 10000 2.41 28 07:53 11.02.2021
2683 Clouds -1 1016 81 10000 2.58 28 06:46 11.02.2021
2684 Clouds 0 1016 80 10000 2.88 22 06:23 11.02.2021
2685 Clouds -1 1016 78 10000 2.08 20 03:46 11.02.2021
2686 Clouds 1 1016 80 10000 1.95 18 02:25 11.02.2021
2687 Clouds 2 1018 52 10000 2.9 23 00:24 11.02.2021
2688 Clouds 2 1018 52 10000 2.9 23 00:24 11.02.2021
2689 Clouds 2 1018 51 10000 2.9 23 23:54 10.02.2021
2690 Clouds 1 1002 94 10000 3.1 19 23:20 10.02.2021
2691 Clouds 1 1002 95 10000 3.1 19 22:44 10.02.2021
2692 Clouds 1 1001 85 10000 3.18 13 22:24 10.02.2021
2693 Clouds 2 1001 90 10000 3.18 13 21:40 10.02.2021
2694 Clouds 2 1000 86 10000 3.42 14 21:21 10.02.2021
2695 Clouds 2 1000 85 10000 3.42 14 20:52 10.02.2021
2696 Clouds 2 1017 42 10000 3.46 11 20:29 10.02.2021
2697 Clouds 1 999 87 10000 3.46 11 19:50 10.02.2021
2698 Clouds 4 1009 46 10000 4.63 270 19:29 10.02.2021
2699 Clouds 4 1009 46 10000 4.63 270 18:49 10.02.2021
2700 Clouds 3 1009 46 10000 4.63 270 18:29 10.02.2021
2701 Clouds 4 1008 49 10000 4.12 260 17:59 10.02.2021
2702 Clouds 5 1008 43 10000 3.6 280 17:40 10.02.2021
2703 Clouds 4 1008 43 10000 3.6 280 17:20 10.02.2021
2704 Clouds 5 1007 43 10000 3.6 260 16:45 10.02.2021
2705 Clouds 4 1007 43 10000 3.6 290 16:24 10.02.2021
2706 Clouds 4 1005 46 10000 4.12 290 15:25 10.02.2021
2707 Clouds 4 1005 50 10000 2.06 0 14:54 10.02.2021
2708 Clouds 4 1005 71 10000 1.03 0 14:35 10.02.2021
2709 Clouds 3 1005 71 10000 2.06 190 13:55 10.02.2021
2710 Clouds 3 1005 76 10000 1.54 220 13:30 10.02.2021
2711 Clouds 2 992 89 10000 2.43 350 12:55 10.02.2021
2712 Clouds 2 1004 77 10000 2.43 350 12:31 10.02.2021
2713 Clouds 2 1003 80 10000 0.45 301 11:59 10.02.2021
2714 Clouds 2 1003 80 10000 0.89 280 11:39 10.02.2021
2715 Clouds 1 1003 80 10000 0.89 290 11:21 10.02.2021
2716 Clouds 1 1002 83 10000 1.51 332 10:25 10.02.2021
2717 Clouds 1 1002 89 10000 1.51 332 09:57 10.02.2021
2718 Clouds 1 1001 91 10000 1.51 332 09:33 10.02.2021
2719 Clouds -1 988 95 2626 0.75 304 08:56 10.02.2021
2720 Clouds 1 1005 59 2626 0.75 304 08:35 10.02.2021
2721 Clouds 1 1004 54 997 0.92 244 07:39 10.02.2021
2722 Clouds 1 1003 51 1339 1.29 221 06:22 10.02.2021
2723 Clouds 1 1000 94 81 2.2 229 01:37 10.02.2021
2724 Snow 1 1000 93 48 1.62 250 00:22 10.02.2021
2725 Clouds 1 1000 94 48 1.62 250 23:33 09.02.2021
2726 Clouds 1 1000 92 52 1.97 231 22:49 09.02.2021
2727 Snow 1 1000 93 60 1.65 222 22:24 09.02.2021
2728 Clouds 1 1000 93 60 1.66 222 21:52 09.02.2021
2729 Snow 1 1000 92 67 0.45 215 21:25 09.02.2021
2730 Clouds 1 999 93 67 2.35 178 20:45 09.02.2021
2731 Snow 1 999 93 381 2.96 182 20:25 09.02.2021
2732 Clouds 1 1000 93 381 2.96 182 19:53 09.02.2021
2733 Clouds 1 1000 93 381 0.45 0 19:30 09.02.2021
2734 Clouds 1 1000 92 397 0.45 315 18:56 09.02.2021
2735 Rain 1 1000 91 397 0.45 30 18:35 09.02.2021
2736 Clouds 2 1000 90 414 3.65 192 17:56 09.02.2021
2737 Clouds 2 1000 90 414 0.89 5 17:36 09.02.2021
2738 Snow 2 1000 89 469 0.45 250 17:18 09.02.2021
2739 Clouds 2 1000 88 508 0.45 0 16:38 09.02.2021
2740 Clouds 2 1001 87 459 0.89 341 16:18 09.02.2021
2741 Clouds 2 1001 87 459 0.89 327 15:41 09.02.2021
2742 Clouds 2 1001 92 923 1.34 16 15:23 09.02.2021
2743 Clouds 3 1001 85 923 2.68 278 14:48 09.02.2021
2744 Clouds 3 1001 85 777 1.34 263 14:26 09.02.2021
2745 Clouds 3 1002 82 777 1.34 227 13:43 09.02.2021
2746 Clouds 2 1002 79 817 1.34 5 13:20 09.02.2021
2747 Clouds 2 1002 77 775 3.67 213 12:47 09.02.2021
2748 Clouds 2 1003 79 1259 0.45 235 12:27 09.02.2021
2749 Clouds 2 1003 79 1259 3.67 206 11:44 09.02.2021
2750 Clouds 1 1004 80 3181 3.19 208 11:22 09.02.2021
2751 Clouds 1 1004 81 3181 0.45 0 10:57 09.02.2021
2752 Clouds 0 1004 83 10000 0.45 0 10:23 09.02.2021
2753 Clouds 0 1004 85 10000 2.48 200 09:55 09.02.2021
2754 Clouds 1 1005 87 10000 1.25 185 09:27 09.02.2021
2755 Clouds 0 1005 88 10000 1.24 185 08:57 09.02.2021
2756 Clouds -1 1006 92 10000 0.94 175 08:29 09.02.2021
2757 Clouds 0 1005 88 10000 0.89 46 07:53 09.02.2021
2758 Clear 1 1003 88 10000 1.7 35 05:35 09.02.2021
2759 Clear 1 1003 88 10000 0.45 120 03:49 09.02.2021
2760 Clear 1 1002 89 10000 1.89 10 01:56 09.02.2021
2761 Clouds 1 1004 94 10000 1.83 17 00:31 09.02.2021
2762 Clouds 1 1003 94 10000 1.63 10 23:40 08.02.2021
2763 Clouds 1 1003 94 10000 1.78 4 23:18 08.02.2021
2764 Clouds 1 1002 94 10000 1.78 4 22:42 08.02.2021
2765 Clouds 0 1002 94 10000 1.73 21 22:22 08.02.2021
2766 Clouds 1 1004 59 10000 1.73 21 21:46 08.02.2021
2767 Clouds 0 1001 95 10000 1.95 18 21:22 08.02.2021
2768 Clouds 0 987 85 10000 1.95 18 20:44 08.02.2021
2769 Snow 0 999 91 10000 0.45 223 20:24 08.02.2021
2770 Clouds 0 999 91 10000 0.45 235 19:58 08.02.2021
2771 Clouds 2 997 93 10000 1.54 350 19:39 08.02.2021
2772 Clouds 2 997 93 10000 1.54 350 19:19 08.02.2021
2773 Clouds 2 997 93 10000 1.54 350 18:41 08.02.2021
2774 Clouds 2 997 93 10000 1.54 350 18:18 08.02.2021
2775 Clouds 2 997 93 10000 1.53 9 17:43 08.02.2021
2776 Clouds 2 997 93 10000 0.51 0 17:22 08.02.2021
2777 Clouds 2 997 93 10000 1.54 50 16:40 08.02.2021
2778 Clouds 2 997 93 10000 1.54 50 16:20 08.02.2021
2779 Clouds 2 997 93 10000 0.51 0 15:40 08.02.2021
2780 Clouds 2 997 93 10000 0.51 0 15:19 08.02.2021
2781 Clouds 2 997 93 10000 2.28 215 14:51 08.02.2021
2782 Clouds 3 997 87 10000 2.29 217 14:29 08.02.2021
2783 Clouds 3 997 87 10000 1.03 230 13:56 08.02.2021
2784 Clouds 3 998 87 10000 0.51 0 13:29 08.02.2021
2785 Clouds 3 998 87 10000 0.51 0 12:49 08.02.2021
2786 Clouds 3 999 87 10000 0.51 0 12:31 08.02.2021
2787 Clouds 3 999 93 10000 1.03 0 11:42 08.02.2021
2788 Clouds 3 999 93 10000 1.03 0 11:18 08.02.2021
2789 Clouds 2 999 93 10000 1.03 40 10:39 08.02.2021
2790 Clouds 2 999 93 10000 1.03 40 10:20 08.02.2021
2791 Clouds 1 999 79 1090 2.29 208 09:48 08.02.2021
2792 Clouds 1 998 79 3172 1.56 197 09:21 08.02.2021
2793 Clouds 0 998 83 3172 1.56 197 08:31 08.02.2021
2794 Clouds 1 998 82 10000 0.66 197 07:49 08.02.2021
2795 Clouds 1 998 81 10000 0.74 243 06:51 08.02.2021
2796 Clouds 0 999 82 10000 0.69 281 05:18 08.02.2021
2797 Clouds 1 1000 87 10000 1.04 299 02:27 08.02.2021
2798 Clouds 1 1001 84 10000 0.63 289 00:26 08.02.2021
2799 Clouds 1 1001 83 10000 0.63 289 23:55 07.02.2021
2800 Clouds 1 1000 85 10000 0.63 289 23:30 07.02.2021
2801 Clouds 1 1001 80 10000 0.45 258 22:59 07.02.2021
2802 Clouds 2 1000 83 10000 0.45 258 22:41 07.02.2021
2803 Clouds 2 1000 82 10000 0.72 240 22:22 07.02.2021
2804 Clouds 2 1005 38 10000 0.72 240 21:50 07.02.2021
2805 Clouds 3 1006 36 10000 0.6 276 21:25 07.02.2021
2806 Clouds 3 1006 36 10000 0.6 276 21:25 07.02.2021
2807 Clouds 3 1000 65 10000 0.89 62 20:50 07.02.2021
2808 Clouds 3 1005 31 10000 0.83 358 20:29 07.02.2021
2809 Clouds 4 1005 29 10000 0.83 358 19:54 07.02.2021
2810 Clouds 4 1005 26 10000 1.51 3 19:29 07.02.2021
2811 Clouds 6 997 88 10000 0.89 225 18:49 07.02.2021
2812 Clouds 6 1000 66 10000 4.63 220 18:29 07.02.2021
2813 Clouds 8 1000 66 10000 4.63 220 17:58 07.02.2021
2814 Clouds 3 1000 66 10000 4.63 220 17:39 07.02.2021
2815 Clouds 3 1000 66 10000 4.63 220 17:18 07.02.2021
2816 Clouds 4 1000 53 10000 4.12 240 16:42 07.02.2021
2817 Clouds 4 1000 20 10000 5.14 280 16:21 07.02.2021
2818 Clouds 6 1000 17 10000 3.6 290 15:44 07.02.2021
2819 Clouds 6 1000 16 10000 3.09 300 15:22 07.02.2021
2820 Clouds 3 1000 24 10000 2.06 0 14:46 07.02.2021
2821 Clouds 6 1000 37 10000 2.06 100 14:27 07.02.2021
2822 Clouds 3 1001 49 10000 2.57 90 13:52 07.02.2021
2823 Clouds 3 1001 61 10000 2.57 70 13:30 07.02.2021
2824 Clouds 6 1001 61 10000 3.6 70 12:43 07.02.2021
2825 Clouds 2 1002 76 10000 3.09 70 12:22 07.02.2021
2826 Clouds 1 1002 75 10000 3.6 60 11:46 07.02.2021
2827 Clouds 1 1002 75 10000 3.6 60 11:46 07.02.2021
2828 Clouds 0 1002 75 10000 2.06 50 11:26 07.02.2021
2829 Rain 0 1002 87 10000 2.57 50 10:44 07.02.2021
2830 Clouds 0 1002 87 10000 2.06 40 10:23 07.02.2021
2831 Rain -1 1002 87 10000 1.03 0 09:44 07.02.2021
2832 Snow 0 1001 81 10000 1.54 330 09:21 07.02.2021
2833 Snow -1 988 95 650 3.36 5 08:22 07.02.2021
2834 Snow 0 988 95 1263 3.33 6 06:34 07.02.2021
2835 Clouds 0 989 95 10000 3.05 7 05:56 07.02.2021
2836 Clouds 1 989 95 10000 2.5 10 03:39 07.02.2021
2837 Clouds 2 999 91 1657 2.57 12 01:24 07.02.2021
2838 Clouds 3 990 96 10000 2.1 16 00:29 07.02.2021
2839 Clouds 3 999 89 10000 2.1 16 23:42 06.02.2021
2840 Clouds 4 999 82 10000 1.06 351 22:33 06.02.2021
2841 Clouds 5 999 79 10000 1.06 351 21:39 06.02.2021
2842 Clouds 6 999 78 10000 0.84 321 21:21 06.02.2021
2843 Clouds 6 998 79 10000 0.84 321 20:47 06.02.2021
2844 Clouds 4 998 78 4718 1.02 253 20:25 06.02.2021
2845 Clouds 6 998 85 4718 1.02 253 19:55 06.02.2021
2846 Clouds 7 997 86 1740 0.45 354 19:29 06.02.2021
2847 Clouds 7 997 86 8844 1.57 231 18:46 06.02.2021
2848 Clouds 6 1000 81 8000 1.54 0 18:28 06.02.2021
2849 Clouds 9 1000 81 8000 1.54 0 17:45 06.02.2021
2850 Clouds 8 1000 81 8000 1.54 0 17:22 06.02.2021
2851 Clouds 8 1000 93 8000 2.57 130 16:58 06.02.2021
2852 Clouds 8 1000 81 8000 1.03 0 16:37 06.02.2021
2853 Clouds 8 1000 81 8000 0.51 0 16:19 06.02.2021
2854 Clouds 8 1000 81 7000 3.6 220 15:40 06.02.2021
2855 Clouds 7 1000 81 7000 3.6 220 15:19 06.02.2021
2856 Haze 7 1000 76 4000 2.57 230 14:44 06.02.2021
2857 Haze 7 1000 82 4000 3.6 230 14:24 06.02.2021
2858 Haze 7 1000 71 4000 5.66 200 13:47 06.02.2021
2859 Haze 9 1001 82 4000 3.6 220 12:56 06.02.2021
2860 Haze 7 1001 76 4000 5.14 220 12:21 06.02.2021
2861 Haze 8 1001 62 4000 4.63 220 11:47 06.02.2021
2862 Haze 8 1001 58 3000 3.6 220 11:22 06.02.2021
2863 Haze 8 1001 58 4000 2.57 230 10:56 06.02.2021
2864 Haze 7 1001 62 5000 2.57 270 10:28 06.02.2021
2865 Haze 6 1001 61 10000 1.54 250 09:56 06.02.2021
2866 Haze 7 1001 61 5000 1.03 0 09:36 06.02.2021
2867 Haze 6 1001 61 5000 1.03 0 09:18 06.02.2021
2868 Clouds 6 991 83 10000 1.88 152 08:33 06.02.2021
2869 Clouds 2 991 84 10000 1.24 129 07:56 06.02.2021
2870 Rain 7 994 81 10000 1.49 88 05:43 06.02.2021
2871 Rain 8 996 81 10000 2.57 70 03:53 06.02.2021
2872 Clouds 6 997 71 10000 2.27 89 01:38 06.02.2021
2873 Rain 6 998 73 10000 1.66 115 00:46 06.02.2021
2874 Clouds 6 998 69 10000 1.82 127 00:19 06.02.2021
2875 Clouds 5 998 71 10000 1.82 127 23:42 05.02.2021
2876 Clouds 7 998 76 10000 1.76 137 23:24 05.02.2021
2877 Clouds 7 998 67 10000 1.76 137 22:45 05.02.2021
2878 Clouds 7 998 71 10000 2.1 155 22:19 05.02.2021
2879 Clouds 6 998 76 10000 2.1 155 21:41 05.02.2021
2880 Clouds 6 998 74 10000 2.24 160 21:23 05.02.2021
2881 Clouds 6 998 75 10000 5.36 183 20:39 05.02.2021
2882 Clear 7 998 68 10000 5.81 197 19:50 05.02.2021
2883 Clear 8 998 76 10000 3.13 228 19:19 05.02.2021
2884 Clear 8 998 76 10000 3.13 228 19:19 05.02.2021
2885 Clear 9 997 77 10000 2.35 165 18:52 05.02.2021
2886 Clear 11 1007 39 10000 1.54 230 18:19 05.02.2021
2887 Clear 11 1007 39 10000 1.54 230 17:43 05.02.2021
2888 Clear 10 1007 39 10000 1.54 230 17:21 05.02.2021
2889 Clear 10 1007 39 10000 1.54 230 17:21 05.02.2021
2890 Clear 11 1008 36 10000 2.06 230 16:46 05.02.2021
2891 Clear 11 1008 36 10000 2.57 220 16:23 05.02.2021
2892 Clear 11 1008 36 10000 3.09 220 15:53 05.02.2021
2893 Clear 16 1009 42 10000 3.6 220 15:26 05.02.2021
2894 Clear 15 1009 51 10000 1.54 0 14:40 05.02.2021
2895 Clear 15 1009 51 10000 1.54 0 14:22 05.02.2021
2896 Clear 14 1010 51 10000 1.54 90 13:57 05.02.2021
2897 Clear 14 1010 54 10000 1.03 0 13:33 05.02.2021
2898 Clear 13 1011 58 10000 0.51 0 12:47 05.02.2021
2899 Clear 12 1012 71 10000 1.03 0 12:25 05.02.2021
2900 Clear 10 1012 76 10000 1.03 0 11:40 05.02.2021
2901 Clear 9 1012 76 10000 1.03 0 11:21 05.02.2021
2902 Clear 8 1012 81 10000 0.51 0 10:54 05.02.2021
2903 Clear 7 1013 87 10000 2.57 50 10:26 05.02.2021
2904 Clear 6 1013 87 10000 1.03 0 09:45 05.02.2021
2905 Clear 6 1013 87 10000 0.51 0 09:26 05.02.2021
2906 Clouds 6 1012 71 10000 1.28 131 08:51 05.02.2021
2907 Clouds 6 1012 71 10000 1.16 139 07:53 05.02.2021
2908 Clouds 6 1012 70 10000 1.23 137 07:34 05.02.2021
2909 Clouds 6 1012 72 10000 1.28 134 06:48 05.02.2021
2910 Clouds 6 1012 73 10000 1.01 110 05:36 05.02.2021
2911 Clear 6 1013 72 10000 1.22 190 02:52 05.02.2021
2912 Clear 5 1013 71 10000 1.59 200 02:24 05.02.2021
2913 Clouds 5 1003 77 10000 0.45 68 00:39 05.02.2021
2914 Clouds 6 1003 75 10000 0.45 42 00:19 05.02.2021
2915 Clouds 5 1002 74 10000 2.25 203 23:55 04.02.2021
2916 Clouds 5 1011 75 10000 1.79 47 23:36 04.02.2021
2917 Clouds 5 1002 72 10000 4.02 219 23:18 04.02.2021
2918 Clouds 6 1001 70 10000 7.15 204 22:43 04.02.2021
2919 Clouds 5 1001 71 10000 3.13 194 22:25 04.02.2021
2920 Clouds 6 1000 69 10000 4.47 217 21:42 04.02.2021
2921 Clouds 6 1000 70 10000 1.84 194 21:18 04.02.2021
2922 Clouds 7 1000 72 10000 6.26 211 20:45 04.02.2021
2923 Clouds 7 1001 73 10000 1.94 197 20:25 04.02.2021
2924 Clouds 8 1000 73 10000 1.94 197 19:41 04.02.2021
2925 Clear 10 1011 58 10000 1.54 230 18:51 04.02.2021
2926 Clear 10 1011 58 10000 1.54 230 18:24 04.02.2021
2927 Clear 9 1011 58 10000 1.03 0 17:51 04.02.2021
2928 Clear 9 1011 58 10000 2.06 230 17:24 04.02.2021
2929 Clear 10 1011 58 10000 1.54 210 16:56 04.02.2021
2930 Clear 10 1011 55 10000 1.03 0 16:37 04.02.2021
2931 Clear 10 1011 55 10000 1.03 0 16:18 04.02.2021
2932 Clear 10 1011 55 10000 1.03 0 15:39 04.02.2021
2933 Clear 10 1011 55 10000 1.03 0 15:20 04.02.2021
2934 Clouds 9 1012 58 10000 2.06 200 14:40 04.02.2021
2935 Clouds 9 1012 58 10000 2.06 200 14:20 04.02.2021
2936 Clear 12 1013 58 10000 2.06 0 13:44 04.02.2021
2937 Clear 10 1015 66 10000 1.54 120 12:58 04.02.2021
2938 Clear 10 1015 66 10000 1.03 0 12:34 04.02.2021
2939 Clear 9 1015 71 10000 1.03 0 11:53 04.02.2021
2940 Clouds 8 1015 76 10000 1.03 0 11:33 04.02.2021
2941 Clouds 7 1015 76 10000 0.51 0 10:50 04.02.2021
2942 Clouds 6 1015 87 10000 1.03 0 10:19 04.02.2021
2943 Clouds 4 1015 84 10000 1.23 201 09:44 04.02.2021
2944 Clouds 4 1015 85 10000 0.85 166 09:19 04.02.2021
2945 Clouds 3 1015 84 10000 0.85 166 08:48 04.02.2021
2946 Clouds 3 1015 84 10000 0.67 149 08:24 04.02.2021
2947 Clouds 3 1014 85 10000 0.67 149 07:43 04.02.2021
2948 Clouds 4 1014 84 10000 0.74 182 07:22 04.02.2021
2949 Clouds 4 1014 85 10000 0.74 182 06:43 04.02.2021
2950 Clouds 5 1014 82 10000 1.03 196 03:54 04.02.2021
2951 Clouds 5 1014 82 10000 1.03 196 03:54 04.02.2021
2952 Clouds 5 1003 85 10000 1.2 203 02:27 04.02.2021
2953 Clouds 6 1016 49 5937 1.14 199 00:56 04.02.2021
2954 Clouds 8 1016 44 5745 1.17 198 23:40 03.02.2021
2955 Clouds 7 1004 81 5768 1.57 197 22:50 03.02.2021
2956 Clouds 9 1016 39 5963 1.76 194 22:24 03.02.2021
2957 Clouds 9 1016 39 5963 1.76 194 21:59 03.02.2021
2958 Clouds 9 1016 40 5884 1.75 194 21:41 03.02.2021
2959 Clouds 10 1016 38 10000 1.56 183 21:20 03.02.2021
2960 Clouds 10 1013 79 10000 1.56 183 20:46 03.02.2021
2961 Clear 10 1010 75 10000 0.89 67 20:26 03.02.2021
2962 Clear 10 1009 74 10000 1.34 67 19:46 03.02.2021
2963 Clear 10 1009 69 10000 1.34 90 19:23 03.02.2021
2964 Clear 12 1011 53 10000 0.45 202 18:49 03.02.2021
2965 Clear 13 1011 71 10000 2.25 181 18:21 03.02.2021
2966 Clear 12 1010 69 10000 2.68 90 17:53 03.02.2021
2967 Clear 12 1010 46 10000 2.24 0 17:33 03.02.2021
2968 Clear 9 1003 78 10000 2.58 196 16:57 03.02.2021
2969 Clear 9 1003 78 10000 2.58 196 16:35 03.02.2021
2970 Clear 9 1003 79 10000 2.71 206 15:46 03.02.2021
2971 Clear 9 1003 79 10000 3.02 216 15:26 03.02.2021
2972 Clear 9 1003 80 10000 3.02 216 14:54 03.02.2021
2973 Clear 13 1011 59 10000 0.45 301 14:30 03.02.2021
2974 Clear 13 1011 61 10000 2.86 218 13:56 03.02.2021
2975 Clear 12 1011 64 10000 2.73 225 13:29 03.02.2021
2976 Clear 12 1012 67 10000 2.73 225 12:52 03.02.2021
2977 Clear 10 1013 69 10000 2.54 223 12:27 03.02.2021
2978 Clear 10 1013 73 10000 0.45 0 11:59 03.02.2021
2979 Clear 9 1013 74 10000 2.54 223 11:37 03.02.2021
2980 Clear 8 1004 83 10000 2.36 215 10:58 03.02.2021
2981 Clear 7 1013 83 10000 1.19 214 10:23 03.02.2021
2982 Clear 6 1004 83 10000 1.19 214 09:48 03.02.2021
2983 Clear 3 1014 87 10000 0.71 208 09:29 03.02.2021
2984 Clear 3 1014 87 10000 0.71 208 08:54 03.02.2021
2985 Clear 3 1013 88 10000 0.71 208 08:34 03.02.2021
2986 Clear 3 1013 88 10000 0.2 211 07:41 03.02.2021
2987 Clear 3 1013 88 10000 0.38 220 06:41 03.02.2021
2988 Clear 3 1013 88 10000 0.67 237 04:55 03.02.2021
2989 Clear 3 1013 89 10000 0.67 237 04:32 03.02.2021
2990 Clear 4 1014 87 10000 0.68 230 03:39 03.02.2021
2991 Clear 4 1014 87 10000 0.96 228 02:37 03.02.2021
2992 Clouds 4 1015 84 10000 0.45 55 00:46 03.02.2021
2993 Clouds 5 1015 83 10000 0.98 214 23:56 02.02.2021
2994 Clouds 5 1015 83 10000 0.98 214 23:36 02.02.2021
2995 Clouds 5 1015 83 10000 0.94 212 23:18 02.02.2021
2996 Clouds 5 1004 88 10000 1.03 198 22:23 02.02.2021
2997 Clouds 5 1005 88 10000 1.03 198 21:57 02.02.2021
2998 Clouds 6 1004 88 10000 1.03 198 21:31 02.02.2021
2999 Clouds 6 1005 88 10000 1.12 161 20:59 02.02.2021
3000 Clouds 6 1005 88 10000 1.12 161 20:59 02.02.2021
3001 Clouds 6 1005 88 10000 1.12 161 20:41 02.02.2021
3002 Clouds 7 1005 87 10000 0.73 107 20:19 02.02.2021
3003 Clouds 7 1005 87 10000 0.73 108 19:47 02.02.2021
3004 Clouds 7 1005 88 10000 0.42 55 19:29 02.02.2021
3005 Clouds 8 1004 88 10000 0.42 55 18:44 02.02.2021
3006 Clouds 9 1005 89 10000 0.28 204 18:25 02.02.2021
3007 Clouds 7 1004 89 10000 0.26 202 17:50 02.02.2021
3008 Clouds 9 1004 89 10000 0.88 193 17:23 02.02.2021
3009 Clouds 9 1005 89 10000 0.88 193 16:56 02.02.2021
3010 Clouds 8 1005 90 10000 0.88 193 16:37 02.02.2021
3011 Clouds 10 1005 91 10000 1.34 210 15:58 02.02.2021
3012 Clouds 10 1005 91 10000 1.34 210 15:40 02.02.2021
3013 Clouds 10 1005 92 10000 1.99 211 15:20 02.02.2021
3014 Clouds 10 1005 92 10000 1.99 211 14:39 02.02.2021
3015 Clouds 10 1005 92 10000 2.19 201 14:18 02.02.2021
3016 Clouds 14 1014 63 10000 0.45 213 13:44 02.02.2021
3017 Clouds 12 1014 63 10000 0.45 0 13:25 02.02.2021
3018 Clouds 12 1015 68 10000 2.03 203 12:55 02.02.2021
3019 Clouds 9 1015 68 10000 0.45 213 12:24 02.02.2021
3020 Clouds 9 1015 72 10000 1.65 199 11:40 02.02.2021
3021 Clouds 6 1015 72 10000 0.93 174 11:19 02.02.2021
3022 Clouds 5 1015 74 10000 0.93 174 10:47 02.02.2021
3023 Clouds 5 1015 74 10000 0.93 174 10:47 02.02.2021
3024 Clouds 4 1015 82 10000 0.56 145 10:26 02.02.2021
3025 Clouds 5 1015 85 10000 0.56 144 09:46 02.02.2021
3026 Clouds 5 1015 85 10000 1.01 48 09:23 02.02.2021
3027 Clouds 4 1015 85 10000 1.01 48 08:43 02.02.2021
3028 Clouds 5 1014 85 10000 2.02 31 07:50 02.02.2021
3029 Clouds 5 1014 85 10000 2.75 12 07:25 02.02.2021
3030 Clouds 5 1004 97 10000 2.75 12 06:40 02.02.2021
3031 Clouds 4 1004 96 10000 3.03 12 05:51 02.02.2021
3032 Clouds 5 1003 97 10000 2.95 6 04:18 02.02.2021
3033 Clouds 6 1017 74 10000 3.57 4 02:25 02.02.2021
3034 Clouds 5 1003 94 10000 3.94 360 00:41 02.02.2021
3035 Clouds 5 1003 95 10000 4.05 355 23:57 01.02.2021
3036 Clouds 6 1011 83 10000 0.89 34 22:59 01.02.2021
3037 Clouds 6 1012 84 10000 4.31 350 22:39 01.02.2021
3038 Clouds 5 1012 85 10000 0.45 49 22:19 01.02.2021
3039 Clouds 6 1012 83 10000 0.89 201 21:45 01.02.2021
3040 Clouds 6 1011 83 1754 0.89 213 21:22 01.02.2021
3041 Clouds 5 1001 97 1754 4.73 353 20:42 01.02.2021
3042 Clouds 6 1001 97 1462 3.98 354 20:24 01.02.2021
3043 Clouds 5 1000 97 1462 3.98 354 19:42 01.02.2021
3044 Clouds 8 1008 41 10000 8.75 310 19:21 01.02.2021
3045 Clouds 8 1008 41 10000 8.75 310 18:51 01.02.2021
3046 Clouds 8 1008 41 10000 8.75 310 18:29 01.02.2021
3047 Clouds 8 1008 41 10000 7.72 310 17:49 01.02.2021
3048 Clouds 8 1007 41 10000 5.66 300 17:27 01.02.2021
3049 Clouds 7 1007 38 10000 8.23 310 16:58 01.02.2021
3050 Clouds 7 1006 38 10000 7.72 300 16:33 01.02.2021
3051 Clouds 8 1006 33 10000 8.23 310 15:50 01.02.2021
3052 Clear 8 1006 31 10000 8.23 310 15:21 01.02.2021
3053 Clouds 8 1005 33 10000 8.75 310 14:53 01.02.2021
3054 Clouds 8 1006 33 10000 8.23 320 14:34 01.02.2021
3055 Clouds 8 1006 41 10000 7.2 310 13:52 01.02.2021
3056 Clouds 7 1006 54 10000 4.12 0 13:28 01.02.2021
3057 Clouds 5 1006 81 10000 2.57 210 12:58 01.02.2021
3058 Fog 4 1006 100 10000 2.06 210 12:40 01.02.2021
3059 Fog 4 1006 100 10000 2.06 210 12:40 01.02.2021
3060 Fog 4 1006 100 10000 2.06 210 12:40 01.02.2021
3061 Fog 4 1006 100 10000 2.06 210 12:21 01.02.2021
3062 Fog 4 1005 100 100 1.54 250 11:39 01.02.2021
3063 Fog 4 1005 100 100 1.54 250 11:19 01.02.2021
3064 Fog 3 1005 100 100 1.54 220 10:44 01.02.2021
3065 Fog 3 1004 100 200 1.03 0 10:19 01.02.2021
3066 Clouds 4 1005 90 2422 2.68 347 09:43 01.02.2021
3067 Clouds 4 1004 90 4422 3.36 345 09:19 01.02.2021
3068 Clouds 4 1004 91 4422 3.36 345 08:41 01.02.2021
3069 Clouds 4 1002 91 2256 4.1 340 07:37 01.02.2021
3070 Clouds 3 1002 91 4869 0.45 159 05:59 01.02.2021
3071 Clouds 3 1002 91 295 0.45 202 02:43 01.02.2021
3072 Clouds 4 1004 88 1558 2.27 349 00:31 01.02.2021
3073 Rain 4 992 88 10000 1.83 15 23:40 31.01.2021
3074 Clouds 4 1002 82 10000 1.84 353 22:42 31.01.2021
3075 Clouds 4 1003 83 10000 0.89 39 22:23 31.01.2021
3076 Clouds 4 1004 83 10000 1.8 4 21:49 31.01.2021
3077 Clouds 5 1003 84 10000 0.89 245 21:22 31.01.2021
3078 Clouds 5 1003 84 10000 0.45 0 20:46 31.01.2021
3079 Clouds 5 1003 82 10000 2.22 345 20:21 31.01.2021
3080 Clouds 4 993 74 10000 2.22 345 19:43 31.01.2021
3081 Clouds 5 1003 81 164 2.09 324 19:24 31.01.2021
3082 Clouds 5 993 88 164 2.24 45 18:58 31.01.2021
3083 Clouds 7 1003 47 10000 6.69 240 18:40 31.01.2021
3084 Clouds 8 1003 47 10000 6.69 240 18:19 31.01.2021
3085 Clouds 8 1003 47 10000 6.69 240 17:44 31.01.2021
3086 Clouds 8 1003 47 10000 6.69 240 17:23 31.01.2021
3087 Clouds 8 1002 50 10000 4.63 230 16:46 31.01.2021
3088 Clouds 9 1002 41 10000 4.12 230 16:27 31.01.2021
3089 Clouds 9 1002 38 10000 5.66 240 15:50 31.01.2021
3090 Clouds 7 1002 35 10000 6.17 250 15:31 31.01.2021
3091 Clouds 8 1002 38 10000 6.17 240 14:42 31.01.2021
3092 Clouds 8 1002 44 10000 6.17 230 14:19 31.01.2021
3093 Clouds 7 1002 41 10000 7.2 250 13:48 31.01.2021
3094 Clouds 8 1002 44 10000 5.66 250 13:23 31.01.2021
3095 Clouds 6 1002 62 10000 2.06 210 12:47 31.01.2021
3096 Clouds 5 1003 81 10000 1.54 0 12:21 31.01.2021
3097 Fog 3 1003 93 10000 1.54 0 11:41 31.01.2021
3098 Fog 3 1003 93 10000 1.54 0 11:21 31.01.2021
3099 Fog 3 1003 100 500 1.54 0 10:48 31.01.2021
3100 Fog 3 1003 93 700 3.09 240 10:30 31.01.2021
3101 Fog 2 1004 93 300 1.03 0 09:49 31.01.2021
3102 Clouds 3 1004 93 447 4.51 347 08:58 31.01.2021
3103 Clouds 2 1003 93 447 0.45 54 08:32 31.01.2021
3104 Clouds 2 1002 91 300 3.58 343 06:54 31.01.2021
3105 Clouds 1 1002 94 3066 2.62 333 05:30 31.01.2021
3106 Snow 1 989 89 353 1.12 346 00:40 31.01.2021
3107 Snow 1 990 88 4061 1.53 13 00:21 31.01.2021
3108 Clouds 1 1008 59 10000 2.48 4 23:28 30.01.2021
3109 Clouds 1 990 87 10000 1.79 97 22:49 30.01.2021
3110 Clouds 1 991 89 10000 2.46 8 22:28 30.01.2021
3111 Clouds 1 991 87 10000 2.46 8 21:39 30.01.2021
3112 Snow 1 991 87 10000 2.24 55 21:20 30.01.2021
3113 Snow 1 991 87 10000 2.24 55 21:20 30.01.2021
3114 Snow 1 991 87 10000 2.82 1 20:44 30.01.2021
3115 Clouds 2 991 86 6121 3.07 355 20:25 30.01.2021
3116 Clouds 1 991 91 6121 1.34 41 19:42 30.01.2021
3117 Snow 2 991 92 6392 1.79 18 19:24 30.01.2021
3118 Clouds 2 991 95 8994 0.89 17 18:40 30.01.2021
3119 Clouds 3 1002 81 10000 1.03 0 18:21 30.01.2021
3120 Clouds 3 1002 81 10000 1.03 0 17:53 30.01.2021
3121 Clouds 3 1002 81 10000 1.03 0 17:19 30.01.2021
3122 Clouds 4 1002 81 10000 1.54 0 16:43 30.01.2021
3123 Clouds 4 1003 87 10000 2.57 220 16:23 30.01.2021
3124 Clouds 4 1003 87 10000 3.6 180 15:50 30.01.2021
3125 Clouds 4 1003 87 10000 3.09 200 15:25 30.01.2021
3126 Clouds 5 1003 71 10000 6.17 310 14:59 30.01.2021
3127 Clouds 4 1003 87 10000 2.06 190 14:40 30.01.2021
3128 Rain 4 1003 87 10000 2.06 190 14:19 30.01.2021
3129 Clouds 4 1004 81 10000 1.54 350 13:25 30.01.2021
3130 Clouds 5 1004 87 10000 0.51 0 12:48 30.01.2021
3131 Clouds 4 1005 93 10000 1.54 0 12:28 30.01.2021
3132 Clouds 5 1005 93 10000 1.03 0 11:54 30.01.2021
3133 Fog 4 1005 93 10000 1.54 0 11:24 30.01.2021
3134 Fog 3 1006 100 8000 3.09 60 10:43 30.01.2021
3135 Fog 3 1008 100 10000 1.03 0 09:43 30.01.2021
3136 Clouds 3 1008 100 10000 1.03 0 09:25 30.01.2021
3137 Clouds 3 1007 82 10000 1.11 241 08:47 30.01.2021
3138 Clouds 4 1008 81 10000 1.07 238 07:44 30.01.2021
3139 Clouds 3 1009 81 10000 1.91 220 06:35 30.01.2021
3140 Clouds 3 1013 79 10000 0.65 189 03:57 30.01.2021
3141 Clouds 3 1013 79 10000 0.65 189 03:33 30.01.2021
3142 Clouds 5 1014 74 10000 0.45 15 02:23 30.01.2021
3143 Clouds 5 1005 90 10000 0.24 193 00:58 30.01.2021
3144 Clouds 6 1017 75 10000 0.41 178 00:34 30.01.2021
3145 Clouds 5 1005 89 10000 0.16 310 23:55 29.01.2021
3146 Clouds 5 1005 90 10000 0.85 17 23:28 29.01.2021
3147 Clouds 5 1005 90 10000 0.85 17 22:52 29.01.2021
3148 Clouds 5 1006 90 10000 0.85 17 22:32 29.01.2021
3149 Clouds 6 1016 71 10000 2 25 21:59 29.01.2021
3150 Clouds 5 1006 89 10000 2.26 9 21:27 29.01.2021
3151 Clouds 5 1006 88 10000 2.26 9 20:43 29.01.2021
3152 Clouds 6 1020 59 10000 2.23 24 20:24 29.01.2021
3153 Clouds 7 1006 96 10000 2.23 24 19:40 29.01.2021
3154 Clouds 7 1006 96 10000 2.23 24 19:40 29.01.2021
3155 Clouds 6 1006 96 10000 2.53 12 19:21 29.01.2021
3156 Clouds 6 1006 96 10000 2.53 12 18:53 29.01.2021
3157 Clouds 9 1014 58 10000 2.06 220 17:50 29.01.2021
3158 Clouds 9 1014 58 10000 2.06 220 17:23 29.01.2021
3159 Clouds 10 1014 55 10000 3.6 210 16:53 29.01.2021
3160 Clouds 10 1015 55 10000 2.06 0 16:24 29.01.2021
3161 Clouds 10 1015 55 10000 3.6 240 15:55 29.01.2021
3162 Clouds 10 1015 55 10000 4.12 230 15:37 29.01.2021
3163 Clouds 10 1015 55 10000 4.12 230 15:18 29.01.2021
3164 Clouds 9 1015 58 10000 1.54 240 14:23 29.01.2021
3165 Clouds 8 1016 58 10000 1.54 200 13:46 29.01.2021
3166 Clouds 8 1017 62 10000 0.51 0 13:28 29.01.2021
3167 Clouds 10 1017 66 10000 1.03 0 12:42 29.01.2021
3168 Clouds 9 1018 71 10000 1.03 0 12:18 29.01.2021
3169 Clouds 7 1018 81 10000 1.03 0 11:41 29.01.2021
3170 Clouds 7 1018 81 10000 1.03 0 11:18 29.01.2021
3171 Fog 6 1018 93 10000 1.54 100 10:46 29.01.2021
3172 Fog 5 1018 93 10000 1.54 10 10:22 29.01.2021
3173 Fog 3 1018 100 10000 1.03 0 09:39 29.01.2021
3174 Clouds 3 1018 83 10000 2.3 10 08:50 29.01.2021
3175 Clouds 3 1017 82 10000 0.45 56 08:26 29.01.2021
3176 Clouds 3 1017 83 10000 2.32 7 07:44 29.01.2021
3177 Clouds 4 1017 83 10000 1.99 350 07:26 29.01.2021
3178 Clouds 4 1018 81 10000 1.98 350 06:38 29.01.2021
3179 Clouds 4 1018 81 10000 1.66 347 04:42 29.01.2021
3180 Clouds 5 1020 79 10000 0.65 302 00:51 29.01.2021
3181 Clouds 5 1020 79 10000 0.61 251 00:23 29.01.2021
3182 Clouds 5 1020 78 10000 0.61 251 23:47 28.01.2021
3183 Clouds 5 1020 78 10000 0.7 239 23:28 28.01.2021
3184 Clouds 5 1020 80 10000 0.7 239 22:59 28.01.2021
3185 Clouds 5 1020 80 10000 0.7 239 22:39 28.01.2021
3186 Clouds 6 1020 79 10000 0.31 216 22:21 28.01.2021
3187 Clouds 6 1020 79 10000 0.31 216 22:21 28.01.2021
3188 Clouds 6 1020 79 10000 0.31 216 21:42 28.01.2021
3189 Clouds 6 1020 79 10000 0.33 351 21:22 28.01.2021
3190 Clouds 8 1020 78 10000 0.33 351 20:45 28.01.2021
3191 Clouds 7 1022 42 10000 0.55 359 20:19 28.01.2021
3192 Clouds 8 1022 41 10000 0.55 359 19:52 28.01.2021
3193 Clouds 8 1022 39 10000 0.96 9 19:28 28.01.2021
3194 Clouds 9 1022 37 10000 0.96 9 18:49 28.01.2021
3195 Clouds 9 1022 37 10000 0.96 9 18:49 28.01.2021
3196 Clear 12 1019 62 10000 1.54 220 18:30 28.01.2021
3197 Clear 13 1019 62 10000 1.54 220 17:53 28.01.2021
3198 Clear 14 1019 62 10000 1.54 220 17:32 28.01.2021
3199 Clear 14 1019 58 10000 2.57 220 16:57 28.01.2021
3200 Clear 14 1019 62 10000 2.06 190 16:37 28.01.2021
3201 Clear 14 1019 62 10000 2.06 190 16:18 28.01.2021
3202 Clear 15 1019 58 10000 1.54 190 15:25 28.01.2021
3203 Clear 12 1020 62 10000 1.03 0 14:44 28.01.2021
3204 Clear 12 1020 62 10000 1.54 190 14:23 28.01.2021
3205 Clear 10 1020 66 10000 1.03 0 13:54 28.01.2021
3206 Clear 9 1021 71 10000 1.03 0 13:23 28.01.2021
3207 Clear 10 1022 76 10000 1.03 0 12:48 28.01.2021
3208 Clear 8 1022 76 10000 1.03 0 12:23 28.01.2021
3209 Fog 8 1022 87 10000 0.51 0 11:44 28.01.2021
3210 Fog 8 1022 93 10000 2.38 10 11:21 28.01.2021
3211 Fog 6 1022 100 150 0.51 0 10:56 28.01.2021
3212 Fog 5 1022 100 150 1.03 0 10:38 28.01.2021
3213 Fog 5 1022 100 150 1.03 0 10:20 28.01.2021
3214 Fog 4 1022 100 200 0.51 0 09:34 28.01.2021
3215 Clouds 4 1021 90 10000 2.09 1 08:58 28.01.2021
3216 Clouds 4 1021 91 10000 2.09 1 08:39 28.01.2021
3217 Clouds 4 1021 90 10000 2.28 14 07:48 28.01.2021
3218 Clouds 6 1021 90 10000 2.6 7 06:51 28.01.2021
3219 Clouds 5 1021 90 10000 0.45 194 06:32 28.01.2021
3220 Clouds 6 1021 92 10000 2.44 11 04:30 28.01.2021
3221 Clouds 7 1022 93 454 2.59 353 01:41 28.01.2021
3222 Clouds 7 1022 93 454 2.59 353 01:41 28.01.2021
3223 Clouds 6 1022 93 134 0.45 0 23:56 27.01.2021
3224 Clouds 7 1022 92 143 2.89 352 23:24 27.01.2021
3225 Clouds 7 1022 91 143 2.89 352 22:44 27.01.2021
3226 Clouds 7 1022 92 982 0.89 34 22:25 27.01.2021
3227 Clouds 7 1022 92 982 3.05 349 21:44 27.01.2021
3228 Clouds 7 1022 92 10000 2.39 357 21:26 27.01.2021
3229 Clouds 6 1022 91 10000 0.45 0 20:55 27.01.2021
3230 Clouds 6 1022 91 10000 2.39 357 20:31 27.01.2021
3231 Clouds 7 1012 96 1531 2.52 350 19:56 27.01.2021
3232 Clouds 7 1021 85 1531 2.52 350 19:37 27.01.2021
3233 Clouds 8 1012 97 5404 0.45 17 19:18 27.01.2021
3234 Clouds 8 1012 96 5404 0.45 28 18:40 27.01.2021
3235 Clouds 8 1012 96 1172 2.55 354 18:21 27.01.2021
3236 Clouds 7 1012 97 1172 2.55 354 17:40 27.01.2021
3237 Clouds 9 1012 97 103 2.56 347 17:18 27.01.2021
3238 Clouds 7 1012 96 103 0.89 350 16:44 27.01.2021
3239 Clouds 9 1019 62 10000 1.54 50 16:26 27.01.2021
3240 Clouds 9 1019 62 10000 1.54 50 15:49 27.01.2021
3241 Clouds 9 1019 62 10000 1.54 50 15:29 27.01.2021
3242 Clouds 8 1020 71 10000 2.57 70 14:39 27.01.2021
3243 Clouds 8 1020 71 10000 2.57 70 14:19 27.01.2021
3244 Clouds 8 1021 71 10000 2.89 348 13:40 27.01.2021
3245 Clouds 7 1021 71 10000 0.51 0 12:46 27.01.2021
3246 Clouds 6 1022 76 10000 1.03 0 12:26 27.01.2021
3247 Clouds 6 1022 76 10000 1.03 0 12:26 27.01.2021
3248 Clouds 5 1022 75 10000 1.03 0 11:52 27.01.2021
3249 Clouds 4 1022 87 10000 1.54 20 11:26 27.01.2021
3250 Clouds 3 1021 93 10000 2.06 360 10:51 27.01.2021
3251 Clouds 3 1021 93 10000 2.06 20 10:26 27.01.2021
3252 Clouds 3 1021 93 10000 2.06 90 09:56 27.01.2021
3253 Clouds 5 1020 91 137 2.35 344 09:29 27.01.2021
3254 Clouds 5 1020 91 137 2.35 344 09:29 27.01.2021
3255 Clouds 5 1020 92 137 2.35 344 08:47 27.01.2021
3256 Clouds 5 1019 92 174 2.63 4 07:58 27.01.2021
3257 Clouds 5 1019 93 174 2.63 4 07:38 27.01.2021
3258 Clouds 5 1019 92 408 2.2 12 06:45 27.01.2021
3259 Clouds 5 1019 93 7712 2.15 346 05:56 27.01.2021
3260 Clouds 5 1019 92 7712 2.15 346 05:34 27.01.2021
3261 Clouds 3 1020 86 1221 2.44 352 02:46 27.01.2021
3262 Clouds 4 1019 84 10000 0.45 86 02:20 27.01.2021
3263 Clouds 4 1019 79 10000 0.45 45 01:46 27.01.2021
3264 Clouds 4 1019 77 10000 2.72 359 00:27 27.01.2021
3265 Clouds 3 1020 77 10000 2.72 359 23:40 26.01.2021
3266 Clouds 3 1020 77 10000 2.72 359 23:40 26.01.2021
3267 Clouds 4 1019 75 10000 3 352 23:19 26.01.2021
3268 Clouds 4 1020 75 10000 0.45 263 22:39 26.01.2021
3269 Clouds 4 1020 75 10000 2.94 6 22:19 26.01.2021
3270 Clouds 4 1020 74 10000 0.45 179 21:51 26.01.2021
3271 Clouds 4 1020 72 10000 3.13 10 21:24 26.01.2021
3272 Clouds 4 1022 59 10000 0.45 69 20:43 26.01.2021
3273 Clouds 4 1023 33 10000 3.11 14 20:23 26.01.2021
3274 Clouds 3 1023 30 10000 3.11 14 19:51 26.01.2021
3275 Clouds 4 1023 29 10000 3.11 14 19:30 26.01.2021
3276 Clouds 4 1023 28 10000 2.76 13 18:59 26.01.2021
3277 Clouds 5 1023 24 10000 3.09 12 18:41 26.01.2021
3278 Clouds 5 1023 15 10000 2.62 3 18:22 26.01.2021
3279 Clouds 5 1021 82 10000 2.62 3 17:47 26.01.2021
3280 Clouds 6 1009 57 10000 1.64 337 17:22 26.01.2021
3281 Clouds 6 1009 54 10000 1.64 337 16:51 26.01.2021
3282 Clouds 6 1009 53 10000 0.45 6 16:21 26.01.2021
3283 Clouds 6 1008 52 10000 1.23 312 15:51 26.01.2021
3284 Clouds 6 1008 52 10000 1.23 312 15:51 26.01.2021
3285 Clouds 7 1008 51 10000 1.23 312 15:33 26.01.2021
3286 Clouds 8 1018 38 10000 1.5 288 14:49 26.01.2021
3287 Clouds 7 1019 38 10000 1.5 288 14:30 26.01.2021
3288 Clouds 7 1019 38 10000 1.5 288 14:30 26.01.2021
3289 Clouds 6 1019 34 10000 0.45 310 13:42 26.01.2021
3290 Clouds 6 1019 38 10000 0.89 250 13:24 26.01.2021
3291 Clouds 4 1020 44 10000 1.02 302 12:45 26.01.2021
3292 Clouds 4 1020 48 10000 0.45 224 12:25 26.01.2021
3293 Clouds 4 1020 52 10000 1.11 331 11:58 26.01.2021
3294 Clouds 3 1020 57 10000 1.11 331 11:38 26.01.2021
3295 Clear 0 1009 41 10000 1.69 352 10:47 26.01.2021
3296 Clear 0 1019 64 10000 2.72 14 10:29 26.01.2021
3297 Clear -1 1019 67 10000 0.45 0 09:47 26.01.2021
3298 Clear -1 1019 68 10000 3.31 16 09:26 26.01.2021
3299 Clear -2 1018 68 10000 3.31 16 08:53 26.01.2021
3300 Clear -1 1018 68 10000 3.9 16 08:29 26.01.2021
3301 Clear -1 1018 67 10000 0.45 12 07:43 26.01.2021
3302 Clouds -1 1018 61 10000 1.34 79 06:21 26.01.2021
3303 Clouds -1 1018 61 10000 0.45 308 05:42 26.01.2021
3304 Clear 0 1022 69 10000 4 10 04:23 26.01.2021
3305 Clouds -1 1003 81 10000 4.03 11 02:21 26.01.2021
3306 Clouds -1 1002 92 10000 4.18 7 00:54 26.01.2021
3307 Clouds 0 1001 94 10000 4.05 10 23:36 25.01.2021
3308 Clouds -2 1001 94 10000 3.77 4 22:57 25.01.2021
3309 Clouds -2 1000 94 10000 3.77 4 22:36 25.01.2021
3310 Clouds -1 1000 95 10000 3.32 5 21:50 25.01.2021
3311 Snow -1 999 94 10000 3.61 2 21:28 25.01.2021
3312 Snow -1 999 94 10000 3.61 2 20:52 25.01.2021
3313 Snow 0 998 94 10000 3.61 2 20:33 25.01.2021
3314 Clouds 0 998 94 10000 3.38 357 19:51 25.01.2021
3315 Snow 1 998 94 10000 3.39 358 19:31 25.01.2021
3316 Snow 1 997 94 10000 3.4 358 18:49 25.01.2021
3317 Clouds 3 1006 61 10000 2.57 0 18:28 25.01.2021
3318 Clouds 3 1006 61 10000 2.57 0 17:58 25.01.2021
3319 Clouds 3 1006 61 10000 2.57 0 17:39 25.01.2021
3320 Clouds 4 1006 61 10000 2.57 0 17:20 25.01.2021
3321 Clouds 4 1006 61 10000 1.03 0 16:41 25.01.2021
3322 Clouds 4 1006 57 10000 1.03 0 16:21 25.01.2021
3323 Clouds 5 1005 57 10000 1.03 0 15:48 25.01.2021
3324 Clouds 5 1005 57 10000 1.54 0 15:29 25.01.2021
3325 Clear 5 1006 57 10000 1.03 0 14:46 25.01.2021
3326 Clear 5 1006 57 10000 1.03 0 14:19 25.01.2021
3327 Clear 4 1006 65 10000 0.51 0 13:52 25.01.2021
3328 Clear 3 1007 75 10000 1.03 0 13:28 25.01.2021
3329 Clouds 3 1007 81 10000 1.03 0 12:46 25.01.2021
3330 Clouds 2 1008 81 10000 1.59 341 12:20 25.01.2021
3331 Clouds 2 1008 93 10000 0.51 0 11:47 25.01.2021
3332 Clouds 2 1008 93 10000 0.51 0 11:47 25.01.2021
3333 Clouds 1 1008 100 10000 1.25 335 11:18 25.01.2021
3334 Clouds 1 1008 93 10000 1.25 335 10:40 25.01.2021
3335 Clouds 0 1008 93 10000 1.56 0 10:18 25.01.2021
3336 Clouds 0 1008 100 10000 1.56 0 09:43 25.01.2021
3337 Clouds 1 1008 100 10000 1.67 2 09:25 25.01.2021
3338 Clouds 1 1006 87 10000 1.83 13 08:28 25.01.2021
3339 Clouds 1 1006 87 10000 1.83 13 07:32 25.01.2021
3340 Clouds 1 1006 86 10000 1.92 3 06:55 25.01.2021
3341 Clouds 1 1007 85 10000 2.33 1 04:18 25.01.2021
3342 Clouds 1 1008 86 10000 0.89 103 01:32 25.01.2021
3343 Clouds 2 1011 45 10000 2.08 7 23:44 24.01.2021
3344 Clouds 2 1011 44 10000 2.31 358 23:19 24.01.2021
3345 Clouds 2 1011 44 10000 2.31 358 22:42 24.01.2021
3346 Clouds 2 1008 84 10000 0.45 88 22:21 24.01.2021
3347 Clouds 2 1011 42 10000 1.48 7 21:48 24.01.2021
3348 Clouds 3 1012 41 10000 1.19 9 21:24 24.01.2021
3349 Clouds 3 1009 40 10000 1.19 9 20:45 24.01.2021
3350 Clouds 3 1009 39 10000 1.64 12 20:22 24.01.2021
3351 Clouds 4 1009 39 10000 1.64 12 19:52 24.01.2021
3352 Clouds 4 1009 33 10000 2.3 5 19:27 24.01.2021
3353 Clouds 6 1009 31 10000 1.99 2 18:58 24.01.2021
3354 Clouds 9 1007 49 10000 4.63 240 18:39 24.01.2021
3355 Clouds 9 1007 49 10000 4.63 240 18:20 24.01.2021
3356 Clouds 9 1007 49 10000 4.63 240 17:50 24.01.2021
3357 Clouds 5 1007 49 10000 4.63 240 17:28 24.01.2021
3358 Clouds 4 1007 50 10000 4.63 220 16:58 24.01.2021
3359 Clouds 4 1007 46 10000 4.63 220 16:38 24.01.2021
3360 Clouds 5 1007 46 10000 4.63 220 16:18 24.01.2021
3361 Clouds 6 1007 40 10000 5.14 210 15:43 24.01.2021
3362 Clouds 6 1007 40 10000 4.63 220 15:18 24.01.2021
3363 Clouds 5 1007 40 10000 3.09 0 14:39 24.01.2021
3364 Clouds 5 1007 40 10000 3.6 300 13:48 24.01.2021
3365 Clouds 4 1007 40 10000 5.66 300 13:27 24.01.2021
3366 Clouds 4 1007 43 10000 5.66 290 12:50 24.01.2021
3367 Clouds 3 1007 49 10000 3.6 240 12:20 24.01.2021
3368 Clouds 3 1007 49 10000 3.6 240 12:20 24.01.2021
3369 Clouds 1 1006 87 10000 1.03 0 11:51 24.01.2021
3370 Fog 0 1006 100 10000 1.54 50 11:24 24.01.2021
3371 Fog -1 1006 100 400 2.06 30 10:46 24.01.2021
3372 Fog -1 1006 100 400 2.06 30 10:46 24.01.2021
3373 Fog -1 1006 100 200 1.03 0 10:19 24.01.2021
3374 Fog -1 1004 100 300 2.57 250 09:23 24.01.2021
3375 Fog -1 1003 100 200 3.09 230 08:58 24.01.2021
3376 Fog -1 1002 100 350 0.51 0 08:23 24.01.2021
3377 Clouds 1 999 94 383 0.56 259 02:52 24.01.2021
3378 Clouds 2 999 93 96 1.23 236 01:52 24.01.2021
3379 Snow 1 1000 92 75 3.57 216 00:26 24.01.2021
3380 Clouds 2 1001 91 75 3.57 216 23:53 23.01.2021
3381 Clouds 2 1000 89 112 2.47 204 23:26 23.01.2021
3382 Clouds 2 1001 89 112 2.47 204 22:53 23.01.2021
3383 Clouds 2 1001 88 112 2.47 204 22:33 23.01.2021
3384 Clouds 2 1002 87 78 2.92 205 21:53 23.01.2021
3385 Clouds 2 1002 86 672 0.45 0 21:22 23.01.2021
3386 Clouds 2 1002 87 672 0.45 0 20:48 23.01.2021
3387 Clouds 2 1002 87 672 0.45 0 20:48 23.01.2021
3388 Clouds 3 1003 85 394 0.89 11 20:25 23.01.2021
3389 Clouds 3 1002 84 394 0.45 202 19:47 23.01.2021
3390 Rain 4 1003 83 818 0.45 128 19:23 23.01.2021
3391 Clouds 4 1004 82 834 1.34 136 18:51 23.01.2021
3392 Clouds 3 1005 65 10000 3.09 180 18:26 23.01.2021
3393 Clouds 5 1005 65 10000 3.09 180 17:55 23.01.2021
3394 Clouds 5 1005 65 10000 3.09 180 17:27 23.01.2021
3395 Clouds 2 1005 65 10000 3.6 190 16:50 23.01.2021
3396 Clouds 5 1005 65 10000 5.14 180 16:31 23.01.2021
3397 Clouds 5 1006 65 10000 2.57 200 15:48 23.01.2021
3398 Clouds 3 1006 65 10000 2.06 0 15:26 23.01.2021
3399 Clouds 2 1007 70 10000 0.51 0 14:35 23.01.2021
3400 Clouds 2 1007 75 10000 1.03 0 13:56 23.01.2021
3401 Clouds 2 1007 75 10000 0.51 0 13:36 23.01.2021
3402 Clouds 1 1008 80 10000 2.58 233 12:57 23.01.2021
3403 Clouds 1 1008 86 10000 2.58 233 12:37 23.01.2021
3404 Clouds 1 1008 86 10000 2.07 249 12:18 23.01.2021
3405 Clouds 0 1009 86 10000 2.07 249 11:33 23.01.2021
3406 Clouds -1 1009 93 10000 1.48 250 10:52 23.01.2021
3407 Clouds -1 1009 93 10000 0.88 270 10:22 23.01.2021
3408 Clouds -1 1009 86 10000 0.88 270 09:49 23.01.2021
3409 Clouds -1 1009 93 10000 1.03 0 08:57 23.01.2021
3410 Clear -1 1009 93 10000 1.03 0 08:31 23.01.2021
3411 Clouds -1 1008 82 10000 1.34 62 07:31 23.01.2021
3412 Clouds -1 994 82 10000 1.54 355 03:41 23.01.2021
3413 Snow -1 993 88 10000 1.79 120 00:54 23.01.2021
3414 Clouds -1 1009 55 10000 2.41 2 23:41 22.01.2021
3415 Clouds -1 992 92 10000 2.24 243 23:18 22.01.2021
3416 Clouds -1 992 93 10000 0.89 14 22:38 22.01.2021
3417 Clouds -1 1009 44 10000 3.02 357 21:47 22.01.2021
3418 Clouds -1 991 94 10000 1.79 15 21:29 22.01.2021
3419 Clouds -1 991 94 10000 2.68 359 20:57 22.01.2021
3420 Clouds -1 990 95 10000 2.24 39 20:38 22.01.2021
3421 Snow 0 990 95 9585 1.79 10 19:56 22.01.2021
3422 Snow 0 989 95 1093 1.34 21 19:24 22.01.2021
3423 Snow -1 989 95 4224 3.13 24 18:57 22.01.2021
3424 Snow 2 1001 46 10000 4.12 280 18:39 22.01.2021
3425 Snow 2 1001 46 10000 4.12 280 18:20 22.01.2021
3426 Snow 2 1001 46 10000 4.12 280 17:43 22.01.2021
3427 Snow 2 1001 76 10000 4.12 240 16:59 22.01.2021
3428 Snow 2 1000 87 10000 4.12 230 16:38 22.01.2021
3429 Clouds 2 1000 87 10000 4.12 230 16:18 22.01.2021
3430 Clouds 2 998 87 10000 4.63 220 15:28 22.01.2021
3431 Clouds 3 998 81 10000 4.63 220 14:51 22.01.2021
3432 Clouds 3 998 75 8000 4.63 250 14:29 22.01.2021
3433 Clouds 3 998 57 10000 4.12 240 13:46 22.01.2021
3434 Clouds 3 997 61 10000 3.09 240 13:27 22.01.2021
3435 Clouds 4 996 61 10000 2.57 220 12:44 22.01.2021
3436 Clouds 5 996 66 10000 5.66 210 12:20 22.01.2021
3437 Clouds 5 997 61 10000 3.6 0 11:45 22.01.2021
3438 Clouds 4 997 81 10000 1.54 320 10:51 22.01.2021
3439 Clouds 4 997 87 10000 3.09 290 10:29 22.01.2021
3440 Clouds 4 998 81 10000 4.63 210 09:55 22.01.2021
3441 Rain 4 998 93 350 6.17 260 09:20 22.01.2021
3442 Rain 5 997 100 6000 3.09 10 08:45 22.01.2021
3443 Fog 4 998 93 10000 1.54 0 08:22 22.01.2021
3444 Rain 4 985 89 358 4.02 188 07:23 22.01.2021
3445 Clouds 3 1006 92 742 2.71 188 02:38 22.01.2021
3446 Clouds 3 1008 91 1315 2.37 196 00:31 22.01.2021
3447 Clouds 3 1008 90 766 2.35 198 23:50 21.01.2021
3448 Clouds 3 1009 90 669 1.77 193 23:22 21.01.2021
3449 Clouds 3 1009 88 774 1.79 193 22:48 21.01.2021
3450 Clouds 3 1009 88 737 1.99 216 22:18 21.01.2021
3451 Clouds 4 1009 81 737 1.99 216 21:41 21.01.2021
3452 Clouds 3 997 84 768 2.98 201 21:19 21.01.2021
3453 Clouds 3 997 83 715 2.97 200 20:47 21.01.2021
3454 Clouds 3 997 83 529 1.59 216 20:22 21.01.2021
3455 Clouds 4 1009 85 529 0.45 97 19:51 21.01.2021
3456 Clouds 4 997 82 403 1.91 215 19:27 21.01.2021
3457 Clouds 4 1008 11 403 1.91 215 18:54 21.01.2021
3458 Clouds 4 1008 11 403 1.91 215 18:54 21.01.2021
3459 Clouds 4 1009 66 10000 2.57 240 18:36 21.01.2021
3460 Clouds 4 1009 66 10000 2.57 240 18:18 21.01.2021
3461 Clouds 5 1009 66 10000 2.57 240 17:41 21.01.2021
3462 Clouds 5 1009 66 10000 2.57 240 17:18 21.01.2021
3463 Clouds 5 1009 66 10000 2.57 240 17:18 21.01.2021
3464 Clouds 6 1009 62 10000 3.6 210 16:41 21.01.2021
3465 Clouds 5 1009 62 10000 5.14 210 16:23 21.01.2021
3466 Clouds 5 1008 71 10000 3.6 220 15:49 21.01.2021
3467 Clouds 5 1009 76 10000 3.09 230 15:28 21.01.2021
3468 Clouds 5 1009 71 10000 1.03 0 14:48 21.01.2021
3469 Clouds 5 1009 71 10000 1.03 0 14:29 21.01.2021
3470 Clouds 5 1010 71 10000 0.51 0 13:47 21.01.2021
3471 Clouds 4 1011 81 10000 1.03 0 13:26 21.01.2021
3472 Clouds 4 1011 87 10000 1.03 0 12:46 21.01.2021
3473 Clouds 4 1011 93 10000 0.51 0 12:25 21.01.2021
3474 Fog 3 1012 93 10000 0.51 0 11:56 21.01.2021
3475 Fog 3 1012 100 300 2.98 204 11:35 21.01.2021
3476 Fog 2 1012 100 100 0.51 0 10:53 21.01.2021
3477 Fog 1 1012 100 200 0.51 0 10:34 21.01.2021
3478 Fog 1 1011 100 150 2.06 80 09:50 21.01.2021
3479 Fog 1 1011 100 150 1.03 0 09:30 21.01.2021
3480 Clouds 1 1010 89 1000 1.21 212 08:59 21.01.2021
3481 Clouds 1 1010 88 1000 1.21 212 08:34 21.01.2021
3482 Clouds 1 1010 89 541 0.66 207 07:46 21.01.2021
3483 Clouds 1 1009 88 443 0.45 0 07:26 21.01.2021
3484 Clouds 2 1009 89 455 1.18 211 05:59 21.01.2021
3485 Clouds 2 1009 91 767 1.63 205 04:32 21.01.2021
3486 Clouds 2 1009 89 709 2.09 207 02:18 21.01.2021
3487 Clouds 3 1008 90 707 2.2 203 00:41 21.01.2021
3488 Clouds 3 1008 87 704 2.43 191 23:44 20.01.2021
3489 Clouds 4 1008 86 701 0.45 0 23:24 20.01.2021
3490 Clouds 3 1008 87 701 2.03 179 22:50 20.01.2021
3491 Clouds 4 1008 85 689 0.45 0 22:29 20.01.2021
3492 Clouds 4 1008 85 585 1.9 202 21:49 20.01.2021
3493 Clouds 4 1008 84 689 2.65 197 21:23 20.01.2021
3494 Clouds 4 1008 85 689 2.65 197 20:51 20.01.2021
3495 Clouds 4 1008 86 690 3.15 215 20:21 20.01.2021
3496 Clouds 2 1008 86 690 0.45 88 19:47 20.01.2021
3497 Snow 3 1009 87 642 1.79 39 19:28 20.01.2021
3498 Snow 3 1008 87 552 3.31 204 18:43 20.01.2021
3499 Snow 4 1010 94 613 3.66 207 18:20 20.01.2021
3500 Snow 5 1011 92 531 3.65 207 17:44 20.01.2021
3501 Snow 4 1008 70 608 3.13 264 17:26 20.01.2021
3502 Snow 6 1011 92 608 3.88 205 16:47 20.01.2021
3503 Clouds 3 993 72 1143 5.32 208 16:20 20.01.2021
3504 Clouds 5 994 68 973 5.33 208 15:38 20.01.2021
3505 Clouds 4 1009 67 10000 4.47 230 14:57 20.01.2021
3506 Clouds 4 1008 64 10000 3.58 206 14:38 20.01.2021
3507 Clouds 4 1009 60 10000 3.58 225 14:18 20.01.2021
3508 Clouds 4 996 59 10000 4.81 196 13:36 20.01.2021
3509 Clouds 3 1010 49 10000 0.89 253 12:55 20.01.2021
3510 Clouds 3 1011 48 10000 4.25 205 12:22 20.01.2021
3511 Clouds 2 1013 52 10000 0.45 238 11:40 20.01.2021
3512 Clouds 2 1013 55 10000 3.57 205 11:19 20.01.2021
3513 Clouds 1 1013 58 10000 3.57 205 10:45 20.01.2021
3514 Clouds 3 1013 57 10000 2.67 201 10:22 20.01.2021
3515 Clouds 2 1013 60 10000 2.67 201 09:38 20.01.2021
3516 Clouds 2 1014 58 10000 0.45 165 09:18 20.01.2021
3517 Clouds 1 1014 62 10000 2.23 200 08:41 20.01.2021
3518 Clouds 1 1014 62 10000 1.72 198 08:20 20.01.2021
3519 Clouds 1 1014 63 10000 1.72 198 07:37 20.01.2021
3520 Clouds 1 1015 65 10000 1.71 189 06:56 20.01.2021
3521 Clouds 0 1017 66 10000 1.58 187 03:34 20.01.2021
3522 Clear 0 1018 68 10000 1.29 185 01:51 20.01.2021
3523 Clear -1 1019 69 10000 0.45 54 00:49 20.01.2021
3524 Clear 0 1019 66 10000 1.08 182 23:50 19.01.2021
3525 Clear 1 1019 65 10000 1.08 182 23:32 19.01.2021
3526 Clear 1 1020 63 10000 0.45 57 22:58 19.01.2021
3527 Clear 1 1020 63 10000 0.81 204 22:37 19.01.2021
3528 Clear 0 1019 31 10000 0.73 210 22:19 19.01.2021
3529 Clear 1 1020 64 10000 0.73 210 21:52 19.01.2021
3530 Clear 0 1019 30 10000 0.65 208 21:28 19.01.2021
3531 Clear 1 1022 69 10000 0.65 208 20:49 19.01.2021
3532 Clear 1 1020 30 10000 0.3 178 20:26 19.01.2021
3533 Clear 1 1020 27 10000 0.3 178 19:56 19.01.2021
3534 Clear 2 1025 21 10000 0.22 171 19:31 19.01.2021
3535 Clear 3 1025 18 10000 0.34 137 18:50 19.01.2021
3536 Clear 3 1025 18 10000 0.36 140 18:31 19.01.2021
3537 Clear 5 1025 13 10000 0.55 193 17:47 19.01.2021
3538 Clear 4 1008 71 10000 0.94 208 17:29 19.01.2021
3539 Clear 4 1009 70 10000 0.94 208 16:59 19.01.2021
3540 Clear 3 1009 71 10000 0.94 208 16:38 19.01.2021
3541 Clear 5 1009 71 10000 1.44 212 16:18 19.01.2021
3542 Clear 5 1009 71 10000 1.44 212 15:41 19.01.2021
3543 Clear 5 1009 72 10000 1.56 207 15:21 19.01.2021
3544 Clear 4 1020 39 10000 0.45 0 14:41 19.01.2021
3545 Clear 4 1020 39 10000 0.45 0 14:41 19.01.2021
3546 Clear 7 1020 42 10000 1.49 208 14:22 19.01.2021
3547 Clear 6 1021 39 10000 0.45 227 13:41 19.01.2021
3548 Clear 6 1022 42 10000 1.31 213 13:21 19.01.2021
3549 Clear 4 1022 47 10000 1.48 207 12:48 19.01.2021
3550 Clear 7 1024 44 10000 0.89 226 12:29 19.01.2021
3551 Clear 7 1024 45 10000 0.45 189 11:43 19.01.2021
3552 Clear 5 1025 16 10000 0.67 168 11:24 19.01.2021
3553 Clear 5 1025 14 10000 0.67 168 10:51 19.01.2021
3554 Clear 3 1025 15 10000 0.67 168 10:31 19.01.2021
3555 Clear -3 1012 74 10000 0.5 89 09:53 19.01.2021
3556 Clear -2 1023 63 10000 1 58 09:27 19.01.2021
3557 Clear -2 1023 63 10000 1 58 08:52 19.01.2021
3558 Clear -3 1024 64 10000 1.43 48 08:19 19.01.2021
3559 Clear -3 1024 64 10000 1.43 48 07:38 19.01.2021
3560 Clear -3 1024 62 10000 1.65 35 05:59 19.01.2021
3561 Clear -2 1025 57 10000 0.45 79 02:29 19.01.2021
3562 Clear -2 1025 56 10000 1.25 24 00:48 19.01.2021
3563 Clear -1 1026 54 10000 1.58 28 23:58 18.01.2021
3564 Clear -1 1025 53 10000 1.58 28 23:31 18.01.2021
3565 Clear 0 1025 55 10000 1.73 27 22:51 18.01.2021
3566 Clear 0 1025 54 10000 1.89 25 22:24 18.01.2021
3567 Clear 0 1025 54 10000 1.89 25 21:49 18.01.2021
3568 Clear -1 1028 40 10000 2.04 25 21:24 18.01.2021
3569 Clear -1 1028 40 10000 2.06 25 20:59 18.01.2021
3570 Clear 0 1028 37 10000 2.06 25 20:37 18.01.2021
3571 Clear 0 1028 39 10000 2.31 26 20:19 18.01.2021
3572 Clear 0 1028 36 10000 2.31 26 19:42 18.01.2021
3573 Clear 1 1025 65 10000 2.5 26 19:24 18.01.2021
3574 Clear 2 1027 31 10000 2.45 25 18:43 18.01.2021
3575 Clear 5 1024 57 10000 4.12 230 18:21 18.01.2021
3576 Clear 6 1024 57 10000 4.12 230 17:40 18.01.2021
3577 Clear 4 1024 49 10000 4.12 220 16:56 18.01.2021
3578 Clear 4 1024 46 10000 3.09 220 16:36 18.01.2021
3579 Clear 5 1024 43 10000 2.57 210 15:59 18.01.2021
3580 Clear 3 1024 43 10000 2.57 210 15:41 18.01.2021
3581 Clear 5 1024 34 10000 2.06 210 15:19 18.01.2021
3582 Clear 4 1024 27 10000 2.06 210 14:43 18.01.2021
3583 Clear 5 1024 23 10000 1.54 0 14:24 18.01.2021
3584 Clear 4 1025 26 10000 1.54 180 13:45 18.01.2021
3585 Clear 3 1025 33 10000 1.54 180 13:26 18.01.2021
3586 Clear 3 1026 33 10000 1.03 0 12:51 18.01.2021
3587 Clear 2 1026 41 10000 1.03 0 12:20 18.01.2021
3588 Clear 1 1027 44 10000 1.03 0 11:53 18.01.2021
3589 Clear 0 1027 48 10000 0.51 0 11:29 18.01.2021
3590 Clear -1 1027 47 10000 2.31 15 10:53 18.01.2021
3591 Clear -2 1027 64 10000 1.03 0 10:35 18.01.2021
3592 Clear -2 1027 55 10000 2.92 20 09:43 18.01.2021
3593 Clear -1 1027 64 10000 1.03 0 09:19 18.01.2021
3594 Clouds -1 1025 53 10000 3.38 21 08:47 18.01.2021
3595 Clouds -1 1025 53 10000 3.76 21 07:55 18.01.2021
3596 Clouds -1 1025 55 10000 3.69 20 06:56 18.01.2021
3597 Clouds 0 1025 54 10000 3.55 19 04:57 18.01.2021
3598 Clouds 0 1025 54 10000 3.55 19 04:30 18.01.2021
3599 Clouds 0 1025 53 10000 3.47 20 03:53 18.01.2021
3600 Clouds 1 1019 54 10000 0.89 45 03:31 18.01.2021
3601 Clouds 0 1020 57 10000 0.89 67 02:59 18.01.2021
3602 Clouds 1 1020 59 10000 0.45 67 02:20 18.01.2021
3603 Clouds 4 1025 72 10000 3.58 19 00:42 18.01.2021
3604 Clouds -1 1013 81 10000 3.4 16 00:20 18.01.2021
3605 Clouds 0 1014 86 10000 3.4 16 23:44 17.01.2021
3606 Clouds -1 1013 57 10000 3.47 10 23:19 17.01.2021
3607 Clouds -1 1024 40 10000 0.89 68 22:26 17.01.2021
3608 Clouds -1 1013 61 10000 3.52 4 21:57 17.01.2021
3609 Clouds -1 1013 70 10000 3.52 4 21:37 17.01.2021
3610 Clouds -1 1030 45 10000 3.59 360 21:19 17.01.2021
3611 Clouds 0 1013 86 10000 3.59 360 20:41 17.01.2021
3612 Clouds 1 1030 40 2275 3.83 356 20:19 17.01.2021
3613 Clouds 2 1012 95 2275 3.83 356 19:41 17.01.2021
3614 Clouds 3 1026 40 1049 3.79 358 18:59 17.01.2021
3615 Clouds 5 1021 41 10000 4.12 310 18:31 17.01.2021
3616 Clouds 6 1021 41 10000 4.12 310 17:56 17.01.2021
3617 Clouds 6 1021 41 10000 4.12 310 17:37 17.01.2021
3618 Clouds 6 1021 41 10000 4.12 310 17:19 17.01.2021
3619 Clouds 7 1021 41 10000 5.14 290 16:42 17.01.2021
3620 Clouds 7 1020 41 10000 5.14 300 16:19 17.01.2021
3621 Clouds 7 1020 38 10000 5.66 290 15:38 17.01.2021
3622 Clouds 8 1020 38 10000 5.66 290 15:20 17.01.2021
3623 Clouds 8 1020 38 10000 5.14 300 14:44 17.01.2021
3624 Clouds 7 1020 44 10000 1.54 0 14:25 17.01.2021
3625 Clouds 6 1021 50 10000 2.06 0 13:44 17.01.2021
3626 Clouds 6 1021 50 10000 1.54 0 13:26 17.01.2021
3627 Clouds 4 1022 57 10000 1.54 0 12:47 17.01.2021
3628 Clouds 4 1022 61 10000 1.03 0 12:28 17.01.2021
3629 Clouds 2 1023 75 10000 1.03 0 11:26 17.01.2021
3630 Clouds 4 1023 69 10000 1.03 0 10:57 17.01.2021
3631 Clouds 4 1023 69 10000 0.51 0 10:39 17.01.2021
3632 Clouds 3 1023 69 10000 0.51 0 10:18 17.01.2021
3633 Snow 1 1022 86 10000 0.51 0 09:18 17.01.2021
3634 Snow 1 1022 86 10000 0.51 0 09:18 17.01.2021
3635 Clouds 2 1021 70 9929 1.34 120 08:41 17.01.2021
3636 Clouds 3 1022 72 10000 0.45 0 04:39 17.01.2021
3637 Clouds 3 1022 72 10000 0.45 206 04:20 17.01.2021
3638 Clouds 4 1023 65 10000 3.01 1 01:38 17.01.2021
3639 Clouds 2 1028 42 10000 2.99 0 00:21 17.01.2021
3640 Clouds 2 1014 81 10000 0.45 10 23:54 16.01.2021
3641 Clouds 2 1014 79 10000 3.07 5 23:26 16.01.2021
3642 Clouds 2 1014 78 10000 3.07 5 22:58 16.01.2021
3643 Clouds 2 1028 41 10000 3.09 6 22:26 16.01.2021
3644 Clouds 2 1014 74 10000 3.09 6 21:50 16.01.2021
3645 Clouds 2 1029 41 1918 3.45 7 21:23 16.01.2021
3646 Clouds 2 1029 42 1933 3.44 7 20:52 16.01.2021
3647 Clouds 3 1029 40 5944 3.72 4 20:28 16.01.2021
3648 Clouds 3 1028 38 5944 3.72 4 19:49 16.01.2021
3649 Clouds 3 1028 34 5944 3.72 4 19:30 16.01.2021
3650 Clouds 2 1014 75 10000 0.89 3 18:47 16.01.2021
3651 Clouds 3 1023 36 10000 2.57 230 18:27 16.01.2021
3652 Clouds 3 1023 36 10000 2.57 230 17:58 16.01.2021
3653 Clouds 6 1023 36 10000 2.57 230 17:39 16.01.2021
3654 Clouds 4 1023 36 10000 2.57 230 17:20 16.01.2021
3655 Clouds 4 1022 36 10000 3.6 230 16:41 16.01.2021
3656 Clouds 5 1022 29 10000 4.12 240 15:58 16.01.2021
3657 Clouds 5 1022 23 10000 3.6 220 15:39 16.01.2021
3658 Clear 5 1023 23 10000 2.57 200 14:33 16.01.2021
3659 Clear 6 1023 25 10000 1.54 230 13:53 16.01.2021
3660 Clear 5 1024 21 10000 0.51 0 13:31 16.01.2021
3661 Clear 3 1024 29 10000 1.03 0 12:48 16.01.2021
3662 Clear 3 1024 33 10000 1.54 120 12:23 16.01.2021
3663 Clear 2 1025 36 10000 0.51 0 11:55 16.01.2021
3664 Clear 1 1024 48 10000 0.51 0 11:26 16.01.2021
3665 Clear 1 1024 48 10000 1.03 0 10:51 16.01.2021
3666 Clear 1 1024 44 10000 1.54 50 10:33 16.01.2021
3667 Clear -2 1024 59 10000 2.06 30 09:50 16.01.2021
3668 Clear -1 1024 55 10000 0.51 0 09:19 16.01.2021
3669 Clear -1 1029 72 10000 4.69 13 08:18 16.01.2021
3670 Clouds -1 1029 71 10000 5.02 13 06:44 16.01.2021
3671 Clouds -1 1029 71 10000 5.06 15 06:44 16.01.2021
3672 Clouds 0 1029 67 10000 5.15 12 04:52 16.01.2021
3673 Clouds -3 1010 86 10000 2.24 3 02:58 16.01.2021
3674 Clouds -3 1009 91 10000 2.24 353 02:25 16.01.2021
3675 Clouds -2 1010 90 10000 2.68 49 00:44 16.01.2021
3676 Clouds -2 1010 91 10000 3.13 91 00:20 16.01.2021
3677 Clouds -3 1010 90 10000 2.68 7 23:28 15.01.2021
3678 Clouds -3 1009 92 10000 2.68 51 22:27 15.01.2021
3679 Clouds -2 1009 94 10000 2.68 11 21:48 15.01.2021
3680 Clouds -2 1009 92 10000 2.24 359 21:30 15.01.2021
3681 Clouds -2 1009 91 10000 2.68 35 20:42 15.01.2021
3682 Clouds -2 1009 93 10000 2.24 14 20:23 15.01.2021
3683 Clouds -1 1009 95 10000 2.68 8 19:43 15.01.2021
3684 Snow -2 1009 95 10000 1.34 11 19:24 15.01.2021
3685 Snow -2 1027 41 10000 4.81 355 18:45 15.01.2021
3686 Clear 2 1020 25 10000 5.14 310 18:20 15.01.2021
3687 Clear 2 1020 25 10000 5.14 310 17:54 15.01.2021
3688 Clear 2 1020 25 10000 5.14 310 17:28 15.01.2021
3689 Clear 3 1020 22 10000 6.69 310 16:59 15.01.2021
3690 Clear 3 1020 23 10000 5.66 310 16:40 15.01.2021
3691 Clear 3 1020 23 10000 5.66 310 16:20 15.01.2021
3692 Clear 3 1019 20 10000 2.06 0 15:37 15.01.2021
3693 Clear 4 1019 20 10000 2.06 0 15:18 15.01.2021
3694 Clear 4 1019 20 10000 2.06 0 15:18 15.01.2021
3695 Clear 4 1019 16 10000 8.23 330 14:37 15.01.2021
3696 Clear 4 1019 16 10000 8.23 330 14:18 15.01.2021
3697 Clear 4 1019 19 10000 7.72 320 13:40 15.01.2021
3698 Clear 4 1019 19 10000 7.72 320 13:19 15.01.2021
3699 Clear 3 1020 25 10000 4.63 310 12:40 15.01.2021
3700 Clear 2 1020 36 10000 2.06 0 12:21 15.01.2021
3701 Clear 3 1020 36 10000 2.06 0 11:42 15.01.2021
3702 Clear 3 1020 36 10000 2.06 0 11:42 15.01.2021
3703 Clear 1 1020 52 10000 1.54 30 10:59 15.01.2021
3704 Clear 0 1020 64 10000 1.54 30 10:41 15.01.2021
3705 Clear 0 1020 64 10000 1.54 30 10:21 15.01.2021
3706 Clear 0 1020 60 10000 1.54 10 09:47 15.01.2021
3707 Clear -1 1020 74 10000 1.54 10 09:27 15.01.2021
3708 Clouds -1 1009 71 10000 3.13 34 08:27 15.01.2021
3709 Clouds -1 1009 85 10000 3.58 49 07:44 15.01.2021
3710 Clouds -1 1009 83 10000 1.79 359 07:22 15.01.2021
3711 Clouds -1 1010 88 10000 2.68 20 06:28 15.01.2021
3712 Clouds 0 1009 80 10000 1.79 20 02:28 15.01.2021
3713 Clouds 0 1009 91 10000 0.89 166 00:37 15.01.2021
3714 Clouds 0 1009 94 10000 3.13 10 23:30 14.01.2021
3715 Clouds 1 1008 95 10000 4.47 359 22:52 14.01.2021
3716 Snow 1 1009 95 5134 1.34 1 22:28 14.01.2021
3717 Clouds 1 1009 95 5134 1.79 4 21:58 14.01.2021
3718 Clouds 1 1009 95 5134 2.68 7 21:39 14.01.2021
3719 Clouds 1 1009 93 10000 0.89 359 21:20 14.01.2021
3720 Clouds 1 1009 94 10000 0.89 1 20:43 14.01.2021
3721 Clouds 0 1009 91 10000 0.89 1 19:57 14.01.2021
3722 Clouds -1 1009 89 10000 0.89 10 19:36 14.01.2021
3723 Clear -1 1010 74 10000 0.45 356 18:59 14.01.2021
3724 Clear 1 1019 52 10000 2.06 220 18:39 14.01.2021
3725 Clear 2 1019 52 10000 2.06 220 17:57 14.01.2021
3726 Clear 3 1019 52 10000 2.06 220 17:30 14.01.2021
3727 Clear 6 1019 49 10000 2.06 230 16:54 14.01.2021
3728 Clear 7 1019 42 10000 1.54 220 16:31 14.01.2021
3729 Clear 5 1020 42 10000 2.06 220 15:54 14.01.2021
3730 Clear 6 1020 42 10000 1.54 200 15:30 14.01.2021
3731 Clear 5 1020 39 10000 1.03 0 14:45 14.01.2021
3732 Clear 5 1021 45 10000 1.03 0 14:24 14.01.2021
3733 Clear 5 1022 52 10000 1.03 0 13:55 14.01.2021
3734 Clear 4 1022 52 10000 1.03 0 13:24 14.01.2021
3735 Clear 3 1023 60 10000 0.51 0 12:56 14.01.2021
3736 Clear 3 1024 60 10000 0.51 0 12:21 14.01.2021
3737 Clear 2 1024 69 10000 0.51 0 11:55 14.01.2021
3738 Clear 1 1024 80 10000 1.03 0 11:28 14.01.2021
3739 Clear 2 1025 80 10000 1.54 60 10:58 14.01.2021
3740 Clear 1 1025 80 10000 1.54 60 10:40 14.01.2021
3741 Clear 1 1025 80 10000 1.54 60 10:40 14.01.2021
3742 Clear 1 1025 80 10000 1.54 60 10:18 14.01.2021
3743 Clear -1 1025 93 10000 1.03 10 09:42 14.01.2021
3744 Clear -1 1025 93 10000 3.88 15 09:20 14.01.2021
3745 Clouds -1 1023 60 10000 3.88 15 08:30 14.01.2021
3746 Clear -1 1023 62 10000 3.91 15 07:57 14.01.2021
3747 Clear 0 1023 57 10000 3.91 15 07:30 14.01.2021
3748 Clouds 0 1023 52 10000 4 16 06:33 14.01.2021
3749 Clear 1 1023 48 10000 4.23 17 04:56 14.01.2021
3750 Clear 1 1025 56 10000 4.47 17 23:59 13.01.2021
3751 Clear 1 1025 55 10000 4.44 15 23:27 13.01.2021
3752 Clear 2 1025 57 10000 4.44 15 22:48 13.01.2021
3753 Clear 0 1031 51 10000 4.4 17 22:20 13.01.2021
3754 Clear 0 1031 51 10000 4.4 17 22:20 13.01.2021
3755 Clear -1 1031 51 10000 4.4 17 21:43 13.01.2021
3756 Clear 2 1024 57 10000 4.2 16 21:20 13.01.2021
3757 Clear 0 1031 50 10000 4.2 16 20:48 13.01.2021
3758 Clear 0 1030 49 10000 3.92 17 20:22 13.01.2021
3759 Clear 0 1030 47 10000 3.92 17 19:47 13.01.2021
3760 Clear 1 1030 46 10000 3.75 18 19:23 13.01.2021
3761 Clear 1 1030 42 10000 3.89 17 18:45 13.01.2021
3762 Clouds 2 1030 41 10000 3.79 15 18:23 13.01.2021
3763 Clouds 3 1029 37 10000 3.79 15 17:41 13.01.2021
3764 Clouds 4 1025 73 10000 3.45 10 17:18 13.01.2021
3765 Clouds 6 1029 28 10000 3.45 10 16:41 13.01.2021
3766 Clouds 4 1029 26 10000 3.16 9 16:21 13.01.2021
3767 Clouds 5 1015 59 10000 0.45 336 15:40 13.01.2021
3768 Clouds 6 1015 51 10000 2.99 4 14:59 13.01.2021
3769 Clouds 6 1015 53 10000 2.83 3 14:27 13.01.2021
3770 Clouds 5 1023 42 10000 2.83 3 13:38 13.01.2021
3771 Clouds 4 1024 51 10000 2.72 2 13:19 13.01.2021
3772 Clouds 3 1025 59 10000 3.16 5 12:44 13.01.2021
3773 Clouds 3 1025 61 10000 3.31 7 12:22 13.01.2021
3774 Clouds 4 1025 52 10000 0.45 0 11:49 13.01.2021
3775 Clouds 2 1025 55 10000 3.31 7 11:31 13.01.2021
3776 Clouds 1 1026 61 10000 0.45 65 10:48 13.01.2021
3777 Clouds 1 1025 71 10000 0.45 76 10:26 13.01.2021
3778 Clouds 0 1025 74 10000 3.66 8 09:40 13.01.2021
3779 Clouds 0 1025 77 10000 3.85 8 08:58 13.01.2021
3780 Clouds 0 1025 77 10000 3.85 8 08:58 13.01.2021
3781 Clouds -1 1024 79 10000 3.85 8 08:34 13.01.2021
3782 Clouds 0 1024 76 10000 4.22 6 07:57 13.01.2021
3783 Clouds 0 1023 72 10000 4.45 6 07:27 13.01.2021
3784 Clouds -1 1013 56 10000 0.45 6 05:27 13.01.2021
3785 Clouds -1 1014 53 10000 4.69 7 04:18 13.01.2021
3786 Clouds -1 1014 81 10000 4.69 7 03:41 13.01.2021
3787 Clouds 0 1030 50 10000 4.78 8 03:19 13.01.2021
3788 Clouds -1 1014 88 10000 0.45 357 00:44 13.01.2021
3789 Clouds -1 1028 72 10000 4.57 7 23:37 12.01.2021
3790 Clouds -2 1013 95 10000 4.57 9 22:47 12.01.2021
3791 Clouds -2 1013 90 10000 0.89 0 22:26 12.01.2021
3792 Clouds -1 1030 40 10000 4.56 9 21:58 12.01.2021
3793 Clouds -2 1014 80 10000 4.56 9 21:40 12.01.2021
3794 Clouds -2 1013 74 10000 4.42 11 21:20 12.01.2021
3795 Clouds -3 1014 85 10000 4.45 11 20:44 12.01.2021
3796 Clouds -3 1013 88 10000 4.38 11 20:25 12.01.2021
3797 Clouds -3 1013 86 10000 4.38 11 19:39 12.01.2021
3798 Clouds -2 1012 79 10000 4.26 11 18:54 12.01.2021
3799 Clouds -2 1012 74 10000 4.3 12 18:25 12.01.2021
3800 Clouds 0 1029 32 10000 4.31 12 17:57 12.01.2021
3801 Clouds -1 1012 79 10000 4.31 12 17:33 12.01.2021
3802 Clouds 1 1021 69 10000 3.82 8 16:44 12.01.2021
3803 Clouds 2 1021 65 10000 3.27 0 16:26 12.01.2021
3804 Clouds 2 1021 64 10000 3.27 0 15:48 12.01.2021
3805 Clouds 2 1021 63 10000 2.85 355 15:27 12.01.2021
3806 Clouds 3 1021 58 10000 2.85 355 14:49 12.01.2021
3807 Clouds 3 1021 57 10000 2.69 354 14:26 12.01.2021
3808 Clouds 2 1022 65 10000 2.68 354 13:55 12.01.2021
3809 Clouds 2 1022 64 10000 2.68 354 13:36 12.01.2021
3810 Clear 2 1027 47 10000 2.92 357 12:33 12.01.2021
3811 Clear 1 1012 49 10000 2.95 2 11:45 12.01.2021
3812 Clear -1 1012 49 10000 2.97 3 11:26 12.01.2021
3813 Clear -1 1012 58 10000 2.97 3 10:43 12.01.2021
3814 Clear -2 1023 76 10000 3.44 10 10:19 12.01.2021
3815 Clear -2 1022 79 10000 3.44 10 09:52 12.01.2021
3816 Clear -3 1022 78 10000 3.99 12 09:22 12.01.2021
3817 Clear -4 1022 77 10000 0.45 197 08:27 12.01.2021
3818 Clear -3 1025 60 10000 1.34 50 07:44 12.01.2021
3819 Clouds -3 1025 59 10000 1.34 57 07:26 12.01.2021
3820 Clouds -4 1025 58 10000 1.79 45 05:40 12.01.2021
3821 Clear -3 1021 64 10000 3.98 16 03:46 12.01.2021
3822 Clear -6 1009 48 10000 3.94 16 03:19 12.01.2021
3823 Clear -4 1021 70 10000 4.07 15 01:43 12.01.2021
3824 Clear -4 1021 71 10000 4.16 15 00:32 12.01.2021
3825 Clear -4 1020 65 10000 4.3 16 23:41 11.01.2021
3826 Clear -5 1028 43 10000 4.34 17 23:19 11.01.2021
3827 Clear -4 1028 43 10000 4.34 17 22:45 11.01.2021
3828 Clear -4 1024 40 10000 1.34 12 22:27 11.01.2021
3829 Clear -4 1023 87 10000 4.54 16 21:45 11.01.2021
3830 Clear -3 1027 42 10000 4.58 15 21:25 11.01.2021
3831 Clear -3 1027 43 10000 4.56 16 20:57 11.01.2021
3832 Clear -4 1023 48 10000 2.24 47 20:36 11.01.2021
3833 Clear -4 1023 48 10000 2.24 47 20:36 11.01.2021
3834 Clear -4 1023 51 10000 1.34 79 20:18 11.01.2021
3835 Clear -3 1022 95 10000 4.6 15 19:41 11.01.2021
3836 Clear -2 1022 95 10000 4.57 15 19:21 11.01.2021
3837 Clear -2 1026 42 10000 4.57 15 18:42 11.01.2021
3838 Clear -1 1018 69 10000 2.57 240 18:23 11.01.2021
3839 Clear 0 1018 69 10000 2.57 240 17:42 11.01.2021
3840 Clear -2 1018 69 10000 2.57 240 17:24 11.01.2021
3841 Clear -1 1017 65 10000 2.57 220 16:47 11.01.2021
3842 Clear -1 1017 60 10000 2.06 220 16:28 11.01.2021
3843 Clear -1 1017 60 10000 1.54 0 15:53 11.01.2021
3844 Clear -1 1017 60 10000 2.06 180 15:33 11.01.2021
3845 Clear -1 1017 60 10000 2.06 190 14:45 11.01.2021
3846 Clouds -1 1017 60 10000 1.03 0 14:26 11.01.2021
3847 Clouds -1 1017 60 10000 1.03 0 13:45 11.01.2021
3848 Clouds -2 1018 60 10000 1.03 0 13:22 11.01.2021
3849 Clouds -3 1018 64 10000 0.51 0 12:42 11.01.2021
3850 Clouds -3 1018 69 10000 0.51 0 12:23 11.01.2021
3851 Clouds -1 1019 64 10000 3.7 6 11:45 11.01.2021
3852 Clouds -5 1018 80 10000 1.03 0 10:55 11.01.2021
3853 Clear -5 1018 86 10000 1.54 60 10:35 11.01.2021
3854 Clear -5 1017 86 10000 1.54 60 09:48 11.01.2021
3855 Clear -4 1017 86 10000 1.54 340 09:29 11.01.2021
3856 Clear -5 1014 82 10000 4.37 15 08:52 11.01.2021
3857 Clear -5 1014 80 10000 4.37 15 08:33 11.01.2021
3858 Clear -5 1018 76 10000 4.56 15 07:41 11.01.2021
3859 Clear -6 1014 81 10000 4.53 13 07:21 11.01.2021
3860 Clear -5 1017 79 10000 0.45 64 06:49 11.01.2021
3861 Clear -11 999 92 10000 3.77 16 02:23 11.01.2021
3862 Clouds -11 999 91 10000 3.57 16 00:40 11.01.2021
3863 Clouds -10 999 93 10000 3.66 15 23:47 10.01.2021
3864 Clouds 1 1008 93 10000 0.45 45 22:51 10.01.2021
3865 Clouds -4 999 92 10000 3.13 14 22:29 10.01.2021
3866 Clouds -4 999 93 10000 3.13 14 21:58 10.01.2021
3867 Clouds 1 1008 93 10000 3.13 14 21:39 10.01.2021
3868 Clouds -3 998 94 10000 2.64 9 21:18 10.01.2021
3869 Clouds -3 998 93 10000 2.64 9 20:44 10.01.2021
3870 Snow -3 1014 86 6176 2.44 10 20:26 10.01.2021
3871 Snow -3 998 93 6176 2.44 10 19:38 10.01.2021
3872 Snow -3 998 94 1043 2.47 8 19:20 10.01.2021
3873 Snow -3 998 94 1043 2.47 8 18:43 10.01.2021
3874 Snow -2 1011 93 10000 1.54 230 18:20 10.01.2021
3875 Snow -1 1011 93 10000 1.54 230 17:23 10.01.2021
3876 Snow -1 1011 93 10000 1.54 230 16:46 10.01.2021
3877 Snow -1 1010 93 10000 1.54 230 16:28 10.01.2021
3878 Snow -1 1010 93 10000 1.54 210 15:39 10.01.2021
3879 Snow -1 1010 93 10000 1.54 210 15:39 10.01.2021
3880 Snow -1 1010 93 10000 1.54 220 15:20 10.01.2021
3881 Snow -1 1010 93 10000 1.54 220 14:40 10.01.2021
3882 Snow -1 1010 93 10000 1.54 220 14:22 10.01.2021
3883 Fog -1 1011 93 10000 1.03 0 13:39 10.01.2021
3884 Fog -1 1011 93 10000 1.03 0 13:20 10.01.2021
3885 Clouds -1 1011 93 8000 1.54 320 12:50 10.01.2021
3886 Clouds -1 1011 93 7000 1.03 0 12:32 10.01.2021
3887 Clouds -1 1011 86 10000 1.03 0 11:54 10.01.2021
3888 Snow -1 1011 86 10000 1.54 0 11:20 10.01.2021
3889 Snow -1 1010 93 10000 1.54 20 10:45 10.01.2021
3890 Snow -2 1010 93 10000 3.09 40 10:22 10.01.2021
3891 Snow -2 1009 93 7000 3.6 40 09:36 10.01.2021
3892 Snow -2 1007 96 181 2.82 30 08:22 10.01.2021
3893 Snow -2 1007 96 181 2.82 30 07:33 10.01.2021
3894 Snow -4 993 89 289 3.13 32 06:20 10.01.2021
3895 Snow -4 993 88 289 3.13 32 05:38 10.01.2021
3896 Clouds -3 993 89 10000 3.67 32 03:55 10.01.2021
3897 Snow -1 1006 95 169 2.8 44 01:30 10.01.2021
3898 Clouds -1 1013 65 10000 3.65 39 23:55 09.01.2021
3899 Clouds -1 1009 79 10000 0.45 165 23:36 09.01.2021
3900 Snow 0 1006 96 2508 3.91 35 22:49 09.01.2021
3901 Snow -1 1006 96 344 3.34 38 22:19 09.01.2021
3902 Snow -2 1006 96 344 3.34 38 21:57 09.01.2021
3903 Snow -2 1006 96 344 3.34 38 21:39 09.01.2021
3904 Snow -3 993 88 331 3.31 37 21:19 09.01.2021
3905 Snow -3 993 88 331 3.31 37 20:44 09.01.2021
3906 Snow -2 993 88 245 3.24 33 19:45 09.01.2021
3907 Snow -2 1013 52 121 2.36 25 19:24 09.01.2021
3908 Snow -1 1005 93 121 2.36 25 18:59 09.01.2021
3909 Snow 0 1004 75 10000 5.14 20 18:35 09.01.2021
3910 Snow 0 1004 75 10000 5.14 20 17:50 09.01.2021
3911 Rain 0 1004 75 10000 5.14 20 17:32 09.01.2021
3912 Rain 1 1004 75 10000 4.63 360 16:36 09.01.2021
3913 Snow 1 1004 80 10000 4.12 40 15:53 09.01.2021
3914 Snow 1 1004 80 10000 4.12 40 15:53 09.01.2021
3915 Clouds 1 1004 87 10000 3.09 20 15:34 09.01.2021
3916 Clouds 0 1004 93 10000 2.57 30 14:42 09.01.2021
3917 Snow 0 1005 93 10000 2.57 0 14:21 09.01.2021
3918 Fog -1 1005 80 10000 4.12 50 13:50 09.01.2021
3919 Snow -1 1005 100 10000 1.54 0 13:31 09.01.2021
3920 Clouds -1 1006 100 8000 1.54 0 12:59 09.01.2021
3921 Snow -1 1006 100 6000 1.03 0 12:27 09.01.2021
3922 Snow -1 1006 93 5000 1.54 0 11:57 09.01.2021
3923 Snow -1 1007 93 500 1.54 0 11:36 09.01.2021
3924 Snow -2 1007 93 3600 2.06 350 10:56 09.01.2021
3925 Snow -2 1007 100 7000 1.54 250 10:37 09.01.2021
3926 Snow -2 1007 100 10000 1.03 0 09:59 09.01.2021
3927 Snow -2 1006 100 10000 1.54 10 09:40 09.01.2021
3928 Snow -1 1006 100 10000 1.54 10 09:18 09.01.2021
3929 Snow -3 1005 93 795 1.43 76 07:43 09.01.2021
3930 Snow -2 1005 92 506 1.17 86 06:40 09.01.2021
3931 Clouds -2 1006 90 10000 0.93 85 04:54 09.01.2021
3932 Clouds -2 1006 69 10000 0.45 231 03:25 09.01.2021
3933 Snow -4 992 76 10000 1.25 120 02:38 09.01.2021
3934 Clouds -1 1009 75 10000 0.45 176 02:19 09.01.2021
3935 Clouds -1 1008 49 5736 1.04 82 00:37 09.01.2021
3936 Clouds -1 1008 52 10000 1.42 63 00:19 09.01.2021
3937 Clouds -2 1014 43 10000 1.05 70 23:26 08.01.2021
3938 Clouds -1 1014 42 10000 1.1 111 22:25 08.01.2021
3939 Clouds -1 1014 42 10000 1.1 111 21:46 08.01.2021
3940 Clouds -1 1014 42 10000 0.87 80 20:57 08.01.2021
3941 Clouds -1 1014 39 10000 1.37 51 20:26 08.01.2021
3942 Clouds 0 1015 39 10000 1.37 51 19:56 08.01.2021
3943 Clouds 0 1015 38 10000 1.33 58 19:22 08.01.2021
3944 Clouds 0 1015 38 10000 1.33 58 19:22 08.01.2021
3945 Clear 0 1008 32 10000 1.54 230 18:36 08.01.2021
3946 Clear 0 1008 32 10000 1.54 230 18:18 08.01.2021
3947 Clear 1 1008 32 10000 1.54 230 17:45 08.01.2021
3948 Clear -1 1008 32 10000 1.54 230 17:22 08.01.2021
3949 Clear 0 1009 32 10000 2.06 230 16:34 08.01.2021
3950 Clear 0 1009 28 10000 1.54 220 15:44 08.01.2021
3951 Clear 1 1009 35 10000 1.03 0 14:56 08.01.2021
3952 Clear 0 1009 32 10000 1.54 200 14:35 08.01.2021
3953 Clear 0 1010 32 10000 1.03 0 13:44 08.01.2021
3954 Clear -1 1010 47 10000 1.03 0 13:18 08.01.2021
3955 Clear -2 1011 47 10000 1.03 0 12:45 08.01.2021
3956 Clear -2 1012 51 10000 0.51 0 12:19 08.01.2021
3957 Clear -4 1013 59 10000 1.03 0 11:43 08.01.2021
3958 Clear -4 1013 59 10000 0.51 0 11:23 08.01.2021
3959 Clear -5 1013 68 10000 1.03 0 10:49 08.01.2021
3960 Clear -5 1013 79 10000 0.51 0 10:26 08.01.2021
3961 Clear -6 1013 73 10000 1.03 0 09:44 08.01.2021
3962 Clear -6 1012 79 10000 3.09 28 09:25 08.01.2021
3963 Clouds -6 1010 46 10000 0.45 157 08:23 08.01.2021
3964 Clouds -6 1010 48 10000 3.15 26 07:25 08.01.2021
3965 Clouds -7 1010 53 10000 2.92 27 04:47 08.01.2021
3966 Clouds -5 1018 45 10000 2.17 23 23:46 07.01.2021
3967 Clouds -5 1018 45 10000 2.17 23 23:46 07.01.2021
3968 Clouds -5 1018 44 10000 2.01 19 23:28 07.01.2021
3969 Clouds -4 1018 44 10000 2.01 19 22:44 07.01.2021
3970 Clouds -4 1015 62 10000 1.34 58 22:21 07.01.2021
3971 Clouds -3 1015 63 10000 0.45 58 21:41 07.01.2021
3972 Clouds -3 1018 43 10000 1.76 15 21:22 07.01.2021
3973 Clouds -3 1015 66 10000 0.45 67 20:45 07.01.2021
3974 Clouds -3 1017 43 10000 1.83 13 20:26 07.01.2021
3975 Clouds -3 1017 41 10000 1.83 13 19:42 07.01.2021
3976 Clouds -2 1009 57 10000 1.59 16 18:55 07.01.2021
3977 Clear -1 1010 59 10000 1.03 60 18:30 07.01.2021
3978 Clear -1 1010 59 10000 1.03 60 17:42 07.01.2021
3979 Clear -2 1010 59 10000 1.03 60 17:22 07.01.2021
3980 Clear -1 1010 59 10000 0.73 287 16:52 07.01.2021
3981 Clear -2 1010 59 10000 1.03 0 16:24 07.01.2021
3982 Clear -2 1010 59 10000 0.51 0 15:37 07.01.2021
3983 Clear -2 1010 59 10000 0.51 0 14:42 07.01.2021
3984 Clear -2 1010 59 10000 0.51 0 14:42 07.01.2021
3985 Clear -2 1010 59 10000 0.51 0 14:42 07.01.2021
3986 Clear -2 1010 59 10000 0.51 0 14:42 07.01.2021
3987 Clear -2 1011 59 10000 0.51 0 14:23 07.01.2021
3988 Clear -3 1012 63 10000 0.51 0 13:36 07.01.2021
3989 Clear -3 1012 63 10000 0.51 0 13:18 07.01.2021
3990 Clear -3 1013 73 10000 1.5 60 12:33 07.01.2021
3991 Clear -4 1013 73 10000 1.5 60 11:52 07.01.2021
3992 Clear -4 1014 73 10000 1.5 40 11:30 07.01.2021
3993 Clear -5 1014 79 10000 1 0 10:48 07.01.2021
3994 Clear -4 1014 85 10000 1 0 10:19 07.01.2021
3995 Clear -6 1013 79 10000 0.5 0 09:44 07.01.2021
3996 Clear -7 1013 79 10000 0.5 0 09:18 07.01.2021
3997 Clouds -7 1011 68 10000 1.09 43 08:25 07.01.2021
3998 Clouds -7 1011 69 10000 1.09 43 07:44 07.01.2021
3999 Clouds -7 1011 69 10000 0.99 44 06:52 07.01.2021
4000 Clouds -7 1011 68 10000 1.27 39 03:34 07.01.2021
4001 Clouds -5 1012 66 10000 0.89 23 00:25 07.01.2021
4002 Clouds -5 1012 64 10000 0.89 23 23:36 06.01.2021
4003 Clouds -5 1018 42 10000 0.35 43 22:37 06.01.2021
4004 Clear -4 1018 42 10000 0.31 56 21:42 06.01.2021
4005 Clear -4 1018 42 10000 0.55 42 21:22 06.01.2021
4006 Clear -4 1016 70 10000 0.55 42 20:50 06.01.2021
4007 Clear -3 1018 41 10000 0.77 33 20:22 06.01.2021
4008 Clear -3 1018 41 10000 0.77 32 19:49 06.01.2021
4009 Clear -3 1017 41 10000 0.93 14 19:29 06.01.2021
4010 Clear -2 1017 41 10000 0.93 14 18:50 06.01.2021
4011 Clear -1 1017 40 10000 1.26 22 18:32 06.01.2021
4012 Clear -2 1016 37 10000 0.88 357 17:47 06.01.2021
4013 Clear 0 1016 35 10000 0.73 266 17:28 06.01.2021
4014 Clear 0 1016 34 10000 0.73 266 16:59 06.01.2021
4015 Clear -1 1016 31 10000 0.73 266 16:36 06.01.2021
4016 Clear -1 996 75 10000 1.17 245 16:18 06.01.2021
4017 Clear 0 1009 38 10000 0.89 300 15:43 06.01.2021
4018 Clear 0 1009 37 10000 0.45 221 15:23 06.01.2021
4019 Clear 0 1009 42 10000 1.4 236 14:32 06.01.2021
4020 Clear -1 1009 44 10000 1.34 28 13:55 06.01.2021
4021 Clear -2 1009 46 10000 1.43 221 13:27 06.01.2021
4022 Clear -1 995 73 10000 1.43 221 12:58 06.01.2021
4023 Clear -1 1015 46 10000 1.02 233 12:30 06.01.2021
4024 Clear -3 1016 52 10000 0.84 223 11:44 06.01.2021
4025 Clear -4 1010 60 10000 0.33 229 11:21 06.01.2021
4026 Clear -5 996 74 10000 0.33 229 10:39 06.01.2021
4027 Clear -7 1011 72 10000 1.04 30 09:52 06.01.2021
4028 Clear -7 1011 74 10000 1.78 26 09:27 06.01.2021
4029 Clear -8 1010 73 10000 1.78 26 08:51 06.01.2021
4030 Clear -8 1010 73 10000 2.05 23 08:18 06.01.2021
4031 Clear -8 1010 73 10000 2.05 23 07:49 06.01.2021
4032 Clear -7 1009 72 10000 1.67 23 05:59 06.01.2021
4033 Clear -7 1009 68 10000 1.31 20 04:43 06.01.2021
4034 Clear -6 1009 68 10000 0.49 24 02:55 06.01.2021
4035 Clear -6 1009 67 10000 0.49 24 02:36 06.01.2021
4036 Clear -6 1009 68 10000 0.52 28 02:18 06.01.2021
4037 Clouds -6 1009 65 10000 1.31 28 23:44 05.01.2021
4038 Clouds -6 1013 69 10000 1.79 39 22:53 05.01.2021
4039 Clouds -6 1012 69 10000 0.89 39 22:34 05.01.2021
4040 Clouds -5 1012 68 10000 2.24 50 21:59 05.01.2021
4041 Clouds -4 1014 43 10000 2.18 18 21:18 05.01.2021
4042 Clouds -2 1014 41 10000 2.18 18 20:30 05.01.2021
4043 Clouds -2 1013 42 10000 2.17 18 19:45 05.01.2021
4044 Clouds -1 1013 43 10000 2.02 18 19:24 05.01.2021
4045 Clouds -1 1010 75 10000 2.02 18 18:47 05.01.2021
4046 Clouds -3 1011 66 10000 1.5 354 18:28 05.01.2021
4047 Clouds -1 1013 43 10000 1.51 354 17:54 05.01.2021
4048 Clouds -3 991 83 10000 1.51 354 17:31 05.01.2021
4049 Clouds -2 991 83 10000 1.15 324 16:54 05.01.2021
4050 Clouds -2 991 83 10000 1.15 324 16:54 05.01.2021
4051 Clouds -2 991 83 10000 1.15 324 16:54 05.01.2021
4052 Clouds -2 1011 57 10000 1.15 309 16:23 05.01.2021
4053 Clouds -2 990 86 10000 1.15 309 15:58 05.01.2021
4054 Clouds -2 1010 58 10000 1.15 309 15:34 05.01.2021
4055 Snow -1 1005 62 8850 0.89 0 14:47 05.01.2021
4056 Clouds -3 1005 65 10000 0.45 240 13:55 05.01.2021
4057 Clouds -3 1005 65 10000 1.39 274 13:36 05.01.2021
4058 Clouds -3 1006 59 10000 0.45 225 12:52 05.01.2021
4059 Clouds -4 1006 62 10000 1.37 249 12:29 05.01.2021
4060 Clouds -4 1006 64 10000 1.37 249 11:53 05.01.2021
4061 -273 0 0 0 0 0 11:28 05.01.2021
4062 -273 0 0 0 0 0 11:27 05.01.2021
4063 Clouds -4 1007 68 10000 0.45 244 11:26 05.01.2021
4064 Clouds -5 1007 70 10000 0.76 267 10:44 05.01.2021
4065 Clouds -4 1006 69 10000 0.45 259 09:59 05.01.2021
4066 Clouds -4 1006 71 10000 0.58 344 09:40 05.01.2021
4067 Clouds -5 1011 78 10000 1.18 17 08:45 05.01.2021
4068 Clouds -6 1011 78 10000 1.46 24 08:18 05.01.2021
4069 Clouds -5 1011 59 10000 2.28 22 05:29 05.01.2021
4070 Clouds -4 1009 79 10000 0.89 57 02:56 05.01.2021
4071 Clouds -3 1009 87 10000 2.21 35 00:23 05.01.2021
4072 Clouds -3 1009 86 10000 2.21 35 23:40 04.01.2021
4073 Clouds -6 1010 86 10000 1.94 33 23:21 04.01.2021
4074 Clouds -3 1009 85 10000 1.94 33 22:45 04.01.2021
4075 Clouds -3 1009 75 10000 0.89 7 21:57 04.01.2021
4076 Clouds -3 1009 75 10000 0.89 2 21:39 04.01.2021
4077 Clouds -1 1010 40 8922 1.85 35 20:58 04.01.2021
4078 Clouds -3 1010 80 8922 1.85 35 20:34 04.01.2021
4079 Snow -1 1009 35 4275 1.67 35 19:59 04.01.2021
4080 Snow 1 1009 32 4275 1.67 35 19:38 04.01.2021
4081 Clouds 1 1009 31 2471 1.39 23 19:18 04.01.2021
4082 Clouds 2 1009 30 3084 1.76 31 18:40 04.01.2021
4083 Clouds 3 1004 47 10000 4.6 200 17:47 04.01.2021
4084 Clouds 0 1004 47 10000 4.6 200 17:28 04.01.2021
4085 Clouds 2 1004 44 10000 4.6 200 16:48 04.01.2021
4086 Clouds -1 1004 47 10000 4.1 190 16:28 04.01.2021
4087 Clouds -1 1004 41 10000 5.1 200 15:52 04.01.2021
4088 Clouds -1 1004 41 10000 4.6 190 15:34 04.01.2021
4089 Snow -2 1004 41 10000 3.1 180 14:52 04.01.2021
4090 Clouds 0 1005 43 10000 1 0 13:55 04.01.2021
4091 Clouds 0 1006 43 10000 1.5 130 13:35 04.01.2021
4092 Clouds -1 1006 85 10000 1 0 12:50 04.01.2021
4093 Clouds -3 1007 58 10000 1 0 12:25 04.01.2021
4094 Clouds -4 1008 63 10000 0.5 0 11:32 04.01.2021
4095 Clouds -5 1008 68 10000 1 0 10:56 04.01.2021
4096 Clouds -6 1008 73 10000 0.5 0 10:37 04.01.2021
4097 Clouds -6 1008 73 10000 0.5 0 10:18 04.01.2021
4098 Clear -7 1008 73 10000 2.1 320 09:23 04.01.2021
4099 Clouds -6 1006 68 10000 1.23 61 08:48 04.01.2021
4100 Clouds -7 1010 76 10000 1.51 55 08:18 04.01.2021
4101 Clouds -7 1010 75 10000 1.51 55 07:44 04.01.2021
4102 Clouds -6 1010 73 10000 1.61 46 05:34 04.01.2021
4103 Clouds -6 1011 46 10000 1.52 39 04:31 04.01.2021
4104 Clear -6 1011 66 10000 1.06 26 00:48 04.01.2021
4105 Clear -5 1010 64 10000 0.89 55 23:49 03.01.2021
4106 Clear -5 1012 43 10000 1.09 34 23:24 03.01.2021
4107 Clear -4 1010 62 10000 1.79 57 22:56 03.01.2021
4108 Clear -4 1010 62 10000 1.34 52 22:33 03.01.2021
4109 Clear -4 1010 60 10000 1.79 45 21:56 03.01.2021
4110 Clear -4 1010 60 10000 1.34 39 21:29 03.01.2021
4111 Clear -3 1013 41 10000 1.4 22 20:50 03.01.2021
4112 Clear -3 1013 41 10000 1.4 22 20:32 03.01.2021
4113 Clear -2 1012 37 10000 1.9 17 19:57 03.01.2021
4114 Clear -2 1008 59 10000 1.9 17 19:35 03.01.2021
4115 Clear -2 1012 33 10000 2.32 22 18:57 03.01.2021
4116 Clear 2 1006 35 10000 4.6 250 18:38 03.01.2021
4117 Clear 2 1006 35 10000 4.6 250 18:19 03.01.2021
4118 Clear 2 1006 35 10000 4.6 250 17:48 03.01.2021
4119 Clear 2 1006 35 10000 4.6 250 17:23 03.01.2021
4120 Clear 4 1005 22 10000 4.6 270 16:43 03.01.2021
4121 Clear 1 1005 24 10000 4.6 210 16:20 03.01.2021
4122 Clear 2 1005 19 10000 2.6 200 15:46 03.01.2021
4123 Clear 2 1005 19 10000 2.6 200 15:27 03.01.2021
4124 Clear 3 1005 19 10000 2.1 0 14:52 03.01.2021
4125 Clear 2 1006 22 10000 1.5 0 14:27 03.01.2021
4126 Clear 1 1006 21 10000 1.5 70 13:41 03.01.2021
4127 Clear 1 1006 21 10000 1.5 70 13:22 03.01.2021
4128 Clear 0 1007 27 10000 1 0 12:24 03.01.2021
4129 Clear -1 1008 37 10000 1.5 70 11:42 03.01.2021
4130 Clear -4 1008 37 10000 1.5 70 11:24 03.01.2021
4131 Clear -4 1008 86 10000 2.1 360 10:34 03.01.2021
4132 Clear -4 1007 39 10000 3.1 360 09:55 03.01.2021
4133 Clear -5 1007 39 10000 3.1 40 09:33 03.01.2021
4134 Clouds -5 992 80 10000 4.01 7 08:57 03.01.2021
4135 Clouds -7 992 82 10000 0.45 3 07:26 03.01.2021
4136 Clouds -7 992 87 10000 0.45 7 05:42 03.01.2021
4137 Clouds -8 992 89 10000 4.6 5 02:27 03.01.2021
4138 Clouds -13 992 91 10000 4.7 6 00:56 03.01.2021
4139 Clouds -8 992 90 10000 4.66 6 23:53 02.01.2021
4140 Clouds -8 992 90 10000 0.45 4 23:20 02.01.2021
4141 Clouds -8 992 91 10000 0.45 4 22:49 02.01.2021
4142 Clouds -8 992 91 10000 0.45 4 22:49 02.01.2021
4143 Clouds -8 992 91 10000 0.45 4 22:49 02.01.2021
4144 Clouds -7 992 91 10000 4.65 7 22:31 02.01.2021
4145 Clouds -7 991 87 10000 0.45 359 21:49 02.01.2021
4146 Clouds -7 992 84 10000 4.61 7 21:29 02.01.2021
4147 Clouds -6 991 78 10000 0.89 6 20:46 02.01.2021
4148 Clouds -6 991 82 10000 0.89 0 20:26 02.01.2021
4149 Clouds -6 991 77 10000 4.42 5 19:48 02.01.2021
4150 Clouds -11 991 74 10000 0.45 1 19:20 02.01.2021
4151 Clouds -11 990 72 10000 1.34 8 18:51 02.01.2021
4152 Clear -3 1004 15 10000 1.5 0 18:32 02.01.2021
4153 Clear -3 1004 15 10000 1.5 0 17:46 02.01.2021
4154 Clear -3 1004 15 10000 1.5 0 17:28 02.01.2021
4155 Clear -2 1004 17 10000 2.1 0 16:46 02.01.2021
4156 Clear -1 1004 17 10000 2.1 0 16:21 02.01.2021
4157 Clear -1 1003 17 10000 3.6 0 15:47 02.01.2021
4158 Clear 0 1003 18 10000 4.6 310 15:27 02.01.2021
4159 Clear 0 1003 18 10000 4.6 310 14:47 02.01.2021
4160 Clear 0 1004 21 10000 2.1 10 14:23 02.01.2021
4161 Clear -1 1004 40 10000 1.5 0 13:40 02.01.2021
4162 Clear -2 1005 84 10000 1 0 12:54 02.01.2021
4163 Clear -2 1005 74 10000 1 0 12:32 02.01.2021
4164 Clear -2 1005 68 10000 1.5 0 11:59 02.01.2021
4165 Clear -3 1005 73 10000 1.5 0 11:25 02.01.2021
4166 Clear -4 1005 79 10000 1.5 10 10:58 02.01.2021
4167 Clear -4 1005 85 10000 1 0 10:33 02.01.2021
4168 Clear -4 1005 85 10000 1 0 09:56 02.01.2021
4169 Clear -4 1005 85 10000 1 0 09:29 02.01.2021
4170 Clouds -4 989 89 10000 3.75 11 08:53 02.01.2021
4171 Clouds -5 989 88 10000 3.75 11 08:34 02.01.2021
4172 Clouds -5 988 91 10000 3.59 13 07:53 02.01.2021
4173 Clouds -5 988 89 10000 3.65 15 07:22 02.01.2021
4174 Clouds -5 988 89 10000 0.45 359 06:56 02.01.2021
4175 Clouds -4 989 88 10000 3.5 16 05:54 02.01.2021
4176 Clouds -2 1009 52 10000 3.18 22 00:59 02.01.2021
4177 Snow -2 1009 52 10000 3.02 16 00:37 02.01.2021
4178 Clouds -2 1009 53 10000 2.87 24 23:57 01.01.2021
4179 Clouds -2 1005 71 10000 1.79 3 23:22 01.01.2021
4180 Clouds -2 1009 51 10000 2.76 20 22:48 01.01.2021
4181 Clouds -2 1009 50 10000 2.87 22 22:26 01.01.2021
4182 Clouds -2 1009 49 10000 2.87 22 21:44 01.01.2021
4183 Clouds -2 1005 69 10000 1.34 39 21:22 01.01.2021
4184 Clouds -3 989 81 10000 2.89 21 20:54 01.01.2021
4185 Clouds -3 989 84 10000 2.7 19 20:22 01.01.2021
4186 Clouds -3 989 90 10000 2.7 19 19:59 01.01.2021
4187 Clouds -3 989 88 10000 2.7 19 19:40 01.01.2021
4188 Clouds -2 989 90 10000 2.41 18 19:20 01.01.2021
4189 Clouds -1 989 89 10000 2.86 20 18:41 01.01.2021
4190 Rain 0 1002 56 10000 6.7 210 18:20 01.01.2021
4191 Clouds 4 1002 56 10000 6.7 210 17:42 01.01.2021
4192 Rain 1 1002 56 10000 6.7 210 17:22 01.01.2021
4193 Clouds 4 1002 65 10000 4.1 230 16:45 01.01.2021
4194 Rain 2 1001 48 10000 4.1 230 15:57 01.01.2021
4195 Clouds 2 1001 42 10000 3.1 200 15:39 01.01.2021
4196 Clouds 2 1002 42 10000 1.5 0 14:42 01.01.2021
4197 Clouds 2 1002 42 10000 1.5 0 14:19 01.01.2021
4198 Clouds 1 1003 60 10000 1 0 13:37 01.01.2021
4199 Clouds 2 1003 60 10000 0.5 0 12:51 01.01.2021
4200 Clouds 0 1004 69 10000 1 0 12:26 01.01.2021
4201 Clouds -1 1005 80 10000 1 0 11:40 01.01.2021
4202 Clouds -1 1005 80 10000 1 0 11:18 01.01.2021
4203 Clouds 0 1004 70 10000 2.31 12 10:51 01.01.2021
4204 Clouds -1 1004 71 10000 2.74 16 09:53 01.01.2021
4205 Clouds -2 990 90 10000 2.62 17 09:24 01.01.2021
4206 Clouds -3 1009 76 10000 2.84 13 08:30 01.01.2021
4207 Snow -1 1003 80 6302 2.91 13 06:24 01.01.2021
4208 Snow -2 1003 81 8800 2.98 18 04:49 01.01.2021
4209 Clouds 0 1009 67 10000 2.1 18 01:40 01.01.2021
4210 Clouds 0 1010 64 10000 1.34 17 00:32 01.01.2021
4211 Clouds 0 1009 63 10000 1.34 17 23:38 31.12.2020
4212 Clouds 0 1008 92 10000 0.57 33 23:20 31.12.2020
4213 Clouds 1 1009 56 10000 0.57 33 22:42 31.12.2020
4214 Clouds 1 1008 90 1615 0.37 308 22:21 31.12.2020
4215 Clouds 1 1009 54 1615 0.37 308 21:55 31.12.2020
4216 Clouds 1 1009 52 1615 0.37 308 21:33 31.12.2020
4217 Clouds 1 1008 85 768 0.45 105 20:58 31.12.2020
4218 Clouds 1 1009 49 761 1.09 245 20:27 31.12.2020
4219 Clouds 1 1009 48 761 1.09 245 19:49 31.12.2020
4220 Clouds 1 1009 48 1248 1.31 221 19:31 31.12.2020
4221 Clouds 0 1009 82 1248 0.89 68 18:51 31.12.2020
4222 Clouds 2 1007 60 10000 1 0 18:25 31.12.2020
4223 Clouds 3 1007 60 10000 1 0 17:46 31.12.2020
4224 Clouds 3 1007 60 10000 1 0 17:26 31.12.2020
4225 Clouds 3 1007 60 10000 1.5 330 16:55 31.12.2020
4226 Clouds 4 1007 60 10000 0.5 0 16:37 31.12.2020
4227 Clouds 3 1008 60 10000 2.1 160 16:18 31.12.2020
4228 Clouds 3 1008 56 10000 2.6 210 15:42 31.12.2020
4229 Clouds 3 1008 56 10000 2.6 210 15:18 31.12.2020
4230 Clouds 3 1009 55 10000 1.5 220 14:40 31.12.2020
4231 Clouds 2 1009 55 10000 1.5 220 14:22 31.12.2020
4232 Clouds 1 1010 60 10000 0.5 0 13:44 31.12.2020
4233 Clouds 1 1010 60 10000 0.5 0 13:25 31.12.2020
4234 Clouds 0 1011 69 10000 1 0 12:55 31.12.2020
4235 Clouds -1 1011 69 10000 1 0 12:37 31.12.2020
4236 Clear -2 1012 75 10000 1.96 213 11:58 31.12.2020
4237 Clear -2 1012 80 10000 1 0 11:40 31.12.2020
4238 Clear -2 1012 80 10000 1 0 11:40 31.12.2020
4239 Clear -2 1012 80 10000 1 0 11:21 31.12.2020
4240 Clouds -1 1012 92 10000 0.5 0 10:40 31.12.2020
4241 Clouds -3 1012 92 10000 0.5 0 10:22 31.12.2020
4242 Clouds -4 1012 92 10000 1.5 360 09:47 31.12.2020
4243 Clouds -3 1013 92 10000 1.5 40 09:22 31.12.2020
4244 Clouds -4 1011 85 10000 0.37 339 08:46 31.12.2020
4245 Clouds -4 1011 84 10000 0.75 350 08:27 31.12.2020
4246 Clouds -4 1011 84 10000 0.75 350 07:52 31.12.2020
4247 Clouds -3 1011 83 10000 0.7 15 06:50 31.12.2020
4248 Clouds -3 1011 83 10000 0.3 15 05:30 31.12.2020
4249 Clouds -3 1011 83 10000 0.3 15 05:30 31.12.2020
4250 Clouds -3 1012 81 10000 0.51 15 03:24 31.12.2020
4251 Clouds -2 1015 85 10000 1.34 47 02:26 31.12.2020
4252 Clouds -2 1015 86 10000 0.89 55 01:49 31.12.2020
4253 Clouds -2 1015 86 10000 0.89 77 01:31 31.12.2020
4254 Clouds -2 1016 78 10000 0.78 40 00:51 31.12.2020
4255 Clouds -1 1016 78 10000 1.12 38 23:55 30.12.2020
4256 Clouds -1 1015 85 10000 1.34 63 23:20 30.12.2020
4257 Clouds -1 1015 85 10000 0.89 78 22:52 30.12.2020
4258 Clouds -1 1016 76 10000 1.81 22 22:32 30.12.2020
4259 Clouds -1 1015 85 10000 1.81 22 21:48 30.12.2020
4260 Clouds -2 998 80 10000 2.08 13 21:25 30.12.2020
4261 Clouds -2 998 84 10000 2.08 13 20:52 30.12.2020
4262 Clouds -2 998 84 10000 1.87 9 20:24 30.12.2020
4263 Clouds -2 997 84 10000 1.87 9 19:42 30.12.2020
4264 Clouds -2 997 86 10000 1.81 5 19:23 30.12.2020
4265 Clouds -2 997 89 10000 1.81 5 18:56 30.12.2020
4266 Rain 0 1011 64 10000 4.6 210 18:37 30.12.2020
4267 Snow 0 1011 64 10000 4.6 210 18:18 30.12.2020
4268 Snow 0 1011 64 10000 4.6 210 17:41 30.12.2020
4269 Snow 0 1011 64 10000 5.1 220 17:20 30.12.2020
4270 Snow 0 1011 64 10000 5.1 220 17:20 30.12.2020
4271 Rain 0 1010 64 10000 4.6 230 16:37 30.12.2020
4272 Snow 1 1010 56 10000 4.6 240 15:49 30.12.2020
4273 Snow 1 1009 39 10000 3.1 270 15:26 30.12.2020
4274 Snow 1 1009 48 10000 4.6 250 14:45 30.12.2020
4275 Snow 1 1009 48 10000 4.6 250 14:26 30.12.2020
4276 Snow 1 1009 56 10000 4.1 220 13:52 30.12.2020
4277 Clouds -1 1010 69 10000 1.5 180 12:47 30.12.2020
4278 Snow -1 1010 83 10000 0.5 0 12:22 30.12.2020
4279 Snow -2 1010 86 10000 2.77 314 11:39 30.12.2020
4280 Snow -3 1010 86 10000 1 0 11:20 30.12.2020
4281 Snow -3 1010 86 10000 1 0 10:54 30.12.2020
4282 Rain -3 1009 86 10000 1 0 10:35 30.12.2020
4283 Clouds -4 1009 92 10000 0.5 0 09:50 30.12.2020
4284 Clouds -4 1008 92 10000 1 0 09:30 30.12.2020
4285 Clouds -4 992 94 10000 1.34 30 08:35 30.12.2020
4286 Clouds -4 990 93 10000 1.34 27 07:31 30.12.2020
4287 Snow -4 990 92 10000 3.02 359 06:53 30.12.2020
4288 Snow -4 990 92 10000 3.02 359 06:53 30.12.2020
4289 Snow -4 1007 88 10000 0.45 322 06:32 30.12.2020
4290 Clouds -4 990 83 10000 0.89 1 05:44 30.12.2020
4291 Clouds -4 989 87 10000 1.34 75 05:25 30.12.2020
4292 Clouds -4 988 87 10000 1.38 345 03:28 30.12.2020
4293 Clouds -4 988 83 10000 1.38 345 02:43 30.12.2020
4294 Clouds -2 1004 87 10000 1.79 56 01:58 30.12.2020
4295 Clouds -3 1007 69 10000 1.39 358 01:33 30.12.2020
4296 Clouds -2 1004 86 10000 0.89 45 00:50 30.12.2020
4297 Clouds -2 1007 68 10000 2.1 22 00:30 30.12.2020
4298 Clouds -2 1004 84 10000 1.34 56 23:56 29.12.2020
4299 Clouds -2 1007 68 10000 2.1 22 23:37 29.12.2020
4300 Clouds -2 1004 83 10000 1.79 45 23:18 29.12.2020
4301 Clouds -1 1006 65 10000 2.23 15 22:40 29.12.2020
4302 Clouds -1 1006 64 10000 2.33 8 22:22 29.12.2020
4303 Clouds -1 1006 64 10000 2.33 8 21:46 29.12.2020
4304 Clouds -1 1006 63 10000 1.66 35 21:25 29.12.2020
4305 Clouds -1 1006 61 10000 1.66 35 20:46 29.12.2020
4306 Snow -1 1002 79 10000 0.89 64 20:25 29.12.2020
4307 Snow -1 1002 79 10000 0.89 64 20:25 29.12.2020
4308 Snow 0 1006 55 10000 1.62 9 19:49 29.12.2020
4309 Snow 1 1005 51 609 2.18 8 19:23 29.12.2020
4310 Clouds 0 1005 47 10000 2.55 13 18:54 29.12.2020
4311 Clouds 1 1005 44 10000 2.55 13 18:31 29.12.2020
4312 Clouds -1 985 91 10000 2.53 22 17:56 29.12.2020
4313 Clouds 2 1004 40 10000 2.53 22 17:36 29.12.2020
4314 Clouds 2 1004 40 10000 2.53 22 17:36 29.12.2020
4315 Clouds 2 1004 34 2953 1.57 349 17:18 29.12.2020
4316 Snow 1 985 89 2953 1.57 349 16:34 29.12.2020
4317 Clouds 1 985 86 9275 1 360 15:52 29.12.2020
4318 Snow 1 985 86 10000 1.19 309 15:33 29.12.2020
4319 Clouds 2 998 61 10000 1.79 257 14:46 29.12.2020
4320 Clouds 3 998 59 10000 2.24 271 14:28 29.12.2020
4321 Clouds 0 984 82 10000 1.11 262 13:59 29.12.2020
4322 Clouds 0 998 66 10000 1.62 231 13:25 29.12.2020
4323 Clouds 0 998 66 10000 0.45 235 12:56 29.12.2020
4324 Clouds 0 998 66 10000 0.45 238 12:36 29.12.2020
4325 Clouds 0 998 65 10000 0.45 236 12:18 29.12.2020
4326 Clouds -1 998 66 10000 2.55 186 11:45 29.12.2020
4327 Clouds -1 998 69 10000 2.1 199 11:24 29.12.2020
4328 Clouds -2 998 67 10000 0.52 85 10:21 29.12.2020
4329 Clouds -2 998 69 10000 0.52 85 09:41 29.12.2020
4330 Clouds -2 1002 68 10000 2.13 44 09:19 29.12.2020
4331 Clouds -1 1001 66 10000 2.13 44 08:49 29.12.2020
4332 Clouds -1 1001 64 10000 2.53 33 07:40 29.12.2020
4333 Clouds -2 1000 94 10000 2.11 39 07:18 29.12.2020
4334 Clouds -3 982 82 10000 1.57 23 05:44 29.12.2020
4335 Clouds -2 999 70 6521 1.39 309 01:58 29.12.2020
4336 Clouds -1 999 70 10000 1.26 268 00:26 29.12.2020
4337 Clouds 0 997 87 10000 0.89 65 23:38 28.12.2020
4338 Clouds -1 998 71 10000 0.51 293 22:48 28.12.2020
4339 Snow 0 998 71 995 1.78 291 21:57 28.12.2020
4340 Snow 0 998 71 995 1.78 291 21:39 28.12.2020
4341 Clouds 0 998 71 913 1.25 200 21:19 28.12.2020
4342 Clouds 2 998 71 913 1.25 200 20:40 28.12.2020
4343 Snow 0 996 79 2283 0.9 233 20:20 28.12.2020
4344 Snow 0 996 65 2283 0.9 233 19:41 28.12.2020
4345 Clouds 2 996 63 872 1.76 206 19:22 28.12.2020
4346 Clouds 2 996 60 217 2.95 212 18:49 28.12.2020
4347 Clouds 2 994 64 10000 2.6 0 18:27 28.12.2020
4348 Clouds 3 994 64 10000 2.6 0 17:41 28.12.2020
4349 Clouds 2 994 56 10000 5.1 200 17:18 28.12.2020
4350 Clouds 3 994 56 10000 4.1 190 16:32 28.12.2020
4351 Rain 1 994 60 10000 3.1 200 15:58 28.12.2020
4352 Clouds 1 994 64 10000 4.6 220 15:38 28.12.2020
4353 Clouds 2 993 60 10000 5.7 220 14:43 28.12.2020
4354 Clouds 2 993 56 10000 5.1 210 13:51 28.12.2020
4355 Clouds 3 993 65 10000 5.7 200 13:23 28.12.2020
4356 Clouds 2 993 80 10000 2.1 0 12:38 28.12.2020
4357 Snow 1 993 82 10000 1 0 12:18 28.12.2020
4358 Snow 1 993 82 10000 1 0 11:42 28.12.2020
4359 Clouds 0 992 83 10000 0.5 0 11:18 28.12.2020
4360 Clouds -1 991 83 10000 1 0 10:38 28.12.2020
4361 Snow -1 991 89 10000 1.5 70 10:19 28.12.2020
4362 Snow -2 990 89 10000 1 0 09:38 28.12.2020
4363 Snow -2 990 90 10000 1 0 09:18 28.12.2020
4364 Snow -1 987 89 10000 0.45 14 06:55 28.12.2020
4365 Snow -1 988 86 343 2.74 324 05:34 28.12.2020
4366 Snow 0 988 73 5763 0.75 208 03:53 28.12.2020
4367 Snow 0 992 34 134 2.27 196 01:56 28.12.2020
4368 Clouds 1 993 36 1291 2.95 200 00:19 28.12.2020
4369 Clouds -2 987 77 1291 1.34 67 23:35 27.12.2020
4370 Clouds -1 993 42 2337 2.15 199 22:52 27.12.2020
4371 Clouds -1 995 68 10000 3.23 198 21:55 27.12.2020
4372 Clouds 0 995 68 10000 2.36 207 21:24 27.12.2020
4373 Clouds 0 996 66 10000 2.36 207 20:37 27.12.2020
4374 Clouds -1 997 44 10000 1.82 219 19:24 27.12.2020
4375 Clouds 0 997 43 10000 2.13 216 18:51 27.12.2020
4376 Clear -1 1002 85 10000 0.5 0 18:22 27.12.2020
4377 Clear 0 1002 85 10000 0.5 0 17:59 27.12.2020
4378 Clear 1 1002 85 10000 0.5 0 17:37 27.12.2020
4379 Clear 0 1003 47 10000 1 0 17:18 27.12.2020
4380 Clear 0 1003 47 10000 1 0 17:18 27.12.2020
4381 Clear 1 1004 69 10000 1 0 16:25 27.12.2020
4382 Clear 1 1005 47 10000 1 0 15:34 27.12.2020
4383 Clear 1 1006 47 10000 2.23 206 14:54 27.12.2020
4384 Clear 0 1007 64 10000 2.23 206 14:36 27.12.2020
4385 Clear 0 1009 62 10000 0.5 0 13:37 27.12.2020
4386 Clear 1 1010 60 10000 1 0 12:56 27.12.2020
4387 Clear -1 1011 58 10000 0.5 0 12:26 27.12.2020
4388 Clear -2 1012 54 10000 1 0 11:42 27.12.2020
4389 Clear -3 1013 58 10000 1 0 11:20 27.12.2020
4390 Clear -3 1013 58 10000 1 0 10:45 27.12.2020
4391 Clear -4 1013 68 10000 0.5 0 10:19 27.12.2020
4392 Clear -4 1014 62 10000 1.5 350 09:37 27.12.2020
4393 Clouds -3 1012 66 10000 0.71 351 08:28 27.12.2020
4394 Clouds -4 1013 68 10000 0.48 20 07:29 27.12.2020
4395 Clouds -4 1014 70 10000 0.84 42 05:59 27.12.2020
4396 Clouds -4 1014 69 10000 0.45 186 05:38 27.12.2020
4397 Clear -4 1016 67 10000 2.55 20 03:25 27.12.2020
4398 Clear -4 1017 66 10000 2.62 19 02:30 27.12.2020
4399 Clear -4 1018 61 10000 2.86 19 00:56 27.12.2020
4400 Clear -4 1019 54 10000 3.06 18 23:44 26.12.2020
4401 Clear -3 1019 52 10000 3.35 17 23:24 26.12.2020
4402 Clear -3 1026 38 10000 3.35 17 22:46 26.12.2020
4403 Clear -2 1023 42 10000 1.79 54 22:19 26.12.2020
4404 Clear -4 1008 35 10000 3.54 16 21:53 26.12.2020
4405 Clear -4 1008 43 10000 3.72 16 21:26 26.12.2020
4406 Clear -4 1008 52 10000 3.72 16 20:45 26.12.2020
4407 Clear -2 1027 31 10000 4.02 14 20:24 26.12.2020
4408 Clear -5 1008 38 10000 4.02 14 19:32 26.12.2020
4409 Clear -3 1008 43 10000 4.4 15 18:59 26.12.2020
4410 Clear 3 1020 8 10000 3.6 320 18:34 26.12.2020
4411 Clear -1 1020 8 10000 3.6 320 17:47 26.12.2020
4412 Clear -1 1020 8 10000 3.6 320 17:28 26.12.2020
4413 Clear 1 1020 8 10000 3.6 320 16:40 26.12.2020
4414 Clear 1 1020 8 10000 3.6 290 16:18 26.12.2020
4415 Clear 1 1020 10 10000 2.1 310 15:21 26.12.2020
4416 Clear 1 1021 11 10000 2.1 210 14:38 26.12.2020
4417 Clear 2 1021 9 10000 1.5 0 14:20 26.12.2020
4418 Clear 7 1021 11 10000 2.6 70 13:37 26.12.2020
4419 Clear 7 1022 12 10000 4.1 40 12:58 26.12.2020
4420 Clear 5 1023 21 10000 3.1 70 12:39 26.12.2020
4421 Clear 5 1023 21 10000 3.1 70 12:39 26.12.2020
4422 Clear 5 1023 21 10000 3.1 70 12:18 26.12.2020
4423 Clear 1 1023 40 10000 1.5 70 11:42 26.12.2020
4424 Clear -5 1023 40 10000 1.5 70 11:20 26.12.2020
4425 Clear -4 1023 43 10000 1.5 70 10:46 26.12.2020
4426 Clear -5 1023 27 10000 1.5 0 10:25 26.12.2020
4427 Clear -5 1023 29 10000 3.1 350 09:47 26.12.2020
4428 Clear -9 1008 93 10000 2.68 8 08:55 26.12.2020
4429 Clear -12 1007 92 10000 2.68 23 08:19 26.12.2020
4430 Clouds -12 1007 93 10000 2.68 347 07:21 26.12.2020
4431 Clouds -8 1007 93 10000 1.79 28 05:37 26.12.2020
4432 Clouds -5 1004 93 10000 3.13 27 02:47 26.12.2020
4433 Snow -4 1021 88 558 4.32 336 00:36 26.12.2020
4434 Snow -5 1003 93 273 4.02 3 23:49 25.12.2020
4435 Snow -5 1004 93 278 4.02 295 23:28 25.12.2020
4436 Snow -5 1003 93 278 3.58 18 22:52 25.12.2020
4437 Snow -4 1020 86 385 0.45 0 22:26 25.12.2020
4438 Snow -4 1020 85 385 0.45 225 21:43 25.12.2020
4439 Snow -4 1020 86 318 0.45 237 21:25 25.12.2020
4440 Snow -4 1020 84 318 4.95 341 20:45 25.12.2020
4441 Snow -4 1020 83 341 0.45 93 20:26 25.12.2020
4442 Snow -4 1020 85 341 4.28 340 19:43 25.12.2020
4443 Snow -4 1020 81 822 4.08 339 18:47 25.12.2020
4444 Snow -5 1003 93 849 2.68 23 18:29 25.12.2020
4445 Snow -5 1002 92 849 3.58 49 17:35 25.12.2020
4446 Snow -5 1003 93 569 2.68 46 16:51 25.12.2020
4447 Snow -5 1003 92 2739 2.24 13 16:21 25.12.2020
4448 Snow -5 1004 92 2739 2.24 63 15:49 25.12.2020
4449 Snow -3 1019 61 5142 2.24 296 15:25 25.12.2020
4450 Snow -3 1021 34 10000 7.7 320 14:32 25.12.2020
4451 Rain -3 1021 34 10000 7.7 320 13:48 25.12.2020
4452 Snow -3 1021 34 10000 7.7 320 13:26 25.12.2020
4453 Snow -2 1021 34 10000 7.2 320 12:49 25.12.2020
4454 Snow -2 1020 32 10000 5.1 30 12:27 25.12.2020
4455 Snow -2 1021 29 10000 2.6 0 11:46 25.12.2020
4456 Clouds -2 1021 32 10000 2.6 0 11:22 25.12.2020
4457 Clouds -3 1020 32 10000 0.5 0 10:40 25.12.2020
4458 Clouds -3 1020 59 10000 1 0 09:49 25.12.2020
4459 Snow -4 1004 92 10000 1.79 11 08:52 25.12.2020
4460 Snow -4 1004 92 10000 4.5 358 08:32 25.12.2020
4461 Snow -3 1003 93 10000 3.64 359 06:51 25.12.2020
4462 Snow -2 1003 94 10000 3.32 359 05:31 25.12.2020
4463 Snow -1 1005 95 8935 3.09 354 02:21 25.12.2020
4464 Snow 0 1005 93 10000 2.79 5 00:20 25.12.2020
4465 Clouds 0 1022 45 10000 2.93 11 23:30 24.12.2020
4466 Clouds 0 1005 90 10000 2.93 11 22:53 24.12.2020
4467 Clouds 0 1005 87 10000 2.84 11 22:24 24.12.2020
4468 Clouds 0 1006 88 10000 2.84 11 21:45 24.12.2020
4469 Clouds 0 1006 86 10000 2.68 12 20:58 24.12.2020
4470 Clouds 0 1007 92 10000 2.51 8 19:41 24.12.2020
4471 Clouds 3 1018 70 10000 3.6 240 18:21 24.12.2020
4472 Clouds 3 1018 70 10000 3.6 240 17:38 24.12.2020
4473 Clouds 3 1018 75 10000 3.1 230 17:20 24.12.2020
4474 Clear 4 1018 75 10000 3.1 220 16:25 24.12.2020
4475 Clear 3 1018 93 10000 1 0 15:43 24.12.2020
4476 Clear 4 1018 93 10000 1 0 15:21 24.12.2020
4477 Clouds 4 1019 93 10000 1 0 14:56 24.12.2020
4478 Clouds 4 1019 100 10000 1 0 14:24 24.12.2020
4479 Clouds 4 1020 100 10000 0.5 0 13:49 24.12.2020
4480 Fog 4 1021 100 700 0.5 0 13:30 24.12.2020
4481 Fog 4 1021 100 450 1 0 12:56 24.12.2020
4482 Fog 4 1022 100 650 1 0 12:37 24.12.2020
4483 Fog 4 1022 100 650 1 0 12:18 24.12.2020
4484 Fog 3 1022 100 900 1 0 11:38 24.12.2020
4485 Mist 3 1022 100 1400 1.57 238 11:18 24.12.2020
4486 Fog 3 1022 100 800 1.57 238 10:43 24.12.2020
4487 Drizzle 2 1022 100 800 0.5 0 09:54 24.12.2020
4488 Drizzle 2 1021 100 350 0.5 0 09:35 24.12.2020
4489 Clouds 3 1020 90 10000 0.51 301 08:48 24.12.2020
4490 Clouds 3 1020 91 10000 0.81 347 07:48 24.12.2020
4491 Clouds 3 1020 91 10000 0.97 356 07:28 24.12.2020
4492 Clouds 3 1020 90 10000 0.77 0 06:20 24.12.2020
4493 Clouds 5 1021 89 460 0.69 2 02:50 24.12.2020
4494 Clouds 7 1021 88 1408 0.88 341 01:47 24.12.2020
4495 Clouds 6 1021 88 1397 0.85 333 01:18 24.12.2020
4496 Clouds 6 1021 88 120 0.38 279 00:23 24.12.2020
4497 Clouds 6 1021 87 120 0.38 279 23:49 23.12.2020
4498 Clouds 6 1021 87 120 0.38 279 23:31 23.12.2020
4499 Clouds 7 1021 86 131 0.47 225 22:59 23.12.2020
4500 Clouds 7 1021 86 131 0.47 225 22:39 23.12.2020
4501 Clouds 7 1021 84 283 0.49 238 22:18 23.12.2020
4502 Clouds 7 1021 82 283 0.45 41 21:31 23.12.2020
4503 Clouds 7 1011 81 4229 0.66 204 20:56 23.12.2020
4504 Clouds 9 1023 36 4229 0.66 204 20:37 23.12.2020
4505 Clouds 7 1012 82 5429 0.5 198 20:19 23.12.2020
4506 Clouds 7 1011 82 5429 0.5 198 19:40 23.12.2020
4507 Clouds 8 1011 82 5713 0.35 175 19:21 23.12.2020
4508 Clouds 8 1011 81 7021 0.34 203 18:49 23.12.2020
4509 Clouds 10 1022 20 7021 0.34 203 18:30 23.12.2020
4510 Clouds 11 1022 12 10000 0.69 208 17:42 23.12.2020
4511 Clouds 10 1012 80 10000 1.34 204 17:22 23.12.2020
4512 Clouds 10 1012 80 10000 1.34 204 16:49 23.12.2020
4513 Clouds 11 1012 79 10000 1.34 204 16:30 23.12.2020
4514 Clouds 11 1012 80 10000 1.94 209 15:58 23.12.2020
4515 Clouds 11 1012 79 10000 1.94 209 15:38 23.12.2020
4516 Clouds 11 1021 64 10000 2.36 221 15:20 23.12.2020
4517 Clouds 11 1021 63 10000 2.36 221 14:41 23.12.2020
4518 Clouds 9 1023 71 10000 0.5 0 14:21 23.12.2020
4519 Clouds 10 1023 71 10000 0.5 0 13:44 23.12.2020
4520 Clouds 9 1023 71 10000 0.5 0 13:20 23.12.2020
4521 Clouds 10 1024 75 10000 1 0 12:54 23.12.2020
4522 Clouds 9 1024 81 10000 0.5 0 12:30 23.12.2020
4523 Clouds 8 1025 87 10000 1 0 11:54 23.12.2020
4524 Clouds 6 1025 93 10000 0.5 0 11:27 23.12.2020
4525 Clouds 6 1025 93 10000 0.5 0 10:53 23.12.2020
4526 Clouds 5 1025 93 10000 1.5 30 10:33 23.12.2020
4527 Fog 4 1025 93 10000 0.5 0 09:37 23.12.2020
4528 Clouds 4 1024 81 10000 0.82 212 08:52 23.12.2020
4529 Clouds 4 1024 81 10000 0.78 204 08:23 23.12.2020
4530 Clouds 4 1025 82 10000 0.78 204 07:43 23.12.2020
4531 Clouds 4 1025 81 10000 0.75 195 06:42 23.12.2020
4532 Clouds 4 1025 83 10000 0.47 186 05:55 23.12.2020
4533 Clouds 4 1025 83 10000 0.43 204 05:20 23.12.2020
4534 Clouds 4 1026 82 10000 0.17 236 01:38 23.12.2020
4535 Clouds 5 1026 82 10000 0.41 229 00:32 23.12.2020
4536 Clouds 5 1027 82 10000 0.51 224 23:39 22.12.2020
4537 Clouds 5 1027 82 10000 0.45 215 23:21 22.12.2020
4538 Clouds 5 1027 80 10000 0.45 215 22:42 22.12.2020
4539 Clouds 5 1027 81 10000 0.37 204 22:22 22.12.2020
4540 Clouds 5 1027 80 10000 0.37 204 21:45 22.12.2020
4541 Clouds 6 1027 80 10000 0.35 176 21:20 22.12.2020
4542 Clouds 6 1027 81 10000 0.35 176 20:50 22.12.2020
4543 Clouds 6 1027 79 10000 0.37 129 20:25 22.12.2020
4544 Clouds 7 1027 79 10000 0.37 129 19:50 22.12.2020
4545 Clouds 7 1026 78 10000 0.39 113 19:26 22.12.2020
4546 Clouds 7 1026 77 10000 0.45 93 18:57 22.12.2020
4547 Clouds 7 1026 77 10000 0.45 93 18:38 22.12.2020
4548 Clouds 7 1017 80 10000 0.29 167 18:19 22.12.2020
4549 Clouds 9 1026 70 10000 0.29 167 17:36 22.12.2020
4550 Clouds 9 1026 72 10000 0.91 197 17:18 22.12.2020
4551 Clouds 9 1017 79 10000 0.91 197 16:46 22.12.2020
4552 Clouds 10 1026 62 10000 1.2 209 16:19 22.12.2020
4553 Clouds 11 1026 60 10000 0.45 0 15:45 22.12.2020
4554 Clouds 13 1026 60 10000 1.69 216 15:26 22.12.2020
4555 Clouds 13 1026 63 10000 1.69 216 14:46 22.12.2020
4556 Clouds 13 1026 63 10000 1.69 216 14:46 22.12.2020
4557 Clear 13 1026 66 10000 2.01 216 14:28 22.12.2020
4558 Clear 13 1027 66 10000 2.01 216 13:54 22.12.2020
4559 Clear 12 1027 70 10000 2.01 216 13:36 22.12.2020
4560 Clouds 11 1027 73 10000 2.1 215 13:18 22.12.2020
4561 Clouds 13 1027 62 10000 0.89 166 12:42 22.12.2020
4562 Clouds 13 1028 68 10000 0.45 167 12:20 22.12.2020
4563 Clouds 10 1029 76 10000 1.54 216 11:43 22.12.2020
4564 Clouds 9 1029 77 10000 1.13 202 11:23 22.12.2020
4565 Clouds 9 1028 75 10000 0.45 53 10:56 22.12.2020
4566 Clouds 4 1019 85 10000 1.13 202 10:30 22.12.2020
4567 Clouds 3 1019 85 10000 0.56 159 09:59 22.12.2020
4568 Clouds 2 1019 86 10000 0.56 159 09:40 22.12.2020
4569 Clouds 3 1029 85 10000 0.57 102 09:20 22.12.2020
4570 Clouds 3 1029 85 10000 0.45 116 08:43 22.12.2020
4571 Clouds 3 1029 87 10000 0.43 69 08:20 22.12.2020
4572 Clouds 3 1028 86 10000 0.43 69 07:46 22.12.2020
4573 Clouds 3 1028 88 10000 0.65 88 06:36 22.12.2020
4574 Clouds 3 1028 88 10000 0.64 65 05:34 22.12.2020
4575 Clouds 4 1029 87 10000 0.99 19 02:35 22.12.2020
4576 Clouds 4 1029 90 10000 1.73 29 00:30 22.12.2020
4577 Clouds 5 1029 89 10000 2.02 28 23:51 21.12.2020
4578 Clouds 5 1029 89 10000 2.19 23 23:22 21.12.2020
4579 Clouds 5 1028 88 10000 0.45 0 22:37 21.12.2020
4580 Clouds 5 1028 89 10000 2.28 17 22:19 21.12.2020
4581 Clouds 5 1028 89 10000 2.28 17 22:19 21.12.2020
4582 Clouds 5 1028 89 10000 2.28 17 21:48 21.12.2020
4583 Clouds 6 1028 89 10000 2.28 17 21:30 21.12.2020
4584 Clouds 6 1028 86 10000 2.4 16 20:45 21.12.2020
4585 Clouds 7 1028 86 10000 2.33 12 20:21 21.12.2020
4586 Clouds 7 1027 83 10000 2.33 12 19:54 21.12.2020
4587 Clouds 7 1027 83 10000 2.33 12 19:36 21.12.2020
4588 Clouds 7 1027 81 10000 2.31 18 19:18 21.12.2020
4589 Clouds 7 1027 76 10000 2.31 18 18:44 21.12.2020
4590 Clouds 7 1026 70 10000 1 230 18:25 21.12.2020
4591 Clouds 8 1026 70 10000 1 230 17:42 21.12.2020
4592 Clouds 8 1026 70 10000 1 230 17:23 21.12.2020
4593 Clouds 8 1026 57 10000 0.5 0 16:45 21.12.2020
4594 Clouds 8 1026 61 10000 0.5 0 16:21 21.12.2020
4595 Clouds 8 1025 61 10000 1 0 15:43 21.12.2020
4596 Clouds 8 1025 66 10000 1 0 14:58 21.12.2020
4597 Clouds 7 1026 70 10000 1 0 14:36 21.12.2020
4598 Clear 7 1026 65 10000 0.43 7 14:18 21.12.2020
4599 Clear 7 1026 70 10000 1 0 13:41 21.12.2020
4600 Clear 7 1026 70 10000 1 0 13:22 21.12.2020
4601 Clear 6 1027 81 10000 1 0 12:42 21.12.2020
4602 Clear 6 1027 81 10000 1 0 12:22 21.12.2020
4603 Clouds 5 1028 80 10000 0.5 0 11:43 21.12.2020
4604 Clouds 5 1028 80 10000 0.5 0 11:23 21.12.2020
4605 Clouds 4 1028 86 10000 1 0 10:58 21.12.2020
4606 Fog 3 1027 93 10000 1 0 10:39 21.12.2020
4607 Fog 3 1027 100 10000 0.82 27 09:58 21.12.2020
4608 Mist 3 1027 100 4000 1 0 09:40 21.12.2020
4609 Mist 3 1027 100 4000 1 0 09:40 21.12.2020
4610 Mist 2 1027 100 4000 1 0 09:22 21.12.2020
4611 Clouds 2 1026 81 10000 0.45 47 08:29 21.12.2020
4612 Clouds 1 1026 82 10000 0.26 18 07:27 21.12.2020
4613 Clouds 1 1025 83 10000 0.39 37 05:39 21.12.2020
4614 Clouds 2 1026 84 10000 0.29 8 04:30 21.12.2020
4615 Clouds 3 1027 83 10000 0.71 203 00:37 21.12.2020
4616 Clouds 3 1027 82 10000 0.12 91 23:50 20.12.2020
4617 Clouds 2 1027 83 10000 0.22 28 23:21 20.12.2020
4618 Clouds 4 1026 84 10000 0.89 18 22:45 20.12.2020
4619 Clouds 3 1028 70 10000 0.16 354 22:25 20.12.2020
4620 Clouds 3 1028 69 10000 0.16 354 21:55 20.12.2020
4621 Clouds 1 1014 88 10000 0.16 354 21:37 20.12.2020
4622 Clouds 1 1014 84 10000 0.45 80 21:18 20.12.2020
4623 Clouds 1 1013 84 10000 0.45 80 20:42 20.12.2020
4624 Clouds 1 1013 86 10000 1.29 46 20:21 20.12.2020
4625 Clouds 1 1013 89 10000 1.29 46 19:42 20.12.2020
4626 Clouds 2 1013 94 10000 2.1 23 19:21 20.12.2020
4627 Clouds 2 1013 95 10000 2.03 25 18:54 20.12.2020
4628 Clouds 4 1022 87 10000 4.1 240 18:35 20.12.2020
4629 Clouds 4 1022 87 10000 4.1 240 17:47 20.12.2020
4630 Clouds 5 1022 87 10000 4.1 240 17:28 20.12.2020
4631 Clouds 6 1022 76 10000 3.6 230 16:49 20.12.2020
4632 Clouds 6 1022 76 10000 3.6 220 16:30 20.12.2020
4633 Clouds 6 1021 76 10000 1.5 200 15:52 20.12.2020
4634 Clouds 6 1021 76 10000 1.5 0 15:30 20.12.2020
4635 Clouds 6 1021 76 10000 1.5 160 14:58 20.12.2020
4636 Clouds 6 1021 76 10000 1.5 0 14:36 20.12.2020
4637 Clouds 6 1021 81 10000 1.5 0 13:57 20.12.2020
4638 Clouds 6 1021 81 10000 1 0 13:37 20.12.2020
4639 Clouds 6 1021 81 10000 1 0 13:18 20.12.2020
4640 Clouds 6 1022 93 10000 1 0 12:44 20.12.2020
4641 Clouds 6 1022 93 10000 1 0 12:21 20.12.2020
4642 Fog 5 1022 100 10000 1.5 350 11:45 20.12.2020
4643 Fog 5 1022 100 4500 1.5 30 11:26 20.12.2020
4644 Fog 4 1022 100 4500 1.5 30 10:49 20.12.2020
4645 Mist 4 1021 100 4000 2.07 10 10:21 20.12.2020
4646 Fog 4 1021 100 450 0.5 200 09:46 20.12.2020
4647 Fog 4 1021 100 450 0.5 200 09:46 20.12.2020
4648 Fog 4 1021 100 250 1 210 09:28 20.12.2020
4649 Rain 4 1020 92 87 1.88 12 08:59 20.12.2020
4650 Clouds 4 1020 91 87 0.45 0 08:40 20.12.2020
4651 Clouds 4 1019 91 41 1.51 2 07:34 20.12.2020
4652 Clouds 4 1018 91 45 0.45 0 06:28 20.12.2020
4653 Clouds 4 1019 85 98 0.45 213 02:37 20.12.2020
4654 Clouds 4 1019 84 483 1.42 216 00:53 20.12.2020
4655 Clouds 4 1019 80 86 1.53 183 23:36 19.12.2020
4656 Clouds 4 1019 80 505 1.55 182 23:18 19.12.2020
4657 Clouds 5 1019 80 505 1.55 182 22:41 19.12.2020
4658 Clouds 4 1019 81 153 1.43 165 22:21 19.12.2020
4659 Clouds 5 1019 78 153 1.43 165 21:44 19.12.2020
4660 Clouds 5 1019 81 171 0.98 192 21:25 19.12.2020
4661 Clouds 5 1019 78 171 0.98 192 20:55 19.12.2020
4662 Clouds 5 1019 76 1665 0.72 210 20:24 19.12.2020
4663 Clouds 5 1008 82 1665 0.72 210 19:58 19.12.2020
4664 Clouds 5 1019 79 1665 0.72 210 19:38 19.12.2020
4665 Clouds 5 1019 79 1163 0.61 221 19:19 19.12.2020
4666 Clouds 6 1018 71 10000 1 0 18:33 19.12.2020
4667 Clouds 6 1018 71 10000 1 0 17:56 19.12.2020
4668 Clouds 6 1018 71 10000 1 0 17:31 19.12.2020
4669 Clouds 7 1018 66 10000 0.5 0 16:58 19.12.2020
4670 Clouds 7 1018 71 10000 1.21 217 16:38 19.12.2020
4671 Clouds 7 1018 71 10000 1.21 217 16:38 19.12.2020
4672 Clouds 9 1018 66 10000 0.5 0 16:20 19.12.2020
4673 Clouds 7 1018 66 10000 0.5 0 15:49 19.12.2020
4674 Clouds 9 1018 66 10000 1.5 240 15:20 19.12.2020
4675 Clouds 9 1019 66 10000 1.5 230 14:37 19.12.2020
4676 Clouds 7 1019 75 10000 1 0 13:42 19.12.2020
4677 Clouds 7 1019 75 10000 1 0 13:23 19.12.2020
4678 Clouds 8 1020 76 10000 1 0 12:57 19.12.2020
4679 Clouds 8 1020 76 10000 0.5 0 12:38 19.12.2020
4680 Clouds 6 1020 76 10000 0.5 0 12:20 19.12.2020
4681 Fog 5 1021 93 10000 0.5 0 11:44 19.12.2020
4682 Fog 5 1021 93 10000 0.5 0 11:18 19.12.2020
4683 Fog 4 1021 93 600 1.47 210 10:42 19.12.2020
4684 Fog 4 1021 93 600 1.47 210 10:42 19.12.2020
4685 Fog 3 1021 100 350 0.5 0 10:18 19.12.2020
4686 Fog 3 1020 93 2000 0.5 0 09:41 19.12.2020
4687 Clouds 2 1020 84 4192 0.45 0 08:58 19.12.2020
4688 Clouds 3 1020 86 1076 1.62 224 08:18 19.12.2020
4689 Clouds 3 1019 87 1068 0.45 0 07:20 19.12.2020
4690 Clouds 3 1019 87 1566 1.54 210 06:49 19.12.2020
4691 Clouds 3 1007 83 1557 2.28 211 05:23 19.12.2020
4692 Clouds 3 1007 84 1746 2.31 213 03:48 19.12.2020
4693 Clouds 4 1008 84 1156 2.53 209 00:42 19.12.2020
4694 Clouds 4 1021 80 1088 2.63 204 00:21 19.12.2020
4695 Clouds 4 1008 84 1088 2.63 204 23:51 18.12.2020
4696 Clouds 4 1009 85 1020 2.63 200 23:29 18.12.2020
4697 Clouds 4 1021 86 1020 2.63 200 22:57 18.12.2020
4698 Clouds 4 1021 86 1020 2.63 200 22:39 18.12.2020
4699 Clouds 4 1021 86 1102 2.59 199 22:19 18.12.2020
4700 Clouds 4 1009 84 1102 2.59 199 21:43 18.12.2020
4701 Clouds 4 1010 84 1304 2.37 199 21:22 18.12.2020
4702 Clouds 4 1010 84 1389 2.29 202 20:25 18.12.2020
4703 Clouds 4 1010 83 1389 2.29 202 19:51 18.12.2020
4704 Clouds 4 1010 84 2485 1.96 200 19:24 18.12.2020
4705 Clouds 4 1020 32 4715 2.18 198 18:46 18.12.2020
4706 Clouds 6 1022 61 10000 1.5 30 18:28 18.12.2020
4707 Clouds 6 1022 61 10000 1.5 30 17:52 18.12.2020
4708 Clouds 7 1022 61 10000 1.5 30 17:20 18.12.2020
4709 Clouds 7 1022 61 10000 1.5 70 16:45 18.12.2020
4710 Clouds 6 1022 61 10000 0.5 0 16:21 18.12.2020
4711 Clouds 6 1022 61 10000 0.5 0 15:52 18.12.2020
4712 Clouds 6 1022 66 10000 0.5 0 15:34 18.12.2020
4713 Clouds 6 1022 66 10000 0.5 0 14:57 18.12.2020
4714 Clouds 7 1022 65 10000 1.5 190 14:26 18.12.2020
4715 Clouds 7 1023 61 10000 1 0 13:53 18.12.2020
4716 Clouds 7 1024 65 10000 0.5 0 13:32 18.12.2020
4717 Clouds 6 1024 70 10000 1 0 12:57 18.12.2020
4718 Clouds 5 1025 75 10000 2.98 206 12:34 18.12.2020
4719 Clouds 4 1026 86 10000 1 0 11:28 18.12.2020
4720 Clouds 5 1026 100 10000 2.52 199 10:41 18.12.2020
4721 Clouds 5 1026 100 10000 2.52 199 10:41 18.12.2020
4722 Clouds 2 1026 100 10000 1.63 186 10:21 18.12.2020
4723 Clear 1 1025 69 10000 1.63 186 09:58 18.12.2020
4724 Fog 1 1025 69 10000 1 40 09:37 18.12.2020
4725 Clear 1 1024 85 10000 0.92 164 09:18 18.12.2020
4726 Clear 1 1024 85 10000 0.92 164 08:46 18.12.2020
4727 Clear 1 1024 85 10000 0.59 156 07:58 18.12.2020
4728 Clouds 1 1024 85 10000 0.55 148 07:20 18.12.2020
4729 Clouds 2 1024 85 10000 0.32 143 06:59 18.12.2020
4730 Clouds 2 1024 83 10000 0.43 124 05:44 18.12.2020
4731 Clouds 2 1024 84 10000 0.39 94 04:52 18.12.2020
4732 Clouds 3 1024 80 10000 0.43 80 03:35 18.12.2020
4733 Clouds 2 1013 82 4620 0.64 121 01:45 18.12.2020
4734 Clouds 4 1024 79 2084 0.96 163 00:29 18.12.2020
4735 Clouds 4 1024 77 2084 0.96 163 23:52 17.12.2020
4736 Clouds 4 1024 79 1876 1.22 176 23:23 17.12.2020
4737 Clouds 4 1025 79 1876 1.22 176 22:48 17.12.2020
4738 Clouds 4 1025 79 1904 1.19 179 22:27 17.12.2020
4739 Clouds 4 1024 78 1904 1.19 179 21:46 17.12.2020
4740 Clouds 4 1025 78 2726 1.04 171 21:22 17.12.2020
4741 Clouds 4 1024 77 2726 1.04 171 20:45 17.12.2020
4742 Clouds 4 1024 76 9376 0.98 160 20:20 17.12.2020
4743 Clouds 5 1024 76 9376 0.98 160 19:56 17.12.2020
4744 Clouds 5 1024 76 9376 0.98 160 19:38 17.12.2020
4745 Clouds 5 1024 75 10000 0.76 163 19:19 17.12.2020
4746 Clouds 6 1023 49 10000 0.5 0 18:40 17.12.2020
4747 Clouds 7 1023 49 10000 0.5 0 18:19 17.12.2020
4748 Clouds 8 1023 49 10000 0.5 0 17:45 17.12.2020
4749 Clouds 7 1023 49 10000 0.5 0 17:27 17.12.2020
4750 Clouds 8 1023 37 10000 0.5 0 16:40 17.12.2020
4751 Clouds 9 1023 45 10000 1 0 16:20 17.12.2020
4752 Clouds 9 1023 45 10000 1 0 15:45 17.12.2020
4753 Clouds 9 1023 42 10000 0.5 0 15:27 17.12.2020
4754 Clouds 9 1023 45 10000 0.5 0 14:49 17.12.2020
4755 Clouds 8 1024 48 10000 0.5 0 14:22 17.12.2020
4756 Clouds 7 1024 56 10000 1 0 13:48 17.12.2020
4757 Clouds 6 1024 56 10000 1 0 13:22 17.12.2020
4758 Clouds 4 1025 69 10000 0.5 0 12:41 17.12.2020
4759 Clouds 4 1025 69 10000 0.5 0 12:22 17.12.2020
4760 Clouds 2 1025 80 10000 1 0 11:42 17.12.2020
4761 Clouds 2 1025 80 10000 1 0 11:22 17.12.2020
4762 Clouds 4 1025 92 10000 1.5 40 10:44 17.12.2020
4763 Clouds -1 1024 92 10000 1 0 09:37 17.12.2020
4764 Clouds 1 1023 71 10000 0.78 72 08:52 17.12.2020
4765 Clouds 1 1022 68 10000 0.75 66 07:44 17.12.2020
4766 Clouds 1 1022 71 10000 0.82 68 07:25 17.12.2020
4767 Clouds 1 1021 69 10000 0.82 68 06:49 17.12.2020
4768 Clouds 1 1021 67 10000 0.81 71 06:30 17.12.2020
4769 Clear 1 1021 72 10000 0.66 45 03:30 17.12.2020
4770 Clear 2 1020 74 10000 0.5 209 00:27 17.12.2020
4771 Clear 2 1020 74 10000 0.45 159 23:42 16.12.2020
4772 Clear 2 1020 71 10000 0.89 59 23:18 16.12.2020
4773 Clear 2 1020 75 10000 0.42 205 22:48 16.12.2020
4774 Clear 2 1020 77 10000 0.42 205 22:30 16.12.2020
4775 Clear 2 1019 75 10000 0.35 175 21:44 16.12.2020
4776 Clear 2 1019 78 10000 0.41 150 21:23 16.12.2020
4777 Clear 2 1019 77 10000 0.41 150 20:52 16.12.2020
4778 Clear 3 1019 78 10000 0.39 126 20:20 16.12.2020
4779 Clear 3 1019 76 10000 0.39 126 19:38 16.12.2020
4780 Clouds 3 1019 77 10000 0.49 146 19:18 16.12.2020
4781 Clear 4 1017 75 10000 1 0 18:49 16.12.2020
4782 Clear 5 1017 75 10000 1 0 18:25 16.12.2020
4783 Clear 7 1017 75 10000 1.5 220 17:38 16.12.2020
4784 Clear 7 1017 75 10000 1.5 220 17:38 16.12.2020
4785 Clear 8 1017 65 10000 1 0 16:56 16.12.2020
4786 Clear 7 1017 65 10000 0.5 0 16:36 16.12.2020
4787 Clear 8 1017 65 10000 1 0 16:18 16.12.2020
4788 Clear 7 1017 65 10000 1 0 15:46 16.12.2020
4789 Clear 6 1017 75 10000 1 0 15:18 16.12.2020
4790 Clear 7 1018 86 10000 0.5 0 14:44 16.12.2020
4791 Clear 6 1018 86 10000 0.5 0 14:26 16.12.2020
4792 Clouds 6 1018 93 10000 0.5 0 13:41 16.12.2020
4793 Clouds 6 1018 93 10000 0.5 0 13:20 16.12.2020
4794 Clouds 5 1019 100 10000 0.5 0 12:43 16.12.2020
4795 Clear 3 1017 65 10000 2.39 198 11:51 16.12.2020
4796 Clear 3 1018 75 10000 2.39 198 11:32 16.12.2020
4797 Clear 1 1017 73 10000 2.05 204 10:56 16.12.2020
4798 Clear 6 1005 67 10000 2.05 204 10:36 16.12.2020
4799 Clouds 1 1005 66 10000 1.38 197 09:56 16.12.2020
4800 Clear 1 1018 84 10000 0.69 167 09:32 16.12.2020
4801 Clear 1 1017 85 10000 1.05 181 08:23 16.12.2020
4802 Clear 1 1017 84 10000 1.05 181 07:45 16.12.2020
4803 Clouds 1 1016 85 10000 0.85 167 07:20 16.12.2020
4804 Clouds 1 1017 89 10000 0.77 194 03:37 16.12.2020
4805 Clouds 1 1016 88 10000 0.75 185 01:59 16.12.2020
4806 Clouds 3 1017 80 10000 0.91 214 23:50 15.12.2020
4807 Clouds 4 1017 82 10000 0.91 214 23:31 15.12.2020
4808 Clouds 3 1017 84 1106 1.95 214 22:41 15.12.2020
4809 Clouds 5 1017 82 1133 0.45 0 22:21 15.12.2020
4810 Clouds 5 1016 86 1133 1.52 190 21:47 15.12.2020
4811 Clouds 5 1016 87 1868 1.16 186 21:23 15.12.2020
4812 Clouds 5 1013 83 1868 1.16 186 20:46 15.12.2020
4813 Clouds 5 1016 89 1303 0.88 193 20:27 15.12.2020
4814 Clouds 4 1013 81 1303 0.88 193 19:55 15.12.2020
4815 Clouds 6 1018 48 1303 0.88 193 19:33 15.12.2020
4816 Clouds 6 1012 84 3380 0.15 203 18:42 15.12.2020
4817 Clouds 6 1012 85 647 0.59 244 18:22 15.12.2020
4818 Clouds 9 1018 41 647 0.59 244 17:58 15.12.2020
4819 Clouds 9 1018 39 647 0.59 244 17:40 15.12.2020
4820 Clouds 9 1018 38 3080 1.03 239 17:19 15.12.2020
4821 Clouds 10 1017 38 3080 1.03 239 16:32 15.12.2020
4822 Clouds 6 1011 72 10000 0.45 176 15:51 15.12.2020
4823 Clouds 7 1002 84 10000 1.73 213 15:30 15.12.2020
4824 Clouds 7 1003 84 10000 1.73 213 14:47 15.12.2020
4825 Clouds 7 1011 71 10000 0.89 146 14:21 15.12.2020
4826 Clouds 7 1011 72 10000 1.79 129 13:51 15.12.2020
4827 Clouds 7 1011 84 10000 2.03 213 13:32 15.12.2020
4828 Clouds 7 1011 73 5409 0.45 149 12:47 15.12.2020
4829 Clouds 6 1012 75 3358 0.45 160 12:22 15.12.2020
4830 Clouds 6 1004 86 3358 2.35 202 11:56 15.12.2020
4831 Clouds 6 1012 77 1445 1.34 167 11:26 15.12.2020
4832 Clouds 6 1012 76 1445 1.34 190 10:53 15.12.2020
4833 Clouds 6 1003 87 981 1.73 191 10:24 15.12.2020
4834 Clouds 5 1003 87 981 1.73 191 09:50 15.12.2020
4835 Clouds 4 1003 87 959 1.93 197 09:32 15.12.2020
4836 Clouds 4 1002 87 959 1.93 197 08:49 15.12.2020
4837 Clouds 4 1002 87 547 1.93 170 08:26 15.12.2020
4838 Clouds 5 1002 87 547 1.93 170 07:49 15.12.2020
4839 Clouds 4 1001 87 552 2.06 183 07:24 15.12.2020
4840 Clouds 4 1002 86 540 2 175 06:28 15.12.2020
4841 Clouds 5 1001 86 3101 2.12 193 02:55 15.12.2020
4842 Clouds 5 1001 85 10000 2.11 185 00:34 15.12.2020
4843 Clouds 5 1002 84 1100 2.33 178 23:26 14.12.2020
4844 Clouds 5 1001 84 1100 0.89 156 22:55 14.12.2020
4845 Clouds 5 1001 83 1100 2.33 178 22:32 14.12.2020
4846 Clouds 5 1012 85 1183 0.89 317 21:45 14.12.2020
4847 Clouds 4 1002 81 1195 2.23 168 21:22 14.12.2020
4848 Clouds 5 1002 81 1195 2.23 168 20:49 14.12.2020
4849 Clouds 5 1002 79 1447 2.58 191 20:29 14.12.2020
4850 Clouds 5 1002 75 1447 2.58 191 19:50 14.12.2020
4851 Clouds 6 1002 74 10000 2.57 212 19:28 14.12.2020
4852 Clouds 6 1002 70 10000 3.1 201 18:44 14.12.2020
4853 Clear 7 1012 70 10000 1 0 18:24 14.12.2020
4854 Clear 8 1012 70 10000 1 0 17:46 14.12.2020
4855 Clear 8 1012 70 10000 1 0 17:23 14.12.2020
4856 Clear 6 1012 70 10000 3.1 360 16:50 14.12.2020
4857 Clear 6 1012 70 10000 2.1 190 16:28 14.12.2020
4858 Rain 6 1013 70 10000 1.5 340 15:33 14.12.2020
4859 Clouds 7 1014 70 10000 1.5 110 14:54 14.12.2020
4860 Clear 7 1014 70 10000 0.5 0 14:36 14.12.2020
4861 Clear 6 1014 70 10000 0.5 0 14:18 14.12.2020
4862 Clear 6 1014 70 10000 3.22 199 13:39 14.12.2020
4863 Clear 6 1014 70 10000 1.46 162 13:18 14.12.2020
4864 Clear 7 1015 80 10000 1.5 50 12:44 14.12.2020
4865 Clear 7 1015 80 10000 1.5 50 12:23 14.12.2020
4866 Clear 4 1015 80 10000 1 0 11:31 14.12.2020
4867 Clear 2 1015 93 10000 1 0 10:30 14.12.2020
4868 Clear 2 1015 93 10000 2.1 30 09:58 14.12.2020
4869 Clear 2 1015 52 10000 1 50 09:25 14.12.2020
4870 Clouds 2 1004 75 10000 0.23 227 08:45 14.12.2020
4871 Clouds 2 1004 75 10000 0.45 155 08:26 14.12.2020
4872 Clouds 2 1004 76 10000 0.45 46 07:26 14.12.2020
4873 Clouds 2 1003 75 10000 0.29 181 06:44 14.12.2020
4874 Clouds 2 1004 77 10000 0.11 11 04:27 14.12.2020
4875 Clouds 2 1014 86 7303 0.89 66 02:25 14.12.2020
4876 Clouds 2 1014 92 7408 0.49 223 00:52 14.12.2020
4877 Clouds 3 1004 84 5371 0.73 214 00:30 14.12.2020
4878 Clouds 3 1014 90 10000 0.79 203 23:46 13.12.2020
4879 Clouds 3 1014 90 10000 0.91 192 23:20 13.12.2020
4880 Clouds 3 1005 86 10000 0.91 192 22:43 13.12.2020
4881 Clouds 3 1014 89 10000 0.69 142 22:18 13.12.2020
4882 Clouds 3 1014 89 10000 0.69 142 21:42 13.12.2020
4883 Clouds 3 1014 89 10000 0.73 162 21:19 13.12.2020
4884 Clouds 4 1014 88 10000 0.73 162 20:33 13.12.2020
4885 Clouds 4 1014 87 10000 0.88 109 19:50 13.12.2020
4886 Clouds 5 1014 83 10000 1 115 19:27 13.12.2020
4887 Clouds 5 1014 84 10000 0.9 129 18:57 13.12.2020
4888 Clear 5 1014 52 10000 1.5 230 18:39 13.12.2020
4889 Clear 6 1014 52 10000 1.5 230 18:19 13.12.2020
4890 Clear 6 1014 52 10000 1.5 230 17:45 13.12.2020
4891 Clear 5 1014 52 10000 1.5 230 17:18 13.12.2020
4892 Clear 6 1014 45 10000 1 0 16:53 13.12.2020
4893 Clear 7 1013 39 10000 0.5 0 16:34 13.12.2020
4894 Clear 7 1013 39 10000 1 0 15:48 13.12.2020
4895 Clear 7 1013 42 10000 1 0 15:27 13.12.2020
4896 Clear 7 1013 39 10000 1 0 14:48 13.12.2020
4897 Clouds 7 1013 45 10000 1 0 14:29 13.12.2020
4898 Clouds 7 1014 42 10000 0.5 0 13:56 13.12.2020
4899 Clouds 6 1014 48 10000 1 0 13:35 13.12.2020
4900 Clouds 6 1015 48 10000 0.5 0 12:57 13.12.2020
4901 Clouds 6 1015 52 10000 1.28 345 12:25 13.12.2020
4902 Clouds 5 1015 56 10000 0.5 0 11:58 13.12.2020
4903 Clouds 4 1015 59 10000 1.5 100 11:32 13.12.2020
4904 Clouds 3 1015 74 10000 0.5 0 10:45 13.12.2020
4905 Clouds 3 1015 74 10000 0.5 0 10:21 13.12.2020
4906 Clouds 3 1014 69 10000 0.5 0 09:46 13.12.2020
4907 Clouds 0 1002 80 10000 0.89 10 08:48 13.12.2020
4908 Clouds 2 1015 66 10000 0.45 95 08:30 13.12.2020
4909 Clear 0 1018 76 10000 3.28 14 07:20 13.12.2020
4910 Clear 0 1013 66 10000 3.81 9 02:44 13.12.2020
4911 Clear 1 1012 66 10000 0.45 43 02:20 13.12.2020
4912 Clear 1 1018 57 10000 3.8 11 01:34 13.12.2020
4913 Clouds 2 1018 64 10000 4.19 9 00:44 13.12.2020
4914 Clouds 0 1000 69 10000 2.24 359 23:37 12.12.2020
4915 Clouds 1 1000 82 10000 0.89 359 23:19 12.12.2020
4916 Clouds 0 1000 89 10000 0.89 51 22:29 12.12.2020
4917 Clouds 0 1000 85 10000 1.34 1 21:46 12.12.2020
4918 Clouds 0 1000 88 10000 1.79 14 21:19 12.12.2020
4919 Clouds 0 999 89 10000 5.25 2 20:44 12.12.2020
4920 Clouds 0 999 89 10000 5.27 1 20:21 12.12.2020
4921 Clouds 0 999 90 10000 1.34 359 19:51 12.12.2020
4922 Clouds 0 1000 85 10000 0.45 24 19:33 12.12.2020
4923 Clouds 0 1000 85 10000 0.45 24 19:33 12.12.2020
4924 Clouds 0 1000 93 10000 1.79 39 18:55 12.12.2020
4925 Clouds 3 1008 45 10000 1 0 18:36 12.12.2020
4926 Clouds 3 1008 45 10000 1 0 18:18 12.12.2020
4927 Clouds 3 1008 45 10000 1 0 17:40 12.12.2020
4928 Clouds 2 1008 43 10000 2.6 0 16:30 12.12.2020
4929 Clouds 2 1008 43 10000 6.2 300 15:53 12.12.2020
4930 Clouds 3 1007 46 10000 4.6 0 15:35 12.12.2020
4931 Clouds 3 1007 72 10000 3.1 300 14:53 12.12.2020
4932 Clouds 3 1007 57 10000 3.1 320 14:21 12.12.2020
4933 Clouds 2 1007 81 10000 1.5 0 13:40 12.12.2020
4934 Snow 2 1007 81 10000 1.5 0 13:22 12.12.2020
4935 Fog 0 1007 93 10000 2.6 10 12:32 12.12.2020
4936 Fog 0 1007 100 6000 1 0 11:18 12.12.2020
4937 Rain 1 1006 100 200 1.5 70 10:42 12.12.2020
4938 Snow 1 1006 100 200 1 0 09:20 12.12.2020
4939 Snow 1 990 95 134 0.45 6 07:26 12.12.2020
4940 Clouds 3 1004 87 10000 3.02 352 00:50 12.12.2020
4941 Clouds 3 1004 87 10000 2.56 355 23:19 11.12.2020
4942 Clouds 4 1004 92 111 2.15 2 20:55 11.12.2020
4943 Clouds 3 991 95 1314 0.45 35 19:31 11.12.2020
4944 Clouds 4 1002 75 10000 2.6 230 16:45 11.12.2020
4945 Clouds 4 1003 75 10000 1.5 10 14:29 11.12.2020
4946 Clouds 4 1003 80 10000 1.5 0 13:26 11.12.2020
4947 Fog 3 1005 93 10000 1.5 0 12:22 11.12.2020
4948 Fog 3 1005 86 10000 1 0 11:52 11.12.2020
4949 Fog 2 1005 93 10000 1.5 50 11:24 11.12.2020
4950 Fog 1 1005 100 10000 1.5 20 09:58 11.12.2020
4951 Snow 0 991 86 5372 1.88 208 06:26 11.12.2020
4952 Clouds 0 992 82 10000 0.88 211 05:20 11.12.2020
4953 Clouds 0 995 85 10000 0.38 159 02:40 11.12.2020
4954 Clouds 0 1011 90 10000 0.93 16 00:39 11.12.2020
4955 Clouds -1 1010 91 10000 2.02 357 22:57 10.12.2020
4956 Clouds -1 1010 86 10000 2.11 3 21:37 10.12.2020
4957 Clouds 0 1010 88 10000 2.15 356 20:49 10.12.2020
4958 Clouds 0 1010 95 10000 3.29 5 19:49 10.12.2020
4959 Snow 0 1009 95 299 2.31 353 19:21 10.12.2020
4960 Clouds -1 993 95 414 2.34 350 18:44 10.12.2020
4961 Clouds 2 1004 57 10000 5.7 310 16:56 10.12.2020
4962 Clouds 3 1004 71 10000 1.5 0 15:51 10.12.2020
4963 Clouds 3 1003 45 10000 1.5 0 14:58 10.12.2020
4964 Clouds 3 1003 49 10000 1 0 14:38 10.12.2020
4965 Clouds 3 1004 52 10000 1.5 160 13:25 10.12.2020
4966 Clouds 1 1005 60 10000 1.5 0 11:48 10.12.2020
4967 Clouds -2 1005 74 10000 1.5 320 09:33 10.12.2020
4968 Snow -1 991 95 350 1.79 30 08:19 10.12.2020
4969 Clouds 0 991 94 314 1.54 339 06:51 10.12.2020
4970 Clouds -2 993 79 10000 0.21 189 03:55 10.12.2020
4971 Clouds -1 1011 58 10000 0.49 21 02:24 10.12.2020
4972 Clouds -1 1013 42 10000 1.53 21 00:28 10.12.2020
4973 Clouds -2 997 84 10000 1.79 17 23:22 09.12.2020
4974 Clouds -1 998 80 10000 0.45 356 20:37 09.12.2020
4975 Clouds -1 997 82 10000 1.34 1 19:37 09.12.2020
4976 Clouds 0 997 78 10000 0.89 31 17:53 09.12.2020
4977 Clouds 1 1016 39 10000 3.44 360 16:52 09.12.2020
4978 Clouds 1 1013 47 10000 0.89 337 16:24 09.12.2020
4979 Clouds 2 997 76 10000 0.89 291 15:37 09.12.2020
4980 Clouds 1 997 89 10000 0.45 6 14:43 09.12.2020
4981 Clouds 1 1012 58 10000 0.45 156 14:23 09.12.2020
4982 Clouds 1 1013 56 10000 0.89 84 13:19 09.12.2020
4983 Clouds 1 1013 55 10000 0.89 11 12:45 09.12.2020
4984 Clouds 0 1014 55 10000 0.89 248 11:53 09.12.2020
4985 Clouds -1 997 86 10000 0.45 359 10:59 09.12.2020
4986 Clouds -2 1013 65 10000 0.45 322 09:38 09.12.2020
4987 Clouds -3 995 94 10000 1.34 18 07:57 09.12.2020
4988 Snow -2 1014 74 2372 1.34 307 05:55 09.12.2020
4989 Snow -3 993 94 3245 3.25 354 03:54 09.12.2020
4990 Clouds -3 993 93 10000 0.89 20 01:56 09.12.2020
4991 Snow -2 993 91 10000 1.34 34 23:44 08.12.2020
4992 Clouds -2 993 93 9216 0.45 17 22:56 08.12.2020
4993 Clouds -2 992 88 10000 1.34 34 21:28 08.12.2020
4994 Clouds -1 1011 21 10000 3.63 356 19:34 08.12.2020
4995 Clouds -3 991 88 10000 1.34 39 18:59 08.12.2020
4996 Clouds -7 991 86 10000 0.89 1 17:55 08.12.2020
4997 Clouds 1 989 82 10000 0.45 1 15:45 08.12.2020
4998 Clouds 0 1004 65 10000 0.45 284 14:26 08.12.2020
4999 Snow 0 1004 78 10000 4.8 339 13:24 08.12.2020
5000 Snow 0 1003 82 4853 3.56 339 12:26 08.12.2020
5001 Clouds 0 1002 85 4853 3.56 339 11:42 08.12.2020
5002 Clouds -1 1001 89 10000 3.5 348 10:45 08.12.2020
5003 Clouds -1 1001 91 10000 2.79 357 10:19 08.12.2020
5004 Snow -1 984 91 4595 2.28 356 08:28 08.12.2020
5005 Snow 0 1001 87 248 0.79 262 06:36 08.12.2020
5006 Snow 0 1001 80 2248 0.89 221 03:29 08.12.2020
5007 Snow 0 1000 95 803 1.11 119 00:46 08.12.2020
5008 Snow 0 1001 94 592 0.87 99 23:51 07.12.2020
5009 Snow 1 1000 94 562 1.07 50 22:37 07.12.2020
5010 Snow 1 1001 93 686 0.97 76 21:50 07.12.2020
5011 Snow 0 1001 90 261 0.17 199 19:51 07.12.2020
5012 Snow 2 1000 64 10000 1 0 18:29 07.12.2020
5013 Clouds 2 1000 64 10000 1 0 17:26 07.12.2020
5014 Clouds 3 1000 60 10000 0.5 0 16:52 07.12.2020
5015 Snow 2 1000 64 10000 0.5 0 15:26 07.12.2020
5016 Clouds 1 1001 69 10000 2.13 225 14:44 07.12.2020
5017 Clouds 0 1001 74 10000 0.5 0 13:44 07.12.2020
5018 Clouds 0 1002 74 10000 1.74 222 12:35 07.12.2020
5019 Clouds -1 1003 77 10000 1 0 11:43 07.12.2020
5020 Clouds -1 1003 86 10000 0.5 0 10:44 07.12.2020
5021 Clouds -2 1003 86 10000 0.83 196 09:40 07.12.2020
5022 Clouds -2 1005 74 10000 0.54 153 07:58 07.12.2020
5023 Clouds -2 1006 71 10000 0.54 207 05:43 07.12.2020
5024 Clouds -2 1006 69 10000 0.6 66 04:46 07.12.2020
5025 Clear -1 1007 65 10000 1.47 20 01:47 07.12.2020
5026 Clouds 0 1006 83 10000 1.59 8 22:53 06.12.2020
5027 Clouds 0 1006 80 10000 1.4 5 22:19 06.12.2020
5028 Clouds 1 1007 63 8785 1.92 8 20:52 06.12.2020
5029 Clouds 0 1004 61 8785 0.89 1 20:34 06.12.2020
5030 Clouds 1 1005 64 10000 2.03 19 19:43 06.12.2020
5031 Clouds 4 1002 60 10000 3.1 240 17:54 06.12.2020
5032 Clouds 6 1001 56 10000 4.6 240 16:39 06.12.2020
5033 Clouds 2 1001 60 10000 3.1 220 14:50 06.12.2020
5034 Clouds 0 1001 69 10000 1 0 13:30 06.12.2020
5035 Clouds 0 1002 69 10000 0.5 0 12:35 06.12.2020
5036 Clouds -1 1002 74 10000 1 0 11:53 06.12.2020
5037 Clouds -1 1002 70 10000 1 0 11:25 06.12.2020
5038 Clouds -3 1002 92 10000 1.5 20 10:36 06.12.2020
5039 Clouds -1 1002 92 10000 0.5 0 09:31 06.12.2020
5040 Clouds -2 1004 80 10000 2.11 1 07:41 06.12.2020
5041 Clouds -2 985 83 10000 1.91 10 04:51 06.12.2020
5042 Snow -2 1002 92 10000 1.81 5 00:46 06.12.2020
5043 Snow -2 1002 91 10000 1.99 358 00:26 06.12.2020
5044 Snow -2 1002 91 10000 1.99 358 23:56 05.12.2020
5045 Snow -2 1001 91 196 1.65 1 22:25 05.12.2020
5046 Snow -2 1001 92 196 1.65 1 21:55 05.12.2020
5047 Snow -1 1001 92 3418 1.62 351 21:30 05.12.2020
5048 Clouds -1 1001 87 10000 0.92 329 19:54 05.12.2020
5049 Clouds 1 1001 41 10000 0.1 127 18:46 05.12.2020
5050 Clouds 3 997 55 10000 2.1 210 17:51 05.12.2020
5051 Clouds 2 997 55 10000 2.1 230 16:45 05.12.2020
5052 Clouds 1 997 52 10000 4.1 200 16:25 05.12.2020
5053 Clouds 2 996 44 10000 2.1 220 14:39 05.12.2020
5054 Clear -1 997 63 10000 2.1 140 12:36 05.12.2020
5055 Clear -1 997 65 10000 1.5 0 11:50 05.12.2020
5056 Clear -2 997 92 10000 1 0 10:35 05.12.2020
5057 Clouds -4 998 82 10000 0.89 7 08:40 05.12.2020
5058 Clouds -4 1001 69 10000 2.28 30 07:47 05.12.2020
5059 Clouds -4 999 68 10000 2.19 41 05:33 05.12.2020
5060 Clouds -3 995 84 10000 1.38 35 23:59 04.12.2020
5061 Clouds -3 994 82 10000 0.77 10 23:20 04.12.2020
5062 Clouds -2 992 80 10000 0.11 63 20:39 04.12.2020
5063 Snow 0 991 76 973 0.96 193 18:54 04.12.2020
5064 Snow 1 990 60 10000 4.6 220 18:28 04.12.2020
5065 Clouds 3 990 60 10000 4.6 220 17:41 04.12.2020
5066 Clouds 3 989 52 10000 3.1 200 15:54 04.12.2020
5067 Snow 0 989 52 10000 4.6 240 15:20 04.12.2020
5068 Snow 1 989 52 10000 5.1 210 13:35 04.12.2020
5069 Clouds 2 989 56 10000 5.7 220 12:55 04.12.2020
5070 Snow 2 990 70 10000 6.2 210 12:19 04.12.2020
5071 Fog 1 991 93 10000 3.1 210 10:35 04.12.2020
5072 Snow 2 991 93 8000 2.1 60 08:29 04.12.2020
5073 Clouds 2 995 38 120 2.24 245 06:40 04.12.2020
5074 Clouds 2 995 29 677 2.24 208 04:52 04.12.2020
5075 Clouds 2 997 44 1553 2.81 207 00:24 04.12.2020
5076 Clouds 2 998 44 1294 2.58 202 22:47 03.12.2020
5077 Clouds 2 1000 42 10000 2.08 210 21:20 03.12.2020
5078 Clouds 2 1001 45 10000 2.08 210 20:39 03.12.2020
5079 Clouds 2 1003 61 10000 1.74 210 19:21 03.12.2020
5080 Clouds 4 1002 38 10000 1.74 210 18:40 03.12.2020
5081 Clear 3 1003 56 10000 2.1 240 17:21 03.12.2020
5082 Clear 4 1005 45 10000 0.5 0 15:59 03.12.2020
5083 Clear 3 1005 48 10000 1.5 200 15:32 03.12.2020
5084 Clear 4 1006 45 10000 1.5 230 14:48 03.12.2020
5085 Clear 3 1007 52 10000 1.5 0 13:51 03.12.2020
5086 Clear 2 1009 51 10000 1.5 50 12:33 03.12.2020
5087 Clear 2 1010 51 10000 0.5 0 11:59 03.12.2020
5088 Clear 2 1011 74 10000 1.5 320 10:38 03.12.2020
5089 Clouds -2 998 76 10000 2.97 17 08:38 03.12.2020
5090 Clouds -3 999 70 10000 0.45 35 03:42 03.12.2020
5091 Clear -3 1000 87 10000 3.86 9 01:41 03.12.2020
5092 Clouds -2 1015 70 10000 3.52 10 23:51 02.12.2020
5093 Clouds -2 1016 68 10000 3.64 4 22:41 02.12.2020
5094 Clouds -3 1001 93 10000 0.45 3 21:37 02.12.2020
5095 Clouds -2 1001 93 10000 0.45 17 20:49 02.12.2020
5096 Clouds -3 1001 93 10000 0.45 359 20:30 02.12.2020
5097 Clouds -3 1000 93 10000 0.89 39 19:39 02.12.2020
5098 Clouds -3 1000 92 10000 4.62 3 17:48 02.12.2020
5099 Clouds 0 1000 93 10000 0.45 333 17:29 02.12.2020
5100 Clouds 1 999 86 10000 0.45 353 15:43 02.12.2020
5101 Snow -1 1013 55 10000 1.79 276 13:20 02.12.2020
5102 Clouds -1 1000 88 10000 4.51 358 11:30 02.12.2020
5103 Clouds -2 1014 58 10000 1.79 149 10:24 02.12.2020
5104 Clouds -3 999 91 10000 4.18 3 07:42 02.12.2020
5105 Snow 1 1012 73 248 2.42 346 23:22 01.12.2020
5106 Clouds 2 1013 78 180 2.18 329 22:20 01.12.2020
5107 Clouds 2 1015 82 4171 2.45 342 19:36 01.12.2020
5108 Clouds 2 1015 83 10000 2.86 349 18:55 01.12.2020
5109 Clouds 4 1016 72 10000 2.91 350 16:47 01.12.2020
5110 Clouds 5 1017 55 10000 2.98 349 14:34 01.12.2020
5111 Clouds 4 1019 43 10000 2.97 351 12:31 01.12.2020
5112 Clouds 4 1010 45 10000 3.41 357 11:28 01.12.2020
5113 Clouds 3 1020 43 10000 3.41 357 10:46 01.12.2020
5114 Clouds 3 1010 55 10000 0.89 34 10:25 01.12.2020
5115 Clouds 2 1012 44 10000 3.99 12 07:26 01.12.2020
5116 Clouds 1 1023 66 10000 0.45 77 02:41 01.12.2020
5117 Clear 2 1023 63 10000 3.01 18 00:57 01.12.2020
5118 Clear 3 1023 66 10000 2.64 18 23:22 30.11.2020
5119 Clear 3 1023 67 10000 2.64 18 22:45 30.11.2020
5120 Clear 3 1023 68 10000 2.59 20 22:26 30.11.2020
5121 Clear 3 1024 66 10000 1.79 52 21:56 30.11.2020
5122 Clear 5 1014 68 10000 2.6 21 19:45 30.11.2020
5123 Clear 6 1022 71 10000 1.5 290 18:40 30.11.2020
5124 Clear 6 1022 71 10000 1.5 290 18:20 30.11.2020
5125 Clear 6 1022 71 10000 1.5 290 17:42 30.11.2020
5126 Clear 8 1022 58 10000 1 0 16:44 30.11.2020
5127 Clear 11 1023 66 10000 0.5 0 14:47 30.11.2020
5128 Clear 11 1023 66 10000 0.5 0 13:55 30.11.2020
5129 Clear 11 1024 87 10000 1 0 12:35 30.11.2020
5130 Fog 9 1025 93 10000 0.64 328 11:59 30.11.2020
5131 Fog 5 1025 100 1200 1.5 40 10:31 30.11.2020
5132 Fog 3 1025 100 2000 1.5 40 09:52 30.11.2020
5133 Clear 1 1012 78 10000 2.5 24 07:44 30.11.2020
5134 Clear 2 1020 90 10000 1.9 20 01:19 30.11.2020
5135 Clear 4 1019 87 10000 1.83 24 22:20 29.11.2020
5136 Clear 4 1010 83 10000 1.83 24 21:43 29.11.2020
5137 Clear 4 1010 83 10000 1.91 23 21:25 29.11.2020
5138 Clouds 7 1017 71 10000 2.1 280 17:48 29.11.2020
5139 Clouds 7 1016 66 10000 2.1 220 16:57 29.11.2020
5140 Clouds 12 1017 87 10000 0.5 0 13:24 29.11.2020
5141 Fog 10 1018 100 10000 1.38 231 12:27 29.11.2020
5142 Fog 8 1018 100 150 1.12 212 10:54 29.11.2020
5143 Clear 2 1005 82 10000 1.49 40 08:39 29.11.2020
5144 Clouds 3 1014 96 10000 0.89 48 06:33 29.11.2020
5145 Clouds 5 1002 84 10000 1.15 54 00:30 29.11.2020
5146 Clouds 5 1001 84 4911 2.31 39 22:57 28.11.2020
5147 Clouds 5 1010 92 4773 2.08 32 20:50 28.11.2020
5148 Clouds 5 1009 91 10000 1.79 34 19:51 28.11.2020
5149 Clouds 5 1009 91 10000 1.66 39 19:24 28.11.2020
5150 Clouds 5 1008 92 10000 1.66 39 18:51 28.11.2020
5151 Clouds 6 1008 71 10000 1.52 31 17:48 28.11.2020
5152 Clouds 6 1007 76 10000 1.5 10 16:44 28.11.2020
5153 Clouds 6 1007 81 10000 1 0 14:56 28.11.2020
5154 Clouds 5 1008 87 10000 3.6 40 13:18 28.11.2020
5155 Fog 4 1008 93 7000 1 0 10:46 28.11.2020
5156 Clouds 3 996 80 10000 1.85 54 06:42 28.11.2020
5157 Clouds 3 997 80 5399 1.39 90 03:32 28.11.2020
5158 Clouds 5 998 81 8011 1.25 106 01:50 28.11.2020
5159 Clouds 5 1000 78 10000 1.45 110 22:56 27.11.2020
5160 Clouds 6 1010 82 6342 1.64 109 21:33 27.11.2020
5161 Clouds 6 1010 81 6436 1.7 108 20:31 27.11.2020
5162 Clouds 6 1010 80 10000 1.66 96 19:25 27.11.2020
5163 Clouds 7 1001 81 10000 1.68 97 18:44 27.11.2020
5164 Clouds 6 1013 93 10000 1 0 14:47 27.11.2020
5165 Fog 6 1015 93 10000 0.5 0 13:26 27.11.2020
5166 Fog 6 1016 100 9000 1.5 70 12:47 27.11.2020
5167 Fog 5 1016 100 10000 0.5 0 11:47 27.11.2020
5168 Fog 5 1016 93 10000 1.63 137 10:50 27.11.2020
5169 Fog 4 1017 93 10000 0.72 98 09:57 27.11.2020
5170 Clouds 4 1006 78 4122 0.37 169 07:26 27.11.2020
5171 Clouds 5 1018 92 585 1.7 167 22:28 26.11.2020
5172 Clouds 6 1018 91 585 1.7 167 21:56 26.11.2020
5173 Clouds 6 1018 93 963 1.81 180 20:52 26.11.2020
5174 Clouds 7 1007 83 1236 1.5 164 18:42 26.11.2020
5175 Clouds 6 1018 93 10000 1.58 181 17:51 26.11.2020
5176 Clouds 6 1018 87 10000 1 80 14:50 26.11.2020
5177 Clouds 6 1019 87 10000 1 0 13:41 26.11.2020
5178 Clouds 6 1020 87 10000 2.1 90 12:42 26.11.2020
5179 Fog 5 1020 93 10000 1 0 11:36 26.11.2020
5180 Fog 4 1019 100 10000 1 0 10:33 26.11.2020
5181 Fog 4 1019 93 6000 1.5 0 09:41 26.11.2020
5182 Fog 4 1019 93 6000 1.5 0 09:21 26.11.2020
5183 Clouds 4 1007 81 10000 1.7 159 08:38 26.11.2020
5184 Clouds 3 1005 76 2972 1.31 162 02:19 26.11.2020
5185 Clouds 5 1005 73 1065 2.17 175 22:32 25.11.2020
5186 Clouds 6 1017 17 1049 2.13 180 20:38 25.11.2020
5187 Clouds 6 1017 20 1825 2.03 181 19:44 25.11.2020
5188 Clouds 7 1016 20 8245 1.2 178 18:23 25.11.2020
5189 Clear 9 1016 66 10000 0.89 146 15:56 25.11.2020
5190 Clear 9 1016 63 10000 1.34 174 15:35 25.11.2020
5191 Clear 9 1017 57 10000 3.09 203 13:47 25.11.2020
5192 Clear 9 1017 55 10000 1.34 196 13:29 25.11.2020
5193 Clouds 7 1006 46 10000 1.34 201 11:27 25.11.2020
5194 Clouds 2 1006 38 10000 0.89 156 09:23 25.11.2020
5195 Clouds 1 1006 37 10000 0.45 201 08:51 25.11.2020
5196 Clouds 1 1019 88 10000 1.34 55 08:29 25.11.2020
5197 Clouds 2 1018 76 10000 0.62 179 03:55 25.11.2020
5198 Clouds 0 1018 75 10000 0.45 62 01:50 25.11.2020
5199 Clouds 2 1019 63 10000 0.66 171 00:22 25.11.2020
5200 Clouds 3 1019 62 10000 0.66 171 23:36 24.11.2020
5201 Clouds 3 1019 58 10000 0.78 187 22:52 24.11.2020
5202 Clouds 3 1019 57 10000 0.44 170 21:50 24.11.2020
5203 Clouds 3 1019 56 10000 0.25 154 21:27 24.11.2020
5204 Clouds 4 1019 54 10000 0.2 92 20:19 24.11.2020
5205 Clouds 8 1019 47 10000 0.24 246 17:54 24.11.2020
5206 Clouds 8 1019 45 10000 1.16 217 17:28 24.11.2020
5207 Clouds 10 1010 48 10000 1.16 217 16:38 24.11.2020
5208 Clouds 10 1010 48 10000 1.16 217 16:38 24.11.2020
5209 Clouds 11 1019 38 10000 1.86 217 15:56 24.11.2020
5210 Clouds 11 1019 37 10000 2.04 219 15:20 24.11.2020
5211 Clouds 11 1011 50 10000 2.04 219 14:45 24.11.2020
5212 Clouds 13 1021 36 10000 2.36 217 13:56 24.11.2020
5213 Clouds 13 1022 37 10000 2.48 213 12:42 24.11.2020
5214 Clouds 13 1023 37 10000 2.31 204 12:21 24.11.2020
5215 Clouds 12 1024 40 10000 2.31 204 11:34 24.11.2020
5216 Clouds 7 1024 43 10000 1.4 188 10:25 24.11.2020
5217 Clouds 3 1014 51 10000 1.79 210 09:42 24.11.2020
5218 Clouds 4 1024 40 10000 0.77 160 09:21 24.11.2020
5219 Clouds 3 1014 55 10000 0.89 176 06:50 24.11.2020
5220 Clouds 3 1015 57 10000 0.58 80 03:59 24.11.2020
5221 Clouds 4 1026 44 10000 1.75 40 22:25 23.11.2020
5222 Clouds 4 1026 44 10000 1.75 40 21:33 23.11.2020
5223 Clouds 4 1026 46 10000 2.13 34 20:36 23.11.2020
5224 Clouds 5 1025 45 10000 2.07 32 20:18 23.11.2020
5225 Clear 8 1026 43 10000 2.1 250 17:58 23.11.2020
5226 Clear 8 1026 43 10000 2.1 250 17:19 23.11.2020
5227 Clear 10 1026 32 10000 1 0 15:44 23.11.2020
5228 Clear 10 1027 32 10000 1 0 14:46 23.11.2020
5229 Clear 11 1029 52 10000 1 0 12:42 23.11.2020
5230 Clear 11 1029 52 10000 1 0 12:21 23.11.2020
5231 Clear 9 1030 64 10000 0.5 0 11:43 23.11.2020
5232 Clear 7 1029 69 10000 1.5 70 10:45 23.11.2020
5233 Clear 3 1029 48 10000 0.5 90 09:31 23.11.2020
5234 Clear 3 1018 43 10000 1.61 37 08:37 23.11.2020
5235 Clear 3 1018 33 10000 1.67 29 06:57 23.11.2020
5236 Clear 4 1027 38 10000 0.83 63 00:21 23.11.2020
5237 Clear 4 1027 39 10000 1.24 46 22:44 22.11.2020
5238 Clear 5 1027 37 10000 1.94 40 21:26 22.11.2020
5239 Clear 5 1027 40 10000 1.94 40 20:43 22.11.2020
5240 Clear 5 1027 39 10000 2.25 34 19:51 22.11.2020
5241 Clear 8 1026 40 10000 2.1 240 18:39 22.11.2020
5242 Clear 12 1026 34 10000 2.1 210 16:36 22.11.2020
5243 Clear 10 1026 32 10000 2.1 220 15:28 22.11.2020
5244 Clear 13 1027 33 10000 1 0 13:44 22.11.2020
5245 Clear 12 1028 35 10000 1 0 12:43 22.11.2020
5246 Clear 10 1029 44 10000 0.5 0 11:55 22.11.2020
5247 Clear 8 1029 44 10000 0.5 0 11:55 22.11.2020
5248 Clear 2 1029 51 10000 1.5 70 10:55 22.11.2020
5249 Clear 1 1029 64 10000 1 0 10:36 22.11.2020
5250 Clear 3 1019 18 10000 2.43 29 07:43 22.11.2020
5251 Clear 3 1028 36 10000 1.03 26 01:47 22.11.2020
5252 Clouds 3 1028 37 10000 1.49 33 22:52 21.11.2020
5253 Clouds 3 1028 37 10000 1.87 36 21:32 21.11.2020
5254 Clouds 4 1028 36 10000 2.09 38 20:54 21.11.2020
5255 Clouds 4 1028 38 10000 2.26 34 20:28 21.11.2020
5256 Clouds 3 1029 25 10000 1.34 18 19:50 21.11.2020
5257 Clouds 4 1029 27 10000 1.34 53 19:20 21.11.2020
5258 Clear 7 1028 34 10000 4.1 250 17:54 21.11.2020
5259 Clear 10 1028 32 10000 3.6 220 16:47 21.11.2020
5260 Clear 9 1028 23 10000 1 0 15:43 21.11.2020
5261 Clear 10 1028 23 10000 1 0 15:21 21.11.2020
5262 Clear 9 1028 20 10000 2.1 230 14:42 21.11.2020
5263 Clear 11 1029 30 10000 1 0 12:59 21.11.2020
5264 Clear 11 1030 33 10000 0.5 0 12:23 21.11.2020
5265 Clear 8 1030 33 10000 0.5 0 11:50 21.11.2020
5266 Clear 3 1030 47 10000 1 0 10:28 21.11.2020
5267 Clear 1 1030 54 10000 3.36 22 09:19 21.11.2020
5268 Clear 0 1018 34 10000 3.36 22 08:44 21.11.2020
5269 Clear 0 1017 13 10000 3.73 17 05:42 21.11.2020
5270 Clear 1 1017 13 10000 2.24 7 03:28 21.11.2020
5271 Clear 0 1018 12 10000 2.24 20 00:22 21.11.2020
5272 Clear 0 1018 19 10000 2.24 10 22:59 20.11.2020
5273 Clear 0 1018 18 10000 2.24 359 21:45 20.11.2020
5274 Clear 1 1018 23 10000 1.79 359 21:21 20.11.2020
5275 Clear 1 1034 39 10000 4.49 14 21:21 20.11.2020
5276 Clear 1 1017 33 10000 3.13 359 19:55 20.11.2020
5277 Clear -3 1018 39 10000 1.79 55 18:55 20.11.2020
5278 Clear 5 1026 5 10000 3.6 20 18:27 20.11.2020
5279 Clear 6 1026 5 10000 3.6 20 17:30 20.11.2020
5280 Clear 6 1026 7 10000 3.6 60 16:47 20.11.2020
5281 Clear 8 1026 8 10000 2.6 50 15:59 20.11.2020
5282 Clear 8 1026 6 10000 1.5 0 15:39 20.11.2020
5283 Clear 11 1027 5 10000 4.6 60 13:51 20.11.2020
5284 Clear 11 1027 5 10000 2.1 0 13:19 20.11.2020
5285 Clear 11 1028 12 10000 2.1 170 12:40 20.11.2020
5286 Clear 10 1028 10 10000 1.5 160 11:48 20.11.2020
5287 Clear 6 1029 16 10000 1.5 90 11:21 20.11.2020
5288 Clear 3 1030 12 10000 2.6 10 09:45 20.11.2020
5289 Clouds 0 1028 33 10000 0.45 225 08:27 20.11.2020
5290 Clouds 0 1036 50 10000 4.72 6 07:34 20.11.2020
5291 Clouds 3 1020 64 10000 1.34 191 03:45 20.11.2020
5292 Clouds 3 1030 67 10000 0.45 99 23:25 19.11.2020
5293 Clouds 4 1030 58 10000 4.06 3 22:27 19.11.2020
5294 Clouds 4 1022 94 10000 1.34 42 21:49 19.11.2020
5295 Clouds 5 1028 59 10000 3.93 2 20:34 19.11.2020
5296 Clouds 6 1021 64 10000 1.79 262 19:54 19.11.2020
5297 Clouds 6 1028 62 10000 4.42 356 19:25 19.11.2020
5298 Clouds 10 1029 42 10000 5.1 310 17:46 19.11.2020
5299 Clouds 10 1028 42 10000 6.2 300 16:58 19.11.2020
5300 Clouds 11 1028 48 10000 3.1 260 15:41 19.11.2020
5301 Clouds 12 1028 48 10000 3.1 260 15:23 19.11.2020
5302 Clouds 11 1029 58 10000 1 0 13:46 19.11.2020
5303 Clouds 11 1031 62 10000 1 0 13:20 19.11.2020
5304 Clouds 10 1031 76 10000 1.5 210 12:40 19.11.2020
5305 Clouds 10 1031 76 10000 1.5 210 12:19 19.11.2020
5306 Clouds 10 1032 76 10000 0.5 0 11:36 19.11.2020
5307 Clouds 9 1033 81 10000 0.5 0 10:54 19.11.2020
5308 Fog 8 1033 86 10000 1.5 50 10:19 19.11.2020
5309 Fog 7 1033 86 10000 1.5 50 09:44 19.11.2020
5310 Fog 6 1033 100 10000 1.5 40 09:24 19.11.2020
5311 Fog 6 1033 100 10000 1.5 40 09:24 19.11.2020
5312 Clouds 5 1024 81 10000 1.34 21 08:19 19.11.2020
5313 Clear 6 1028 76 10000 0.45 97 05:41 19.11.2020
5314 Clear 7 1027 68 10000 2.95 21 01:45 19.11.2020
5315 Clear 7 1027 71 10000 2.2 19 23:53 18.11.2020
5316 Clear 7 1028 71 10000 2.04 24 23:24 18.11.2020
5317 Clear 8 1027 69 10000 0.45 51 22:36 18.11.2020
5318 Clear 8 1027 73 10000 2.23 25 22:18 18.11.2020
5319 Clear 8 1027 72 10000 2.23 25 21:38 18.11.2020
5320 Clear 9 1027 71 10000 2.49 25 21:19 18.11.2020
5321 Clear 10 1026 71 10000 2.63 25 19:47 18.11.2020
5322 Clear 10 1026 71 10000 2.47 25 19:25 18.11.2020
5323 Clear 11 1026 70 10000 2.47 25 18:49 18.11.2020
5324 Clear 11 1025 66 10000 2.34 26 17:55 18.11.2020
5325 Clear 12 1025 66 10000 2.34 26 17:35 18.11.2020
5326 Clear 15 1024 51 10000 0.63 353 16:22 18.11.2020
5327 Clear 17 1024 52 10000 0.28 286 14:49 18.11.2020
5328 Clear 17 1024 52 10000 0.61 246 14:29 18.11.2020
5329 Clear 16 1024 54 10000 0.61 246 13:42 18.11.2020
5330 Clear 17 1025 52 10000 0.67 218 12:47 18.11.2020
5331 Clear 16 1025 57 10000 0.63 213 12:18 18.11.2020
5332 Clear 15 1026 58 10000 0.33 246 11:27 18.11.2020
5333 Clear 13 1026 64 10000 0.33 246 10:31 18.11.2020
5334 Clear 6 1026 74 10000 1.44 28 08:52 18.11.2020
5335 Clear 7 1020 61 10000 2.24 184 07:37 18.11.2020
5336 Clear 6 1020 66 10000 2.68 224 06:29 18.11.2020
5337 Clouds 7 1026 67 10000 0.23 74 00:22 18.11.2020
5338 Clouds 8 1026 68 10000 0.23 74 23:30 17.11.2020
5339 Clouds 8 1026 66 10000 0.26 108 22:46 17.11.2020
5340 Clouds 7 1021 70 10000 2.24 208 22:27 17.11.2020
5341 Clouds 7 1026 65 10000 0.35 113 21:49 17.11.2020
5342 Clouds 8 1026 64 10000 0.31 98 21:28 17.11.2020
5343 Clouds 8 1020 70 10000 0.45 232 20:43 17.11.2020
5344 Clouds 8 1026 65 10000 0.48 57 20:23 17.11.2020
5345 Clouds 8 1025 64 10000 0.48 57 19:44 17.11.2020
5346 Clouds 10 1020 72 10000 0.56 351 18:23 17.11.2020
5347 Clouds 11 1020 72 10000 0.56 351 17:31 17.11.2020
5348 Clouds 12 1020 70 10000 0.71 237 16:36 17.11.2020
5349 Clouds 13 1020 64 10000 1.18 230 15:57 17.11.2020
5350 Clouds 14 1020 63 10000 1.18 230 15:36 17.11.2020
5351 Clouds 15 1024 49 10000 0.45 167 14:58 17.11.2020
5352 Clouds 15 1020 64 10000 1.3 234 14:30 17.11.2020
5353 Clouds 14 1024 46 10000 1.5 226 13:45 17.11.2020
5354 Clouds 17 1024 48 10000 1.41 217 13:21 17.11.2020
5355 Clouds 17 1024 48 10000 1.41 217 13:21 17.11.2020
5356 Clouds 16 1025 48 10000 1.41 217 12:41 17.11.2020
5357 Clouds 15 1025 52 10000 0.98 216 11:44 17.11.2020
5358 Clouds 13 1026 43 10000 0.25 189 10:57 17.11.2020
5359 Clouds 13 1025 44 10000 0.25 189 10:36 17.11.2020
5360 Clouds 11 1025 53 10000 1.18 38 09:51 17.11.2020
5361 Clouds 7 1020 72 10000 2.11 30 09:30 17.11.2020
5362 Clouds 4 1019 72 10000 2.45 25 08:25 17.11.2020
5363 Clouds 5 1019 68 10000 2.45 25 07:50 17.11.2020
5364 Clouds 4 1019 69 10000 2.78 22 06:59 17.11.2020
5365 Clear 5 1018 57 10000 2.96 20 04:20 17.11.2020
5366 Clear 6 1018 39 10000 0.45 359 02:54 17.11.2020
5367 Clouds 4 1025 59 10000 0.89 52 01:31 17.11.2020
5368 Clouds 4 1025 63 10000 0.89 62 00:56 17.11.2020
5369 Clouds 5 1024 27 10000 2.96 18 23:50 16.11.2020
5370 Clouds 5 1024 24 10000 2.84 20 23:29 16.11.2020
5371 Clouds 6 1024 23 10000 2.84 20 22:48 16.11.2020
5372 Clouds 6 1023 25 10000 2.99 17 22:21 16.11.2020
5373 Clouds 7 1023 27 10000 2.99 17 21:47 16.11.2020
5374 Clouds 5 1017 29 10000 0.89 13 21:25 16.11.2020
5375 Clouds 8 1022 48 10000 3.26 18 20:50 16.11.2020
5376 Clouds 6 1016 87 10000 3.16 14 20:24 16.11.2020
5377 Clouds 6 1016 77 10000 3.16 14 19:38 16.11.2020
5378 Clouds 6 1016 74 10000 0.45 1 19:19 16.11.2020
5379 Clouds 9 1022 87 10000 5.1 230 18:39 16.11.2020
5380 Clouds 12 1022 87 10000 5.1 230 17:50 16.11.2020
5381 Clouds 10 1022 87 10000 5.1 230 17:21 16.11.2020
5382 Clouds 10 1022 82 10000 4.6 230 16:54 16.11.2020
5383 Clouds 10 1022 76 10000 4.6 240 16:28 16.11.2020
5384 Clouds 10 1021 71 10000 5.1 240 15:52 16.11.2020
5385 Clouds 11 1021 67 10000 4.1 230 15:31 16.11.2020
5386 Clouds 11 1021 63 10000 4.1 230 14:57 16.11.2020
5387 Clouds 12 1021 59 10000 3.1 230 14:28 16.11.2020
5388 Clouds 10 1022 67 10000 3.1 220 13:31 16.11.2020
5389 Clear 9 1023 71 10000 0.5 0 12:33 16.11.2020
5390 Clear 8 1023 76 10000 0.5 0 11:44 16.11.2020
5391 Clear 8 1023 76 10000 0.5 0 11:24 16.11.2020
5392 Clear 7 1023 93 10000 1 0 10:47 16.11.2020
5393 Clear 6 1023 93 10000 1 0 10:26 16.11.2020
5394 Fog 6 1023 87 10000 0.5 0 09:53 16.11.2020
5395 Fog 6 1022 93 10000 1 0 09:35 16.11.2020
5396 Clouds 6 1013 91 10000 2.89 5 08:49 16.11.2020
5397 Clouds 6 1013 90 10000 3.12 8 08:22 16.11.2020
5398 Clouds 6 1026 47 10000 0.89 17 07:34 16.11.2020
5399 Clouds 6 1012 89 10000 0.89 356 06:46 16.11.2020
5400 Clouds 6 1012 91 10000 0.45 20 05:49 16.11.2020
5401 Clouds 8 1011 87 10000 2.18 4 03:54 16.11.2020
5402 Clouds 8 1019 84 10000 2.37 11 01:45 16.11.2020
5403 Clouds 8 1019 86 10000 2.15 16 00:33 16.11.2020
5404 Clouds 8 1011 73 10000 1.61 1 23:32 15.11.2020
5405 Clouds 8 1011 73 10000 0.79 37 22:58 15.11.2020
5406 Clouds 8 1011 72 10000 0.45 194 22:25 15.11.2020
5407 Clouds 9 1019 85 10000 0.73 31 21:54 15.11.2020
5408 Clouds 8 1019 85 10000 0.73 31 21:35 15.11.2020
5409 Clouds 9 1011 72 10000 0.45 225 20:58 15.11.2020
5410 Clouds 9 1018 86 10000 0.68 30 20:38 15.11.2020
5411 Clouds 9 1018 86 10000 0.68 30 20:38 15.11.2020
5412 Clouds 9 1018 84 10000 1.34 16 19:57 15.11.2020
5413 Clouds 9 1018 84 10000 1.34 16 19:38 15.11.2020
5414 Clouds 9 1011 71 10000 1.33 360 19:19 15.11.2020
5415 Clouds 10 1018 82 10000 1.33 360 18:45 15.11.2020
5416 Clear 10 1018 67 10000 1 0 18:25 15.11.2020
5417 Clear 10 1018 67 10000 1 0 17:47 15.11.2020
5418 Clear 10 1018 67 10000 1 0 17:26 15.11.2020
5419 Clear 11 1018 62 10000 1 0 16:58 15.11.2020
5420 Clouds 11 1018 67 10000 1 0 16:38 15.11.2020
5421 Clouds 11 1018 62 10000 1.5 210 16:18 15.11.2020
5422 Clouds 11 1018 54 10000 1 0 15:42 15.11.2020
5423 Clouds 15 1018 54 10000 1 0 15:22 15.11.2020
5424 Clouds 11 1018 54 10000 1 0 14:50 15.11.2020
5425 Clouds 11 1018 58 10000 0.5 0 14:25 15.11.2020
5426 Clouds 11 1018 58 10000 0.5 0 14:25 15.11.2020
5427 Clouds 16 1019 62 10000 0.5 0 13:41 15.11.2020
5428 Clouds 15 1019 66 10000 1 0 13:18 15.11.2020
5429 Clear 13 1020 71 10000 1 0 12:42 15.11.2020
5430 Clear 13 1020 71 10000 1 0 12:19 15.11.2020
5431 Clouds 12 1020 81 10000 1 0 11:42 15.11.2020
5432 Fog 11 1021 81 10000 0.5 0 11:18 15.11.2020
5433 Fog 11 1021 81 10000 0.5 0 10:49 15.11.2020
5434 Fog 6 1021 87 10000 0.5 0 10:30 15.11.2020
5435 Fog 5 1021 93 10000 1 0 09:46 15.11.2020
5436 Fog 5 1021 93 10000 1.5 40 09:23 15.11.2020
5437 Clouds 5 1010 75 10000 1.34 186 08:54 15.11.2020
5438 Clouds 5 1010 74 10000 3.13 198 08:31 15.11.2020
5439 Clouds 5 1009 75 10000 2.24 35 07:44 15.11.2020
5440 Clouds 5 1019 91 10000 0.33 63 05:33 15.11.2020
5441 Clouds 5 1018 91 10000 0.06 292 04:51 15.11.2020
5442 Clouds 5 1019 85 10000 0.19 211 00:56 15.11.2020
5443 Clouds 5 1020 83 10000 0.17 270 00:29 15.11.2020
5444 Clouds 6 1020 82 10000 0.17 270 23:39 14.11.2020
5445 Clouds 6 1020 81 10000 0.18 235 22:50 14.11.2020
5446 Clouds 6 1020 80 10000 0.1 246 22:31 14.11.2020
5447 Clouds 7 1021 87 10000 1.34 56 21:44 14.11.2020
5448 Clouds 8 1021 27 10000 0.19 229 21:23 14.11.2020
5449 Clouds 7 1020 79 10000 0.19 229 20:59 14.11.2020
5450 Clouds 8 1021 21 10000 0.19 229 20:30 14.11.2020
5451 Clouds 8 1021 21 10000 0.19 229 20:30 14.11.2020
5452 Clouds 8 1021 26 10000 0.32 205 19:55 14.11.2020
5453 Clouds 9 1021 20 10000 0.82 204 19:35 14.11.2020
5454 Clouds 9 1020 16 10000 0.82 204 18:44 14.11.2020
5455 Clear 11 1020 66 10000 2.1 230 18:25 14.11.2020
5456 Clear 11 1020 66 10000 2.1 230 17:58 14.11.2020
5457 Clear 12 1020 66 10000 2.1 230 17:40 14.11.2020
5458 Clouds 12 1020 66 10000 2.1 230 17:19 14.11.2020
5459 Clouds 14 1020 58 10000 1.5 230 16:43 14.11.2020
5460 Clouds 11 1020 58 10000 1.5 230 16:20 14.11.2020
5461 Clouds 11 1021 58 10000 1.5 220 15:52 14.11.2020
5462 Clouds 11 1021 54 10000 1 0 15:27 14.11.2020
5463 Clouds 11 1021 58 10000 1 0 14:47 14.11.2020
5464 Clouds 15 1022 58 10000 0.5 0 14:24 14.11.2020
5465 Clouds 14 1022 58 10000 1 0 13:45 14.11.2020
5466 Clouds 14 1022 57 10000 1 0 13:24 14.11.2020
5467 Clouds 13 1023 66 10000 1 0 12:48 14.11.2020
5468 Clouds 12 1023 66 10000 1 0 12:29 14.11.2020
5469 Clear 9 1024 75 10000 1 0 11:46 14.11.2020
5470 Clear 10 1024 80 10000 1.5 160 11:25 14.11.2020
5471 Fog 6 1024 86 10000 1 0 10:49 14.11.2020
5472 Fog 5 1024 86 10000 2.1 70 10:26 14.11.2020
5473 Fog 7 1025 86 10000 1 0 09:50 14.11.2020
5474 Fog 4 1024 93 10000 1.5 40 09:28 14.11.2020
5475 Fog 4 1024 93 10000 1.5 40 09:28 14.11.2020
5476 Clear 4 1012 63 10000 1.34 225 08:55 14.11.2020
5477 Clear 4 1011 60 10000 1.34 197 08:37 14.11.2020
5478 Clear 4 1011 65 10000 2.24 205 07:50 14.11.2020
5479 Clear 4 1011 66 10000 0.89 184 07:28 14.11.2020
5480 Clear 4 1011 65 10000 2.24 208 06:32 14.11.2020
5481 Clear 4 1011 66 10000 1.34 191 05:37 14.11.2020
5482 Clear 3 1022 81 10000 0.14 120 04:20 14.11.2020
5483 Clear 3 1022 81 10000 0.21 142 01:20 14.11.2020
5484 Clear 4 1022 77 10000 0.34 161 23:47 13.11.2020
5485 Clear 4 1022 77 10000 0.34 161 23:47 13.11.2020
5486 Clear 4 1022 77 10000 0.52 161 23:25 13.11.2020
5487 Clear 4 1022 75 10000 0.52 161 22:55 13.11.2020
5488 Clear 5 1022 74 10000 0.53 153 22:28 13.11.2020
5489 Clear 5 1022 73 10000 0.53 153 21:56 13.11.2020
5490 Clear 5 1022 74 10000 0.53 153 21:37 13.11.2020
5491 Clear 5 1022 73 10000 0.38 127 21:19 13.11.2020
5492 Clear 6 1022 72 10000 0.38 127 20:42 13.11.2020
5493 Clear 7 1022 72 10000 0.55 80 20:22 13.11.2020
5494 Clear 7 1021 69 10000 0.55 80 19:46 13.11.2020
5495 Clouds 8 1021 68 10000 0.83 51 19:23 13.11.2020
5496 Clouds 8 1021 69 10000 0.76 52 18:54 13.11.2020
5497 Clear 11 1021 54 10000 0.5 0 18:21 13.11.2020
5498 Clear 12 1021 54 10000 0.5 0 17:41 13.11.2020
5499 Clear 10 1021 54 10000 1 200 17:18 13.11.2020
5500 Clear 10 1021 54 10000 1 200 16:48 13.11.2020
5501 Clear 11 1021 58 10000 0.5 0 16:23 13.11.2020
5502 Clear 11 1021 54 10000 1 0 15:47 13.11.2020
5503 Clear 11 1021 50 10000 1 0 15:27 13.11.2020
5504 Clear 11 1022 58 10000 1 0 14:41 13.11.2020
5505 Clear 10 1022 61 10000 0.5 0 14:20 13.11.2020
5506 Clear 10 1023 66 10000 1 0 13:45 13.11.2020
5507 Clear 10 1023 66 10000 1 0 13:21 13.11.2020
5508 Clear 9 1023 70 10000 0.5 0 12:45 13.11.2020
5509 Clear 8 1024 70 10000 1 0 12:24 13.11.2020
5510 Clear 7 1024 81 10000 1 0 11:48 13.11.2020
5511 Clouds 6 1024 86 10000 1 0 11:25 13.11.2020
5512 Clouds 5 1024 86 10000 0.5 0 10:55 13.11.2020
5513 Clouds 5 1024 80 10000 1 0 10:34 13.11.2020
5514 Clouds 4 1024 93 10000 1 0 09:56 13.11.2020
5515 Clear 4 1024 86 10000 1 30 09:32 13.11.2020
5516 Clouds 4 1013 76 10000 0.44 61 08:57 13.11.2020
5517 Clouds 4 1013 76 10000 0.44 61 08:33 13.11.2020
5518 Clouds 4 1012 75 10000 0.81 35 07:55 13.11.2020
5519 Clouds 4 1012 75 10000 0.81 35 07:37 13.11.2020
5520 Clouds 4 1012 76 10000 0.38 29 07:18 13.11.2020
5521 Clouds 4 1012 76 10000 0.45 148 06:41 13.11.2020
5522 Clouds 4 1012 75 10000 0.11 111 05:42 13.11.2020
5523 Clouds 4 1012 76 10000 0.91 36 04:39 13.11.2020
5524 Clouds 3 1023 78 10000 0.45 39 01:43 13.11.2020
5525 Clear 3 1022 77 10000 0.2 52 00:37 13.11.2020
5526 Clear 4 1022 73 10000 0.41 74 23:59 12.11.2020
5527 Clear 4 1022 73 10000 0.41 74 23:36 12.11.2020
5528 Clear 4 1023 72 10000 0.45 99 23:18 12.11.2020
5529 Clear 4 1022 70 10000 0.45 99 22:41 12.11.2020
5530 Clear 4 1022 70 10000 0.6 113 22:20 12.11.2020
5531 Clear 4 1022 70 10000 0.6 113 21:41 12.11.2020
5532 Clear 5 1022 69 10000 0.68 122 21:23 12.11.2020
5533 Clear 5 1022 68 10000 0.68 122 20:42 12.11.2020
5534 Clear 6 1022 67 10000 0.78 102 20:24 12.11.2020
5535 Clear 6 1023 67 10000 0.78 102 19:57 12.11.2020
5536 Clear 7 1022 67 10000 0.78 102 19:39 12.11.2020
5537 Clouds 7 1022 65 10000 0.76 83 19:21 12.11.2020
5538 Clear 8 1022 66 10000 0.5 100 18:45 12.11.2020
5539 Clear 9 1023 76 10000 1 0 18:20 12.11.2020
5540 Clear 10 1023 76 10000 1 0 17:43 12.11.2020
5541 Clear 9 1023 76 10000 1 0 17:24 12.11.2020
5542 Clear 11 1023 62 10000 1 70 16:46 12.11.2020
5543 Clear 11 1023 62 10000 1 0 16:24 12.11.2020
5544 Clear 10 1023 71 10000 1 20 15:53 12.11.2020
5545 Clear 11 1023 66 10000 0.5 90 15:30 12.11.2020
5546 Clear 11 1023 66 10000 1 0 14:56 12.11.2020
5547 Clear 11 1024 62 10000 1.72 213 14:38 12.11.2020
5548 Clear 11 1024 62 10000 1.77 208 14:18 12.11.2020
5549 Clear 10 1024 66 10000 0.5 0 13:45 12.11.2020
5550 Clear 10 1024 66 10000 0.5 0 13:19 12.11.2020
5551 Clear 10 1025 66 10000 1 0 12:48 12.11.2020
5552 Clear 13 1025 76 10000 1 0 12:25 12.11.2020
5553 Clear 12 1025 76 10000 1 0 11:57 12.11.2020
5554 Clear 12 1025 81 10000 0.5 0 11:39 12.11.2020
5555 Clear 10 1026 81 10000 2.1 60 10:53 12.11.2020
5556 Clear 10 1026 81 10000 2.1 60 10:53 12.11.2020
5557 Fog 7 1026 87 10000 1 0 10:34 12.11.2020
5558 Fog 7 1026 93 10000 0.65 102 09:56 12.11.2020
5559 Fog 5 1026 93 10000 1.63 47 09:28 12.11.2020
5560 Clouds 3 1015 78 10000 1.63 47 08:59 12.11.2020
5561 Clouds 3 1015 78 10000 1.63 47 08:40 12.11.2020
5562 Clouds 3 1015 78 10000 1.63 47 08:40 12.11.2020
5563 Clouds 4 1015 79 10000 0.45 218 08:20 12.11.2020
5564 Clouds 4 1015 79 10000 2.41 37 07:54 12.11.2020
5565 Clouds 4 1015 79 10000 2.41 37 07:31 12.11.2020
5566 Clouds 4 1014 67 10000 2.59 34 06:52 12.11.2020
5567 Clouds 4 1014 52 10000 2.2 32 06:25 12.11.2020
5568 Clouds 4 1014 49 10000 0.45 1 03:45 12.11.2020
5569 Clouds 4 1014 61 10000 1.92 30 03:19 12.11.2020
5570 Clouds 4 1023 90 10000 1.59 26 00:32 12.11.2020
5571 Clouds 4 1023 89 10000 1.88 42 23:44 11.11.2020
5572 Clouds 4 1024 87 10000 1.65 31 23:24 11.11.2020
5573 Clouds 4 1024 87 10000 1.65 31 23:24 11.11.2020
5574 Clouds 4 1015 72 10000 1.65 31 22:47 11.11.2020
5575 Clouds 5 1024 87 10000 1.54 28 22:22 11.11.2020
5576 Clouds 5 1023 87 10000 1.54 28 21:57 11.11.2020
5577 Clouds 5 1023 86 10000 1.54 28 21:38 11.11.2020
5578 Clouds 5 1023 85 10000 1.37 12 21:19 11.11.2020
5579 Clouds 5 1023 84 10000 1.37 12 20:42 11.11.2020
5580 Clouds 5 1023 84 10000 1.07 7 20:22 11.11.2020
5581 Clouds 6 1025 30 10000 1.07 7 19:55 11.11.2020
5582 Clouds 7 1023 84 10000 1.07 7 19:37 11.11.2020
5583 Clouds 7 1023 82 10000 0.39 339 19:18 11.11.2020
5584 Clouds 7 1023 82 10000 0.39 339 19:18 11.11.2020
5585 Clouds 8 1022 74 10000 1.34 61 18:41 11.11.2020
5586 Clouds 9 1024 17 10000 1.01 215 18:21 11.11.2020
5587 Clouds 11 1022 81 10000 1.01 215 17:37 11.11.2020
5588 Clouds 9 1022 77 10000 1.67 217 17:19 11.11.2020
5589 Clouds 10 1013 84 10000 2.68 204 16:39 11.11.2020
5590 Clouds 11 1014 85 10000 2.24 221 16:21 11.11.2020
5591 Clouds 9 1013 84 10000 1.79 218 15:41 11.11.2020
5592 Clouds 15 1023 63 10000 2.19 211 15:23 11.11.2020
5593 Clouds 13 1023 62 10000 2.19 211 14:47 11.11.2020
5594 Clouds 15 1023 62 10000 2.31 216 14:28 11.11.2020
5595 Clouds 14 1023 63 10000 2.31 216 13:49 11.11.2020
5596 Clouds 14 1024 63 10000 2.46 216 13:24 11.11.2020
5597 Clouds 12 1025 66 10000 2.43 207 12:22 11.11.2020
5598 Clouds 11 1025 70 10000 2.43 207 11:52 11.11.2020
5599 Clouds 9 1025 72 10000 2.43 207 11:34 11.11.2020
5600 Clouds 9 1025 75 10000 1.82 210 10:56 11.11.2020
5601 Clouds 11 1026 15 10000 1.82 210 10:37 11.11.2020
5602 Clouds 9 1026 79 10000 1.16 199 10:18 11.11.2020
5603 Clouds 8 1026 73 10000 1.16 199 09:42 11.11.2020
5604 Clouds 3 1026 78 10000 0.45 58 09:21 11.11.2020
5605 Clouds 2 1016 85 10000 0.22 147 08:44 11.11.2020
5606 Clouds 2 1016 87 10000 0.44 67 08:25 11.11.2020
5607 Clouds 2 1016 87 10000 0.44 67 07:47 11.11.2020
5608 Clouds 3 1016 88 10000 0.56 50 06:33 11.11.2020
5609 Clouds 2 1016 87 10000 0.56 50 05:46 11.11.2020
5610 Clear 3 1027 81 10000 0.7 20 01:58 11.11.2020
5611 Clear 4 1027 82 10000 1 43 00:58 11.11.2020
5612 Clear 4 1027 81 10000 1.59 35 00:25 11.11.2020
5613 Clear 4 1027 80 10000 1.59 35 23:40 10.11.2020
5614 Clear 5 1027 78 10000 1.88 39 23:22 10.11.2020
5615 Clear 5 1027 79 10000 1.88 39 22:50 10.11.2020
5616 Clear 5 1027 77 10000 2.06 25 22:26 10.11.2020
5617 Clear 6 1027 77 10000 2.06 25 21:42 10.11.2020
5618 Clear 6 1027 76 10000 2.17 28 21:23 10.11.2020
5619 Clear 6 1027 76 10000 2.17 28 20:58 10.11.2020
5620 Clear 6 1027 76 10000 2.17 28 20:39 10.11.2020
5621 Clear 6 1027 74 10000 2.32 22 20:21 10.11.2020
5622 Clear 7 1030 49 10000 2.32 22 19:44 10.11.2020
5623 Clouds 8 1030 44 10000 2.41 28 19:24 10.11.2020
5624 Clouds 6 1018 84 10000 0.45 340 18:56 10.11.2020
5625 Clouds 7 1018 86 10000 2.36 32 18:37 10.11.2020
5626 Clouds 7 1018 86 10000 0.45 18 18:18 10.11.2020
5627 Clouds 8 1018 87 10000 1.34 335 17:41 10.11.2020
5628 Rain 9 1026 65 10000 1.52 1 17:23 10.11.2020
5629 Clouds 10 1018 91 10000 0.45 25 16:42 10.11.2020
5630 Rain 10 1017 89 10000 0.45 14 16:22 10.11.2020
5631 Clouds 10 1025 59 10000 0.89 270 15:54 10.11.2020
5632 Clouds 10 1025 63 10000 1.44 345 15:36 10.11.2020
5633 Clouds 10 1025 62 10000 0.45 290 15:18 10.11.2020
5634 Clouds 9 1025 63 10000 1.24 347 14:39 10.11.2020
5635 Clouds 10 1025 60 10000 0.45 225 14:18 10.11.2020
5636 Clouds 9 1025 63 10000 1.06 8 13:39 10.11.2020
5637 Clouds 9 1025 62 10000 1.31 14 13:20 10.11.2020
5638 Clouds 9 1025 64 10000 1.31 14 12:48 10.11.2020
5639 Clouds 8 1026 62 10000 1.27 18 12:29 10.11.2020
5640 Clouds 11 1026 65 10000 0.45 191 11:43 10.11.2020
5641 Rain 8 1026 65 10000 1.66 6 11:23 10.11.2020
5642 Clouds 8 1018 93 10000 0.45 39 10:58 10.11.2020
5643 Clouds 7 1026 70 10000 1.66 6 10:39 10.11.2020
5644 Clouds 7 1026 70 10000 1.87 8 10:21 10.11.2020
5645 Clouds 6 1017 95 10000 1.87 8 09:46 10.11.2020
5646 Clouds 5 1025 82 10000 2.05 15 09:25 10.11.2020
5647 Clouds 4 1017 93 10000 2.05 15 08:55 10.11.2020
5648 Clouds 3 1016 94 10000 2.24 23 08:29 10.11.2020
5649 Clouds 3 1016 90 10000 0.45 14 07:45 10.11.2020
5650 Clouds 3 1016 88 10000 2.33 21 07:25 10.11.2020
5651 Clouds 4 1015 88 10000 2.28 23 06:41 10.11.2020
5652 Clouds 5 1015 85 10000 2.4 24 05:49 10.11.2020
5653 Clouds 5 1015 88 10000 2.64 23 04:59 10.11.2020
5654 Clouds 5 1024 86 10000 2.68 20 02:37 10.11.2020
5655 Clear 5 1024 87 10000 2.59 21 01:31 10.11.2020
5656 Clouds 6 1024 88 10000 2.43 21 00:22 10.11.2020
5657 Clouds 6 1023 89 10000 2.43 21 23:36 09.11.2020
5658 Clouds 6 1027 40 10000 2.18 21 22:49 09.11.2020
5659 Clouds 6 1023 88 10000 1.86 17 22:25 09.11.2020
5660 Clouds 6 1023 87 10000 1.86 17 21:59 09.11.2020
5661 Clouds 7 1023 86 10000 1.86 17 21:38 09.11.2020
5662 Clear 7 1023 87 10000 1.77 20 21:19 09.11.2020
5663 Clear 7 1023 86 10000 1.77 20 20:39 09.11.2020
5664 Clear 7 1023 85 10000 1.75 27 20:20 09.11.2020
5665 Clear 7 1023 84 10000 1.75 27 19:42 09.11.2020
5666 Clouds 9 1022 71 10000 1 0 19:22 09.11.2020
5667 Clouds 10 1022 71 10000 1 0 18:46 09.11.2020
5668 Clouds 9 1022 66 10000 0.5 0 18:21 09.11.2020
5669 Clouds 11 1022 66 10000 0.5 0 17:57 09.11.2020
5670 Clear 12 1022 62 10000 1.5 210 17:38 09.11.2020
5671 Clear 10 1022 62 10000 1.5 210 17:20 09.11.2020
5672 Clear 11 1022 58 10000 1 0 16:37 09.11.2020
5673 Clear 11 1021 54 10000 1 0 16:18 09.11.2020
5674 Clear 11 1022 58 10000 1 0 15:41 09.11.2020
5675 Clear 11 1022 58 10000 1 0 15:20 09.11.2020
5676 Clear 11 1022 66 10000 1 0 14:44 09.11.2020
5677 Clear 10 1022 66 10000 1 0 14:25 09.11.2020
5678 Clouds 9 1022 71 10000 0.5 0 13:46 09.11.2020
5679 Clouds 13 1023 71 10000 1 0 13:20 09.11.2020
5680 Clouds 12 1024 81 10000 1.5 160 12:47 09.11.2020
5681 Clouds 12 1024 81 10000 1.5 160 12:25 09.11.2020
5682 Clouds 7 1025 87 10000 1 0 11:56 09.11.2020
5683 Clouds 11 1025 87 10000 1.5 120 11:37 09.11.2020
5684 Clouds 10 1025 87 10000 1.5 120 11:18 09.11.2020
5685 Clouds 10 1025 93 10000 1.5 10 10:42 09.11.2020
5686 Clouds 6 1025 93 10000 1.5 10 10:23 09.11.2020
5687 Fog 4 1025 86 10000 2.6 40 09:41 09.11.2020
5688 Fog 4 1025 86 10000 2.6 40 09:23 09.11.2020
5689 Clouds 3 1013 80 10000 1.79 205 08:39 09.11.2020
5690 Clouds 3 1023 92 10000 0.42 59 08:19 09.11.2020
5691 Clouds 3 1022 92 10000 0.42 59 07:39 09.11.2020
5692 Clouds 3 1012 81 10000 1.79 193 07:19 09.11.2020
5693 Clouds 3 1022 92 10000 0.43 49 06:23 09.11.2020
5694 Clouds 4 1022 91 10000 0.13 74 03:19 09.11.2020
5695 Clouds 3 1023 91 10000 0.15 83 01:43 09.11.2020
5696 Clouds 4 1013 87 10000 1.79 233 00:58 09.11.2020
5697 Clouds 4 1014 86 10000 1.34 219 23:51 08.11.2020
5698 Clouds 4 1023 90 10000 0.26 90 23:29 08.11.2020
5699 Clouds 5 1023 90 10000 0.26 90 22:46 08.11.2020
5700 Clouds 5 1023 89 10000 0.16 174 22:22 08.11.2020
5701 Clouds 6 1023 89 10000 0.16 174 21:54 08.11.2020
5702 Clouds 6 1023 89 10000 0.16 174 21:36 08.11.2020
5703 Clouds 6 1023 88 10000 0.16 179 21:18 08.11.2020
5704 Clouds 7 1023 88 10000 0.16 179 20:39 08.11.2020
5705 Clouds 7 1023 88 10000 0.37 174 20:20 08.11.2020
5706 Clouds 7 1013 84 10000 3.13 224 19:56 08.11.2020
5707 Clouds 7 1022 87 10000 0.37 174 19:37 08.11.2020
5708 Clouds 8 1022 87 10000 0.72 198 19:18 08.11.2020
5709 Clouds 8 1013 86 10000 1.34 273 18:44 08.11.2020
5710 Clouds 9 1023 67 10000 0.5 0 18:21 08.11.2020
5711 Clouds 11 1023 67 10000 0.5 0 17:57 08.11.2020
5712 Clouds 11 1023 67 10000 0.5 0 17:36 08.11.2020
5713 Clouds 10 1023 67 10000 0.5 0 17:18 08.11.2020
5714 Clouds 10 1023 76 10000 1 0 16:39 08.11.2020
5715 Clouds 10 1023 76 10000 1 0 16:21 08.11.2020
5716 Clouds 10 1023 76 10000 2.04 205 15:50 08.11.2020
5717 Clouds 9 1023 76 10000 1 0 15:28 08.11.2020
5718 Clouds 10 1023 76 10000 1 0 14:44 08.11.2020
5719 Clouds 14 1024 76 10000 1 0 14:24 08.11.2020
5720 Clouds 14 1024 81 10000 1.5 200 13:57 08.11.2020
5721 Clouds 14 1024 76 10000 0.5 0 13:39 08.11.2020
5722 Clouds 14 1024 76 10000 0.5 0 13:20 08.11.2020
5723 Clouds 13 1025 87 10000 1.5 340 12:41 08.11.2020
5724 Clouds 12 1025 87 10000 1.5 340 12:23 08.11.2020
5725 Clouds 11 1026 93 10000 1 0 11:56 08.11.2020
5726 Clouds 11 1026 93 10000 1.5 310 11:38 08.11.2020
5727 Clouds 11 1026 93 10000 1.5 310 11:19 08.11.2020
5728 Fog 12 1026 93 10000 1 0 10:47 08.11.2020
5729 Fog 5 1026 100 300 1 0 10:18 08.11.2020
5730 Fog 8 1026 100 250 0.5 0 09:42 08.11.2020
5731 Fog 7 1026 100 250 0.5 0 09:24 08.11.2020
5732 Clouds 3 1014 92 10000 0.79 126 08:47 08.11.2020
5733 Clouds 3 1023 95 10000 0.61 77 08:27 08.11.2020
5734 Clouds 3 1023 95 10000 0.61 77 07:53 08.11.2020
5735 Clouds 3 1023 94 10000 0.61 77 07:33 08.11.2020
5736 Clouds 3 1022 95 10000 0.89 59 06:45 08.11.2020
5737 Clouds 5 1022 94 10000 0.25 270 05:55 08.11.2020
5738 Clouds 5 1022 93 8861 0.28 267 04:54 08.11.2020
5739 Clouds 5 1022 93 10000 0.27 285 03:27 08.11.2020
5740 Clouds 6 1021 93 10000 0.74 206 01:20 08.11.2020
5741 Clouds 6 1021 93 3669 0.2 231 00:33 08.11.2020
5742 Clouds 7 1013 91 3154 1.34 222 23:57 07.11.2020
5743 Clouds 7 1021 93 1787 0.81 184 23:38 07.11.2020
5744 Clouds 7 1021 93 1787 0.81 184 23:19 07.11.2020
5745 Rain 7 1021 91 1787 0.81 184 22:40 07.11.2020
5746 Rain 7 1012 91 1877 4.47 200 22:20 07.11.2020
5747 Rain 8 1012 91 1877 3.58 217 21:43 07.11.2020
5748 Rain 8 1019 89 1487 1.43 158 21:21 07.11.2020
5749 Clouds 8 1019 89 1487 1.43 158 20:48 07.11.2020
5750 Clouds 8 1019 87 1487 1.43 158 20:30 07.11.2020
5751 Clouds 8 1019 86 981 0.89 149 19:50 07.11.2020
5752 Rain 9 1018 85 988 2.75 179 19:28 07.11.2020
5753 Clouds 9 1018 83 988 0.89 146 18:45 07.11.2020
5754 Clouds 9 1020 93 10000 2.1 210 18:27 07.11.2020
5755 Clouds 10 1020 93 10000 2.1 210 17:59 07.11.2020
5756 Clouds 10 1020 93 10000 2.1 210 17:37 07.11.2020
5757 Clouds 9 1020 87 10000 3.1 230 16:57 07.11.2020
5758 Fog 9 1020 93 9000 3.6 210 16:39 07.11.2020
5759 Fog 10 1020 93 9000 3.6 210 16:20 07.11.2020
5760 Fog 10 1020 93 10000 4.1 210 15:42 07.11.2020
5761 Rain 9 1020 93 10000 4.1 210 15:22 07.11.2020
5762 Fog 9 1020 93 10000 1 0 14:45 07.11.2020
5763 Clouds 9 1020 100 10000 1.5 10 14:26 07.11.2020
5764 Rain 9 1020 100 4000 2.6 240 13:55 07.11.2020
5765 Rain 9 1021 93 4000 2.6 220 13:30 07.11.2020
5766 Rain 9 1021 93 3000 2.1 0 12:47 07.11.2020
5767 Rain 9 1020 100 4000 1.5 250 12:25 07.11.2020
5768 Clouds 9 1021 93 10000 2.6 20 11:43 07.11.2020
5769 Clouds 9 1021 93 10000 2.6 20 11:22 07.11.2020
5770 Rain 9 1021 82 10000 3.6 60 10:45 07.11.2020
5771 Rain 10 1021 76 10000 3.1 0 10:27 07.11.2020
5772 Clouds 9 1021 93 10000 2.1 0 09:53 07.11.2020
5773 Fog 9 1022 93 10000 2.6 0 09:34 07.11.2020
5774 Clouds 8 1017 84 5655 0.45 111 08:53 07.11.2020
5775 Clouds 8 1018 84 5655 0.45 170 08:35 07.11.2020
5776 Rain 8 1018 78 10000 3.18 142 07:51 07.11.2020
5777 Clouds 8 1011 89 10000 3.58 62 07:29 07.11.2020
5778 Rain 8 1018 74 10000 2.76 150 06:47 07.11.2020
5779 Clouds 8 1019 75 10000 2.68 133 05:24 07.11.2020
5780 Clouds 9 1014 87 10000 3.58 218 03:24 07.11.2020
5781 Clouds 9 1015 84 10000 5.81 201 01:28 07.11.2020
5782 Clouds 9 1015 85 10000 5.36 200 00:59 07.11.2020
5783 Clouds 9 1014 82 10000 7.6 232 23:53 06.11.2020
5784 Clouds 9 1023 44 10000 0.89 136 23:21 06.11.2020
5785 Clouds 9 1015 84 10000 5.81 205 22:41 06.11.2020
5786 Clouds 10 1015 85 10000 7.15 210 22:19 06.11.2020
5787 Clouds 10 1015 84 10000 4.02 198 21:46 06.11.2020
5788 Clouds 10 1015 84 5873 5.81 219 21:21 06.11.2020
5789 Clouds 10 1016 83 5873 4.47 174 20:56 06.11.2020
5790 Clouds 10 1016 83 5873 3.58 204 20:38 06.11.2020
5791 Clouds 10 1016 83 5580 4.92 180 20:18 06.11.2020
5792 Clouds 11 1015 84 5580 6.26 215 19:44 06.11.2020
5793 Clouds 11 1015 84 5477 6.26 211 19:26 06.11.2020
5794 Clouds 11 1015 84 5477 4.92 208 18:45 06.11.2020
5795 Clear 12 1025 82 10000 1 0 18:23 06.11.2020
5796 Clear 11 1025 82 10000 1 0 17:51 06.11.2020
5797 Clear 11 1025 82 10000 1 0 17:26 06.11.2020
5798 Clear 11 1025 76 10000 2.6 240 16:50 06.11.2020
5799 Clear 11 1025 82 10000 2.6 220 16:27 06.11.2020
5800 Clear 12 1025 72 10000 1.5 200 15:49 06.11.2020
5801 Clear 12 1025 72 10000 0.5 0 15:29 06.11.2020
5802 Clear 12 1026 72 10000 1 0 14:53 06.11.2020
5803 Clouds 11 1026 76 10000 1 0 14:26 06.11.2020
5804 Clouds 11 1027 82 10000 1 0 13:46 06.11.2020
5805 Clouds 10 1027 87 10000 1 0 13:24 06.11.2020
5806 Clouds 10 1028 87 10000 1 0 12:46 06.11.2020
5807 Clouds 9 1028 93 10000 1 0 12:23 06.11.2020
5808 Fog 9 1028 100 9000 1 0 11:49 06.11.2020
5809 Fog 8 1028 93 10000 1 0 11:28 06.11.2020
5810 Fog 8 1029 100 3800 1 0 10:44 06.11.2020
5811 Fog 8 1029 100 3800 1 0 10:25 06.11.2020
5812 Fog 7 1028 100 350 1 0 09:49 06.11.2020
5813 Clouds 8 1026 93 5495 1.66 154 09:22 06.11.2020
5814 Clouds 8 1025 93 5495 1.66 154 08:51 06.11.2020
5815 Clouds 7 1025 93 1175 1.48 143 08:29 06.11.2020
5816 Clouds 6 1025 94 1175 1.48 143 07:53 06.11.2020
5817 Clouds 7 1025 93 1175 1.48 143 07:34 06.11.2020
5818 Clouds 6 1025 94 1125 1.38 156 06:58 06.11.2020
5819 Clouds 6 1025 93 5662 1.27 141 06:24 06.11.2020
5820 Rain 7 1016 89 1397 3.58 188 04:42 06.11.2020
5821 Rain 7 1025 77 10000 1.34 64 01:22 06.11.2020
5822 Clouds 7 1025 68 10000 1.56 139 00:21 06.11.2020
5823 Clouds 7 1025 61 10000 0.45 132 23:32 05.11.2020
5824 Clouds 7 1018 83 10000 1.34 197 22:58 05.11.2020
5825 Clouds 7 1026 60 10000 1.6 126 22:39 05.11.2020
5826 Clouds 7 1026 61 10000 1.5 135 22:20 05.11.2020
5827 Clouds 7 1018 81 10000 1.79 207 21:43 05.11.2020
5828 Clouds 7 1017 83 10000 1.79 174 21:21 05.11.2020
5829 Clouds 7 1018 84 10000 1.79 113 20:48 05.11.2020
5830 Clouds 7 1018 84 10000 1.34 159 20:29 05.11.2020
5831 Clouds 7 1018 83 10000 1.79 240 20:00 05.11.2020
5832 Clouds 7 1026 70 10000 0.89 72 19:40 05.11.2020
5833 Clouds 8 1026 70 10000 0.45 104 19:22 05.11.2020
5834 Clear 9 1026 71 10000 1 30 18:45 05.11.2020
5835 Clear 9 1026 71 10000 1 30 18:26 05.11.2020
5836 Clear 10 1026 71 10000 1 30 17:52 05.11.2020
5837 Clear 10 1026 71 10000 1 30 17:29 05.11.2020
5838 Clouds 10 1026 71 10000 1.65 158 16:58 05.11.2020
5839 Clouds 10 1026 71 10000 1.5 220 16:40 05.11.2020
5840 Clouds 11 1026 71 10000 1.5 220 16:19 05.11.2020
5841 Clouds 11 1026 71 10000 1 0 15:43 05.11.2020
5842 Clouds 15 1026 71 10000 1 0 15:21 05.11.2020
5843 Clouds 15 1027 71 10000 1 0 14:45 05.11.2020
5844 Clouds 14 1027 71 10000 1 0 14:25 05.11.2020
5845 Clouds 13 1028 81 10000 1 0 13:42 05.11.2020
5846 Clouds 13 1028 81 10000 1 0 13:23 05.11.2020
5847 Clouds 12 1028 87 10000 1 0 12:48 05.11.2020
5848 Clouds 12 1029 87 10000 1.5 70 12:24 05.11.2020
5849 Clouds 10 1029 87 10000 1.5 90 11:49 05.11.2020
5850 Clouds 10 1029 93 10000 1 0 11:26 05.11.2020
5851 Clouds 8 1029 93 10000 0.5 0 10:53 05.11.2020
5852 Clouds 8 1029 93 10000 1 0 10:32 05.11.2020
5853 Fog 7 1030 93 10000 1 0 09:58 05.11.2020
5854 Fog 6 1029 100 10000 1 0 09:38 05.11.2020
5855 Fog 5 1029 100 10000 1 0 09:20 05.11.2020
5856 Clear 3 1018 87 10000 1.79 240 08:43 05.11.2020
5857 Clear 3 1029 94 10000 1.24 97 08:24 05.11.2020
5858 Clouds 3 1018 88 10000 1.79 210 07:29 05.11.2020
5859 Clouds 3 1029 94 10000 1.01 90 06:52 05.11.2020
5860 Clouds 3 1029 95 10000 0.97 89 06:33 05.11.2020
5861 Clouds 3 1028 94 10000 1.03 80 03:47 05.11.2020
5862 Clouds 4 1027 94 10000 1.08 83 00:59 05.11.2020
5863 Clouds 4 1026 95 10000 1.06 85 00:26 05.11.2020
5864 Clouds 4 1027 93 10000 1.06 85 23:43 04.11.2020
5865 Clouds 4 1026 95 10000 1.2 72 23:25 04.11.2020
5866 Clouds 5 1027 93 10000 1.2 72 22:45 04.11.2020
5867 Clouds 5 1029 48 10000 0.74 90 22:23 04.11.2020
5868 Clouds 5 1026 93 10000 0.74 90 21:48 04.11.2020
5869 Clouds 5 1025 93 10000 0.93 81 21:29 04.11.2020
5870 Clouds 6 1025 93 10000 0.93 81 20:56 04.11.2020
5871 Clouds 6 1025 93 10000 0.93 81 20:37 04.11.2020
5872 Clouds 6 1024 95 2148 1.05 61 20:18 04.11.2020
5873 Clouds 5 1024 94 2148 1.05 61 19:41 04.11.2020
5874 Clouds 5 1024 94 2148 1.05 61 19:41 04.11.2020
5875 Clouds 6 1024 93 227 1.28 57 19:23 04.11.2020
5876 Clouds 6 1024 93 186 0.63 65 18:43 04.11.2020
5877 Clouds 6 1023 93 117 0.23 228 18:24 04.11.2020
5878 Clouds 6 1023 92 117 0.23 228 17:48 04.11.2020
5879 Rain 6 1023 92 83 0.5 33 17:28 04.11.2020
5880 Clouds 6 1023 89 83 0.5 33 16:57 04.11.2020
5881 Clouds 6 1023 87 83 0.5 33 16:37 04.11.2020
5882 Rain 7 1023 89 83 0.9 226 16:18 04.11.2020
5883 Clouds 7 1023 91 83 0.9 226 15:42 04.11.2020
5884 Rain 7 1023 92 95 0.65 243 15:23 04.11.2020
5885 Clouds 7 1022 92 95 0.65 243 14:46 04.11.2020
5886 Rain 7 1023 93 104 1.25 238 14:25 04.11.2020
5887 Clouds 6 1023 94 104 1.25 238 13:52 04.11.2020
5888 Rain 5 1023 94 106 0.15 136 13:22 04.11.2020
5889 Clouds 5 1023 94 83 0.44 136 12:59 04.11.2020
5890 Clouds 5 1023 94 83 0.44 136 12:59 04.11.2020
5891 Clouds 5 1023 94 83 0.44 136 12:41 04.11.2020
5892 Clouds 5 1024 94 77 0.45 159 12:22 04.11.2020
5893 Clouds 4 1024 94 77 0.45 159 11:46 04.11.2020
5894 Clouds 4 1023 95 78 0.79 183 11:22 04.11.2020
5895 Clouds 3 1023 95 78 0.79 183 10:49 04.11.2020
5896 Rain 2 1023 95 84 0.68 139 10:24 04.11.2020
5897 Rain 2 1023 95 84 0.68 139 10:24 04.11.2020
5898 Clouds 2 1023 94 84 0.68 139 09:55 04.11.2020
5899 Rain 2 1023 94 198 1.21 87 09:28 04.11.2020
5900 Clouds 1 1022 93 198 1.21 87 08:49 04.11.2020
5901 Rain 1 1022 93 222 1.94 55 08:23 04.11.2020
5902 Clouds 2 1022 94 222 1.94 55 07:57 04.11.2020
5903 Rain 2 1012 95 57 1.59 31 07:31 04.11.2020
5904 Clouds 2 1012 95 57 1.59 31 06:59 04.11.2020
5905 Clouds 2 1022 93 180 1.83 28 06:39 04.11.2020
5906 Clouds 2 1022 93 180 1.83 28 06:39 04.11.2020
5907 Clouds 2 1012 95 50 1.29 32 04:59 04.11.2020
5908 Clouds 3 1022 91 1350 1.92 5 02:31 04.11.2020
5909 Rain 4 1023 90 10000 2.37 15 01:38 04.11.2020
5910 Clouds 4 1024 91 10000 2.18 351 23:56 03.11.2020
5911 Rain 4 1024 92 10000 2.27 358 23:25 03.11.2020
5912 Clouds 4 1024 91 10000 2.27 358 22:54 03.11.2020
5913 Rain 4 1024 90 10000 2.27 358 22:36 03.11.2020
5914 Rain 4 1024 90 10000 2.8 11 22:18 03.11.2020
5915 Rain 4 1025 91 10000 2.8 11 21:41 03.11.2020
5916 Rain 5 1024 91 1383 2.7 359 21:23 03.11.2020
5917 Rain 5 1017 90 1383 2.7 359 20:48 03.11.2020
5918 Rain 5 1025 92 2244 2.77 2 20:26 03.11.2020
5919 Rain 5 1025 93 2244 0.45 166 19:49 03.11.2020
5920 Rain 6 1018 88 3896 3.26 4 19:29 03.11.2020
5921 Clouds 6 1024 94 3896 0.89 222 18:58 03.11.2020
5922 Rain 6 1024 95 7061 0.45 211 18:40 03.11.2020
5923 Rain 6 1024 95 10000 2.85 3 18:18 03.11.2020
5924 Rain 8 1023 94 10000 2.85 3 17:45 03.11.2020
5925 Clouds 7 1023 94 10000 2.85 3 17:45 03.11.2020
5926 Rain 8 1023 94 10000 2.32 4 17:26 03.11.2020
5927 Rain 8 1023 94 10000 2.32 4 16:46 03.11.2020
5928 Rain 8 1023 94 10000 2.04 360 16:27 03.11.2020
5929 Rain 7 1023 93 10000 2.04 360 15:53 03.11.2020
5930 Rain 7 1017 92 10000 0.45 25 15:30 03.11.2020
5931 Rain 7 1017 92 10000 0.45 25 15:30 03.11.2020
5932 Clouds 7 1023 88 10000 1.99 6 14:54 03.11.2020
5933 Clouds 8 1022 90 10000 1.99 6 14:33 03.11.2020
5934 Clouds 8 1018 92 10000 0.89 24 14:00 03.11.2020
5935 Clouds 8 1022 91 10000 1.7 359 13:40 03.11.2020
5936 Clouds 8 1022 92 10000 1.41 340 13:20 03.11.2020
5937 Clouds 9 1022 85 10000 1.19 321 12:44 03.11.2020
5938 Clouds 9 1022 83 10000 1.03 296 12:21 03.11.2020
5939 Clouds 10 1022 85 10000 1.03 296 11:46 03.11.2020
5940 Clouds 9 1022 85 10000 0.75 303 11:23 03.11.2020
5941 Clouds 9 1022 83 10000 0.75 303 10:55 03.11.2020
5942 Clouds 9 1022 83 10000 0.75 303 10:55 03.11.2020
5943 Clouds 9 1022 82 10000 0.75 303 10:36 03.11.2020
5944 Clouds 9 1022 83 10000 0.8 352 10:18 03.11.2020
5945 Clouds 9 1018 89 10000 0.8 352 09:44 03.11.2020
5946 Clouds 9 1022 89 10000 1.61 13 09:20 03.11.2020
5947 Clouds 9 1021 88 10000 1.61 13 08:45 03.11.2020
5948 Clear 9 1021 87 10000 2.04 17 08:26 03.11.2020
5949 Clear 9 1021 88 10000 2.04 17 07:37 03.11.2020
5950 Clouds 9 1021 87 10000 1.73 28 06:53 03.11.2020
5951 Clouds 10 1021 87 10000 1.69 28 06:20 03.11.2020
5952 Clouds 10 1021 86 10000 1.3 43 03:38 03.11.2020
5953 Clear 11 1027 36 10000 2.47 32 00:43 03.11.2020
5954 Clear 11 1021 80 10000 2.37 30 00:20 03.11.2020
5955 Clear 10 1018 84 10000 2.37 30 23:41 02.11.2020
5956 Clear 11 1022 79 10000 2.26 24 22:57 02.11.2020
5957 Clear 11 1018 80 10000 2.26 24 22:37 02.11.2020
5958 Clear 12 1027 36 10000 1.86 21 22:19 02.11.2020
5959 Clear 11 1018 84 10000 1.34 4 21:38 02.11.2020
5960 Clear 11 1018 82 10000 1.53 29 21:20 02.11.2020
5961 Clear 11 1018 80 10000 1.53 29 20:41 02.11.2020
5962 Clear 13 1020 72 10000 1.34 7 20:20 02.11.2020
5963 Clear 13 1021 76 10000 1.27 29 19:58 02.11.2020
5964 Clear 13 1021 76 10000 1.27 29 19:40 02.11.2020
5965 Clear 14 1025 27 10000 0.81 28 19:21 02.11.2020
5966 Clear 18 1022 49 10000 2.6 230 18:39 02.11.2020
5967 Clear 17 1022 49 10000 2.6 230 18:21 02.11.2020
5968 Clear 19 1022 49 10000 2.6 230 17:56 02.11.2020
5969 Clear 21 1022 49 10000 2.6 230 17:36 02.11.2020
5970 Clear 16 1022 49 10000 2.6 230 17:18 02.11.2020
5971 Clouds 17 1022 43 10000 1 0 16:38 02.11.2020
5972 Clouds 17 1022 43 10000 1 0 16:20 02.11.2020
5973 Clouds 16 1022 42 10000 1 0 15:39 02.11.2020
5974 Clouds 16 1022 42 10000 1 0 15:20 02.11.2020
5975 Clear 20 1022 42 10000 1.5 100 14:53 02.11.2020
5976 Clear 17 1023 40 10000 1 0 14:20 02.11.2020
5977 Clear 17 1023 40 10000 1 0 14:20 02.11.2020
5978 Clear 21 1023 45 10000 1 0 13:51 02.11.2020
5979 Clear 21 1024 48 10000 1 0 13:23 02.11.2020
5980 Clear 20 1024 48 10000 0.5 0 12:55 02.11.2020
5981 Clear 19 1024 54 10000 0.5 0 12:30 02.11.2020
5982 Clear 17 1025 62 10000 1 0 11:56 02.11.2020
5983 Clear 16 1025 62 10000 0.5 0 11:37 02.11.2020
5984 Clear 16 1025 66 10000 1 0 11:18 02.11.2020
5985 Clear 15 1026 66 10000 1.5 70 10:40 02.11.2020
5986 Clear 14 1026 76 10000 1 0 10:18 02.11.2020
5987 Clear 14 1026 81 10000 1 0 09:43 02.11.2020
5988 Clear 11 1026 81 10000 1 0 09:23 02.11.2020
5989 Clear 8 1018 74 10000 0.7 51 08:40 02.11.2020
5990 Clear 8 1017 74 10000 1.27 24 08:20 02.11.2020
5991 Clear 7 1017 75 10000 1.27 24 07:49 02.11.2020
5992 Clear 8 1017 76 10000 1.3 6 06:48 02.11.2020
5993 Clear 8 1017 76 10000 1.03 359 06:23 02.11.2020
5994 Clear 8 1017 69 10000 1.79 221 01:40 02.11.2020
5995 Clouds 8 1018 66 10000 2.24 170 00:43 02.11.2020
5996 Clouds 8 1022 62 10000 0.45 54 00:23 02.11.2020
5997 Clouds 8 1023 69 10000 0.23 120 23:40 01.11.2020
5998 Clouds 9 1023 62 10000 0.89 54 23:21 01.11.2020
5999 Clouds 9 1023 67 10000 0.55 97 22:45 01.11.2020
6000 Clouds 10 1023 65 10000 0.68 89 22:23 01.11.2020
6001 Clouds 10 1022 56 10000 0.89 52 21:46 01.11.2020
6002 Clouds 10 1022 64 10000 0.69 87 21:27 01.11.2020
6003 Clouds 11 1022 63 10000 0.69 87 20:52 01.11.2020
6004 Clouds 12 1022 62 10000 0.69 87 20:30 01.11.2020
6005 Clouds 12 1022 60 10000 0.95 68 19:59 01.11.2020
6006 Clouds 13 1022 52 10000 0.45 5 19:41 01.11.2020
6007 Clouds 13 1022 53 10000 1.34 24 19:21 01.11.2020
6008 Clear 16 1023 45 10000 2.6 230 18:40 01.11.2020
6009 Clear 16 1023 45 10000 2.6 230 18:19 01.11.2020
6010 Clear 17 1023 45 10000 2.6 230 17:47 01.11.2020
6011 Clear 16 1023 45 10000 2.6 230 17:29 01.11.2020
6012 Clear 15 1023 40 10000 2.6 220 16:59 01.11.2020
6013 Clear 16 1023 40 10000 2.1 220 16:39 01.11.2020
6014 Clear 16 1023 40 10000 2.1 220 16:18 01.11.2020
6015 Clear 17 1023 37 10000 1 0 15:39 01.11.2020
6016 Clear 17 1023 37 10000 1 0 15:21 01.11.2020
6017 Clear 17 1024 39 10000 1 0 14:48 01.11.2020
6018 Clear 16 1024 39 10000 1 0 14:24 01.11.2020
6019 Clear 18 1024 42 10000 1 0 13:58 01.11.2020
6020 Clear 18 1025 44 10000 1 0 13:39 01.11.2020
6021 Clear 20 1025 44 10000 1 0 13:21 01.11.2020
6022 Clear 19 1026 50 10000 1 0 12:43 01.11.2020
6023 Clear 17 1026 58 10000 0.5 0 12:22 01.11.2020
6024 Clear 17 1026 58 10000 0.5 0 11:49 01.11.2020
6025 Clear 16 1026 58 10000 0.5 0 11:18 01.11.2020
6026 Clear 11 1027 70 10000 0.5 0 10:42 01.11.2020
6027 Clear 12 1027 70 10000 0.5 0 10:24 01.11.2020
6028 Clear 9 1027 70 10000 2.1 50 09:50 01.11.2020
6029 Clear 10 1027 81 10000 1 0 09:27 01.11.2020
6030 Clouds 9 1018 23 10000 2.44 20 08:44 01.11.2020
6031 Clouds 8 1018 26 10000 2.35 23 08:18 01.11.2020
6032 Clouds 8 1017 44 10000 0.89 186 07:21 01.11.2020
6033 Clear 9 1023 58 10000 0.89 64 02:32 01.11.2020
6034 Clear 9 1023 61 10000 0.45 62 01:42 01.11.2020
6035 Clear 9 1023 55 10000 1.34 59 23:58 31.10.2020
6036 Clear 10 1024 78 10000 1 40 23:24 31.10.2020
6037 Clear 10 1023 52 10000 1.34 25 22:45 31.10.2020
6038 Clear 9 1023 51 10000 0.45 58 22:24 31.10.2020
6039 Clear 9 1023 76 10000 0.87 71 21:47 31.10.2020
6040 Clear 10 1023 46 10000 1.34 53 21:23 31.10.2020
6041 Clear 10 1023 47 10000 1.34 53 21:23 31.10.2020
6042 Clear 10 1023 70 10000 1.73 65 20:46 31.10.2020
6043 Clear 11 1027 13 10000 1.34 97 20:21 31.10.2020
6044 Clear 12 1027 13 10000 2.08 35 19:58 31.10.2020
6045 Clear 12 1027 13 10000 0.45 132 19:38 31.10.2020
6046 Clear 13 1027 12 10000 1.77 25 19:18 31.10.2020
6047 Clear 13 1027 9 10000 1.77 25 18:43 31.10.2020
6048 Clear 17 1023 37 10000 1.5 230 17:49 31.10.2020
6049 Clear 16 1023 37 10000 1.5 230 17:29 31.10.2020
6050 Clear 16 1023 40 10000 1.5 220 16:59 31.10.2020
6051 Clear 17 1023 35 10000 1.5 220 16:40 31.10.2020
6052 Clear 17 1023 32 10000 1.5 0 15:57 31.10.2020
6053 Clear 17 1023 39 10000 1.5 120 15:36 31.10.2020
6054 Clear 17 1023 39 10000 1.5 120 15:18 31.10.2020
6055 Clear 17 1024 39 10000 1 0 14:46 31.10.2020
6056 Clear 20 1024 39 10000 1.5 120 14:26 31.10.2020
6057 Clear 20 1025 45 10000 0.5 0 13:49 31.10.2020
6058 Clear 20 1026 48 10000 1.55 244 13:21 31.10.2020
6059 Clear 18 1027 58 10000 1 0 12:32 31.10.2020
6060 Clear 17 1027 62 10000 0.5 0 11:47 31.10.2020
6061 Clear 16 1028 66 10000 0.5 0 11:28 31.10.2020
6062 Clear 12 1028 66 10000 2.1 80 10:54 31.10.2020
6063 Clear 8 1028 75 10000 1.5 70 10:33 31.10.2020
6064 Clear 11 1024 41 10000 1 234 09:42 31.10.2020
6065 Clear 10 1025 60 10000 0.2 256 09:21 31.10.2020
6066 Clear 7 1020 55 10000 3.13 169 08:30 31.10.2020
6067 Clear 7 1020 54 10000 2.24 218 07:49 31.10.2020
6068 Clouds 7 1020 54 10000 0.89 217 07:26 31.10.2020
6069 Clouds 7 1020 57 10000 3.13 204 06:38 31.10.2020
6070 Clouds 8 1020 58 10000 2.24 183 03:50 31.10.2020
6071 Clouds 8 1020 60 10000 3.58 195 03:21 31.10.2020
6072 Clouds 8 1021 35 10000 1.34 222 01:23 31.10.2020
6073 Clouds 8 1021 59 10000 0.89 225 00:46 31.10.2020
6074 Clouds 8 1025 63 10000 0.89 52 23:49 30.10.2020
6075 Clear 9 1026 63 10000 0.58 79 23:23 30.10.2020
6076 Clear 9 1021 38 10000 0.58 79 22:43 30.10.2020
6077 Clear 9 1025 61 10000 0.68 68 22:24 30.10.2020
6078 Clear 9 1025 61 10000 0.68 68 21:52 30.10.2020
6079 Clear 10 1022 46 10000 0.75 65 21:29 30.10.2020
6080 Clear 10 1022 47 10000 0.75 65 20:59 30.10.2020
6081 Clear 11 1025 60 10000 0.89 53 20:37 30.10.2020
6082 Clear 10 1025 57 10000 1.08 52 20:19 30.10.2020
6083 Clear 11 1021 55 10000 1.08 52 19:44 30.10.2020
6084 Clear 11 1025 57 10000 1.11 42 19:18 30.10.2020
6085 Clear 11 1021 67 10000 1.11 42 18:45 30.10.2020
6086 Clear 14 1026 42 10000 1.5 220 18:27 30.10.2020
6087 Clear 15 1026 42 10000 1.5 220 17:48 30.10.2020
6088 Clear 16 1026 42 10000 1.5 220 17:22 30.10.2020
6089 Clear 15 1026 42 10000 1.5 220 17:22 30.10.2020
6090 Clear 16 1026 42 10000 1.5 240 16:57 30.10.2020
6091 Clear 17 1026 40 10000 1.5 230 16:26 30.10.2020
6092 Clear 17 1026 42 10000 1.5 190 15:58 30.10.2020
6093 Clear 17 1026 45 10000 1 0 15:40 30.10.2020
6094 Clear 17 1026 45 10000 1 0 15:18 30.10.2020
6095 Clear 16 1027 42 10000 1 0 14:44 30.10.2020
6096 Clear 16 1027 42 10000 1 0 14:25 30.10.2020
6097 Clear 20 1027 51 10000 1.5 90 13:44 30.10.2020
6098 Clear 19 1028 54 10000 1 0 13:20 30.10.2020
6099 Clear 18 1028 54 10000 1 0 12:49 30.10.2020
6100 Clear 18 1028 66 10000 1 0 12:22 30.10.2020
6101 Clear 14 1029 71 10000 1 0 11:56 30.10.2020
6102 Clear 15 1029 71 10000 1 0 11:21 30.10.2020
6103 Clear 12 1029 81 10000 1 0 10:50 30.10.2020
6104 Clear 13 1029 87 10000 1 0 10:25 30.10.2020
6105 Fog 11 1029 93 10000 2.1 60 09:48 30.10.2020
6106 Fog 8 1030 93 10000 2.1 50 09:25 30.10.2020
6107 Clouds 5 1021 77 10000 1.45 47 08:59 30.10.2020
6108 Clouds 6 1021 67 10000 1.61 44 08:31 30.10.2020
6109 Clouds 6 1021 80 10000 1.93 42 07:53 30.10.2020
6110 Clouds 6 1021 78 10000 1.93 42 07:35 30.10.2020
6111 Clouds 6 1021 76 10000 1.88 41 06:50 30.10.2020
6112 Clouds 7 1021 49 10000 1.84 40 05:45 30.10.2020
6113 Clear 6 1020 59 10000 2.2 36 02:43 30.10.2020
6114 Clouds 7 1021 72 10000 1.86 31 01:18 30.10.2020
6115 Clouds 7 1021 76 10000 1.69 26 23:58 29.10.2020
6116 Clouds 7 1021 79 10000 0.45 224 23:40 29.10.2020
6117 Clouds 8 1021 76 10000 1.59 30 23:21 29.10.2020
6118 Clouds 8 1021 74 10000 1.59 30 22:43 29.10.2020
6119 Clouds 8 1021 79 10000 1.36 36 22:24 29.10.2020
6120 Clouds 8 1021 77 10000 1.36 36 21:43 29.10.2020
6121 Clouds 8 1026 86 10000 1.24 34 21:22 29.10.2020
6122 Clouds 8 1026 86 10000 1.24 34 21:22 29.10.2020
6123 Clouds 9 1026 85 10000 1.24 34 20:42 29.10.2020
6124 Clear 9 1026 85 10000 1.16 30 20:21 29.10.2020
6125 Clear 9 1026 84 10000 1.16 30 19:54 29.10.2020
6126 Clear 10 1026 85 10000 1.16 30 19:36 29.10.2020
6127 Clouds 11 1029 36 10000 1.06 15 19:18 29.10.2020
6128 Clouds 12 1025 71 10000 0.89 68 18:41 29.10.2020
6129 Clear 13 1025 63 10000 3.6 240 18:21 29.10.2020
6130 Clear 15 1025 63 10000 3.6 240 17:42 29.10.2020
6131 Clear 13 1025 59 10000 4.1 240 17:21 29.10.2020
6132 Clear 14 1025 59 10000 4.1 240 16:48 29.10.2020
6133 Clear 15 1025 59 10000 4.1 230 16:22 29.10.2020
6134 Clear 14 1025 59 10000 4.6 230 15:57 29.10.2020
6135 Clear 15 1025 59 10000 4.1 230 15:38 29.10.2020
6136 Clear 14 1025 59 10000 4.1 230 15:20 29.10.2020
6137 Clear 14 1025 59 10000 4.1 220 14:46 29.10.2020
6138 Clear 14 1026 59 10000 2.6 210 14:24 29.10.2020
6139 Clear 13 1026 58 10000 3.1 220 13:48 29.10.2020
6140 Clear 12 1026 62 10000 1.5 240 13:28 29.10.2020
6141 Clear 12 1027 62 10000 1 0 12:57 29.10.2020
6142 Clear 11 1027 71 10000 1 0 12:39 29.10.2020
6143 Clear 11 1028 71 10000 0.5 0 12:18 29.10.2020
6144 Fog 10 1028 76 10000 1 0 11:42 29.10.2020
6145 Fog 9 1028 76 10000 1 0 11:24 29.10.2020
6146 Fog 11 1028 93 10000 1 0 10:37 29.10.2020
6147 Fog 11 1028 93 10000 1 0 10:37 29.10.2020
6148 Fog 6 1028 100 150 1 0 10:19 29.10.2020
6149 Fog 8 1028 100 150 1 0 09:50 29.10.2020
6150 Fog 5 1028 100 450 0.5 0 09:28 29.10.2020
6151 Clouds 5 1025 91 10000 0.46 358 08:52 29.10.2020
6152 Clouds 5 1018 88 10000 1.42 15 08:26 29.10.2020
6153 Clouds 5 1025 91 10000 1.42 15 07:53 29.10.2020
6154 Clouds 5 1024 91 10000 2.16 29 07:24 29.10.2020
6155 Clouds 4 1024 91 10000 2.12 32 06:54 29.10.2020
6156 Clouds 6 1023 91 10000 2.78 16 04:51 29.10.2020
6157 Clear 8 1023 89 10000 1.85 6 02:40 29.10.2020
6158 Clouds 8 1016 92 10000 1.07 29 00:46 29.10.2020
6159 Clouds 7 1016 94 10000 0.45 7 00:23 29.10.2020
6160 Clouds 9 1022 89 10000 0.89 55 23:44 28.10.2020
6161 Clouds 8 1023 89 10000 1.57 25 23:20 28.10.2020
6162 Clouds 8 1023 89 10000 1.57 25 23:20 28.10.2020
6163 Clouds 9 1026 48 10000 1.57 25 22:44 28.10.2020
6164 Clouds 9 1022 88 10000 1.84 26 22:26 28.10.2020
6165 Clouds 9 1022 88 10000 1.84 26 21:46 28.10.2020
6166 Clouds 9 1022 87 10000 1.97 25 21:26 28.10.2020
6167 Clouds 9 1022 86 10000 1.97 25 20:59 28.10.2020
6168 Clouds 9 1022 86 10000 1.97 25 20:41 28.10.2020
6169 Clouds 9 1022 86 10000 2 22 20:19 28.10.2020
6170 Clouds 9 1022 85 10000 2 22 19:47 28.10.2020
6171 Clouds 10 1022 84 10000 1.78 19 19:27 28.10.2020
6172 Clouds 11 1024 36 10000 1.78 19 18:46 28.10.2020
6173 Clouds 12 1020 82 10000 1.16 327 18:20 28.10.2020
6174 Clouds 12 1024 35 10000 1.16 327 17:44 28.10.2020
6175 Clouds 11 1020 73 10000 1.4 239 17:24 28.10.2020
6176 Clouds 12 1023 29 10000 1.4 239 16:49 28.10.2020
6177 Clouds 12 1013 92 10000 1.77 230 16:30 28.10.2020
6178 Clouds 12 1012 92 10000 1.77 230 15:46 28.10.2020
6179 Clouds 12 1019 62 10000 1.89 217 15:20 28.10.2020
6180 Clouds 13 1012 86 10000 0.45 79 14:57 28.10.2020
6181 Clouds 13 1012 86 10000 1.89 217 14:38 28.10.2020
6182 Clouds 12 1019 61 10000 1.93 215 14:18 28.10.2020
6183 Clouds 11 1020 67 10000 1.88 213 12:39 28.10.2020
6184 Clouds 11 1020 70 10000 2.02 206 12:20 28.10.2020
6185 Clouds 10 1021 77 10000 2.02 206 11:44 28.10.2020
6186 Clouds 10 1020 80 10000 2 207 11:23 28.10.2020
6187 Clouds 8 1021 81 10000 2 207 10:58 28.10.2020
6188 Clouds 8 1020 84 10000 2 207 10:40 28.10.2020
6189 Clouds 8 1020 88 10000 1.77 190 10:22 28.10.2020
6190 Clouds 6 1011 87 10000 1.79 226 09:39 28.10.2020
6191 Clouds 6 1020 92 10000 1.08 148 09:20 28.10.2020
6192 Clouds 5 1020 92 10000 1.08 148 08:47 28.10.2020
6193 Clouds 6 1020 93 10000 1.05 152 08:25 28.10.2020
6194 Clouds 4 1010 87 10000 2.24 204 07:48 28.10.2020
6195 Clouds 6 1010 87 10000 1.34 188 07:30 28.10.2020
6196 Clouds 6 1019 91 10000 1.1 65 06:41 28.10.2020
6197 Clouds 6 1018 91 10000 1.9 48 05:51 28.10.2020
6198 Clouds 6 1018 89 10000 2.25 47 04:53 28.10.2020
6199 Clouds 6 1018 89 10000 2.6 37 04:25 28.10.2020
6200 Clouds 6 1018 87 10000 1.73 16 02:25 28.10.2020
6201 Rain 6 1009 89 10000 1.31 354 01:29 28.10.2020
6202 Clouds 6 1018 83 10000 1.68 3 23:54 27.10.2020
6203 Clouds 6 1019 83 10000 0.91 356 23:26 27.10.2020
6204 Clouds 6 1019 82 10000 0.91 356 22:57 27.10.2020
6205 Clouds 6 1019 81 10000 0.91 356 22:38 27.10.2020
6206 Clouds 6 1019 83 10000 0.89 8 22:19 27.10.2020
6207 Clouds 6 1019 83 10000 0.89 8 21:55 27.10.2020
6208 Clouds 6 1018 82 10000 0.89 8 21:37 27.10.2020
6209 Clouds 7 1018 82 10000 1.25 18 21:18 27.10.2020
6210 Clouds 7 1018 83 10000 1.25 18 21:18 27.10.2020
6211 Clouds 7 1018 80 10000 1.25 18 20:39 27.10.2020
6212 Clouds 7 1018 80 10000 1.1 9 20:21 27.10.2020
6213 Clouds 7 1017 81 10000 1.1 9 19:39 27.10.2020
6214 Clouds 8 1017 79 10000 0.84 350 19:21 27.10.2020
6215 Clouds 8 1007 90 10000 0.45 285 18:58 27.10.2020
6216 Clouds 10 1018 26 10000 1.15 10 18:40 27.10.2020
6217 Clouds 7 1006 88 10000 1.34 14 18:19 27.10.2020
6218 Clouds 8 1006 88 10000 0.89 49 17:43 27.10.2020
6219 Clouds 7 1016 68 10000 0.99 296 17:21 27.10.2020
6220 Clouds 8 1005 80 10000 0.99 296 16:48 27.10.2020
6221 Clouds 8 1015 65 10000 1.27 288 16:27 27.10.2020
6222 Clouds 9 1015 61 10000 1.27 288 15:49 27.10.2020
6223 Clouds 9 1005 84 10000 1.41 262 15:30 27.10.2020
6224 Clouds 9 1005 85 10000 1.41 262 14:57 27.10.2020
6225 Clouds 9 1015 54 10000 1.41 262 14:39 27.10.2020
6226 Clouds 11 1005 85 10000 1.67 243 14:20 27.10.2020
6227 Clouds 13 1016 53 10000 1.67 243 13:33 27.10.2020
6228 Clouds 9 1016 58 10000 1.85 223 12:59 27.10.2020
6229 Clouds 11 1016 63 10000 1.85 223 12:39 27.10.2020
6230 Clouds 8 1017 64 10000 0.94 232 12:20 27.10.2020
6231 Clouds 8 1006 87 10000 0.94 232 11:42 27.10.2020
6232 Clouds 7 1017 74 10000 0.69 355 11:22 27.10.2020
6233 Clouds 6 1005 86 10000 0.69 355 10:47 27.10.2020
6234 Clouds 5 1017 81 10000 1.43 19 10:25 27.10.2020
6235 Clouds 4 1005 85 10000 1.43 19 09:45 27.10.2020
6236 Clouds 3 1017 87 10000 1.93 14 09:23 27.10.2020
6237 Clouds 3 1016 88 10000 1.93 14 08:38 27.10.2020
6238 Clouds 2 1016 88 10000 2.16 16 08:18 27.10.2020
6239 Clouds 2 1016 86 10000 2.16 16 07:44 27.10.2020
6240 Clouds 2 1016 87 10000 2.2 17 07:25 27.10.2020
6241 Clouds 2 1015 85 10000 2.01 22 06:22 27.10.2020
6242 Clouds 2 1015 86 10000 2.01 22 05:51 27.10.2020
6243 Clouds 2 1015 84 10000 2.01 22 05:33 27.10.2020
6244 Clouds 2 1015 83 10000 1.89 24 04:44 27.10.2020
6245 Clear 2 1003 86 10000 0.89 25 02:29 27.10.2020
6246 Clear 1 1003 81 10000 0.45 32 00:51 27.10.2020
6247 Clear 2 1004 85 10000 2.4 5 23:43 26.10.2020
6248 Clear 2 1004 84 10000 0.45 357 23:19 26.10.2020
6249 Clear 2 1004 86 10000 2.6 3 22:46 26.10.2020
6250 Clear 3 1014 82 10000 2.6 6 22:21 26.10.2020
6251 Clear 4 1019 50 10000 2.6 6 21:43 26.10.2020
6252 Clouds 3 1003 85 10000 0.45 14 21:20 26.10.2020
6253 Clouds 3 1003 88 10000 2.67 10 20:57 26.10.2020
6254 Clouds 3 1003 86 10000 1.34 44 20:38 26.10.2020
6255 Clouds 2 1014 76 10000 2.65 9 20:18 26.10.2020
6256 Clouds 4 1003 87 10000 1.79 27 19:46 26.10.2020
6257 Clouds 5 1003 91 10000 2.55 358 19:22 26.10.2020
6258 Clouds 3 1002 91 10000 2.55 358 18:44 26.10.2020
6259 Clouds 7 1011 35 10000 3.6 290 18:22 26.10.2020
6260 Clouds 7 1011 35 10000 3.6 290 17:45 26.10.2020
6261 Clouds 6 1011 35 10000 3.6 290 17:24 26.10.2020
6262 Clouds 7 1011 35 10000 4.1 290 16:59 26.10.2020
6263 Clouds 7 1011 35 10000 3.1 300 16:39 26.10.2020
6264 Clouds 7 1011 35 10000 3.1 300 16:19 26.10.2020
6265 Clouds 7 1010 37 10000 7.2 310 15:41 26.10.2020
6266 Clouds 7 1010 37 10000 7.2 310 15:20 26.10.2020
6267 Clouds 7 1010 37 10000 7.2 310 15:20 26.10.2020
6268 Clouds 7 1010 37 10000 7.2 310 15:20 26.10.2020
6269 Clouds 6 1010 37 10000 7.2 300 14:46 26.10.2020
6270 Clouds 7 1010 37 10000 4.6 300 14:26 26.10.2020
6271 Clouds 6 1010 54 10000 2.6 70 13:43 26.10.2020
6272 Clouds 6 1010 54 10000 2.6 70 13:23 26.10.2020
6273 Clouds 6 1010 62 10000 2.1 70 12:48 26.10.2020
6274 Clouds 5 1011 66 10000 3.1 60 12:27 26.10.2020
6275 Clouds 5 1011 76 10000 3.1 50 11:56 26.10.2020
6276 Clouds 5 1011 76 10000 1.5 100 11:37 26.10.2020
6277 Clouds 5 1011 87 10000 0.5 0 11:18 26.10.2020
6278 Clouds 4 1011 87 10000 1 0 10:42 26.10.2020
6279 Clouds 4 1011 87 10000 1 0 10:42 26.10.2020
6280 Clouds 4 1011 87 10000 1 0 10:24 26.10.2020
6281 Clouds 3 1010 87 10000 2.1 20 09:44 26.10.2020
6282 Clouds 3 1010 87 10000 0.5 0 09:23 26.10.2020
6283 Rain 3 998 90 1703 2.29 3 08:30 26.10.2020
6284 Rain 3 1007 93 113 2.94 353 07:56 26.10.2020
6285 Rain 3 997 90 113 2.94 353 07:37 26.10.2020
6286 Rain 3 1006 93 461 1.9 349 06:38 26.10.2020
6287 Clouds 4 1005 95 2630 1.07 291 04:44 26.10.2020
6288 Clouds 3 996 92 136 0.45 333 04:18 26.10.2020
6289 Clouds 7 1007 85 98 2.82 207 01:52 26.10.2020
6290 Rain 5 1007 85 103 0.45 139 01:23 26.10.2020
6291 Rain 6 1007 86 82 1.34 109 00:32 26.10.2020
6292 Rain 8 998 84 105 2.81 200 23:41 25.10.2020
6293 Rain 9 1007 80 239 0.45 76 23:21 25.10.2020
6294 Clouds 9 999 83 239 1.79 166 22:40 25.10.2020
6295 Rain 9 1008 79 967 2.24 176 22:20 25.10.2020
6296 Clouds 9 1008 79 967 1.79 167 21:41 25.10.2020
6297 Rain 9 1009 81 839 0.45 248 21:22 25.10.2020
6298 Clouds 11 1009 27 839 2.24 357 20:46 25.10.2020
6299 Rain 10 1000 80 1065 3.13 87 20:28 25.10.2020
6300 Clouds 9 1000 80 1065 3.13 177 19:59 25.10.2020
6301 Rain 11 1008 76 1065 2.68 237 19:41 25.10.2020
6302 Rain 11 1008 76 1653 2.68 232 19:21 25.10.2020
6303 Clouds 12 1009 17 4671 0.89 344 18:55 25.10.2020
6304 Clouds 13 1011 54 10000 4.6 200 18:36 25.10.2020
6305 Clouds 13 1011 54 10000 4.6 200 18:18 25.10.2020
6306 Clouds 12 1011 54 10000 4.6 200 17:38 25.10.2020
6307 Clouds 11 1011 54 10000 4.6 200 17:20 25.10.2020
6308 Clouds 11 1011 54 10000 5.1 200 16:52 25.10.2020
6309 Clouds 12 1011 51 10000 4.6 190 16:32 25.10.2020
6310 Clouds 13 1011 48 10000 5.1 200 15:52 25.10.2020
6311 Clouds 15 1012 45 10000 4.6 190 15:32 25.10.2020
6312 Clouds 13 1012 45 10000 3.6 210 14:59 25.10.2020
6313 Clouds 12 1012 58 10000 2.6 220 14:38 25.10.2020
6314 Clouds 12 1012 58 10000 2.6 220 14:19 25.10.2020
6315 Clouds 16 1014 62 10000 1 0 13:42 25.10.2020
6316 Clouds 15 1014 62 10000 1 0 13:20 25.10.2020
6317 Clear 14 1014 66 10000 0.5 0 12:46 25.10.2020
6318 Clear 13 1015 71 10000 1 0 12:26 25.10.2020
6319 Clouds 11 1016 100 10000 1 0 11:44 25.10.2020
6320 Clouds 11 1016 100 10000 1 0 11:22 25.10.2020
6321 Fog 8 1016 100 150 0.5 0 10:57 25.10.2020
6322 Fog 7 1017 100 100 1 0 10:38 25.10.2020
6323 Fog 5 1017 100 100 1 0 10:20 25.10.2020
6324 Fog 5 1017 100 150 0.5 0 09:40 25.10.2020
6325 Fog 4 1017 100 150 0.5 0 09:19 25.10.2020
6326 Clouds 5 1005 72 10000 3.13 176 08:41 25.10.2020
6327 Clouds 4 1015 93 10000 1.61 207 08:22 25.10.2020
6328 Clouds 4 1005 74 10000 2.24 193 07:47 25.10.2020
6329 Clouds 3 1015 93 10000 1.36 210 07:24 25.10.2020
6330 Clouds 4 1005 77 10000 2.24 226 06:45 25.10.2020
6331 Clouds 4 1016 91 10000 1.35 222 05:36 25.10.2020
6332 Clouds 4 1016 90 10000 0.94 203 04:51 25.10.2020
6333 Clouds 5 1017 89 10000 1.15 226 02:45 25.10.2020
6334 Clear 5 1017 89 10000 0.45 69 01:32 25.10.2020
6335 Clear 5 1019 88 10000 0.76 234 00:48 25.10.2020
6336 Clear 6 1020 89 10000 0.69 209 00:20 25.10.2020
6337 Clear 6 1020 88 10000 0.69 209 23:53 24.10.2020
6338 Clear 6 1020 88 10000 0.25 168 23:26 24.10.2020
6339 Clear 7 1020 88 10000 0.25 168 22:55 24.10.2020
6340 Clear 7 1020 88 10000 0.25 168 22:37 24.10.2020
6341 Clear 7 1020 87 10000 0.33 186 22:18 24.10.2020
6342 Clear 8 1020 87 10000 0.33 186 21:41 24.10.2020
6343 Clear 8 1020 86 10000 0.33 193 21:20 24.10.2020
6344 Clear 9 1020 85 10000 0.33 193 20:47 24.10.2020
6345 Clear 10 1020 58 10000 3.1 230 20:23 24.10.2020
6346 Clear 11 1020 58 10000 3.1 230 19:48 24.10.2020
6347 Clear 12 1020 58 10000 3.1 230 19:29 24.10.2020
6348 Clear 13 1020 62 10000 3.6 240 18:57 24.10.2020
6349 Clear 14 1020 58 10000 3.1 240 18:39 24.10.2020
6350 Clear 11 1020 58 10000 3.1 240 18:20 24.10.2020
6351 Clear 12 1020 55 10000 4.1 230 17:38 24.10.2020
6352 Clear 12 1020 55 10000 4.1 230 17:20 24.10.2020
6353 Clear 13 1020 51 10000 4.1 220 16:44 24.10.2020
6354 Clear 17 1021 55 10000 2.1 210 16:21 24.10.2020
6355 Clear 16 1021 54 10000 1.5 0 15:39 24.10.2020
6356 Clear 16 1021 54 10000 1.5 0 15:19 24.10.2020
6357 Clear 16 1022 58 10000 2.1 200 14:46 24.10.2020
6358 Clear 16 1022 54 10000 1 0 14:27 24.10.2020
6359 Clear 15 1023 58 10000 0.5 0 13:46 24.10.2020
6360 Clear 14 1023 62 10000 1 0 13:24 24.10.2020
6361 Clouds 12 1024 87 10000 0.5 0 12:44 24.10.2020
6362 Clouds 12 1024 87 10000 0.5 0 12:21 24.10.2020
6363 Fog 10 1024 100 10000 1 0 11:51 24.10.2020
6364 Fog 5 1024 100 650 1 0 11:32 24.10.2020
6365 Clear 9 1014 91 10000 1.22 226 10:52 24.10.2020
6366 Clear 8 1025 26 10000 1.22 226 10:33 24.10.2020
6367 Clear 6 1013 91 10000 0.38 215 09:50 24.10.2020
6368 Clear 4 1013 90 10000 0.76 42 09:32 24.10.2020
6369 Clear 4 1022 92 10000 0.76 42 08:58 24.10.2020
6370 Clouds 4 1022 92 10000 1.35 21 08:19 24.10.2020
6371 Clouds 4 1022 91 10000 1.35 21 07:54 24.10.2020
6372 Clouds 4 1022 91 10000 1.76 27 07:25 24.10.2020
6373 Clouds 5 1022 90 10000 1.76 27 06:53 24.10.2020
6374 Clouds 5 1021 90 10000 1.84 13 06:23 24.10.2020
6375 Clouds 6 1021 90 10000 1.66 13 02:56 24.10.2020
6376 Rain 6 1021 88 10000 2.1 13 01:20 24.10.2020
6377 Clouds 6 1021 88 10000 2.1 13 00:41 24.10.2020
6378 Rain 7 1020 87 10000 2.28 15 00:21 24.10.2020
6379 Clouds 7 1020 89 10000 2.28 15 23:49 23.10.2020
6380 Clouds 7 1020 87 10000 2.41 17 23:25 23.10.2020
6381 Clouds 7 1020 88 10000 2.41 17 22:57 23.10.2020
6382 Clouds 7 1020 88 10000 2.41 17 22:37 23.10.2020
6383 Clouds 6 1019 85 10000 2.28 13 22:18 23.10.2020
6384 Clouds 6 1012 93 10000 0.89 51 21:42 23.10.2020
6385 Clouds 7 1019 84 10000 2 16 21:24 23.10.2020
6386 Clouds 7 1019 66 10000 2.1 230 20:40 23.10.2020
6387 Clouds 8 1019 66 10000 2.1 230 20:22 23.10.2020
6388 Clouds 8 1019 66 10000 2.1 230 19:50 23.10.2020
6389 Clouds 8 1019 66 10000 2.1 230 19:32 23.10.2020
6390 Clouds 9 1019 62 10000 3.1 220 18:55 23.10.2020
6391 Clouds 10 1019 51 10000 4.1 230 18:31 23.10.2020
6392 Clouds 11 1019 48 10000 5.7 200 17:50 23.10.2020
6393 Clouds 11 1018 48 10000 4.6 190 17:24 23.10.2020
6394 Clouds 13 1018 48 10000 4.1 180 16:56 23.10.2020
6395 Clouds 13 1018 48 10000 4.1 180 16:56 23.10.2020
6396 Clouds 13 1018 48 10000 4.1 180 16:56 23.10.2020
6397 Clouds 13 1018 48 10000 4.1 180 16:56 23.10.2020
6398 Clouds 13 1018 51 10000 3.1 190 16:36 23.10.2020
6399 Clouds 12 1018 59 10000 3.1 210 15:59 23.10.2020
6400 Clouds 12 1019 55 10000 3.6 220 15:41 23.10.2020
6401 Clouds 12 1019 55 10000 3.6 220 15:23 23.10.2020
6402 Clouds 12 1019 59 10000 4.6 200 14:50 23.10.2020
6403 Clouds 15 1019 63 10000 3.1 180 14:32 23.10.2020
6404 Clouds 15 1019 72 10000 1 0 13:44 23.10.2020
6405 Clouds 15 1019 72 10000 1 0 13:44 23.10.2020
6406 Clouds 11 1019 82 10000 1.5 0 13:24 23.10.2020
6407 Clouds 12 1019 82 10000 1 0 12:51 23.10.2020
6408 Clouds 11 1019 87 10000 1 0 12:31 23.10.2020
6409 Fog 10 1019 93 10000 1.5 110 11:56 23.10.2020
6410 Fog 10 1019 93 10000 1.5 110 11:56 23.10.2020
6411 Fog 9 1019 100 6000 0.5 0 11:38 23.10.2020
6412 Clouds 11 1016 77 1845 0.89 117 11:19 23.10.2020
6413 Clouds 11 1016 78 1845 0.45 105 10:39 23.10.2020
6414 Clouds 9 1016 80 1000 0.45 128 10:20 23.10.2020
6415 Clouds 10 1016 81 1000 0.45 147 09:43 23.10.2020
6416 Clouds 8 1016 88 950 2.12 212 09:23 23.10.2020
6417 Clouds 9 1015 80 950 0.45 236 08:51 23.10.2020
6418 Clouds 9 1015 83 985 0.45 153 08:26 23.10.2020
6419 Clouds 9 1015 84 1029 2.71 212 07:27 23.10.2020
6420 Clouds 9 1008 91 1029 2.71 212 06:49 23.10.2020
6421 Clouds 9 1014 93 952 1.71 215 06:20 23.10.2020
6422 Clouds 10 1014 94 834 2.32 228 03:44 23.10.2020
6423 Rain 10 1008 90 996 3.13 212 02:27 23.10.2020
6424 Clouds 10 1014 91 944 1.67 210 00:52 23.10.2020
6425 Rain 10 1008 90 1006 1.79 207 00:32 23.10.2020
6426 Clouds 10 1014 87 1006 1.67 213 23:37 22.10.2020
6427 Rain 10 1014 89 1022 1.63 192 23:19 22.10.2020
6428 Clouds 10 1008 90 1022 4.02 221 22:45 22.10.2020
6429 Rain 10 1014 90 1023 2.03 186 22:23 22.10.2020
6430 Clouds 11 1014 91 1023 2.03 186 21:54 22.10.2020
6431 Rain 11 1014 90 1023 2.03 186 21:32 22.10.2020
6432 Rain 11 1014 93 1055 2.2 181 20:59 22.10.2020
6433 Rain 8 1014 92 1055 2.2 181 20:41 22.10.2020
6434 Rain 8 1014 93 1574 1.71 168 20:23 22.10.2020
6435 Rain 9 1017 93 10000 1 270 19:43 22.10.2020
6436 Fog 9 1017 93 10000 1 270 19:20 22.10.2020
6437 Rain 9 1018 93 10000 1 0 18:44 22.10.2020
6438 Rain 9 1018 93 10000 1 0 18:22 22.10.2020
6439 Rain 10 1018 100 5000 1 0 17:48 22.10.2020
6440 Drizzle 10 1018 100 5000 1 0 17:26 22.10.2020
6441 Clouds 10 1017 100 10000 0.5 0 16:59 22.10.2020
6442 Clouds 10 1017 93 7000 1 0 16:41 22.10.2020
6443 Clouds 10 1017 93 7000 1 0 16:23 22.10.2020
6444 Rain 10 1018 93 550 1 0 15:48 22.10.2020
6445 Rain 10 1018 100 3700 1 70 15:25 22.10.2020
6446 Rain 10 1018 100 6000 1 60 14:49 22.10.2020
6447 Rain 10 1018 100 6000 1 60 14:49 22.10.2020
6448 Rain 10 1018 100 6000 0.5 0 14:25 22.10.2020
6449 Clouds 10 1019 100 6000 1 0 13:49 22.10.2020
6450 Rain 10 1019 93 6000 1.5 230 13:24 22.10.2020
6451 Rain 10 1020 100 100 1 0 13:24 22.10.2020
6452 Fog 10 1020 100 100 1 0 12:54 22.10.2020
6453 Fog 9 1019 100 250 1.5 70 12:24 22.10.2020
6454 Fog 9 1020 100 100 1.5 110 11:50 22.10.2020
6455 Clouds 9 1019 100 600 1.5 10 11:20 22.10.2020
6456 Clouds 9 1019 100 600 1.5 10 10:52 22.10.2020
6457 Rain 9 1009 89 1059 5.36 201 10:29 22.10.2020
6458 Rain 11 1014 89 1059 0.45 99 09:54 22.10.2020
6459 Rain 10 1014 90 1059 3.33 176 09:35 22.10.2020
6460 Rain 10 1013 88 961 2.62 175 08:53 22.10.2020
6461 Rain 10 1013 88 961 0.45 43 08:32 22.10.2020
6462 Rain 10 1013 89 6203 0.45 138 07:58 22.10.2020
6463 Rain 10 1013 88 6203 2.66 176 07:40 22.10.2020
6464 Rain 11 1013 89 10000 2.18 162 06:58 22.10.2020
6465 Rain 11 1013 91 10000 2.18 162 06:35 22.10.2020
6466 Clouds 9 1013 88 10000 2.17 166 05:42 22.10.2020
6467 Clouds 10 1008 81 10000 3.58 172 05:19 22.10.2020
6468 Clouds 11 1008 80 3442 4.92 212 01:53 22.10.2020
6469 Clouds 11 1016 27 10000 0.89 100 00:27 22.10.2020
6470 Clouds 11 1013 82 10000 3.08 195 23:57 21.10.2020
6471 Clouds 11 1013 83 10000 3.08 195 23:33 21.10.2020
6472 Clouds 11 1012 85 10000 2.71 190 22:43 21.10.2020
6473 Clouds 12 1012 86 10000 2.75 185 22:20 21.10.2020
6474 Clouds 12 1012 86 10000 2.75 185 22:20 21.10.2020
6475 Clouds 12 1012 89 10000 2.75 185 21:56 21.10.2020
6476 Clouds 12 1012 89 10000 2.75 185 21:56 21.10.2020
6477 Clouds 12 1012 87 10000 2.75 185 21:38 21.10.2020
6478 Clouds 10 1012 84 10000 0.45 115 21:18 21.10.2020
6479 Clouds 11 1012 91 10000 2.92 189 20:47 21.10.2020
6480 Clouds 10 1006 79 10000 4.92 153 20:19 21.10.2020
6481 Clouds 11 1011 77 10000 1.79 67 19:45 21.10.2020
6482 Clouds 12 1011 72 10000 1.79 254 19:26 21.10.2020
6483 Clouds 8 1005 77 10000 5.36 219 18:54 21.10.2020
6484 Clouds 12 1011 69 10000 4.29 204 18:33 21.10.2020
6485 Clouds 12 1011 69 10000 4.29 204 18:33 21.10.2020
6486 Clouds 13 1010 67 10000 4.29 204 17:55 21.10.2020
6487 Clouds 12 1011 66 10000 4.29 204 17:37 21.10.2020
6488 Clear 12 1010 64 10000 0.45 117 17:18 21.10.2020
6489 Clear 12 1010 65 10000 0.45 121 16:40 21.10.2020
6490 Clear 12 1010 64 10000 0.89 134 16:21 21.10.2020
6491 Clear 12 1010 64 10000 0.89 149 16:21 21.10.2020
6492 Clear 12 1010 62 10000 0.45 109 15:49 21.10.2020
6493 Clear 12 1010 62 10000 0.45 158 15:29 21.10.2020
6494 Clear 12 1010 63 10000 5.5 202 14:57 21.10.2020
6495 Clear 12 1010 63 10000 0.89 97 14:38 21.10.2020
6496 Clouds 12 1011 64 10000 1.34 103 14:19 21.10.2020
6497 Clouds 10 1011 68 10000 5.88 202 13:42 21.10.2020
6498 Clouds 12 1011 70 10000 5.85 201 13:21 21.10.2020
6499 Clouds 14 1012 71 10000 1.34 142 12:41 21.10.2020
6500 Clouds 10 1012 72 7587 5.09 200 12:21 21.10.2020
6501 Clouds 10 1011 79 7587 0.45 104 11:48 21.10.2020
6502 Rain 9 1012 78 2574 0.89 163 11:22 21.10.2020
6503 Clouds 10 1011 76 2574 0.45 113 10:58 21.10.2020
6504 Clouds 10 1011 77 2574 1.34 136 10:40 21.10.2020
6505 Clouds 11 1002 81 3266 6.26 190 10:20 21.10.2020
6506 Clouds 10 1010 81 3266 0.89 129 09:42 21.10.2020
6507 Rain 10 1011 78 3646 4.08 168 09:18 21.10.2020
6508 Clouds 9 1009 80 3646 1.34 121 08:40 21.10.2020
6509 Rain 11 1009 79 1009 4.46 175 08:22 21.10.2020
6510 Rain 10 1003 84 1009 6.26 188 07:49 21.10.2020
6511 Rain 10 1002 85 10000 5.36 158 06:59 21.10.2020
6512 Rain 10 1011 76 10000 1.34 198 06:34 21.10.2020
6513 Rain 8 1002 86 10000 4.92 187 05:59 21.10.2020
6514 Clouds 10 1001 86 1882 7.6 159 02:46 21.10.2020
6515 Clouds 8 1012 85 10000 4.83 168 00:25 21.10.2020
6516 Clouds 9 1001 88 10000 7.15 149 23:28 20.10.2020
6517 Clouds 8 1003 84 10000 4.02 200 22:38 20.10.2020
6518 Clouds 8 1014 69 10000 4.39 164 22:20 20.10.2020
6519 Clouds 8 1014 62 10000 2.68 297 21:47 20.10.2020
6520 Clouds 8 1013 95 10000 4.01 160 21:19 20.10.2020
6521 Clouds 9 1005 68 10000 4.47 217 20:43 20.10.2020
6522 Clouds 8 1013 63 10000 1.79 126 20:23 20.10.2020
6523 Clouds 7 1005 76 10000 4.92 204 19:45 20.10.2020
6524 Clouds 7 1013 72 10000 3.65 168 19:22 20.10.2020
6525 Clouds 7 1013 75 10000 3.65 168 18:59 20.10.2020
6526 Clouds 7 1014 79 10000 3.65 168 18:37 20.10.2020
6527 Rain 9 1015 58 10000 1.79 313 17:51 20.10.2020
6528 Rain 9 1014 78 10000 0.89 131 17:32 20.10.2020
6529 Clouds 9 1015 73 10000 3.91 173 16:58 20.10.2020
6530 Clouds 9 1015 70 10000 0.45 156 16:38 20.10.2020
6531 Clouds 10 1015 71 10000 0.45 167 16:20 20.10.2020
6532 Clouds 10 1009 76 10000 2.68 219 15:44 20.10.2020
6533 Rain 10 1009 75 1848 4.47 217 15:23 20.10.2020
6534 Rain 10 1009 73 1848 4.47 201 14:44 20.10.2020
6535 Rain 10 1010 73 10000 5.81 200 14:25 20.10.2020
6536 Clouds 10 1017 83 10000 0.45 359 13:58 20.10.2020
6537 Clouds 10 1010 67 10000 4.47 218 13:39 20.10.2020
6538 Rain 13 1010 66 6236 3.13 215 13:19 20.10.2020
6539 Clouds 11 1010 62 6236 1.79 193 12:48 20.10.2020
6540 Rain 10 1010 63 2927 3.13 253 12:29 20.10.2020
6541 Clouds 9 1010 69 2927 4.02 231 11:47 20.10.2020
6542 Clouds 8 1017 89 10000 3.74 188 11:27 20.10.2020
6543 Clouds 7 1010 69 10000 5.36 174 10:40 20.10.2020
6544 Clouds 7 1017 73 10000 2.64 176 10:22 20.10.2020
6545 Clouds 7 1008 70 10000 6.26 211 09:44 20.10.2020
6546 Clouds 7 1016 93 10000 2.1 163 09:19 20.10.2020
6547 Clouds 7 1016 80 10000 2.1 163 08:39 20.10.2020
6548 Clouds 8 1017 82 10000 1.97 189 07:55 20.10.2020
6549 Clouds 8 1009 74 10000 5.81 183 07:26 20.10.2020
6550 Clouds 8 1009 74 10000 5.36 211 06:57 20.10.2020
6551 Clouds 8 1017 26 10000 1.48 161 06:19 20.10.2020
6552 Clouds 6 1011 74 10000 3.58 204 03:59 20.10.2020
6553 Clouds 6 1011 74 10000 3.13 207 02:30 20.10.2020
6554 Clouds 6 1019 83 10000 0.46 181 01:22 20.10.2020
6555 Clouds 6 1012 73 10000 1.79 218 00:50 20.10.2020
6556 Clouds 6 1019 82 10000 0.7 208 00:24 20.10.2020
6557 Clouds 6 1019 82 10000 0.7 208 23:49 19.10.2020
6558 Clouds 6 1019 81 10000 0.79 217 23:24 19.10.2020
6559 Clouds 6 1019 81 10000 0.79 217 23:24 19.10.2020
6560 Clouds 6 1019 81 10000 0.79 217 22:51 19.10.2020
6561 Clouds 7 1019 79 10000 1 211 22:26 19.10.2020
6562 Clouds 7 1019 78 10000 1 211 21:50 19.10.2020
6563 Clouds 8 1019 76 10000 1.45 210 21:23 19.10.2020
6564 Clouds 9 1011 65 10000 4.47 225 20:54 19.10.2020
6565 Clouds 9 1011 63 10000 5.36 201 20:36 19.10.2020
6566 Clouds 12 1020 55 10000 5.1 220 19:59 19.10.2020
6567 Clouds 12 1020 55 10000 5.1 220 19:41 19.10.2020
6568 Clouds 13 1020 55 10000 5.1 220 19:19 19.10.2020
6569 Clouds 12 1020 48 10000 4.6 230 18:43 19.10.2020
6570 Clouds 15 1019 45 10000 4.1 220 18:19 19.10.2020
6571 Clouds 14 1020 39 10000 4.6 220 17:45 19.10.2020
6572 Clouds 16 1020 39 10000 4.6 220 17:25 19.10.2020
6573 Clouds 14 1020 37 10000 4.1 220 16:48 19.10.2020
6574 Clouds 20 1020 37 10000 4.1 220 16:28 19.10.2020
6575 Clouds 19 1018 8 10000 1.34 255 15:44 19.10.2020
6576 Clouds 20 1018 8 10000 1.34 255 15:25 19.10.2020
6577 Clouds 20 1018 8 10000 1.34 255 15:25 19.10.2020
6578 Clouds 18 1019 48 10000 3.72 209 14:52 19.10.2020
6579 Clouds 17 1020 50 10000 3.85 209 14:27 19.10.2020
6580 Clouds 17 1021 52 10000 3.84 210 13:54 19.10.2020
6581 Clouds 17 1021 52 10000 3.84 210 13:34 19.10.2020
6582 Clouds 15 1020 10 10000 3.53 208 12:59 19.10.2020
6583 Clouds 14 1021 60 10000 3.53 208 12:40 19.10.2020
6584 Clouds 13 1021 61 10000 3.05 211 12:22 19.10.2020
6585 Clouds 10 1021 66 10000 3.05 211 11:40 19.10.2020
6586 Clouds 9 1021 71 10000 2.31 205 11:19 19.10.2020
6587 Clouds 9 1021 69 10000 0.45 199 10:43 19.10.2020
6588 Clouds 7 1013 71 10000 1.79 218 10:21 19.10.2020
6589 Clouds 3 1013 71 10000 4.02 205 09:50 19.10.2020
6590 Clouds 3 1021 82 10000 0.43 144 09:23 19.10.2020
6591 Clouds 3 1021 82 10000 0.43 144 08:49 19.10.2020
6592 Clouds 3 1012 74 10000 2.24 190 08:23 19.10.2020
6593 Clouds 3 1012 74 10000 3.13 190 07:52 19.10.2020
6594 Clouds 3 1012 72 10000 2.24 214 07:19 19.10.2020
6595 Clouds 3 1013 51 10000 0.89 211 06:19 19.10.2020
6596 Clear 3 1013 74 10000 1.79 191 04:29 19.10.2020
6597 Clear 3 1014 81 10000 2.68 233 03:42 19.10.2020
6598 Clouds 5 1022 74 10000 0.45 29 00:59 19.10.2020
6599 Clouds 5 1022 76 10000 0.89 39 00:25 19.10.2020
6600 Clouds 5 1022 74 10000 0.46 41 23:48 18.10.2020
6601 Clouds 6 1022 72 10000 1.08 17 23:25 18.10.2020
6602 Clouds 6 1022 74 10000 1.34 56 22:52 18.10.2020
6603 Clear 6 1022 70 10000 1.21 40 22:22 18.10.2020
6604 Clear 7 1022 70 10000 0.89 45 21:56 18.10.2020
6605 Clear 8 1024 36 10000 1.21 40 21:37 18.10.2020
6606 Clear 8 1021 67 10000 1.34 50 21:18 18.10.2020
6607 Clear 9 1021 65 10000 0.89 53 20:40 18.10.2020
6608 Clouds 11 1021 47 10000 4.1 230 20:19 18.10.2020
6609 Clouds 12 1021 47 10000 4.1 230 19:43 18.10.2020
6610 Clouds 13 1021 47 10000 4.1 230 19:25 18.10.2020
6611 Clouds 15 1021 44 10000 4.1 230 18:48 18.10.2020
6612 Clouds 13 1021 41 10000 4.1 230 18:27 18.10.2020
6613 Clouds 13 1021 42 10000 4.1 230 17:43 18.10.2020
6614 Clouds 13 1021 42 10000 4.1 230 17:25 18.10.2020
6615 Clouds 13 1021 41 10000 2.6 0 16:45 18.10.2020
6616 Clouds 13 1021 41 10000 2.6 0 16:26 18.10.2020
6617 Clouds 13 1021 38 10000 1.5 210 15:57 18.10.2020
6618 Clouds 17 1021 41 10000 0.5 0 15:39 18.10.2020
6619 Clouds 17 1021 41 10000 0.5 0 15:19 18.10.2020
6620 Clouds 16 1022 44 10000 1 0 14:52 18.10.2020
6621 Clouds 15 1022 43 10000 1 0 14:28 18.10.2020
6622 Clouds 14 1022 33 10000 2.1 240 13:55 18.10.2020
6623 Clouds 14 1022 53 10000 1.5 0 13:37 18.10.2020
6624 Clouds 14 1023 53 10000 1 0 13:18 18.10.2020
6625 Clouds 13 1023 53 10000 1 0 12:41 18.10.2020
6626 Clouds 12 1023 65 10000 1 0 12:20 18.10.2020
6627 Clouds 9 1023 70 10000 1 0 11:41 18.10.2020
6628 Clear 9 1023 70 10000 1 0 11:22 18.10.2020
6629 Clear 10 1025 16 10000 0.58 303 10:40 18.10.2020
6630 Clear 10 1025 16 10000 0.58 303 10:40 18.10.2020
6631 Clear 6 1013 75 10000 1.38 24 10:20 18.10.2020
6632 Clear 2 1013 77 10000 1.38 24 09:50 18.10.2020
6633 Clear 2 1022 68 10000 2.12 25 09:23 18.10.2020
6634 Clear 2 1012 74 10000 2.12 25 08:57 18.10.2020
6635 Clear 1 1021 69 10000 2.12 25 08:37 18.10.2020
6636 Clear 1 1021 67 10000 2.14 23 08:19 18.10.2020
6637 Clear 2 1011 81 10000 2.28 27 06:57 18.10.2020
6638 Clear 2 1020 74 10000 2.18 24 04:50 18.10.2020
6639 Clear 2 1020 77 10000 1.94 24 02:56 18.10.2020
6640 Clouds 3 1010 85 10000 1.95 28 01:39 18.10.2020
6641 Clouds 4 1020 75 10000 1.97 28 00:50 18.10.2020
6642 Clouds 4 1023 49 10000 1.97 28 00:32 18.10.2020
6643 Clouds 4 1019 77 10000 1.34 62 23:45 17.10.2020
6644 Clouds 5 1019 75 10000 1.91 25 23:23 17.10.2020
6645 Clouds 5 1019 75 10000 1.91 25 22:59 17.10.2020
6646 Clouds 5 1019 75 10000 1.91 25 22:40 17.10.2020
6647 Clouds 5 1019 74 10000 1.83 23 22:19 17.10.2020
6648 Clouds 7 1022 44 10000 1.83 23 21:44 17.10.2020
6649 Clouds 7 1022 39 10000 1.78 21 21:22 17.10.2020
6650 Clouds 8 1018 71 10000 0.89 53 20:48 17.10.2020
6651 Clouds 9 1016 47 10000 4.6 240 20:21 17.10.2020
6652 Clouds 9 1016 47 10000 4.6 240 20:21 17.10.2020
6653 Clouds 13 1016 47 10000 4.6 240 19:46 17.10.2020
6654 Clouds 13 1016 47 10000 4.6 240 19:24 17.10.2020
6655 Clouds 14 1016 44 10000 4.1 240 18:47 17.10.2020
6656 Clear 10 1016 44 10000 4.1 240 18:29 17.10.2020
6657 Clouds 11 1015 41 10000 4.1 230 17:59 17.10.2020
6658 Clouds 11 1015 38 10000 4.1 230 17:39 17.10.2020
6659 Clouds 11 1015 38 10000 4.1 230 17:20 17.10.2020
6660 Clear 12 1015 38 10000 4.6 230 16:48 17.10.2020
6661 Clear 12 1015 38 10000 4.6 230 16:22 17.10.2020
6662 Clear 11 1015 38 10000 3.1 220 15:43 17.10.2020
6663 Clear 15 1015 38 10000 3.1 220 15:23 17.10.2020
6664 Clear 14 1016 37 10000 2.1 240 14:59 17.10.2020
6665 Clear 14 1016 37 10000 1.5 0 14:38 17.10.2020
6666 Clouds 14 1016 37 10000 1.5 0 14:19 17.10.2020
6667 Clouds 12 1017 53 10000 1.5 190 13:45 17.10.2020
6668 Clouds 12 1017 53 10000 1.5 190 13:26 17.10.2020
6669 Clouds 11 1017 38 10000 1 0 12:58 17.10.2020
6670 Clouds 10 1017 61 10000 1 0 12:38 17.10.2020
6671 Clouds 11 1017 61 10000 1 0 12:18 17.10.2020
6672 Clouds 8 1018 41 10000 0.5 0 11:37 17.10.2020
6673 Clouds 7 1018 45 10000 0.5 0 11:18 17.10.2020
6674 Clouds 8 1020 16 10000 0.47 223 10:33 17.10.2020
6675 Clear 5 1006 89 10000 0.56 36 09:51 17.10.2020
6676 Clear 0 1005 87 10000 1.37 26 09:32 17.10.2020
6677 Clear 0 1005 89 10000 1.37 26 08:55 17.10.2020
6678 Clouds 0 1005 86 10000 1.25 18 08:24 17.10.2020
6679 Clouds 0 1005 89 10000 1.25 18 08:24 17.10.2020
6680 Clouds -1 1016 88 10000 0.89 57 07:44 17.10.2020
6681 Clouds -1 1017 85 10000 1.2 23 06:56 17.10.2020
6682 Clouds 0 1016 83 10000 1.18 19 05:31 17.10.2020
6683 Clouds 2 1021 46 10000 1.12 16 02:30 17.10.2020
6684 Clouds 3 1018 79 10000 1.14 9 01:55 17.10.2020
6685 Clouds 3 1018 80 10000 0.45 25 00:44 17.10.2020
6686 Clear 3 1018 75 10000 0.68 27 23:45 16.10.2020
6687 Clear 3 1018 75 10000 1.07 35 23:22 16.10.2020
6688 Clear 4 1018 76 10000 0.45 18 22:44 16.10.2020
6689 Clear 4 1022 45 10000 1.69 33 22:24 16.10.2020
6690 Clear 5 1017 75 10000 0.89 18 22:24 16.10.2020
6691 Clear 5 1017 74 10000 0.89 39 21:49 16.10.2020
6692 Clear 5 1017 73 10000 2.23 29 21:27 16.10.2020
6693 Clear 4 1017 72 10000 0.89 7 20:58 16.10.2020